<?xml version='1.0' encoding='UTF-8'?>
<gpx version="1.1" creator="https://www.komoot.de" xmlns="http://www.topografix.com/GPX/1/1" xmlns:xsi="http://www.w3.org/2001/XMLSchema-instance" xsi:schemaLocation="http://www.topografix.com/GPX/1/1 http://www.topografix.com/GPX/1/1/gpx.xsd">
  <metadata>
    <name>Ukraine Day 3 - Ostroh to Shepetivka</name>
    <author>
      <link href="https://www.komoot.de">
        <text>komoot</text>
        <type>text/html</type>
      </link>
    </author>
  </metadata>
  <trk>
    <name>Ukraine Day 3 - Ostroh to Shepetivka</name>
    <trkseg>
      <trkpt lat="50.325660" lon="26.513040">
        <ele>229.502466</ele>
        <time>2019-06-07T04:35:35.000Z</time>
      </trkpt>
      <trkpt lat="50.325560" lon="26.513123">
        <ele>229.502466</ele>
        <time>2019-06-07T04:35:38.000Z</time>
      </trkpt>
      <trkpt lat="50.325653" lon="26.513098">
        <ele>229.502466</ele>
        <time>2019-06-07T04:45:00.000Z</time>
      </trkpt>
      <trkpt lat="50.325610" lon="26.513226">
        <ele>229.502466</ele>
        <time>2019-06-07T04:45:54.000Z</time>
      </trkpt>
      <trkpt lat="50.325523" lon="26.513187">
        <ele>229.502466</ele>
        <time>2019-06-07T04:46:07.000Z</time>
      </trkpt>
      <trkpt lat="50.325275" lon="26.513306">
        <ele>229.502466</ele>
        <time>2019-06-07T04:46:36.000Z</time>
      </trkpt>
      <trkpt lat="50.325165" lon="26.513382">
        <ele>229.502466</ele>
        <time>2019-06-07T04:46:38.000Z</time>
      </trkpt>
      <trkpt lat="50.325043" lon="26.513462">
        <ele>229.495807</ele>
        <time>2019-06-07T04:46:40.000Z</time>
      </trkpt>
      <trkpt lat="50.324930" lon="26.513515">
        <ele>229.225430</ele>
        <time>2019-06-07T04:46:42.000Z</time>
      </trkpt>
      <trkpt lat="50.324814" lon="26.513552">
        <ele>228.954082</ele>
        <time>2019-06-07T04:46:44.000Z</time>
      </trkpt>
      <trkpt lat="50.324707" lon="26.513563">
        <ele>228.708293</ele>
        <time>2019-06-07T04:46:46.000Z</time>
      </trkpt>
      <trkpt lat="50.324600" lon="26.513605">
        <ele>228.455447</ele>
        <time>2019-06-07T04:46:49.000Z</time>
      </trkpt>
      <trkpt lat="50.324516" lon="26.513664">
        <ele>228.244433</ele>
        <time>2019-06-07T04:46:52.000Z</time>
      </trkpt>
      <trkpt lat="50.324425" lon="26.513733">
        <ele>228.012691</ele>
        <time>2019-06-07T04:46:56.000Z</time>
      </trkpt>
      <trkpt lat="50.324352" lon="26.513845">
        <ele>227.778463</ele>
        <time>2019-06-07T04:47:01.000Z</time>
      </trkpt>
      <trkpt lat="50.324253" lon="26.513895">
        <ele>227.540034</ele>
        <time>2019-06-07T04:47:05.000Z</time>
      </trkpt>
      <trkpt lat="50.324154" lon="26.513968">
        <ele>227.289221</ele>
        <time>2019-06-07T04:47:09.000Z</time>
      </trkpt>
      <trkpt lat="50.324165" lon="26.514118">
        <ele>227.068265</ele>
        <time>2019-06-07T04:47:15.000Z</time>
      </trkpt>
      <trkpt lat="50.324226" lon="26.514261">
        <ele>226.816584</ele>
        <time>2019-06-07T04:47:19.000Z</time>
      </trkpt>
      <trkpt lat="50.324265" lon="26.514440">
        <ele>226.539800</ele>
        <time>2019-06-07T04:47:23.000Z</time>
      </trkpt>
      <trkpt lat="50.324300" lon="26.514593">
        <ele>226.301959</ele>
        <time>2019-06-07T04:47:27.000Z</time>
      </trkpt>
      <trkpt lat="50.324356" lon="26.514744">
        <ele>226.046407</ele>
        <time>2019-06-07T04:47:31.000Z</time>
      </trkpt>
      <trkpt lat="50.324406" lon="26.514881">
        <ele>225.815474</ele>
        <time>2019-06-07T04:47:35.000Z</time>
      </trkpt>
      <trkpt lat="50.324436" lon="26.515050">
        <ele>225.558776</ele>
        <time>2019-06-07T04:47:39.000Z</time>
      </trkpt>
      <trkpt lat="50.324486" lon="26.515207">
        <ele>225.348376</ele>
        <time>2019-06-07T04:47:43.000Z</time>
      </trkpt>
      <trkpt lat="50.324540" lon="26.515364">
        <ele>225.243174</ele>
        <time>2019-06-07T04:47:47.000Z</time>
      </trkpt>
      <trkpt lat="50.324585" lon="26.515490">
        <ele>225.158004</ele>
        <time>2019-06-07T04:47:50.000Z</time>
      </trkpt>
      <trkpt lat="50.324623" lon="26.515661">
        <ele>225.051192</ele>
        <time>2019-06-07T04:47:54.000Z</time>
      </trkpt>
      <trkpt lat="50.324670" lon="26.515839">
        <ele>224.937561</ele>
        <time>2019-06-07T04:47:58.000Z</time>
      </trkpt>
      <trkpt lat="50.324722" lon="26.515993">
        <ele>224.834790</ele>
        <time>2019-06-07T04:48:01.000Z</time>
      </trkpt>
      <trkpt lat="50.324753" lon="26.516140">
        <ele>224.743464</ele>
        <time>2019-06-07T04:48:04.000Z</time>
      </trkpt>
      <trkpt lat="50.324790" lon="26.516275">
        <ele>224.656797</ele>
        <time>2019-06-07T04:48:07.000Z</time>
      </trkpt>
      <trkpt lat="50.324787" lon="26.516440">
        <ele>224.559421</ele>
        <time>2019-06-07T04:48:12.000Z</time>
      </trkpt>
      <trkpt lat="50.324700" lon="26.516487">
        <ele>224.474386</ele>
        <time>2019-06-07T04:48:16.000Z</time>
      </trkpt>
      <trkpt lat="50.324590" lon="26.516531">
        <ele>224.369484</ele>
        <time>2019-06-07T04:48:20.000Z</time>
      </trkpt>
      <trkpt lat="50.324474" lon="26.516590">
        <ele>224.256790</ele>
        <time>2019-06-07T04:48:24.000Z</time>
      </trkpt>
      <trkpt lat="50.324368" lon="26.516668">
        <ele>224.148575</ele>
        <time>2019-06-07T04:48:28.000Z</time>
      </trkpt>
      <trkpt lat="50.324284" lon="26.516726">
        <ele>224.063752</ele>
        <time>2019-06-07T04:48:31.000Z</time>
      </trkpt>
      <trkpt lat="50.324190" lon="26.516810">
        <ele>223.963754</ele>
        <time>2019-06-07T04:48:35.000Z</time>
      </trkpt>
      <trkpt lat="50.324085" lon="26.516897">
        <ele>223.853995</ele>
        <time>2019-06-07T04:48:39.000Z</time>
      </trkpt>
      <trkpt lat="50.324000" lon="26.517002">
        <ele>223.753968</ele>
        <time>2019-06-07T04:48:43.000Z</time>
      </trkpt>
      <trkpt lat="50.324036" lon="26.517140">
        <ele>223.733844</ele>
        <time>2019-06-07T04:48:47.000Z</time>
      </trkpt>
      <trkpt lat="50.324093" lon="26.517286">
        <ele>223.765307</ele>
        <time>2019-06-07T04:48:51.000Z</time>
      </trkpt>
      <trkpt lat="50.324140" lon="26.517450">
        <ele>223.798358</ele>
        <time>2019-06-07T04:48:55.000Z</time>
      </trkpt>
      <trkpt lat="50.324173" lon="26.517622">
        <ele>223.831377</ele>
        <time>2019-06-07T04:48:59.000Z</time>
      </trkpt>
      <trkpt lat="50.324196" lon="26.517763">
        <ele>223.858133</ele>
        <time>2019-06-07T04:49:02.000Z</time>
      </trkpt>
      <trkpt lat="50.324226" lon="26.517933">
        <ele>223.890560</ele>
        <time>2019-06-07T04:49:06.000Z</time>
      </trkpt>
      <trkpt lat="50.324234" lon="26.518074">
        <ele>223.916585</ele>
        <time>2019-06-07T04:49:10.000Z</time>
      </trkpt>
      <trkpt lat="50.324260" lon="26.518244">
        <ele>223.948725</ele>
        <time>2019-06-07T04:49:15.000Z</time>
      </trkpt>
      <trkpt lat="50.324303" lon="26.518423">
        <ele>223.983887</ele>
        <time>2019-06-07T04:49:19.000Z</time>
      </trkpt>
      <trkpt lat="50.324330" lon="26.518602">
        <ele>224.017702</ele>
        <time>2019-06-07T04:49:22.000Z</time>
      </trkpt>
      <trkpt lat="50.324360" lon="26.518785">
        <ele>224.052438</ele>
        <time>2019-06-07T04:49:25.000Z</time>
      </trkpt>
      <trkpt lat="50.324398" lon="26.518974">
        <ele>224.088869</ele>
        <time>2019-06-07T04:49:28.000Z</time>
      </trkpt>
      <trkpt lat="50.324420" lon="26.519110">
        <ele>224.114663</ele>
        <time>2019-06-07T04:49:30.000Z</time>
      </trkpt>
      <trkpt lat="50.324460" lon="26.519243">
        <ele>224.141692</ele>
        <time>2019-06-07T04:49:32.000Z</time>
      </trkpt>
      <trkpt lat="50.324493" lon="26.519373">
        <ele>224.167413</ele>
        <time>2019-06-07T04:49:34.000Z</time>
      </trkpt>
      <trkpt lat="50.324543" lon="26.519567">
        <ele>224.205876</ele>
        <time>2019-06-07T04:49:37.000Z</time>
      </trkpt>
      <trkpt lat="50.324585" lon="26.519741">
        <ele>224.246002</ele>
        <time>2019-06-07T04:49:40.000Z</time>
      </trkpt>
      <trkpt lat="50.324615" lon="26.519917">
        <ele>224.324682</ele>
        <time>2019-06-07T04:49:43.000Z</time>
      </trkpt>
      <trkpt lat="50.324657" lon="26.520067">
        <ele>224.395426</ele>
        <time>2019-06-07T04:49:46.000Z</time>
      </trkpt>
      <trkpt lat="50.324696" lon="26.520212">
        <ele>224.463384</ele>
        <time>2019-06-07T04:49:49.000Z</time>
      </trkpt>
      <trkpt lat="50.324734" lon="26.520388">
        <ele>224.543630</ele>
        <time>2019-06-07T04:49:52.000Z</time>
      </trkpt>
      <trkpt lat="50.324780" lon="26.520560">
        <ele>224.624174</ele>
        <time>2019-06-07T04:49:55.000Z</time>
      </trkpt>
      <trkpt lat="50.324818" lon="26.520721">
        <ele>224.698312</ele>
        <time>2019-06-07T04:49:58.000Z</time>
      </trkpt>
      <trkpt lat="50.324852" lon="26.520876">
        <ele>224.769100</ele>
        <time>2019-06-07T04:50:01.000Z</time>
      </trkpt>
      <trkpt lat="50.324898" lon="26.521053">
        <ele>224.851639</ele>
        <time>2019-06-07T04:50:04.000Z</time>
      </trkpt>
      <trkpt lat="50.324913" lon="26.521240">
        <ele>224.933042</ele>
        <time>2019-06-07T04:50:07.000Z</time>
      </trkpt>
      <trkpt lat="50.324950" lon="26.521437">
        <ele>225.021734</ele>
        <time>2019-06-07T04:50:10.000Z</time>
      </trkpt>
      <trkpt lat="50.324990" lon="26.521610">
        <ele>225.101204</ele>
        <time>2019-06-07T04:50:13.000Z</time>
      </trkpt>
      <trkpt lat="50.325027" lon="26.521772">
        <ele>225.175516</ele>
        <time>2019-06-07T04:50:16.000Z</time>
      </trkpt>
      <trkpt lat="50.325073" lon="26.521960">
        <ele>225.262475</ele>
        <time>2019-06-07T04:50:19.000Z</time>
      </trkpt>
      <trkpt lat="50.325110" lon="26.522131">
        <ele>225.340458</ele>
        <time>2019-06-07T04:50:22.000Z</time>
      </trkpt>
      <trkpt lat="50.325146" lon="26.522287">
        <ele>225.412102</ele>
        <time>2019-06-07T04:50:25.000Z</time>
      </trkpt>
      <trkpt lat="50.325190" lon="26.522453">
        <ele>225.493761</ele>
        <time>2019-06-07T04:50:28.000Z</time>
      </trkpt>
      <trkpt lat="50.325237" lon="26.522620">
        <ele>225.581116</ele>
        <time>2019-06-07T04:50:31.000Z</time>
      </trkpt>
      <trkpt lat="50.325275" lon="26.522802">
        <ele>225.672769</ele>
        <time>2019-06-07T04:50:34.000Z</time>
      </trkpt>
      <trkpt lat="50.325245" lon="26.522947">
        <ele>225.745725</ele>
        <time>2019-06-07T04:50:37.000Z</time>
      </trkpt>
      <trkpt lat="50.325184" lon="26.523096">
        <ele>225.830446</ele>
        <time>2019-06-07T04:50:41.000Z</time>
      </trkpt>
      <trkpt lat="50.325115" lon="26.523243">
        <ele>225.917776</ele>
        <time>2019-06-07T04:50:45.000Z</time>
      </trkpt>
      <trkpt lat="50.325016" lon="26.523333">
        <ele>226.003593</ele>
        <time>2019-06-07T04:50:49.000Z</time>
      </trkpt>
      <trkpt lat="50.324913" lon="26.523352">
        <ele>226.081348</ele>
        <time>2019-06-07T04:50:52.000Z</time>
      </trkpt>
      <trkpt lat="50.324814" lon="26.523384">
        <ele>226.157133</ele>
        <time>2019-06-07T04:50:55.000Z</time>
      </trkpt>
      <trkpt lat="50.324720" lon="26.523440">
        <ele>226.232532</ele>
        <time>2019-06-07T04:50:58.000Z</time>
      </trkpt>
      <trkpt lat="50.324610" lon="26.523504">
        <ele>226.320506</ele>
        <time>2019-06-07T04:51:01.000Z</time>
      </trkpt>
      <trkpt lat="50.324497" lon="26.523575">
        <ele>226.411786</ele>
        <time>2019-06-07T04:51:04.000Z</time>
      </trkpt>
      <trkpt lat="50.324383" lon="26.523626">
        <ele>226.500671</ele>
        <time>2019-06-07T04:51:07.000Z</time>
      </trkpt>
      <trkpt lat="50.324257" lon="26.523668">
        <ele>226.597251</ele>
        <time>2019-06-07T04:51:10.000Z</time>
      </trkpt>
      <trkpt lat="50.324173" lon="26.523712">
        <ele>226.663655</ele>
        <time>2019-06-07T04:51:12.000Z</time>
      </trkpt>
      <trkpt lat="50.324055" lon="26.523790">
        <ele>226.759677</ele>
        <time>2019-06-07T04:51:15.000Z</time>
      </trkpt>
      <trkpt lat="50.323950" lon="26.523850">
        <ele>226.808051</ele>
        <time>2019-06-07T04:51:18.000Z</time>
      </trkpt>
      <trkpt lat="50.323833" lon="26.523912">
        <ele>226.823479</ele>
        <time>2019-06-07T04:51:21.000Z</time>
      </trkpt>
      <trkpt lat="50.323715" lon="26.523980">
        <ele>226.839183</ele>
        <time>2019-06-07T04:51:24.000Z</time>
      </trkpt>
      <trkpt lat="50.323593" lon="26.524040">
        <ele>226.855155</ele>
        <time>2019-06-07T04:51:27.000Z</time>
      </trkpt>
      <trkpt lat="50.323475" lon="26.524100">
        <ele>226.870651</ele>
        <time>2019-06-07T04:51:30.000Z</time>
      </trkpt>
      <trkpt lat="50.323357" lon="26.524168">
        <ele>226.886356</ele>
        <time>2019-06-07T04:51:33.000Z</time>
      </trkpt>
      <trkpt lat="50.323230" lon="26.524237">
        <ele>226.903146</ele>
        <time>2019-06-07T04:51:36.000Z</time>
      </trkpt>
      <trkpt lat="50.323112" lon="26.524311">
        <ele>226.919022</ele>
        <time>2019-06-07T04:51:39.000Z</time>
      </trkpt>
      <trkpt lat="50.322990" lon="26.524372">
        <ele>226.935018</ele>
        <time>2019-06-07T04:51:42.000Z</time>
      </trkpt>
      <trkpt lat="50.322872" lon="26.524445">
        <ele>226.950864</ele>
        <time>2019-06-07T04:51:45.000Z</time>
      </trkpt>
      <trkpt lat="50.322758" lon="26.524508">
        <ele>226.965964</ele>
        <time>2019-06-07T04:51:48.000Z</time>
      </trkpt>
      <trkpt lat="50.322670" lon="26.524553">
        <ele>226.977526</ele>
        <time>2019-06-07T04:51:50.000Z</time>
      </trkpt>
      <trkpt lat="50.322544" lon="26.524616">
        <ele>226.994047</ele>
        <time>2019-06-07T04:51:53.000Z</time>
      </trkpt>
      <trkpt lat="50.322420" lon="26.524687">
        <ele>227.010537</ele>
        <time>2019-06-07T04:51:56.000Z</time>
      </trkpt>
      <trkpt lat="50.322300" lon="26.524760">
        <ele>227.029423</ele>
        <time>2019-06-07T04:51:59.000Z</time>
      </trkpt>
      <trkpt lat="50.322216" lon="26.524803">
        <ele>227.071799</ele>
        <time>2019-06-07T04:52:01.000Z</time>
      </trkpt>
      <trkpt lat="50.322132" lon="26.524860">
        <ele>227.115696</ele>
        <time>2019-06-07T04:52:03.000Z</time>
      </trkpt>
      <trkpt lat="50.322018" lon="26.524921">
        <ele>227.173463</ele>
        <time>2019-06-07T04:52:06.000Z</time>
      </trkpt>
      <trkpt lat="50.321896" lon="26.525017">
        <ele>227.238933</ele>
        <time>2019-06-07T04:52:09.000Z</time>
      </trkpt>
      <trkpt lat="50.321815" lon="26.525084">
        <ele>227.282857</ele>
        <time>2019-06-07T04:52:11.000Z</time>
      </trkpt>
      <trkpt lat="50.321705" lon="26.525180">
        <ele>227.343240</ele>
        <time>2019-06-07T04:52:14.000Z</time>
      </trkpt>
      <trkpt lat="50.321594" lon="26.525276">
        <ele>227.404042</ele>
        <time>2019-06-07T04:52:17.000Z</time>
      </trkpt>
      <trkpt lat="50.321487" lon="26.525366">
        <ele>227.462281</ele>
        <time>2019-06-07T04:52:20.000Z</time>
      </trkpt>
      <trkpt lat="50.321384" lon="26.525448">
        <ele>227.517686</ele>
        <time>2019-06-07T04:52:23.000Z</time>
      </trkpt>
      <trkpt lat="50.321285" lon="26.525555">
        <ele>227.575364</ele>
        <time>2019-06-07T04:52:26.000Z</time>
      </trkpt>
      <trkpt lat="50.321186" lon="26.525658">
        <ele>227.632356</ele>
        <time>2019-06-07T04:52:29.000Z</time>
      </trkpt>
      <trkpt lat="50.321090" lon="26.525750">
        <ele>227.686323</ele>
        <time>2019-06-07T04:52:32.000Z</time>
      </trkpt>
      <trkpt lat="50.320995" lon="26.525856">
        <ele>227.742256</ele>
        <time>2019-06-07T04:52:35.000Z</time>
      </trkpt>
      <trkpt lat="50.320900" lon="26.525972">
        <ele>227.800018</ele>
        <time>2019-06-07T04:52:38.000Z</time>
      </trkpt>
      <trkpt lat="50.320797" lon="26.526093">
        <ele>227.861758</ele>
        <time>2019-06-07T04:52:41.000Z</time>
      </trkpt>
      <trkpt lat="50.320724" lon="26.526175">
        <ele>227.863738</ele>
        <time>2019-06-07T04:52:43.000Z</time>
      </trkpt>
      <trkpt lat="50.320650" lon="26.526266">
        <ele>227.798006</ele>
        <time>2019-06-07T04:52:45.000Z</time>
      </trkpt>
      <trkpt lat="50.320564" lon="26.526354">
        <ele>227.726236</ele>
        <time>2019-06-07T04:52:47.000Z</time>
      </trkpt>
      <trkpt lat="50.320484" lon="26.526442">
        <ele>227.657936</ele>
        <time>2019-06-07T04:52:49.000Z</time>
      </trkpt>
      <trkpt lat="50.320404" lon="26.526531">
        <ele>227.589380</ele>
        <time>2019-06-07T04:52:51.000Z</time>
      </trkpt>
      <trkpt lat="50.320328" lon="26.526623">
        <ele>227.522271</ele>
        <time>2019-06-07T04:52:53.000Z</time>
      </trkpt>
      <trkpt lat="50.320255" lon="26.526710">
        <ele>227.458184</ele>
        <time>2019-06-07T04:52:55.000Z</time>
      </trkpt>
      <trkpt lat="50.320170" lon="26.526794">
        <ele>227.387965</ele>
        <time>2019-06-07T04:52:57.000Z</time>
      </trkpt>
      <trkpt lat="50.320095" lon="26.526878">
        <ele>227.323547</ele>
        <time>2019-06-07T04:52:59.000Z</time>
      </trkpt>
      <trkpt lat="50.320020" lon="26.526964">
        <ele>227.258607</ele>
        <time>2019-06-07T04:53:01.000Z</time>
      </trkpt>
      <trkpt lat="50.319940" lon="26.527054">
        <ele>227.189790</ele>
        <time>2019-06-07T04:53:03.000Z</time>
      </trkpt>
      <trkpt lat="50.319866" lon="26.527145">
        <ele>227.124058</ele>
        <time>2019-06-07T04:53:05.000Z</time>
      </trkpt>
      <trkpt lat="50.319790" lon="26.527235">
        <ele>227.057491</ele>
        <time>2019-06-07T04:53:07.000Z</time>
      </trkpt>
      <trkpt lat="50.319714" lon="26.527313">
        <ele>226.994010</ele>
        <time>2019-06-07T04:53:09.000Z</time>
      </trkpt>
      <trkpt lat="50.319607" lon="26.527405">
        <ele>226.908730</ele>
        <time>2019-06-07T04:53:12.000Z</time>
      </trkpt>
      <trkpt lat="50.319520" lon="26.527510">
        <ele>226.831994</ele>
        <time>2019-06-07T04:53:15.000Z</time>
      </trkpt>
      <trkpt lat="50.319424" lon="26.527618">
        <ele>226.749414</ele>
        <time>2019-06-07T04:53:18.000Z</time>
      </trkpt>
      <trkpt lat="50.319336" lon="26.527714">
        <ele>226.674489</ele>
        <time>2019-06-07T04:53:21.000Z</time>
      </trkpt>
      <trkpt lat="50.319244" lon="26.527800">
        <ele>226.597991</ele>
        <time>2019-06-07T04:53:24.000Z</time>
      </trkpt>
      <trkpt lat="50.319170" lon="26.527891">
        <ele>226.528866</ele>
        <time>2019-06-07T04:53:27.000Z</time>
      </trkpt>
      <trkpt lat="50.319100" lon="26.527987">
        <ele>226.460506</ele>
        <time>2019-06-07T04:53:30.000Z</time>
      </trkpt>
      <trkpt lat="50.319010" lon="26.528076">
        <ele>226.382305</ele>
        <time>2019-06-07T04:53:33.000Z</time>
      </trkpt>
      <trkpt lat="50.318910" lon="26.528168">
        <ele>226.297097</ele>
        <time>2019-06-07T04:53:36.000Z</time>
      </trkpt>
      <trkpt lat="50.318800" lon="26.528260">
        <ele>226.205478</ele>
        <time>2019-06-07T04:53:39.000Z</time>
      </trkpt>
      <trkpt lat="50.318703" lon="26.528355">
        <ele>226.121425</ele>
        <time>2019-06-07T04:53:42.000Z</time>
      </trkpt>
      <trkpt lat="50.318626" lon="26.528446">
        <ele>226.050553</ele>
        <time>2019-06-07T04:53:45.000Z</time>
      </trkpt>
      <trkpt lat="50.318523" lon="26.528538">
        <ele>225.963437</ele>
        <time>2019-06-07T04:53:48.000Z</time>
      </trkpt>
      <trkpt lat="50.318424" lon="26.528635">
        <ele>225.877640</ele>
        <time>2019-06-07T04:53:51.000Z</time>
      </trkpt>
      <trkpt lat="50.318325" lon="26.528755">
        <ele>225.785665</ele>
        <time>2019-06-07T04:53:54.000Z</time>
      </trkpt>
      <trkpt lat="50.318220" lon="26.528870">
        <ele>225.691529</ele>
        <time>2019-06-07T04:53:57.000Z</time>
      </trkpt>
      <trkpt lat="50.318110" lon="26.528976">
        <ele>225.596639</ele>
        <time>2019-06-07T04:54:00.000Z</time>
      </trkpt>
      <trkpt lat="50.318010" lon="26.529085">
        <ele>225.507126</ele>
        <time>2019-06-07T04:54:03.000Z</time>
      </trkpt>
      <trkpt lat="50.317917" lon="26.529210">
        <ele>225.417085</ele>
        <time>2019-06-07T04:54:06.000Z</time>
      </trkpt>
      <trkpt lat="50.317820" lon="26.529300">
        <ele>225.334251</ele>
        <time>2019-06-07T04:54:09.000Z</time>
      </trkpt>
      <trkpt lat="50.317703" lon="26.529392">
        <ele>225.350346</ele>
        <time>2019-06-07T04:54:12.000Z</time>
      </trkpt>
      <trkpt lat="50.317600" lon="26.529510">
        <ele>225.402861</ele>
        <time>2019-06-07T04:54:15.000Z</time>
      </trkpt>
      <trkpt lat="50.317486" lon="26.529621">
        <ele>225.458100</ele>
        <time>2019-06-07T04:54:18.000Z</time>
      </trkpt>
      <trkpt lat="50.317413" lon="26.529705">
        <ele>225.495376</ele>
        <time>2019-06-07T04:54:20.000Z</time>
      </trkpt>
      <trkpt lat="50.317310" lon="26.529837">
        <ele>225.550144</ele>
        <time>2019-06-07T04:54:23.000Z</time>
      </trkpt>
      <trkpt lat="50.317192" lon="26.529947">
        <ele>225.606652</ele>
        <time>2019-06-07T04:54:26.000Z</time>
      </trkpt>
      <trkpt lat="50.317080" lon="26.530056">
        <ele>225.660915</ele>
        <time>2019-06-07T04:54:29.000Z</time>
      </trkpt>
      <trkpt lat="50.317005" lon="26.530130">
        <ele>225.697392</ele>
        <time>2019-06-07T04:54:31.000Z</time>
      </trkpt>
      <trkpt lat="50.316925" lon="26.530218">
        <ele>225.737622</ele>
        <time>2019-06-07T04:54:33.000Z</time>
      </trkpt>
      <trkpt lat="50.316850" lon="26.530300">
        <ele>225.775262</ele>
        <time>2019-06-07T04:54:35.000Z</time>
      </trkpt>
      <trkpt lat="50.316772" lon="26.530380">
        <ele>225.813630</ele>
        <time>2019-06-07T04:54:37.000Z</time>
      </trkpt>
      <trkpt lat="50.316696" lon="26.530460">
        <ele>225.851312</ele>
        <time>2019-06-07T04:54:39.000Z</time>
      </trkpt>
      <trkpt lat="50.316616" lon="26.530542">
        <ele>225.890657</ele>
        <time>2019-06-07T04:54:41.000Z</time>
      </trkpt>
      <trkpt lat="50.316532" lon="26.530619">
        <ele>225.930709</ele>
        <time>2019-06-07T04:54:43.000Z</time>
      </trkpt>
      <trkpt lat="50.316456" lon="26.530699">
        <ele>225.968391</ele>
        <time>2019-06-07T04:54:45.000Z</time>
      </trkpt>
      <trkpt lat="50.316380" lon="26.530780">
        <ele>226.006221</ele>
        <time>2019-06-07T04:54:47.000Z</time>
      </trkpt>
      <trkpt lat="50.316265" lon="26.530890">
        <ele>226.044569</ele>
        <time>2019-06-07T04:54:50.000Z</time>
      </trkpt>
      <trkpt lat="50.316177" lon="26.530964">
        <ele>226.024490</ele>
        <time>2019-06-07T04:54:52.000Z</time>
      </trkpt>
      <trkpt lat="50.316093" lon="26.531033">
        <ele>226.005422</ele>
        <time>2019-06-07T04:54:54.000Z</time>
      </trkpt>
      <trkpt lat="50.315983" lon="26.531145">
        <ele>225.979046</ele>
        <time>2019-06-07T04:54:57.000Z</time>
      </trkpt>
      <trkpt lat="50.315872" lon="26.531261">
        <ele>225.952220</ele>
        <time>2019-06-07T04:55:00.000Z</time>
      </trkpt>
      <trkpt lat="50.315790" lon="26.531326">
        <ele>225.933745</ele>
        <time>2019-06-07T04:55:02.000Z</time>
      </trkpt>
      <trkpt lat="50.315674" lon="26.531435">
        <ele>225.906550</ele>
        <time>2019-06-07T04:55:05.000Z</time>
      </trkpt>
      <trkpt lat="50.315598" lon="26.531511">
        <ele>225.888423</ele>
        <time>2019-06-07T04:55:07.000Z</time>
      </trkpt>
      <trkpt lat="50.315480" lon="26.531616">
        <ele>225.861140</ele>
        <time>2019-06-07T04:55:10.000Z</time>
      </trkpt>
      <trkpt lat="50.315403" lon="26.531689">
        <ele>225.843045</ele>
        <time>2019-06-07T04:55:12.000Z</time>
      </trkpt>
      <trkpt lat="50.315327" lon="26.531763">
        <ele>225.825055</ele>
        <time>2019-06-07T04:55:14.000Z</time>
      </trkpt>
      <trkpt lat="50.315216" lon="26.531874">
        <ele>225.798580</ele>
        <time>2019-06-07T04:55:17.000Z</time>
      </trkpt>
      <trkpt lat="50.315136" lon="26.531940">
        <ele>225.780403</ele>
        <time>2019-06-07T04:55:19.000Z</time>
      </trkpt>
      <trkpt lat="50.315020" lon="26.532042">
        <ele>225.753659</ele>
        <time>2019-06-07T04:55:22.000Z</time>
      </trkpt>
      <trkpt lat="50.314945" lon="26.532120">
        <ele>225.735560</ele>
        <time>2019-06-07T04:55:24.000Z</time>
      </trkpt>
      <trkpt lat="50.314870" lon="26.532200">
        <ele>225.717318</ele>
        <time>2019-06-07T04:55:26.000Z</time>
      </trkpt>
      <trkpt lat="50.314762" lon="26.532291">
        <ele>225.692664</ele>
        <time>2019-06-07T04:55:29.000Z</time>
      </trkpt>
      <trkpt lat="50.314686" lon="26.532370">
        <ele>225.785619</ele>
        <time>2019-06-07T04:55:31.000Z</time>
      </trkpt>
      <trkpt lat="50.314575" lon="26.532484">
        <ele>225.966875</ele>
        <time>2019-06-07T04:55:34.000Z</time>
      </trkpt>
      <trkpt lat="50.314503" lon="26.532566">
        <ele>226.088440</ele>
        <time>2019-06-07T04:55:36.000Z</time>
      </trkpt>
      <trkpt lat="50.314392" lon="26.532667">
        <ele>226.263736</ele>
        <time>2019-06-07T04:55:39.000Z</time>
      </trkpt>
      <trkpt lat="50.314285" lon="26.532793">
        <ele>226.446541</ele>
        <time>2019-06-07T04:55:42.000Z</time>
      </trkpt>
      <trkpt lat="50.314180" lon="26.532906">
        <ele>226.620509</ele>
        <time>2019-06-07T04:55:45.000Z</time>
      </trkpt>
      <trkpt lat="50.314068" lon="26.533020">
        <ele>226.802909</ele>
        <time>2019-06-07T04:55:48.000Z</time>
      </trkpt>
      <trkpt lat="50.313960" lon="26.533136">
        <ele>226.981735</ele>
        <time>2019-06-07T04:55:51.000Z</time>
      </trkpt>
      <trkpt lat="50.313850" lon="26.533266">
        <ele>227.169911</ele>
        <time>2019-06-07T04:55:54.000Z</time>
      </trkpt>
      <trkpt lat="50.313750" lon="26.533388">
        <ele>227.343007</ele>
        <time>2019-06-07T04:55:57.000Z</time>
      </trkpt>
      <trkpt lat="50.313644" lon="26.533485">
        <ele>227.510649</ele>
        <time>2019-06-07T04:56:00.000Z</time>
      </trkpt>
      <trkpt lat="50.313538" lon="26.533590">
        <ele>227.681916</ele>
        <time>2019-06-07T04:56:03.000Z</time>
      </trkpt>
      <trkpt lat="50.313435" lon="26.533691">
        <ele>227.847859</ele>
        <time>2019-06-07T04:56:06.000Z</time>
      </trkpt>
      <trkpt lat="50.313330" lon="26.533798">
        <ele>228.018919</ele>
        <time>2019-06-07T04:56:09.000Z</time>
      </trkpt>
      <trkpt lat="50.313236" lon="26.533909">
        <ele>228.168815</ele>
        <time>2019-06-07T04:56:12.000Z</time>
      </trkpt>
      <trkpt lat="50.313133" lon="26.534012">
        <ele>228.283995</ele>
        <time>2019-06-07T04:56:15.000Z</time>
      </trkpt>
      <trkpt lat="50.313026" lon="26.534128">
        <ele>228.406648</ele>
        <time>2019-06-07T04:56:18.000Z</time>
      </trkpt>
      <trkpt lat="50.312920" lon="26.534233">
        <ele>228.524859</ele>
        <time>2019-06-07T04:56:21.000Z</time>
      </trkpt>
      <trkpt lat="50.312813" lon="26.534338">
        <ele>228.643868</ele>
        <time>2019-06-07T04:56:24.000Z</time>
      </trkpt>
      <trkpt lat="50.312737" lon="26.534410">
        <ele>228.727584</ele>
        <time>2019-06-07T04:56:26.000Z</time>
      </trkpt>
      <trkpt lat="50.312630" lon="26.534521">
        <ele>228.848550</ele>
        <time>2019-06-07T04:56:29.000Z</time>
      </trkpt>
      <trkpt lat="50.312542" lon="26.534597">
        <ele>228.943265</ele>
        <time>2019-06-07T04:56:33.000Z</time>
      </trkpt>
      <trkpt lat="50.312477" lon="26.534716">
        <ele>229.037512</ele>
        <time>2019-06-07T04:56:37.000Z</time>
      </trkpt>
      <trkpt lat="50.312378" lon="26.534798">
        <ele>229.143065</ele>
        <time>2019-06-07T04:56:41.000Z</time>
      </trkpt>
      <trkpt lat="50.312283" lon="26.534900">
        <ele>229.251625</ele>
        <time>2019-06-07T04:56:45.000Z</time>
      </trkpt>
      <trkpt lat="50.312200" lon="26.534992">
        <ele>229.347464</ele>
        <time>2019-06-07T04:56:48.000Z</time>
      </trkpt>
      <trkpt lat="50.312107" lon="26.535107">
        <ele>229.459147</ele>
        <time>2019-06-07T04:56:51.000Z</time>
      </trkpt>
      <trkpt lat="50.312020" lon="26.535204">
        <ele>229.559803</ele>
        <time>2019-06-07T04:56:54.000Z</time>
      </trkpt>
      <trkpt lat="50.311935" lon="26.535275">
        <ele>229.650598</ele>
        <time>2019-06-07T04:56:57.000Z</time>
      </trkpt>
      <trkpt lat="50.311855" lon="26.535357">
        <ele>229.740712</ele>
        <time>2019-06-07T04:57:04.000Z</time>
      </trkpt>
      <trkpt lat="50.311768" lon="26.535429">
        <ele>229.833454</ele>
        <time>2019-06-07T04:57:15.000Z</time>
      </trkpt>
      <trkpt lat="50.311657" lon="26.535524">
        <ele>229.786505</ele>
        <time>2019-06-07T04:57:19.000Z</time>
      </trkpt>
      <trkpt lat="50.311570" lon="26.535612">
        <ele>229.740437</ele>
        <time>2019-06-07T04:57:22.000Z</time>
      </trkpt>
      <trkpt lat="50.311478" lon="26.535711">
        <ele>229.690785</ele>
        <time>2019-06-07T04:57:25.000Z</time>
      </trkpt>
      <trkpt lat="50.311370" lon="26.535797">
        <ele>229.636893</ele>
        <time>2019-06-07T04:57:28.000Z</time>
      </trkpt>
      <trkpt lat="50.311268" lon="26.535921">
        <ele>229.579457</ele>
        <time>2019-06-07T04:57:31.000Z</time>
      </trkpt>
      <trkpt lat="50.311203" lon="26.536020">
        <ele>229.539125</ele>
        <time>2019-06-07T04:57:33.000Z</time>
      </trkpt>
      <trkpt lat="50.311127" lon="26.536097">
        <ele>229.498862</ele>
        <time>2019-06-07T04:57:35.000Z</time>
      </trkpt>
      <trkpt lat="50.311010" lon="26.536190">
        <ele>229.440501</ele>
        <time>2019-06-07T04:57:38.000Z</time>
      </trkpt>
      <trkpt lat="50.310905" lon="26.536299">
        <ele>229.384467</ele>
        <time>2019-06-07T04:57:41.000Z</time>
      </trkpt>
      <trkpt lat="50.310802" lon="26.536410">
        <ele>229.328852</ele>
        <time>2019-06-07T04:57:44.000Z</time>
      </trkpt>
      <trkpt lat="50.310696" lon="26.536528">
        <ele>229.271004</ele>
        <time>2019-06-07T04:57:47.000Z</time>
      </trkpt>
      <trkpt lat="50.310585" lon="26.536650">
        <ele>229.210684</ele>
        <time>2019-06-07T04:57:50.000Z</time>
      </trkpt>
      <trkpt lat="50.310505" lon="26.536732">
        <ele>229.168155</ele>
        <time>2019-06-07T04:57:52.000Z</time>
      </trkpt>
      <trkpt lat="50.310430" lon="26.536802">
        <ele>229.129319</ele>
        <time>2019-06-07T04:57:54.000Z</time>
      </trkpt>
      <trkpt lat="50.310352" lon="26.536882">
        <ele>229.087846</ele>
        <time>2019-06-07T04:57:56.000Z</time>
      </trkpt>
      <trkpt lat="50.310276" lon="26.536959">
        <ele>229.047583</ele>
        <time>2019-06-07T04:57:58.000Z</time>
      </trkpt>
      <trkpt lat="50.310200" lon="26.537039">
        <ele>229.084007</ele>
        <time>2019-06-07T04:58:00.000Z</time>
      </trkpt>
      <trkpt lat="50.310090" lon="26.537150">
        <ele>229.162252</ele>
        <time>2019-06-07T04:58:03.000Z</time>
      </trkpt>
      <trkpt lat="50.310013" lon="26.537233">
        <ele>229.218147</ele>
        <time>2019-06-07T04:58:05.000Z</time>
      </trkpt>
      <trkpt lat="50.309940" lon="26.537312">
        <ele>229.271205</ele>
        <time>2019-06-07T04:58:07.000Z</time>
      </trkpt>
      <trkpt lat="50.309856" lon="26.537382">
        <ele>229.328100</ele>
        <time>2019-06-07T04:58:09.000Z</time>
      </trkpt>
      <trkpt lat="50.309780" lon="26.537455">
        <ele>229.381411</ele>
        <time>2019-06-07T04:58:11.000Z</time>
      </trkpt>
      <trkpt lat="50.309660" lon="26.537560">
        <ele>229.463604</ele>
        <time>2019-06-07T04:58:14.000Z</time>
      </trkpt>
      <trkpt lat="50.309547" lon="26.537663">
        <ele>229.541783</ele>
        <time>2019-06-07T04:58:17.000Z</time>
      </trkpt>
      <trkpt lat="50.309467" lon="26.537737">
        <ele>229.597340</ele>
        <time>2019-06-07T04:58:19.000Z</time>
      </trkpt>
      <trkpt lat="50.309395" lon="26.537817">
        <ele>229.650127</ele>
        <time>2019-06-07T04:58:21.000Z</time>
      </trkpt>
      <trkpt lat="50.309320" lon="26.537897">
        <ele>229.704388</ele>
        <time>2019-06-07T04:58:23.000Z</time>
      </trkpt>
      <trkpt lat="50.309216" lon="26.538006">
        <ele>229.779216</ele>
        <time>2019-06-07T04:58:26.000Z</time>
      </trkpt>
      <trkpt lat="50.309105" lon="26.538110">
        <ele>229.856560</ele>
        <time>2019-06-07T04:58:29.000Z</time>
      </trkpt>
      <trkpt lat="50.308990" lon="26.538225">
        <ele>229.938147</ele>
        <time>2019-06-07T04:58:32.000Z</time>
      </trkpt>
      <trkpt lat="50.308914" lon="26.538303">
        <ele>229.992480</ele>
        <time>2019-06-07T04:58:34.000Z</time>
      </trkpt>
      <trkpt lat="50.308800" lon="26.538406">
        <ele>230.071177</ele>
        <time>2019-06-07T04:58:37.000Z</time>
      </trkpt>
      <trkpt lat="50.308723" lon="26.538490">
        <ele>230.138290</ele>
        <time>2019-06-07T04:58:39.000Z</time>
      </trkpt>
      <trkpt lat="50.308647" lon="26.538567">
        <ele>230.241705</ele>
        <time>2019-06-07T04:58:41.000Z</time>
      </trkpt>
      <trkpt lat="50.308533" lon="26.538652">
        <ele>230.385954</ele>
        <time>2019-06-07T04:58:44.000Z</time>
      </trkpt>
      <trkpt lat="50.308445" lon="26.538760">
        <ele>230.513689</ele>
        <time>2019-06-07T04:58:47.000Z</time>
      </trkpt>
      <trkpt lat="50.308437" lon="26.538904">
        <ele>230.619150</ele>
        <time>2019-06-07T04:58:50.000Z</time>
      </trkpt>
      <trkpt lat="50.308450" lon="26.539078">
        <ele>230.746969</ele>
        <time>2019-06-07T04:58:54.000Z</time>
      </trkpt>
      <trkpt lat="50.308483" lon="26.539234">
        <ele>230.866871</ele>
        <time>2019-06-07T04:58:58.000Z</time>
      </trkpt>
      <trkpt lat="50.308517" lon="26.539404">
        <ele>230.996845</ele>
        <time>2019-06-07T04:59:02.000Z</time>
      </trkpt>
      <trkpt lat="50.308550" lon="26.539545">
        <ele>231.106411</ele>
        <time>2019-06-07T04:59:06.000Z</time>
      </trkpt>
      <trkpt lat="50.308563" lon="26.539703">
        <ele>231.222643</ele>
        <time>2019-06-07T04:59:10.000Z</time>
      </trkpt>
      <trkpt lat="50.308624" lon="26.539824">
        <ele>231.335117</ele>
        <time>2019-06-07T04:59:13.000Z</time>
      </trkpt>
      <trkpt lat="50.308712" lon="26.539959">
        <ele>231.475861</ele>
        <time>2019-06-07T04:59:17.000Z</time>
      </trkpt>
      <trkpt lat="50.308777" lon="26.540102">
        <ele>231.603923</ele>
        <time>2019-06-07T04:59:20.000Z</time>
      </trkpt>
      <trkpt lat="50.308830" lon="26.540245">
        <ele>231.724554</ele>
        <time>2019-06-07T04:59:23.000Z</time>
      </trkpt>
      <trkpt lat="50.308907" lon="26.540350">
        <ele>231.841203</ele>
        <time>2019-06-07T04:59:26.000Z</time>
      </trkpt>
      <trkpt lat="50.308990" lon="26.540476">
        <ele>231.973273</ele>
        <time>2019-06-07T04:59:29.000Z</time>
      </trkpt>
      <trkpt lat="50.309030" lon="26.540606">
        <ele>232.078556</ele>
        <time>2019-06-07T04:59:31.000Z</time>
      </trkpt>
      <trkpt lat="50.309030" lon="26.540808">
        <ele>232.111439</ele>
        <time>2019-06-07T04:59:34.000Z</time>
      </trkpt>
      <trkpt lat="50.309013" lon="26.541002">
        <ele>231.961714</ele>
        <time>2019-06-07T04:59:37.000Z</time>
      </trkpt>
      <trkpt lat="50.309002" lon="26.541191">
        <ele>231.816603</ele>
        <time>2019-06-07T04:59:40.000Z</time>
      </trkpt>
      <trkpt lat="50.309002" lon="26.541399">
        <ele>231.657563</ele>
        <time>2019-06-07T04:59:43.000Z</time>
      </trkpt>
      <trkpt lat="50.308987" lon="26.541603">
        <ele>231.500551</ele>
        <time>2019-06-07T04:59:46.000Z</time>
      </trkpt>
      <trkpt lat="50.308964" lon="26.541792">
        <ele>231.353438</ele>
        <time>2019-06-07T04:59:49.000Z</time>
      </trkpt>
      <trkpt lat="50.308937" lon="26.541948">
        <ele>231.229856</ele>
        <time>2019-06-07T04:59:52.000Z</time>
      </trkpt>
      <trkpt lat="50.308937" lon="26.542110">
        <ele>231.105988</ele>
        <time>2019-06-07T04:59:55.000Z</time>
      </trkpt>
      <trkpt lat="50.308920" lon="26.542257">
        <ele>230.991761</ele>
        <time>2019-06-07T04:59:58.000Z</time>
      </trkpt>
      <trkpt lat="50.308914" lon="26.542404">
        <ele>230.879134</ele>
        <time>2019-06-07T05:00:01.000Z</time>
      </trkpt>
      <trkpt lat="50.308900" lon="26.542547">
        <ele>230.768516</ele>
        <time>2019-06-07T05:00:04.000Z</time>
      </trkpt>
      <trkpt lat="50.308900" lon="26.542690">
        <ele>230.659176</ele>
        <time>2019-06-07T05:00:07.000Z</time>
      </trkpt>
      <trkpt lat="50.308880" lon="26.542860">
        <ele>230.527004</ele>
        <time>2019-06-07T05:00:10.000Z</time>
      </trkpt>
      <trkpt lat="50.308900" lon="26.543022">
        <ele>230.400843</ele>
        <time>2019-06-07T05:00:13.000Z</time>
      </trkpt>
      <trkpt lat="50.308907" lon="26.543173">
        <ele>230.285082</ele>
        <time>2019-06-07T05:00:17.000Z</time>
      </trkpt>
      <trkpt lat="50.308907" lon="26.543331">
        <ele>230.164272</ele>
        <time>2019-06-07T05:00:22.000Z</time>
      </trkpt>
      <trkpt lat="50.308900" lon="26.543520">
        <ele>230.019517</ele>
        <time>2019-06-07T05:00:26.000Z</time>
      </trkpt>
      <trkpt lat="50.308865" lon="26.543682">
        <ele>229.921757</ele>
        <time>2019-06-07T05:00:29.000Z</time>
      </trkpt>
      <trkpt lat="50.308853" lon="26.543873">
        <ele>229.812888</ele>
        <time>2019-06-07T05:00:32.000Z</time>
      </trkpt>
      <trkpt lat="50.308838" lon="26.544075">
        <ele>229.697531</ele>
        <time>2019-06-07T05:00:35.000Z</time>
      </trkpt>
      <trkpt lat="50.308820" lon="26.544254">
        <ele>229.594741</ele>
        <time>2019-06-07T05:00:38.000Z</time>
      </trkpt>
      <trkpt lat="50.308820" lon="26.544428">
        <ele>229.496038</ele>
        <time>2019-06-07T05:00:41.000Z</time>
      </trkpt>
      <trkpt lat="50.308826" lon="26.544598">
        <ele>229.399458</ele>
        <time>2019-06-07T05:00:44.000Z</time>
      </trkpt>
      <trkpt lat="50.308815" lon="26.544785">
        <ele>229.292932</ele>
        <time>2019-06-07T05:00:47.000Z</time>
      </trkpt>
      <trkpt lat="50.308800" lon="26.544985">
        <ele>229.178701</ele>
        <time>2019-06-07T05:00:50.000Z</time>
      </trkpt>
      <trkpt lat="50.308780" lon="26.545189">
        <ele>229.061625</ele>
        <time>2019-06-07T05:00:53.000Z</time>
      </trkpt>
      <trkpt lat="50.308758" lon="26.545393">
        <ele>228.944267</ele>
        <time>2019-06-07T05:00:56.000Z</time>
      </trkpt>
      <trkpt lat="50.308750" lon="26.545544">
        <ele>228.858317</ele>
        <time>2019-06-07T05:00:58.000Z</time>
      </trkpt>
      <trkpt lat="50.308720" lon="26.545746">
        <ele>228.740673</ele>
        <time>2019-06-07T05:01:01.000Z</time>
      </trkpt>
      <trkpt lat="50.308704" lon="26.545944">
        <ele>228.627461</ele>
        <time>2019-06-07T05:01:04.000Z</time>
      </trkpt>
      <trkpt lat="50.308697" lon="26.546087">
        <ele>228.546105</ele>
        <time>2019-06-07T05:01:07.000Z</time>
      </trkpt>
      <trkpt lat="50.308670" lon="26.546247">
        <ele>228.452229</ele>
        <time>2019-06-07T05:01:10.000Z</time>
      </trkpt>
      <trkpt lat="50.308650" lon="26.546423">
        <ele>228.471590</ele>
        <time>2019-06-07T05:01:13.000Z</time>
      </trkpt>
      <trkpt lat="50.308624" lon="26.546602">
        <ele>228.551807</ele>
        <time>2019-06-07T05:01:16.000Z</time>
      </trkpt>
      <trkpt lat="50.308600" lon="26.546791">
        <ele>228.636012</ele>
        <time>2019-06-07T05:01:19.000Z</time>
      </trkpt>
      <trkpt lat="50.308575" lon="26.546959">
        <ele>228.711391</ele>
        <time>2019-06-07T05:01:22.000Z</time>
      </trkpt>
      <trkpt lat="50.308540" lon="26.547120">
        <ele>228.785708</ele>
        <time>2019-06-07T05:01:25.000Z</time>
      </trkpt>
      <trkpt lat="50.308500" lon="26.547280">
        <ele>228.860790</ele>
        <time>2019-06-07T05:01:28.000Z</time>
      </trkpt>
      <trkpt lat="50.308450" lon="26.547420">
        <ele>228.930883</ele>
        <time>2019-06-07T05:01:31.000Z</time>
      </trkpt>
      <trkpt lat="50.308400" lon="26.547575">
        <ele>229.006765</ele>
        <time>2019-06-07T05:01:34.000Z</time>
      </trkpt>
      <trkpt lat="50.308370" lon="26.547726">
        <ele>229.075867</ele>
        <time>2019-06-07T05:01:37.000Z</time>
      </trkpt>
      <trkpt lat="50.308370" lon="26.547901">
        <ele>229.152339</ele>
        <time>2019-06-07T05:01:41.000Z</time>
      </trkpt>
      <trkpt lat="50.308395" lon="26.548079">
        <ele>229.231980</ele>
        <time>2019-06-07T05:01:44.000Z</time>
      </trkpt>
      <trkpt lat="50.308445" lon="26.548250">
        <ele>229.314162</ele>
        <time>2019-06-07T05:01:47.000Z</time>
      </trkpt>
      <trkpt lat="50.308490" lon="26.548437">
        <ele>229.401485</ele>
        <time>2019-06-07T05:01:50.000Z</time>
      </trkpt>
      <trkpt lat="50.308537" lon="26.548607">
        <ele>229.482434</ele>
        <time>2019-06-07T05:01:53.000Z</time>
      </trkpt>
      <trkpt lat="50.308570" lon="26.548792">
        <ele>229.566368</ele>
        <time>2019-06-07T05:01:56.000Z</time>
      </trkpt>
      <trkpt lat="50.308594" lon="26.548933">
        <ele>229.630133</ele>
        <time>2019-06-07T05:01:58.000Z</time>
      </trkpt>
      <trkpt lat="50.308590" lon="26.549126">
        <ele>229.500417</ele>
        <time>2019-06-07T05:02:01.000Z</time>
      </trkpt>
      <trkpt lat="50.308586" lon="26.549288">
        <ele>229.337234</ele>
        <time>2019-06-07T05:02:04.000Z</time>
      </trkpt>
      <trkpt lat="50.308567" lon="26.549477">
        <ele>229.144653</ele>
        <time>2019-06-07T05:02:07.000Z</time>
      </trkpt>
      <trkpt lat="50.308598" lon="26.549630">
        <ele>228.983087</ele>
        <time>2019-06-07T05:02:09.000Z</time>
      </trkpt>
      <trkpt lat="50.308617" lon="26.549776">
        <ele>228.833111</ele>
        <time>2019-06-07T05:02:11.000Z</time>
      </trkpt>
      <trkpt lat="50.308636" lon="26.549955">
        <ele>228.650467</ele>
        <time>2019-06-07T05:02:14.000Z</time>
      </trkpt>
      <trkpt lat="50.308685" lon="26.550125">
        <ele>228.462733</ele>
        <time>2019-06-07T05:02:17.000Z</time>
      </trkpt>
      <trkpt lat="50.308730" lon="26.550297">
        <ele>228.275643</ele>
        <time>2019-06-07T05:02:20.000Z</time>
      </trkpt>
      <trkpt lat="50.308773" lon="26.550460">
        <ele>228.098130</ele>
        <time>2019-06-07T05:02:23.000Z</time>
      </trkpt>
      <trkpt lat="50.308807" lon="26.550629">
        <ele>227.919783</ele>
        <time>2019-06-07T05:02:26.000Z</time>
      </trkpt>
      <trkpt lat="50.308830" lon="26.550798">
        <ele>227.745858</ele>
        <time>2019-06-07T05:02:29.000Z</time>
      </trkpt>
      <trkpt lat="50.308830" lon="26.550991">
        <ele>227.551594</ele>
        <time>2019-06-07T05:02:32.000Z</time>
      </trkpt>
      <trkpt lat="50.308792" lon="26.551168">
        <ele>227.363639</ele>
        <time>2019-06-07T05:02:35.000Z</time>
      </trkpt>
      <trkpt lat="50.308750" lon="26.551330">
        <ele>227.187654</ele>
        <time>2019-06-07T05:02:38.000Z</time>
      </trkpt>
      <trkpt lat="50.308723" lon="26.551497">
        <ele>227.014258</ele>
        <time>2019-06-07T05:02:41.000Z</time>
      </trkpt>
      <trkpt lat="50.308693" lon="26.551695">
        <ele>226.809543</ele>
        <time>2019-06-07T05:02:44.000Z</time>
      </trkpt>
      <trkpt lat="50.308678" lon="26.551867">
        <ele>226.638409</ele>
        <time>2019-06-07T05:02:47.000Z</time>
      </trkpt>
      <trkpt lat="50.308697" lon="26.552032">
        <ele>226.473127</ele>
        <time>2019-06-07T05:02:50.000Z</time>
      </trkpt>
      <trkpt lat="50.308720" lon="26.552208">
        <ele>226.296028</ele>
        <time>2019-06-07T05:02:53.000Z</time>
      </trkpt>
      <trkpt lat="50.308777" lon="26.552345">
        <ele>226.134839</ele>
        <time>2019-06-07T05:02:56.000Z</time>
      </trkpt>
      <trkpt lat="50.308853" lon="26.552464">
        <ele>225.968935</ele>
        <time>2019-06-07T05:02:59.000Z</time>
      </trkpt>
      <trkpt lat="50.308900" lon="26.552620">
        <ele>225.798894</ele>
        <time>2019-06-07T05:03:02.000Z</time>
      </trkpt>
      <trkpt lat="50.308933" lon="26.552780">
        <ele>225.633143</ele>
        <time>2019-06-07T05:03:05.000Z</time>
      </trkpt>
      <trkpt lat="50.308987" lon="26.552914">
        <ele>225.476944</ele>
        <time>2019-06-07T05:03:08.000Z</time>
      </trkpt>
      <trkpt lat="50.309040" lon="26.553045">
        <ele>225.324071</ele>
        <time>2019-06-07T05:03:11.000Z</time>
      </trkpt>
      <trkpt lat="50.309120" lon="26.553160">
        <ele>225.156436</ele>
        <time>2019-06-07T05:03:14.000Z</time>
      </trkpt>
      <trkpt lat="50.309190" lon="26.553280">
        <ele>224.996219</ele>
        <time>2019-06-07T05:03:17.000Z</time>
      </trkpt>
      <trkpt lat="50.309265" lon="26.553421">
        <ele>224.815324</ele>
        <time>2019-06-07T05:03:20.000Z</time>
      </trkpt>
      <trkpt lat="50.309330" lon="26.553587">
        <ele>224.623371</ele>
        <time>2019-06-07T05:03:23.000Z</time>
      </trkpt>
      <trkpt lat="50.309406" lon="26.553745">
        <ele>224.428377</ele>
        <time>2019-06-07T05:03:26.000Z</time>
      </trkpt>
      <trkpt lat="50.309483" lon="26.553890">
        <ele>224.242476</ele>
        <time>2019-06-07T05:03:29.000Z</time>
      </trkpt>
      <trkpt lat="50.309547" lon="26.554052">
        <ele>224.054691</ele>
        <time>2019-06-07T05:03:32.000Z</time>
      </trkpt>
      <trkpt lat="50.309628" lon="26.554192">
        <ele>224.168176</ele>
        <time>2019-06-07T05:03:35.000Z</time>
      </trkpt>
      <trkpt lat="50.309720" lon="26.554283">
        <ele>224.296152</ele>
        <time>2019-06-07T05:03:38.000Z</time>
      </trkpt>
      <trkpt lat="50.309803" lon="26.554373">
        <ele>224.414884</ele>
        <time>2019-06-07T05:03:41.000Z</time>
      </trkpt>
      <trkpt lat="50.309822" lon="26.554510">
        <ele>224.520179</ele>
        <time>2019-06-07T05:03:45.000Z</time>
      </trkpt>
      <trkpt lat="50.309850" lon="26.554667">
        <ele>224.642609</ele>
        <time>2019-06-07T05:03:53.000Z</time>
      </trkpt>
      <trkpt lat="50.309807" lon="26.554792">
        <ele>224.749246</ele>
        <time>2019-06-07T05:03:57.000Z</time>
      </trkpt>
      <trkpt lat="50.309750" lon="26.554910">
        <ele>224.860369</ele>
        <time>2019-06-07T05:04:03.000Z</time>
      </trkpt>
      <trkpt lat="50.309704" lon="26.555060">
        <ele>224.985345</ele>
        <time>2019-06-07T05:04:10.000Z</time>
      </trkpt>
      <trkpt lat="50.309635" lon="26.555172">
        <ele>225.102226</ele>
        <time>2019-06-07T05:04:16.000Z</time>
      </trkpt>
      <trkpt lat="50.309593" lon="26.555298">
        <ele>225.208976</ele>
        <time>2019-06-07T05:04:21.000Z</time>
      </trkpt>
      <trkpt lat="50.309560" lon="26.555430">
        <ele>225.315443</ele>
        <time>2019-06-07T05:04:26.000Z</time>
      </trkpt>
      <trkpt lat="50.309566" lon="26.555582">
        <ele>225.429824</ele>
        <time>2019-06-07T05:06:27.000Z</time>
      </trkpt>
      <trkpt lat="50.309560" lon="26.555723">
        <ele>225.535960</ele>
        <time>2019-06-07T05:06:51.000Z</time>
      </trkpt>
      <trkpt lat="50.309590" lon="26.555868">
        <ele>225.650438</ele>
        <time>2019-06-07T05:07:07.000Z</time>
      </trkpt>
      <trkpt lat="50.309643" lon="26.555992">
        <ele>225.762504</ele>
        <time>2019-06-07T05:07:20.000Z</time>
      </trkpt>
      <trkpt lat="50.309772" lon="26.556051">
        <ele>225.920554</ele>
        <time>2019-06-07T05:08:24.000Z</time>
      </trkpt>
      <trkpt lat="50.309875" lon="26.556099">
        <ele>226.046939</ele>
        <time>2019-06-07T05:08:28.000Z</time>
      </trkpt>
      <trkpt lat="50.309944" lon="26.556211">
        <ele>226.195988</ele>
        <time>2019-06-07T05:08:32.000Z</time>
      </trkpt>
      <trkpt lat="50.309994" lon="26.556347">
        <ele>226.694942</ele>
        <time>2019-06-07T05:08:36.000Z</time>
      </trkpt>
      <trkpt lat="50.310030" lon="26.556500">
        <ele>227.213382</ele>
        <time>2019-06-07T05:08:40.000Z</time>
      </trkpt>
      <trkpt lat="50.310074" lon="26.556662">
        <ele>227.773118</ele>
        <time>2019-06-07T05:08:44.000Z</time>
      </trkpt>
      <trkpt lat="50.310123" lon="26.556826">
        <ele>228.348809</ele>
        <time>2019-06-07T05:08:48.000Z</time>
      </trkpt>
      <trkpt lat="50.310135" lon="26.556973">
        <ele>228.820006</ele>
        <time>2019-06-07T05:08:51.000Z</time>
      </trkpt>
      <trkpt lat="50.310140" lon="26.557137">
        <ele>229.342046</ele>
        <time>2019-06-07T05:08:55.000Z</time>
      </trkpt>
      <trkpt lat="50.310146" lon="26.557302">
        <ele>229.867521</ele>
        <time>2019-06-07T05:08:59.000Z</time>
      </trkpt>
      <trkpt lat="50.310146" lon="26.557468">
        <ele>230.395326</ele>
        <time>2019-06-07T05:09:03.000Z</time>
      </trkpt>
      <trkpt lat="50.310150" lon="26.557611">
        <ele>230.850438</ele>
        <time>2019-06-07T05:09:07.000Z</time>
      </trkpt>
      <trkpt lat="50.310146" lon="26.557774">
        <ele>231.369087</ele>
        <time>2019-06-07T05:09:11.000Z</time>
      </trkpt>
      <trkpt lat="50.310150" lon="26.557919">
        <ele>231.830551</ele>
        <time>2019-06-07T05:09:15.000Z</time>
      </trkpt>
      <trkpt lat="50.310135" lon="26.558088">
        <ele>232.373060</ele>
        <time>2019-06-07T05:09:20.000Z</time>
      </trkpt>
      <trkpt lat="50.310154" lon="26.558228">
        <ele>232.828137</ele>
        <time>2019-06-07T05:09:24.000Z</time>
      </trkpt>
      <trkpt lat="50.310140" lon="26.558384">
        <ele>233.329020</ele>
        <time>2019-06-07T05:09:29.000Z</time>
      </trkpt>
      <trkpt lat="50.310110" lon="26.558520">
        <ele>233.786507</ele>
        <time>2019-06-07T05:09:36.000Z</time>
      </trkpt>
      <trkpt lat="50.310177" lon="26.558716">
        <ele>234.493358</ele>
        <time>2019-06-07T05:11:06.000Z</time>
      </trkpt>
      <trkpt lat="50.310226" lon="26.558859">
        <ele>235.009346</ele>
        <time>2019-06-07T05:11:11.000Z</time>
      </trkpt>
      <trkpt lat="50.310272" lon="26.558998">
        <ele>235.256809</ele>
        <time>2019-06-07T05:11:16.000Z</time>
      </trkpt>
      <trkpt lat="50.310307" lon="26.559134">
        <ele>235.430076</ele>
        <time>2019-06-07T05:11:20.000Z</time>
      </trkpt>
      <trkpt lat="50.310360" lon="26.559290">
        <ele>235.638881</ele>
        <time>2019-06-07T05:11:24.000Z</time>
      </trkpt>
      <trkpt lat="50.310400" lon="26.559431">
        <ele>235.821198</ele>
        <time>2019-06-07T05:11:27.000Z</time>
      </trkpt>
      <trkpt lat="50.310444" lon="26.559568">
        <ele>236.002407</ele>
        <time>2019-06-07T05:11:30.000Z</time>
      </trkpt>
      <trkpt lat="50.310493" lon="26.559721">
        <ele>236.204664</ele>
        <time>2019-06-07T05:11:33.000Z</time>
      </trkpt>
      <trkpt lat="50.310550" lon="26.559877">
        <ele>236.417045</ele>
        <time>2019-06-07T05:11:36.000Z</time>
      </trkpt>
      <trkpt lat="50.310600" lon="26.560015">
        <ele>236.604533</ele>
        <time>2019-06-07T05:11:39.000Z</time>
      </trkpt>
      <trkpt lat="50.310646" lon="26.560175">
        <ele>236.811877</ele>
        <time>2019-06-07T05:11:42.000Z</time>
      </trkpt>
      <trkpt lat="50.310696" lon="26.560331">
        <ele>237.018132</ele>
        <time>2019-06-07T05:11:45.000Z</time>
      </trkpt>
      <trkpt lat="50.310745" lon="26.560500">
        <ele>237.237453</ele>
        <time>2019-06-07T05:11:48.000Z</time>
      </trkpt>
      <trkpt lat="50.310800" lon="26.560658">
        <ele>237.450092</ele>
        <time>2019-06-07T05:11:51.000Z</time>
      </trkpt>
      <trkpt lat="50.310852" lon="26.560816">
        <ele>237.660130</ele>
        <time>2019-06-07T05:11:54.000Z</time>
      </trkpt>
      <trkpt lat="50.310905" lon="26.560993">
        <ele>237.891136</ele>
        <time>2019-06-07T05:11:57.000Z</time>
      </trkpt>
      <trkpt lat="50.310955" lon="26.561169">
        <ele>238.118759</ele>
        <time>2019-06-07T05:12:00.000Z</time>
      </trkpt>
      <trkpt lat="50.311010" lon="26.561350">
        <ele>238.355618</ele>
        <time>2019-06-07T05:12:03.000Z</time>
      </trkpt>
      <trkpt lat="50.311058" lon="26.561535">
        <ele>238.439374</ele>
        <time>2019-06-07T05:12:06.000Z</time>
      </trkpt>
      <trkpt lat="50.311108" lon="26.561720">
        <ele>238.443224</ele>
        <time>2019-06-07T05:12:09.000Z</time>
      </trkpt>
      <trkpt lat="50.311150" lon="26.561844">
        <ele>238.445914</ele>
        <time>2019-06-07T05:12:11.000Z</time>
      </trkpt>
      <trkpt lat="50.311188" lon="26.561977">
        <ele>238.448706</ele>
        <time>2019-06-07T05:12:13.000Z</time>
      </trkpt>
      <trkpt lat="50.311234" lon="26.562160">
        <ele>238.452475</ele>
        <time>2019-06-07T05:12:16.000Z</time>
      </trkpt>
      <trkpt lat="50.311287" lon="26.562326">
        <ele>238.456032</ele>
        <time>2019-06-07T05:12:19.000Z</time>
      </trkpt>
      <trkpt lat="50.311333" lon="26.562510">
        <ele>238.459818</ele>
        <time>2019-06-07T05:12:22.000Z</time>
      </trkpt>
      <trkpt lat="50.311367" lon="26.562643">
        <ele>238.462564</ele>
        <time>2019-06-07T05:12:24.000Z</time>
      </trkpt>
      <trkpt lat="50.311405" lon="26.562773">
        <ele>238.465304</ele>
        <time>2019-06-07T05:12:26.000Z</time>
      </trkpt>
      <trkpt lat="50.311462" lon="26.562960">
        <ele>238.469275</ele>
        <time>2019-06-07T05:12:29.000Z</time>
      </trkpt>
      <trkpt lat="50.311516" lon="26.563147">
        <ele>238.473208</ele>
        <time>2019-06-07T05:12:32.000Z</time>
      </trkpt>
      <trkpt lat="50.311570" lon="26.563330">
        <ele>238.477071</ele>
        <time>2019-06-07T05:12:35.000Z</time>
      </trkpt>
      <trkpt lat="50.311626" lon="26.563515">
        <ele>238.480995</ele>
        <time>2019-06-07T05:12:38.000Z</time>
      </trkpt>
      <trkpt lat="50.311684" lon="26.563711">
        <ele>238.485135</ele>
        <time>2019-06-07T05:12:41.000Z</time>
      </trkpt>
      <trkpt lat="50.311718" lon="26.563840">
        <ele>238.487809</ele>
        <time>2019-06-07T05:12:43.000Z</time>
      </trkpt>
      <trkpt lat="50.311775" lon="26.564030">
        <ele>238.474607</ele>
        <time>2019-06-07T05:12:46.000Z</time>
      </trkpt>
      <trkpt lat="50.311830" lon="26.564215">
        <ele>238.410588</ele>
        <time>2019-06-07T05:12:49.000Z</time>
      </trkpt>
      <trkpt lat="50.311867" lon="26.564396">
        <ele>238.350967</ele>
        <time>2019-06-07T05:12:52.000Z</time>
      </trkpt>
      <trkpt lat="50.311910" lon="26.564560">
        <ele>238.295350</ele>
        <time>2019-06-07T05:12:55.000Z</time>
      </trkpt>
      <trkpt lat="50.311960" lon="26.564732">
        <ele>238.236063</ele>
        <time>2019-06-07T05:12:58.000Z</time>
      </trkpt>
      <trkpt lat="50.312000" lon="26.564896">
        <ele>238.180988</ele>
        <time>2019-06-07T05:13:01.000Z</time>
      </trkpt>
      <trkpt lat="50.312046" lon="26.565075">
        <ele>238.120457</ele>
        <time>2019-06-07T05:13:04.000Z</time>
      </trkpt>
      <trkpt lat="50.312088" lon="26.565245">
        <ele>238.063273</ele>
        <time>2019-06-07T05:13:07.000Z</time>
      </trkpt>
      <trkpt lat="50.312134" lon="26.565422">
        <ele>238.003323</ele>
        <time>2019-06-07T05:13:10.000Z</time>
      </trkpt>
      <trkpt lat="50.312183" lon="26.565600">
        <ele>237.942514</ele>
        <time>2019-06-07T05:13:13.000Z</time>
      </trkpt>
      <trkpt lat="50.312220" lon="26.565771">
        <ele>237.885873</ele>
        <time>2019-06-07T05:13:16.000Z</time>
      </trkpt>
      <trkpt lat="50.312267" lon="26.565943">
        <ele>237.827182</ele>
        <time>2019-06-07T05:13:19.000Z</time>
      </trkpt>
      <trkpt lat="50.312310" lon="26.566135">
        <ele>237.763351</ele>
        <time>2019-06-07T05:13:22.000Z</time>
      </trkpt>
      <trkpt lat="50.312366" lon="26.566364">
        <ele>237.686424</ele>
        <time>2019-06-07T05:13:26.000Z</time>
      </trkpt>
      <trkpt lat="50.312412" lon="26.566553">
        <ele>237.622971</ele>
        <time>2019-06-07T05:13:29.000Z</time>
      </trkpt>
      <trkpt lat="50.312450" lon="26.566698">
        <ele>237.602255</ele>
        <time>2019-06-07T05:13:31.000Z</time>
      </trkpt>
      <trkpt lat="50.312485" lon="26.566828">
        <ele>237.595643</ele>
        <time>2019-06-07T05:13:33.000Z</time>
      </trkpt>
      <trkpt lat="50.312523" lon="26.566961">
        <ele>237.588815</ele>
        <time>2019-06-07T05:13:35.000Z</time>
      </trkpt>
      <trkpt lat="50.312565" lon="26.567150">
        <ele>237.579436</ele>
        <time>2019-06-07T05:13:38.000Z</time>
      </trkpt>
      <trkpt lat="50.312590" lon="26.567290">
        <ele>237.572624</ele>
        <time>2019-06-07T05:13:40.000Z</time>
      </trkpt>
      <trkpt lat="50.312634" lon="26.567469">
        <ele>237.563635</ele>
        <time>2019-06-07T05:13:43.000Z</time>
      </trkpt>
      <trkpt lat="50.312675" lon="26.567665">
        <ele>237.553969</ele>
        <time>2019-06-07T05:13:46.000Z</time>
      </trkpt>
      <trkpt lat="50.312717" lon="26.567850">
        <ele>237.544768</ele>
        <time>2019-06-07T05:13:49.000Z</time>
      </trkpt>
      <trkpt lat="50.312763" lon="26.568047">
        <ele>237.534938</ele>
        <time>2019-06-07T05:13:52.000Z</time>
      </trkpt>
      <trkpt lat="50.312794" lon="26.568182">
        <ele>237.528214</ele>
        <time>2019-06-07T05:13:54.000Z</time>
      </trkpt>
      <trkpt lat="50.312824" lon="26.568317">
        <ele>237.521516</ele>
        <time>2019-06-07T05:13:56.000Z</time>
      </trkpt>
      <trkpt lat="50.312862" lon="26.568508">
        <ele>237.512140</ele>
        <time>2019-06-07T05:13:59.000Z</time>
      </trkpt>
      <trkpt lat="50.312904" lon="26.568695">
        <ele>237.502850</ele>
        <time>2019-06-07T05:14:02.000Z</time>
      </trkpt>
      <trkpt lat="50.312935" lon="26.568834">
        <ele>237.495950</ele>
        <time>2019-06-07T05:14:04.000Z</time>
      </trkpt>
      <trkpt lat="50.312958" lon="26.568975">
        <ele>237.489130</ele>
        <time>2019-06-07T05:14:06.000Z</time>
      </trkpt>
      <trkpt lat="50.312980" lon="26.569122">
        <ele>237.482055</ele>
        <time>2019-06-07T05:14:08.000Z</time>
      </trkpt>
      <trkpt lat="50.313020" lon="26.569260">
        <ele>237.475553</ele>
        <time>2019-06-07T05:14:10.000Z</time>
      </trkpt>
      <trkpt lat="50.313053" lon="26.569397">
        <ele>237.482282</ele>
        <time>2019-06-07T05:14:12.000Z</time>
      </trkpt>
      <trkpt lat="50.313084" lon="26.569540">
        <ele>237.489221</ele>
        <time>2019-06-07T05:14:14.000Z</time>
      </trkpt>
      <trkpt lat="50.313118" lon="26.569683">
        <ele>237.496232</ele>
        <time>2019-06-07T05:14:16.000Z</time>
      </trkpt>
      <trkpt lat="50.313150" lon="26.569828">
        <ele>237.503282</ele>
        <time>2019-06-07T05:14:18.000Z</time>
      </trkpt>
      <trkpt lat="50.313180" lon="26.569970">
        <ele>237.510154</ele>
        <time>2019-06-07T05:14:20.000Z</time>
      </trkpt>
      <trkpt lat="50.313210" lon="26.570118">
        <ele>237.517289</ele>
        <time>2019-06-07T05:14:22.000Z</time>
      </trkpt>
      <trkpt lat="50.313240" lon="26.570255">
        <ele>237.523944</ele>
        <time>2019-06-07T05:14:24.000Z</time>
      </trkpt>
      <trkpt lat="50.313263" lon="26.570393">
        <ele>237.530498</ele>
        <time>2019-06-07T05:14:26.000Z</time>
      </trkpt>
      <trkpt lat="50.313310" lon="26.570616">
        <ele>237.541288</ele>
        <time>2019-06-07T05:14:29.000Z</time>
      </trkpt>
      <trkpt lat="50.313335" lon="26.570763">
        <ele>237.548278</ele>
        <time>2019-06-07T05:14:31.000Z</time>
      </trkpt>
      <trkpt lat="50.313362" lon="26.570911">
        <ele>237.555351</ele>
        <time>2019-06-07T05:14:33.000Z</time>
      </trkpt>
      <trkpt lat="50.313390" lon="26.571060">
        <ele>237.562488</ele>
        <time>2019-06-07T05:14:35.000Z</time>
      </trkpt>
      <trkpt lat="50.313410" lon="26.571201">
        <ele>237.569125</ele>
        <time>2019-06-07T05:14:37.000Z</time>
      </trkpt>
      <trkpt lat="50.313446" lon="26.571342">
        <ele>237.576102</ele>
        <time>2019-06-07T05:14:39.000Z</time>
      </trkpt>
      <trkpt lat="50.313473" lon="26.571478">
        <ele>237.582646</ele>
        <time>2019-06-07T05:14:41.000Z</time>
      </trkpt>
      <trkpt lat="50.313496" lon="26.571625">
        <ele>237.589601</ele>
        <time>2019-06-07T05:14:43.000Z</time>
      </trkpt>
      <trkpt lat="50.313522" lon="26.571768">
        <ele>237.596433</ele>
        <time>2019-06-07T05:14:45.000Z</time>
      </trkpt>
      <trkpt lat="50.313545" lon="26.571920">
        <ele>237.603611</ele>
        <time>2019-06-07T05:14:47.000Z</time>
      </trkpt>
      <trkpt lat="50.313572" lon="26.572067">
        <ele>237.589923</ele>
        <time>2019-06-07T05:14:49.000Z</time>
      </trkpt>
      <trkpt lat="50.313595" lon="26.572210">
        <ele>237.573150</ele>
        <time>2019-06-07T05:14:51.000Z</time>
      </trkpt>
      <trkpt lat="50.313625" lon="26.572348">
        <ele>237.556570</ele>
        <time>2019-06-07T05:14:53.000Z</time>
      </trkpt>
      <trkpt lat="50.313644" lon="26.572500">
        <ele>237.538954</ele>
        <time>2019-06-07T05:14:55.000Z</time>
      </trkpt>
      <trkpt lat="50.313675" lon="26.572704">
        <ele>237.515104</ele>
        <time>2019-06-07T05:14:58.000Z</time>
      </trkpt>
      <trkpt lat="50.313698" lon="26.572845">
        <ele>237.498552</ele>
        <time>2019-06-07T05:15:00.000Z</time>
      </trkpt>
      <trkpt lat="50.313720" lon="26.572990">
        <ele>237.481601</ele>
        <time>2019-06-07T05:15:02.000Z</time>
      </trkpt>
      <trkpt lat="50.313747" lon="26.573140">
        <ele>237.463875</ele>
        <time>2019-06-07T05:15:04.000Z</time>
      </trkpt>
      <trkpt lat="50.313766" lon="26.573284">
        <ele>237.447151</ele>
        <time>2019-06-07T05:15:06.000Z</time>
      </trkpt>
      <trkpt lat="50.313790" lon="26.573435">
        <ele>237.429453</ele>
        <time>2019-06-07T05:15:08.000Z</time>
      </trkpt>
      <trkpt lat="50.313820" lon="26.573591">
        <ele>237.410923</ele>
        <time>2019-06-07T05:15:10.000Z</time>
      </trkpt>
      <trkpt lat="50.313847" lon="26.573746">
        <ele>237.392650</ele>
        <time>2019-06-07T05:15:12.000Z</time>
      </trkpt>
      <trkpt lat="50.313870" lon="26.573895">
        <ele>237.375215</ele>
        <time>2019-06-07T05:15:14.000Z</time>
      </trkpt>
      <trkpt lat="50.313896" lon="26.574047">
        <ele>237.357318</ele>
        <time>2019-06-07T05:15:16.000Z</time>
      </trkpt>
      <trkpt lat="50.313920" lon="26.574198">
        <ele>237.339619</ele>
        <time>2019-06-07T05:15:18.000Z</time>
      </trkpt>
      <trkpt lat="50.313940" lon="26.574340">
        <ele>237.323081</ele>
        <time>2019-06-07T05:15:20.000Z</time>
      </trkpt>
      <trkpt lat="50.313960" lon="26.574497">
        <ele>237.304872</ele>
        <time>2019-06-07T05:15:22.000Z</time>
      </trkpt>
      <trkpt lat="50.313988" lon="26.574656">
        <ele>237.286113</ele>
        <time>2019-06-07T05:15:24.000Z</time>
      </trkpt>
      <trkpt lat="50.314014" lon="26.574810">
        <ele>237.240906</ele>
        <time>2019-06-07T05:15:26.000Z</time>
      </trkpt>
      <trkpt lat="50.314037" lon="26.574960">
        <ele>237.194254</ele>
        <time>2019-06-07T05:15:28.000Z</time>
      </trkpt>
      <trkpt lat="50.314053" lon="26.575115">
        <ele>237.146770</ele>
        <time>2019-06-07T05:15:30.000Z</time>
      </trkpt>
      <trkpt lat="50.314080" lon="26.575270">
        <ele>237.098182</ele>
        <time>2019-06-07T05:15:32.000Z</time>
      </trkpt>
      <trkpt lat="50.314102" lon="26.575428">
        <ele>237.049277</ele>
        <time>2019-06-07T05:15:34.000Z</time>
      </trkpt>
      <trkpt lat="50.314125" lon="26.575586">
        <ele>237.000269</ele>
        <time>2019-06-07T05:15:36.000Z</time>
      </trkpt>
      <trkpt lat="50.314148" lon="26.575745">
        <ele>236.950966</ele>
        <time>2019-06-07T05:15:38.000Z</time>
      </trkpt>
      <trkpt lat="50.314170" lon="26.575903">
        <ele>236.902060</ele>
        <time>2019-06-07T05:15:40.000Z</time>
      </trkpt>
      <trkpt lat="50.314194" lon="26.576054">
        <ele>236.855002</ele>
        <time>2019-06-07T05:15:42.000Z</time>
      </trkpt>
      <trkpt lat="50.314213" lon="26.576206">
        <ele>236.808162</ele>
        <time>2019-06-07T05:15:44.000Z</time>
      </trkpt>
      <trkpt lat="50.314230" lon="26.576363">
        <ele>236.760004</ele>
        <time>2019-06-07T05:15:46.000Z</time>
      </trkpt>
      <trkpt lat="50.314250" lon="26.576519">
        <ele>236.711885</ele>
        <time>2019-06-07T05:15:48.000Z</time>
      </trkpt>
      <trkpt lat="50.314274" lon="26.576677">
        <ele>236.662769</ele>
        <time>2019-06-07T05:15:50.000Z</time>
      </trkpt>
      <trkpt lat="50.314293" lon="26.576840">
        <ele>236.612661</ele>
        <time>2019-06-07T05:15:52.000Z</time>
      </trkpt>
      <trkpt lat="50.314316" lon="26.577000">
        <ele>236.563063</ele>
        <time>2019-06-07T05:15:54.000Z</time>
      </trkpt>
      <trkpt lat="50.314340" lon="26.577154">
        <ele>236.515123</ele>
        <time>2019-06-07T05:15:56.000Z</time>
      </trkpt>
      <trkpt lat="50.314365" lon="26.577310">
        <ele>236.466483</ele>
        <time>2019-06-07T05:15:58.000Z</time>
      </trkpt>
      <trkpt lat="50.314390" lon="26.577473">
        <ele>236.441515</ele>
        <time>2019-06-07T05:16:00.000Z</time>
      </trkpt>
      <trkpt lat="50.314407" lon="26.577630">
        <ele>236.467420</ele>
        <time>2019-06-07T05:16:02.000Z</time>
      </trkpt>
      <trkpt lat="50.314430" lon="26.577787">
        <ele>236.493625</ele>
        <time>2019-06-07T05:16:04.000Z</time>
      </trkpt>
      <trkpt lat="50.314450" lon="26.577950">
        <ele>236.520627</ele>
        <time>2019-06-07T05:16:06.000Z</time>
      </trkpt>
      <trkpt lat="50.314470" lon="26.578112">
        <ele>236.547469</ele>
        <time>2019-06-07T05:16:08.000Z</time>
      </trkpt>
      <trkpt lat="50.314484" lon="26.578264">
        <ele>236.572452</ele>
        <time>2019-06-07T05:16:10.000Z</time>
      </trkpt>
      <trkpt lat="50.314503" lon="26.578415">
        <ele>236.597489</ele>
        <time>2019-06-07T05:16:12.000Z</time>
      </trkpt>
      <trkpt lat="50.314526" lon="26.578566">
        <ele>236.622743</ele>
        <time>2019-06-07T05:16:14.000Z</time>
      </trkpt>
      <trkpt lat="50.314533" lon="26.578720">
        <ele>236.647859</ele>
        <time>2019-06-07T05:16:16.000Z</time>
      </trkpt>
      <trkpt lat="50.314552" lon="26.578875">
        <ele>236.673535</ele>
        <time>2019-06-07T05:16:18.000Z</time>
      </trkpt>
      <trkpt lat="50.314570" lon="26.579027">
        <ele>236.698684</ele>
        <time>2019-06-07T05:16:20.000Z</time>
      </trkpt>
      <trkpt lat="50.314590" lon="26.579176">
        <ele>236.723453</ele>
        <time>2019-06-07T05:16:22.000Z</time>
      </trkpt>
      <trkpt lat="50.314610" lon="26.579329">
        <ele>236.748859</ele>
        <time>2019-06-07T05:16:24.000Z</time>
      </trkpt>
      <trkpt lat="50.314630" lon="26.579481">
        <ele>236.774105</ele>
        <time>2019-06-07T05:16:26.000Z</time>
      </trkpt>
      <trkpt lat="50.314650" lon="26.579628">
        <ele>236.798556</ele>
        <time>2019-06-07T05:16:28.000Z</time>
      </trkpt>
      <trkpt lat="50.314670" lon="26.579775">
        <ele>236.823007</ele>
        <time>2019-06-07T05:16:30.000Z</time>
      </trkpt>
      <trkpt lat="50.314682" lon="26.579927">
        <ele>236.847922</ele>
        <time>2019-06-07T05:16:32.000Z</time>
      </trkpt>
      <trkpt lat="50.314693" lon="26.580070">
        <ele>236.871353</ele>
        <time>2019-06-07T05:16:34.000Z</time>
      </trkpt>
      <trkpt lat="50.314710" lon="26.580227">
        <ele>236.890734</ele>
        <time>2019-06-07T05:16:36.000Z</time>
      </trkpt>
      <trkpt lat="50.314735" lon="26.580380">
        <ele>236.890751</ele>
        <time>2019-06-07T05:16:38.000Z</time>
      </trkpt>
      <trkpt lat="50.314750" lon="26.580530">
        <ele>236.890766</ele>
        <time>2019-06-07T05:16:40.000Z</time>
      </trkpt>
      <trkpt lat="50.314766" lon="26.580683">
        <ele>236.890783</ele>
        <time>2019-06-07T05:16:42.000Z</time>
      </trkpt>
      <trkpt lat="50.314780" lon="26.580826">
        <ele>236.890798</ele>
        <time>2019-06-07T05:16:44.000Z</time>
      </trkpt>
      <trkpt lat="50.314793" lon="26.580969">
        <ele>236.890813</ele>
        <time>2019-06-07T05:16:46.000Z</time>
      </trkpt>
      <trkpt lat="50.314810" lon="26.581114">
        <ele>236.890828</ele>
        <time>2019-06-07T05:16:48.000Z</time>
      </trkpt>
      <trkpt lat="50.314823" lon="26.581263">
        <ele>236.890844</ele>
        <time>2019-06-07T05:16:50.000Z</time>
      </trkpt>
      <trkpt lat="50.314840" lon="26.581411">
        <ele>236.890860</ele>
        <time>2019-06-07T05:16:52.000Z</time>
      </trkpt>
      <trkpt lat="50.314854" lon="26.581562">
        <ele>236.890875</ele>
        <time>2019-06-07T05:16:54.000Z</time>
      </trkpt>
      <trkpt lat="50.314865" lon="26.581718">
        <ele>236.890892</ele>
        <time>2019-06-07T05:16:56.000Z</time>
      </trkpt>
      <trkpt lat="50.314880" lon="26.581875">
        <ele>236.890908</ele>
        <time>2019-06-07T05:16:58.000Z</time>
      </trkpt>
      <trkpt lat="50.314888" lon="26.582033">
        <ele>236.890925</ele>
        <time>2019-06-07T05:17:00.000Z</time>
      </trkpt>
      <trkpt lat="50.314896" lon="26.582184">
        <ele>236.890941</ele>
        <time>2019-06-07T05:17:02.000Z</time>
      </trkpt>
      <trkpt lat="50.314907" lon="26.582323">
        <ele>236.890955</ele>
        <time>2019-06-07T05:17:04.000Z</time>
      </trkpt>
      <trkpt lat="50.314922" lon="26.582527">
        <ele>236.890977</ele>
        <time>2019-06-07T05:17:07.000Z</time>
      </trkpt>
      <trkpt lat="50.314934" lon="26.582674">
        <ele>236.890992</ele>
        <time>2019-06-07T05:17:09.000Z</time>
      </trkpt>
      <trkpt lat="50.314945" lon="26.582820">
        <ele>236.891008</ele>
        <time>2019-06-07T05:17:11.000Z</time>
      </trkpt>
      <trkpt lat="50.314957" lon="26.582968">
        <ele>236.891023</ele>
        <time>2019-06-07T05:17:13.000Z</time>
      </trkpt>
      <trkpt lat="50.314964" lon="26.583118">
        <ele>236.935415</ele>
        <time>2019-06-07T05:17:15.000Z</time>
      </trkpt>
      <trkpt lat="50.314980" lon="26.583265">
        <ele>236.981369</ele>
        <time>2019-06-07T05:17:17.000Z</time>
      </trkpt>
      <trkpt lat="50.314995" lon="26.583418">
        <ele>237.029071</ele>
        <time>2019-06-07T05:17:19.000Z</time>
      </trkpt>
      <trkpt lat="50.315002" lon="26.583560">
        <ele>237.072961</ele>
        <time>2019-06-07T05:17:21.000Z</time>
      </trkpt>
      <trkpt lat="50.315014" lon="26.583715">
        <ele>237.121077</ele>
        <time>2019-06-07T05:17:23.000Z</time>
      </trkpt>
      <trkpt lat="50.315025" lon="26.583876">
        <ele>237.170975</ele>
        <time>2019-06-07T05:17:25.000Z</time>
      </trkpt>
      <trkpt lat="50.315044" lon="26.584032">
        <ele>237.219915</ele>
        <time>2019-06-07T05:17:27.000Z</time>
      </trkpt>
      <trkpt lat="50.315060" lon="26.584187">
        <ele>237.268301</ele>
        <time>2019-06-07T05:17:29.000Z</time>
      </trkpt>
      <trkpt lat="50.315070" lon="26.584345">
        <ele>237.317230</ele>
        <time>2019-06-07T05:17:31.000Z</time>
      </trkpt>
      <trkpt lat="50.315083" lon="26.584501">
        <ele>237.365712</ele>
        <time>2019-06-07T05:17:33.000Z</time>
      </trkpt>
      <trkpt lat="50.315094" lon="26.584654">
        <ele>237.413160</ele>
        <time>2019-06-07T05:17:35.000Z</time>
      </trkpt>
      <trkpt lat="50.315105" lon="26.584812">
        <ele>237.462139</ele>
        <time>2019-06-07T05:17:37.000Z</time>
      </trkpt>
      <trkpt lat="50.315117" lon="26.584967">
        <ele>237.510254</ele>
        <time>2019-06-07T05:17:39.000Z</time>
      </trkpt>
      <trkpt lat="50.315130" lon="26.585121">
        <ele>237.558125</ele>
        <time>2019-06-07T05:17:41.000Z</time>
      </trkpt>
      <trkpt lat="50.315132" lon="26.585280">
        <ele>237.607133</ele>
        <time>2019-06-07T05:17:43.000Z</time>
      </trkpt>
      <trkpt lat="50.315144" lon="26.585440">
        <ele>237.656778</ele>
        <time>2019-06-07T05:17:45.000Z</time>
      </trkpt>
      <trkpt lat="50.315150" lon="26.585596">
        <ele>237.704940</ele>
        <time>2019-06-07T05:17:47.000Z</time>
      </trkpt>
      <trkpt lat="50.315155" lon="26.585754">
        <ele>237.753690</ele>
        <time>2019-06-07T05:17:49.000Z</time>
      </trkpt>
      <trkpt lat="50.315163" lon="26.585907">
        <ele>237.763529</ele>
        <time>2019-06-07T05:17:51.000Z</time>
      </trkpt>
      <trkpt lat="50.315166" lon="26.586056">
        <ele>237.768447</ele>
        <time>2019-06-07T05:17:53.000Z</time>
      </trkpt>
      <trkpt lat="50.315170" lon="26.586212">
        <ele>237.773597</ele>
        <time>2019-06-07T05:17:55.000Z</time>
      </trkpt>
      <trkpt lat="50.315170" lon="26.586359">
        <ele>237.778447</ele>
        <time>2019-06-07T05:17:57.000Z</time>
      </trkpt>
      <trkpt lat="50.315186" lon="26.586504">
        <ele>237.783301</ele>
        <time>2019-06-07T05:17:59.000Z</time>
      </trkpt>
      <trkpt lat="50.315193" lon="26.586657">
        <ele>237.788362</ele>
        <time>2019-06-07T05:18:01.000Z</time>
      </trkpt>
      <trkpt lat="50.315197" lon="26.586815">
        <ele>237.793579</ele>
        <time>2019-06-07T05:18:03.000Z</time>
      </trkpt>
      <trkpt lat="50.315210" lon="26.587048">
        <ele>237.801295</ele>
        <time>2019-06-07T05:18:06.000Z</time>
      </trkpt>
      <trkpt lat="50.315210" lon="26.587200">
        <ele>237.806309</ele>
        <time>2019-06-07T05:18:08.000Z</time>
      </trkpt>
      <trkpt lat="50.315216" lon="26.587347">
        <ele>237.811169</ele>
        <time>2019-06-07T05:18:10.000Z</time>
      </trkpt>
      <trkpt lat="50.315228" lon="26.587502">
        <ele>237.816320</ele>
        <time>2019-06-07T05:18:12.000Z</time>
      </trkpt>
      <trkpt lat="50.315235" lon="26.587652">
        <ele>237.821281</ele>
        <time>2019-06-07T05:18:14.000Z</time>
      </trkpt>
      <trkpt lat="50.315235" lon="26.587810">
        <ele>237.826494</ele>
        <time>2019-06-07T05:18:16.000Z</time>
      </trkpt>
      <trkpt lat="50.315240" lon="26.587961">
        <ele>237.831482</ele>
        <time>2019-06-07T05:18:18.000Z</time>
      </trkpt>
      <trkpt lat="50.315250" lon="26.588114">
        <ele>237.836556</ele>
        <time>2019-06-07T05:18:20.000Z</time>
      </trkpt>
      <trkpt lat="50.315258" lon="26.588268">
        <ele>237.841653</ele>
        <time>2019-06-07T05:18:22.000Z</time>
      </trkpt>
      <trkpt lat="50.315266" lon="26.588420">
        <ele>237.846685</ele>
        <time>2019-06-07T05:18:24.000Z</time>
      </trkpt>
      <trkpt lat="50.315270" lon="26.588575">
        <ele>237.851802</ele>
        <time>2019-06-07T05:18:26.000Z</time>
      </trkpt>
      <trkpt lat="50.315266" lon="26.588724">
        <ele>237.838960</ele>
        <time>2019-06-07T05:18:28.000Z</time>
      </trkpt>
      <trkpt lat="50.315270" lon="26.588873">
        <ele>237.825527</ele>
        <time>2019-06-07T05:18:30.000Z</time>
      </trkpt>
      <trkpt lat="50.315277" lon="26.589020">
        <ele>237.812249</ele>
        <time>2019-06-07T05:18:32.000Z</time>
      </trkpt>
      <trkpt lat="50.315277" lon="26.589176">
        <ele>237.798198</ele>
        <time>2019-06-07T05:18:34.000Z</time>
      </trkpt>
      <trkpt lat="50.315285" lon="26.589333">
        <ele>237.784011</ele>
        <time>2019-06-07T05:18:36.000Z</time>
      </trkpt>
      <trkpt lat="50.315285" lon="26.589490">
        <ele>237.769869</ele>
        <time>2019-06-07T05:18:38.000Z</time>
      </trkpt>
      <trkpt lat="50.315285" lon="26.589650">
        <ele>237.755457</ele>
        <time>2019-06-07T05:18:40.000Z</time>
      </trkpt>
      <trkpt lat="50.315290" lon="26.589804">
        <ele>237.741568</ele>
        <time>2019-06-07T05:18:42.000Z</time>
      </trkpt>
      <trkpt lat="50.315292" lon="26.589950">
        <ele>237.728414</ele>
        <time>2019-06-07T05:18:44.000Z</time>
      </trkpt>
      <trkpt lat="50.315296" lon="26.590100">
        <ele>237.714891</ele>
        <time>2019-06-07T05:18:46.000Z</time>
      </trkpt>
      <trkpt lat="50.315296" lon="26.590248">
        <ele>237.701560</ele>
        <time>2019-06-07T05:18:48.000Z</time>
      </trkpt>
      <trkpt lat="50.315300" lon="26.590397">
        <ele>237.688127</ele>
        <time>2019-06-07T05:18:50.000Z</time>
      </trkpt>
      <trkpt lat="50.315308" lon="26.590550">
        <ele>237.674299</ele>
        <time>2019-06-07T05:18:52.000Z</time>
      </trkpt>
      <trkpt lat="50.315315" lon="26.590706">
        <ele>237.660213</ele>
        <time>2019-06-07T05:18:54.000Z</time>
      </trkpt>
      <trkpt lat="50.315310" lon="26.590860">
        <ele>237.646323</ele>
        <time>2019-06-07T05:18:56.000Z</time>
      </trkpt>
      <trkpt lat="50.315308" lon="26.591017">
        <ele>237.632179</ele>
        <time>2019-06-07T05:18:58.000Z</time>
      </trkpt>
      <trkpt lat="50.315315" lon="26.591166">
        <ele>237.618721</ele>
        <time>2019-06-07T05:19:00.000Z</time>
      </trkpt>
      <trkpt lat="50.315315" lon="26.591310">
        <ele>237.605750</ele>
        <time>2019-06-07T05:19:02.000Z</time>
      </trkpt>
      <trkpt lat="50.315315" lon="26.591455">
        <ele>237.595642</ele>
        <time>2019-06-07T05:19:04.000Z</time>
      </trkpt>
      <trkpt lat="50.315315" lon="26.591667">
        <ele>237.586693</ele>
        <time>2019-06-07T05:19:07.000Z</time>
      </trkpt>
      <trkpt lat="50.315320" lon="26.591808">
        <ele>237.580731</ele>
        <time>2019-06-07T05:19:09.000Z</time>
      </trkpt>
      <trkpt lat="50.315320" lon="26.591951">
        <ele>237.574695</ele>
        <time>2019-06-07T05:19:11.000Z</time>
      </trkpt>
      <trkpt lat="50.315320" lon="26.592094">
        <ele>237.568658</ele>
        <time>2019-06-07T05:19:13.000Z</time>
      </trkpt>
      <trkpt lat="50.315315" lon="26.592243">
        <ele>237.562360</ele>
        <time>2019-06-07T05:19:15.000Z</time>
      </trkpt>
      <trkpt lat="50.315315" lon="26.592388">
        <ele>237.556239</ele>
        <time>2019-06-07T05:19:17.000Z</time>
      </trkpt>
      <trkpt lat="50.315308" lon="26.592533">
        <ele>237.550100</ele>
        <time>2019-06-07T05:19:19.000Z</time>
      </trkpt>
      <trkpt lat="50.315310" lon="26.592688">
        <ele>237.543556</ele>
        <time>2019-06-07T05:19:21.000Z</time>
      </trkpt>
      <trkpt lat="50.315310" lon="26.592846">
        <ele>237.536886</ele>
        <time>2019-06-07T05:19:23.000Z</time>
      </trkpt>
      <trkpt lat="50.315308" lon="26.593006">
        <ele>237.530131</ele>
        <time>2019-06-07T05:19:25.000Z</time>
      </trkpt>
      <trkpt lat="50.315308" lon="26.593164">
        <ele>237.523461</ele>
        <time>2019-06-07T05:19:27.000Z</time>
      </trkpt>
      <trkpt lat="50.315308" lon="26.593315">
        <ele>237.517087</ele>
        <time>2019-06-07T05:19:29.000Z</time>
      </trkpt>
      <trkpt lat="50.315304" lon="26.593458">
        <ele>237.511044</ele>
        <time>2019-06-07T05:19:31.000Z</time>
      </trkpt>
      <trkpt lat="50.315304" lon="26.593603">
        <ele>237.504923</ele>
        <time>2019-06-07T05:19:33.000Z</time>
      </trkpt>
      <trkpt lat="50.315308" lon="26.593752">
        <ele>237.498628</ele>
        <time>2019-06-07T05:19:35.000Z</time>
      </trkpt>
      <trkpt lat="50.315304" lon="26.593899">
        <ele>237.492417</ele>
        <time>2019-06-07T05:19:37.000Z</time>
      </trkpt>
      <trkpt lat="50.315296" lon="26.594046">
        <ele>237.486189</ele>
        <time>2019-06-07T05:19:39.000Z</time>
      </trkpt>
      <trkpt lat="50.315296" lon="26.594254">
        <ele>237.473332</ele>
        <time>2019-06-07T05:19:42.000Z</time>
      </trkpt>
      <trkpt lat="50.315292" lon="26.594408">
        <ele>237.453112</ele>
        <time>2019-06-07T05:19:44.000Z</time>
      </trkpt>
      <trkpt lat="50.315292" lon="26.594564">
        <ele>237.432646</ele>
        <time>2019-06-07T05:19:46.000Z</time>
      </trkpt>
      <trkpt lat="50.315290" lon="26.594717">
        <ele>237.412570</ele>
        <time>2019-06-07T05:19:48.000Z</time>
      </trkpt>
      <trkpt lat="50.315277" lon="26.594870">
        <ele>237.392321</ele>
        <time>2019-06-07T05:19:50.000Z</time>
      </trkpt>
      <trkpt lat="50.315266" lon="26.595015">
        <ele>237.373164</ele>
        <time>2019-06-07T05:19:52.000Z</time>
      </trkpt>
      <trkpt lat="50.315260" lon="26.595161">
        <ele>237.353971</ele>
        <time>2019-06-07T05:19:54.000Z</time>
      </trkpt>
      <trkpt lat="50.315260" lon="26.595303">
        <ele>237.335342</ele>
        <time>2019-06-07T05:19:56.000Z</time>
      </trkpt>
      <trkpt lat="50.315258" lon="26.595448">
        <ele>237.316315</ele>
        <time>2019-06-07T05:19:58.000Z</time>
      </trkpt>
      <trkpt lat="50.315254" lon="26.595596">
        <ele>237.296881</ele>
        <time>2019-06-07T05:20:00.000Z</time>
      </trkpt>
      <trkpt lat="50.315243" lon="26.595750">
        <ele>237.276552</ele>
        <time>2019-06-07T05:20:02.000Z</time>
      </trkpt>
      <trkpt lat="50.315240" lon="26.595907">
        <ele>237.255946</ele>
        <time>2019-06-07T05:20:04.000Z</time>
      </trkpt>
      <trkpt lat="50.315230" lon="26.596062">
        <ele>237.235508</ele>
        <time>2019-06-07T05:20:06.000Z</time>
      </trkpt>
      <trkpt lat="50.315230" lon="26.596220">
        <ele>237.214779</ele>
        <time>2019-06-07T05:20:08.000Z</time>
      </trkpt>
      <trkpt lat="50.315220" lon="26.596360">
        <ele>237.196298</ele>
        <time>2019-06-07T05:20:10.000Z</time>
      </trkpt>
      <trkpt lat="50.315212" lon="26.596500">
        <ele>237.177858</ele>
        <time>2019-06-07T05:20:12.000Z</time>
      </trkpt>
      <trkpt lat="50.315210" lon="26.596647">
        <ele>237.158569</ele>
        <time>2019-06-07T05:20:14.000Z</time>
      </trkpt>
      <trkpt lat="50.315200" lon="26.596788">
        <ele>237.139957</ele>
        <time>2019-06-07T05:20:16.000Z</time>
      </trkpt>
      <trkpt lat="50.315197" lon="26.596937">
        <ele>237.120400</ele>
        <time>2019-06-07T05:20:18.000Z</time>
      </trkpt>
      <trkpt lat="50.315193" lon="26.597080">
        <ele>237.103785</ele>
        <time>2019-06-07T05:20:20.000Z</time>
      </trkpt>
      <trkpt lat="50.315186" lon="26.597235">
        <ele>237.088782</ele>
        <time>2019-06-07T05:20:22.000Z</time>
      </trkpt>
      <trkpt lat="50.315174" lon="26.597390">
        <ele>237.073707</ele>
        <time>2019-06-07T05:20:24.000Z</time>
      </trkpt>
      <trkpt lat="50.315163" lon="26.597540">
        <ele>237.059129</ele>
        <time>2019-06-07T05:20:26.000Z</time>
      </trkpt>
      <trkpt lat="50.315160" lon="26.597698">
        <ele>237.043866</ele>
        <time>2019-06-07T05:20:28.000Z</time>
      </trkpt>
      <trkpt lat="50.315155" lon="26.597860">
        <ele>237.028206</ele>
        <time>2019-06-07T05:20:30.000Z</time>
      </trkpt>
      <trkpt lat="50.315147" lon="26.598019">
        <ele>237.012807</ele>
        <time>2019-06-07T05:20:32.000Z</time>
      </trkpt>
      <trkpt lat="50.315136" lon="26.598175">
        <ele>236.997653</ele>
        <time>2019-06-07T05:20:34.000Z</time>
      </trkpt>
      <trkpt lat="50.315125" lon="26.598324">
        <ele>236.983170</ele>
        <time>2019-06-07T05:20:36.000Z</time>
      </trkpt>
      <trkpt lat="50.315110" lon="26.598484">
        <ele>236.967556</ele>
        <time>2019-06-07T05:20:38.000Z</time>
      </trkpt>
      <trkpt lat="50.315100" lon="26.598630">
        <ele>236.953379</ele>
        <time>2019-06-07T05:20:40.000Z</time>
      </trkpt>
      <trkpt lat="50.315094" lon="26.598785">
        <ele>236.938385</ele>
        <time>2019-06-07T05:20:42.000Z</time>
      </trkpt>
      <trkpt lat="50.315086" lon="26.598938">
        <ele>236.923563</ele>
        <time>2019-06-07T05:20:44.000Z</time>
      </trkpt>
      <trkpt lat="50.315075" lon="26.599087">
        <ele>236.909081</ele>
        <time>2019-06-07T05:20:46.000Z</time>
      </trkpt>
      <trkpt lat="50.315060" lon="26.599232">
        <ele>236.894898</ele>
        <time>2019-06-07T05:20:48.000Z</time>
      </trkpt>
      <trkpt lat="50.315052" lon="26.599382">
        <ele>236.880364</ele>
        <time>2019-06-07T05:20:50.000Z</time>
      </trkpt>
      <trkpt lat="50.315040" lon="26.599535">
        <ele>236.865481</ele>
        <time>2019-06-07T05:20:52.000Z</time>
      </trkpt>
      <trkpt lat="50.315030" lon="26.599690">
        <ele>236.850439</ele>
        <time>2019-06-07T05:20:54.000Z</time>
      </trkpt>
      <trkpt lat="50.315018" lon="26.599852">
        <ele>236.847342</ele>
        <time>2019-06-07T05:20:56.000Z</time>
      </trkpt>
      <trkpt lat="50.315010" lon="26.599997">
        <ele>236.889503</ele>
        <time>2019-06-07T05:20:58.000Z</time>
      </trkpt>
      <trkpt lat="50.315000" lon="26.600145">
        <ele>236.932616</ele>
        <time>2019-06-07T05:21:00.000Z</time>
      </trkpt>
      <trkpt lat="50.314990" lon="26.600294">
        <ele>236.976016</ele>
        <time>2019-06-07T05:21:02.000Z</time>
      </trkpt>
      <trkpt lat="50.314983" lon="26.600447">
        <ele>237.020451</ele>
        <time>2019-06-07T05:21:04.000Z</time>
      </trkpt>
      <trkpt lat="50.314976" lon="26.600600">
        <ele>237.064887</ele>
        <time>2019-06-07T05:21:06.000Z</time>
      </trkpt>
      <trkpt lat="50.314957" lon="26.600758">
        <ele>237.111461</ele>
        <time>2019-06-07T05:21:08.000Z</time>
      </trkpt>
      <trkpt lat="50.314945" lon="26.600916">
        <ele>237.157554</ele>
        <time>2019-06-07T05:21:10.000Z</time>
      </trkpt>
      <trkpt lat="50.314930" lon="26.601065">
        <ele>237.201250</ele>
        <time>2019-06-07T05:21:12.000Z</time>
      </trkpt>
      <trkpt lat="50.314920" lon="26.601206">
        <ele>237.242347</ele>
        <time>2019-06-07T05:21:14.000Z</time>
      </trkpt>
      <trkpt lat="50.314903" lon="26.601349">
        <ele>237.284483</ele>
        <time>2019-06-07T05:21:16.000Z</time>
      </trkpt>
      <trkpt lat="50.314888" lon="26.601500">
        <ele>237.328752</ele>
        <time>2019-06-07T05:21:18.000Z</time>
      </trkpt>
      <trkpt lat="50.314873" lon="26.601648">
        <ele>237.372162</ele>
        <time>2019-06-07T05:21:20.000Z</time>
      </trkpt>
      <trkpt lat="50.314857" lon="26.601795">
        <ele>237.415359</ele>
        <time>2019-06-07T05:21:22.000Z</time>
      </trkpt>
      <trkpt lat="50.314854" lon="26.601942">
        <ele>237.457965</ele>
        <time>2019-06-07T05:21:24.000Z</time>
      </trkpt>
      <trkpt lat="50.314840" lon="26.602090">
        <ele>237.501306</ele>
        <time>2019-06-07T05:21:26.000Z</time>
      </trkpt>
      <trkpt lat="50.314830" lon="26.602251">
        <ele>237.548165</ele>
        <time>2019-06-07T05:21:28.000Z</time>
      </trkpt>
      <trkpt lat="50.314810" lon="26.602400">
        <ele>237.592272</ele>
        <time>2019-06-07T05:21:30.000Z</time>
      </trkpt>
      <trkpt lat="50.314800" lon="26.602558">
        <ele>237.638266</ele>
        <time>2019-06-07T05:21:32.000Z</time>
      </trkpt>
      <trkpt lat="50.314785" lon="26.602707">
        <ele>237.626569</ele>
        <time>2019-06-07T05:21:34.000Z</time>
      </trkpt>
      <trkpt lat="50.314770" lon="26.602850">
        <ele>237.585965</ele>
        <time>2019-06-07T05:21:36.000Z</time>
      </trkpt>
      <trkpt lat="50.314754" lon="26.602999">
        <ele>237.543632</ele>
        <time>2019-06-07T05:21:38.000Z</time>
      </trkpt>
      <trkpt lat="50.314740" lon="26.603138">
        <ele>237.504205</ele>
        <time>2019-06-07T05:21:40.000Z</time>
      </trkpt>
      <trkpt lat="50.314724" lon="26.603285">
        <ele>237.462424</ele>
        <time>2019-06-07T05:21:42.000Z</time>
      </trkpt>
      <trkpt lat="50.314710" lon="26.603426">
        <ele>237.422443</ele>
        <time>2019-06-07T05:21:44.000Z</time>
      </trkpt>
      <trkpt lat="50.314693" lon="26.603579">
        <ele>237.378931</ele>
        <time>2019-06-07T05:21:46.000Z</time>
      </trkpt>
      <trkpt lat="50.314686" lon="26.603735">
        <ele>237.335114</ele>
        <time>2019-06-07T05:21:48.000Z</time>
      </trkpt>
      <trkpt lat="50.314663" lon="26.603876">
        <ele>237.294339</ele>
        <time>2019-06-07T05:21:50.000Z</time>
      </trkpt>
      <trkpt lat="50.314648" lon="26.604023">
        <ele>237.252630</ele>
        <time>2019-06-07T05:21:52.000Z</time>
      </trkpt>
      <trkpt lat="50.314625" lon="26.604176">
        <ele>237.208590</ele>
        <time>2019-06-07T05:21:54.000Z</time>
      </trkpt>
      <trkpt lat="50.314606" lon="26.604326">
        <ele>237.165743</ele>
        <time>2019-06-07T05:21:56.000Z</time>
      </trkpt>
      <trkpt lat="50.314583" lon="26.604477">
        <ele>237.122248</ele>
        <time>2019-06-07T05:21:58.000Z</time>
      </trkpt>
      <trkpt lat="50.314564" lon="26.604630">
        <ele>237.078577</ele>
        <time>2019-06-07T05:22:00.000Z</time>
      </trkpt>
      <trkpt lat="50.314550" lon="26.604786">
        <ele>237.034438</ele>
        <time>2019-06-07T05:22:02.000Z</time>
      </trkpt>
      <trkpt lat="50.314530" lon="26.604946">
        <ele>236.988758</ele>
        <time>2019-06-07T05:22:04.000Z</time>
      </trkpt>
      <trkpt lat="50.314510" lon="26.605099">
        <ele>236.945000</ele>
        <time>2019-06-07T05:22:06.000Z</time>
      </trkpt>
      <trkpt lat="50.314495" lon="26.605250">
        <ele>236.902184</ele>
        <time>2019-06-07T05:22:08.000Z</time>
      </trkpt>
      <trkpt lat="50.314480" lon="26.605406">
        <ele>236.870026</ele>
        <time>2019-06-07T05:22:10.000Z</time>
      </trkpt>
      <trkpt lat="50.314460" lon="26.605562">
        <ele>236.906379</ele>
        <time>2019-06-07T05:22:12.000Z</time>
      </trkpt>
      <trkpt lat="50.314440" lon="26.605726">
        <ele>236.944525</ele>
        <time>2019-06-07T05:22:14.000Z</time>
      </trkpt>
      <trkpt lat="50.314426" lon="26.605879">
        <ele>236.979838</ele>
        <time>2019-06-07T05:22:16.000Z</time>
      </trkpt>
      <trkpt lat="50.314407" lon="26.606041">
        <ele>237.017470</ele>
        <time>2019-06-07T05:22:18.000Z</time>
      </trkpt>
      <trkpt lat="50.314384" lon="26.606203">
        <ele>237.055386</ele>
        <time>2019-06-07T05:22:20.000Z</time>
      </trkpt>
      <trkpt lat="50.314360" lon="26.606354">
        <ele>237.090938</ele>
        <time>2019-06-07T05:22:22.000Z</time>
      </trkpt>
      <trkpt lat="50.314340" lon="26.606503">
        <ele>237.125724</ele>
        <time>2019-06-07T05:22:24.000Z</time>
      </trkpt>
      <trkpt lat="50.314320" lon="26.606657">
        <ele>237.161629</ele>
        <time>2019-06-07T05:22:26.000Z</time>
      </trkpt>
      <trkpt lat="50.314300" lon="26.606810">
        <ele>237.197310</ele>
        <time>2019-06-07T05:22:28.000Z</time>
      </trkpt>
      <trkpt lat="50.314274" lon="26.606962">
        <ele>237.233262</ele>
        <time>2019-06-07T05:22:30.000Z</time>
      </trkpt>
      <trkpt lat="50.314250" lon="26.607119">
        <ele>237.270146</ele>
        <time>2019-06-07T05:22:32.000Z</time>
      </trkpt>
      <trkpt lat="50.314230" lon="26.607264">
        <ele>237.304038</ele>
        <time>2019-06-07T05:22:34.000Z</time>
      </trkpt>
      <trkpt lat="50.314213" lon="26.607414">
        <ele>237.338845</ele>
        <time>2019-06-07T05:22:36.000Z</time>
      </trkpt>
      <trkpt lat="50.314198" lon="26.607573">
        <ele>237.375566</ele>
        <time>2019-06-07T05:22:38.000Z</time>
      </trkpt>
      <trkpt lat="50.314180" lon="26.607727">
        <ele>237.411336</ele>
        <time>2019-06-07T05:22:40.000Z</time>
      </trkpt>
      <trkpt lat="50.314156" lon="26.607882">
        <ele>237.447775</ele>
        <time>2019-06-07T05:22:42.000Z</time>
      </trkpt>
      <trkpt lat="50.314130" lon="26.608038">
        <ele>237.484611</ele>
        <time>2019-06-07T05:22:44.000Z</time>
      </trkpt>
      <trkpt lat="50.314102" lon="26.608192">
        <ele>237.506832</ele>
        <time>2019-06-07T05:22:46.000Z</time>
      </trkpt>
      <trkpt lat="50.314080" lon="26.608337">
        <ele>237.503414</ele>
        <time>2019-06-07T05:22:48.000Z</time>
      </trkpt>
      <trkpt lat="50.314053" lon="26.608500">
        <ele>237.499552</ele>
        <time>2019-06-07T05:22:50.000Z</time>
      </trkpt>
      <trkpt lat="50.314030" lon="26.608658">
        <ele>237.495835</ele>
        <time>2019-06-07T05:22:52.000Z</time>
      </trkpt>
      <trkpt lat="50.314010" lon="26.608822">
        <ele>237.492006</ele>
        <time>2019-06-07T05:22:54.000Z</time>
      </trkpt>
      <trkpt lat="50.313988" lon="26.608974">
        <ele>237.488431</ele>
        <time>2019-06-07T05:22:56.000Z</time>
      </trkpt>
      <trkpt lat="50.313965" lon="26.609127">
        <ele>237.484826</ele>
        <time>2019-06-07T05:22:58.000Z</time>
      </trkpt>
      <trkpt lat="50.313942" lon="26.609276">
        <ele>237.481311</ele>
        <time>2019-06-07T05:23:00.000Z</time>
      </trkpt>
      <trkpt lat="50.313915" lon="26.609426">
        <ele>237.477736</ele>
        <time>2019-06-07T05:23:02.000Z</time>
      </trkpt>
      <trkpt lat="50.313892" lon="26.609573">
        <ele>237.474265</ele>
        <time>2019-06-07T05:23:04.000Z</time>
      </trkpt>
      <trkpt lat="50.313870" lon="26.609726">
        <ele>237.470668</ele>
        <time>2019-06-07T05:23:06.000Z</time>
      </trkpt>
      <trkpt lat="50.313843" lon="26.609882">
        <ele>237.466962</ele>
        <time>2019-06-07T05:23:08.000Z</time>
      </trkpt>
      <trkpt lat="50.313820" lon="26.610033">
        <ele>237.463401</ele>
        <time>2019-06-07T05:23:10.000Z</time>
      </trkpt>
      <trkpt lat="50.313790" lon="26.610178">
        <ele>237.459906</ele>
        <time>2019-06-07T05:23:12.000Z</time>
      </trkpt>
      <trkpt lat="50.313763" lon="26.610327">
        <ele>237.456353</ele>
        <time>2019-06-07T05:23:14.000Z</time>
      </trkpt>
      <trkpt lat="50.313740" lon="26.610481">
        <ele>237.452726</ele>
        <time>2019-06-07T05:23:16.000Z</time>
      </trkpt>
      <trkpt lat="50.313717" lon="26.610634">
        <ele>237.449121</ele>
        <time>2019-06-07T05:23:18.000Z</time>
      </trkpt>
      <trkpt lat="50.313686" lon="26.610788">
        <ele>237.445418</ele>
        <time>2019-06-07T05:23:20.000Z</time>
      </trkpt>
      <trkpt lat="50.313667" lon="26.610939">
        <ele>237.432032</ele>
        <time>2019-06-07T05:23:22.000Z</time>
      </trkpt>
      <trkpt lat="50.313640" lon="26.611095">
        <ele>237.406257</ele>
        <time>2019-06-07T05:23:24.000Z</time>
      </trkpt>
      <trkpt lat="50.313606" lon="26.611248">
        <ele>237.380423</ele>
        <time>2019-06-07T05:23:26.000Z</time>
      </trkpt>
      <trkpt lat="50.313580" lon="26.611395">
        <ele>237.356098</ele>
        <time>2019-06-07T05:23:28.000Z</time>
      </trkpt>
      <trkpt lat="50.313553" lon="26.611547">
        <ele>237.330938</ele>
        <time>2019-06-07T05:23:30.000Z</time>
      </trkpt>
      <trkpt lat="50.313526" lon="26.611692">
        <ele>237.306851</ele>
        <time>2019-06-07T05:23:32.000Z</time>
      </trkpt>
      <trkpt lat="50.313503" lon="26.611850">
        <ele>237.281009</ele>
        <time>2019-06-07T05:23:34.000Z</time>
      </trkpt>
      <trkpt lat="50.313480" lon="26.612000">
        <ele>237.256408</ele>
        <time>2019-06-07T05:23:36.000Z</time>
      </trkpt>
      <trkpt lat="50.313454" lon="26.612152">
        <ele>237.231313</ele>
        <time>2019-06-07T05:23:38.000Z</time>
      </trkpt>
      <trkpt lat="50.313427" lon="26.612303">
        <ele>237.206307</ele>
        <time>2019-06-07T05:23:40.000Z</time>
      </trkpt>
      <trkpt lat="50.313400" lon="26.612442">
        <ele>237.183137</ele>
        <time>2019-06-07T05:23:42.000Z</time>
      </trkpt>
      <trkpt lat="50.313370" lon="26.612595">
        <ele>237.157614</ele>
        <time>2019-06-07T05:23:44.000Z</time>
      </trkpt>
      <trkpt lat="50.313335" lon="26.612747">
        <ele>237.131846</ele>
        <time>2019-06-07T05:23:46.000Z</time>
      </trkpt>
      <trkpt lat="50.313313" lon="26.612900">
        <ele>237.106836</ele>
        <time>2019-06-07T05:23:48.000Z</time>
      </trkpt>
      <trkpt lat="50.313286" lon="26.613050">
        <ele>237.081983</ele>
        <time>2019-06-07T05:23:50.000Z</time>
      </trkpt>
      <trkpt lat="50.313260" lon="26.613207">
        <ele>237.056118</ele>
        <time>2019-06-07T05:23:52.000Z</time>
      </trkpt>
      <trkpt lat="50.313225" lon="26.613358">
        <ele>237.030500</ele>
        <time>2019-06-07T05:23:54.000Z</time>
      </trkpt>
      <trkpt lat="50.313190" lon="26.613506">
        <ele>237.005331</ele>
        <time>2019-06-07T05:23:56.000Z</time>
      </trkpt>
      <trkpt lat="50.313164" lon="26.613655">
        <ele>236.980654</ele>
        <time>2019-06-07T05:23:58.000Z</time>
      </trkpt>
      <trkpt lat="50.313130" lon="26.613789">
        <ele>236.957585</ele>
        <time>2019-06-07T05:24:00.000Z</time>
      </trkpt>
      <trkpt lat="50.313100" lon="26.613930">
        <ele>236.933807</ele>
        <time>2019-06-07T05:24:02.000Z</time>
      </trkpt>
      <trkpt lat="50.313072" lon="26.614069">
        <ele>236.910488</ele>
        <time>2019-06-07T05:24:04.000Z</time>
      </trkpt>
      <trkpt lat="50.313046" lon="26.614214">
        <ele>236.886392</ele>
        <time>2019-06-07T05:24:06.000Z</time>
      </trkpt>
      <trkpt lat="50.313020" lon="26.614360">
        <ele>236.862142</ele>
        <time>2019-06-07T05:24:08.000Z</time>
      </trkpt>
      <trkpt lat="50.312984" lon="26.614506">
        <ele>236.837103</ele>
        <time>2019-06-07T05:24:10.000Z</time>
      </trkpt>
      <trkpt lat="50.312946" lon="26.614655">
        <ele>236.811433</ele>
        <time>2019-06-07T05:24:12.000Z</time>
      </trkpt>
      <trkpt lat="50.312920" lon="26.614809">
        <ele>236.785948</ele>
        <time>2019-06-07T05:24:14.000Z</time>
      </trkpt>
      <trkpt lat="50.312885" lon="26.614950">
        <ele>236.761745</ele>
        <time>2019-06-07T05:24:16.000Z</time>
      </trkpt>
      <trkpt lat="50.312850" lon="26.615100">
        <ele>236.736194</ele>
        <time>2019-06-07T05:24:18.000Z</time>
      </trkpt>
      <trkpt lat="50.312820" lon="26.615242">
        <ele>236.712264</ele>
        <time>2019-06-07T05:24:20.000Z</time>
      </trkpt>
      <trkpt lat="50.312794" lon="26.615381">
        <ele>236.689091</ele>
        <time>2019-06-07T05:24:22.000Z</time>
      </trkpt>
      <trkpt lat="50.312760" lon="26.615524">
        <ele>236.664678</ele>
        <time>2019-06-07T05:24:24.000Z</time>
      </trkpt>
      <trkpt lat="50.312733" lon="26.615670">
        <ele>236.640359</ele>
        <time>2019-06-07T05:24:26.000Z</time>
      </trkpt>
      <trkpt lat="50.312695" lon="26.615816">
        <ele>236.615134</ele>
        <time>2019-06-07T05:24:28.000Z</time>
      </trkpt>
      <trkpt lat="50.312650" lon="26.615960">
        <ele>236.589485</ele>
        <time>2019-06-07T05:24:30.000Z</time>
      </trkpt>
      <trkpt lat="50.312620" lon="26.616110">
        <ele>236.564336</ele>
        <time>2019-06-07T05:24:32.000Z</time>
      </trkpt>
      <trkpt lat="50.312584" lon="26.616262">
        <ele>236.545814</ele>
        <time>2019-06-07T05:24:34.000Z</time>
      </trkpt>
      <trkpt lat="50.312553" lon="26.616415">
        <ele>236.555744</ele>
        <time>2019-06-07T05:24:36.000Z</time>
      </trkpt>
      <trkpt lat="50.312523" lon="26.616556">
        <ele>236.564938</ele>
        <time>2019-06-07T05:24:38.000Z</time>
      </trkpt>
      <trkpt lat="50.312490" lon="26.616697">
        <ele>236.574228</ele>
        <time>2019-06-07T05:24:40.000Z</time>
      </trkpt>
      <trkpt lat="50.312450" lon="26.616829">
        <ele>236.583266</ele>
        <time>2019-06-07T05:24:42.000Z</time>
      </trkpt>
      <trkpt lat="50.312420" lon="26.616970">
        <ele>236.592460</ele>
        <time>2019-06-07T05:24:44.000Z</time>
      </trkpt>
      <trkpt lat="50.312390" lon="26.617102">
        <ele>236.601128</ele>
        <time>2019-06-07T05:24:46.000Z</time>
      </trkpt>
      <trkpt lat="50.312350" lon="26.617240">
        <ele>236.610504</ele>
        <time>2019-06-07T05:24:48.000Z</time>
      </trkpt>
      <trkpt lat="50.312313" lon="26.617378">
        <ele>236.619763</ele>
        <time>2019-06-07T05:24:50.000Z</time>
      </trkpt>
      <trkpt lat="50.312280" lon="26.617517">
        <ele>236.628937</ele>
        <time>2019-06-07T05:24:52.000Z</time>
      </trkpt>
      <trkpt lat="50.312240" lon="26.617660">
        <ele>236.638595</ele>
        <time>2019-06-07T05:24:54.000Z</time>
      </trkpt>
      <trkpt lat="50.312210" lon="26.617800">
        <ele>236.647730</ele>
        <time>2019-06-07T05:24:56.000Z</time>
      </trkpt>
      <trkpt lat="50.312176" lon="26.617937">
        <ele>236.656823</ele>
        <time>2019-06-07T05:24:58.000Z</time>
      </trkpt>
      <trkpt lat="50.312140" lon="26.618076">
        <ele>236.666102</ele>
        <time>2019-06-07T05:25:00.000Z</time>
      </trkpt>
      <trkpt lat="50.312107" lon="26.618210">
        <ele>236.674987</ele>
        <time>2019-06-07T05:25:02.000Z</time>
      </trkpt>
      <trkpt lat="50.312077" lon="26.618353">
        <ele>236.684298</ele>
        <time>2019-06-07T05:25:04.000Z</time>
      </trkpt>
      <trkpt lat="50.312040" lon="26.618496">
        <ele>236.693844</ele>
        <time>2019-06-07T05:25:06.000Z</time>
      </trkpt>
      <trkpt lat="50.312000" lon="26.618635">
        <ele>236.703275</ele>
        <time>2019-06-07T05:25:08.000Z</time>
      </trkpt>
      <trkpt lat="50.311960" lon="26.618767">
        <ele>236.712314</ele>
        <time>2019-06-07T05:25:10.000Z</time>
      </trkpt>
      <trkpt lat="50.311920" lon="26.618902">
        <ele>236.734591</ele>
        <time>2019-06-07T05:25:12.000Z</time>
      </trkpt>
      <trkpt lat="50.311886" lon="26.619050">
        <ele>236.780300</ele>
        <time>2019-06-07T05:25:14.000Z</time>
      </trkpt>
      <trkpt lat="50.311848" lon="26.619198">
        <ele>236.826657</ele>
        <time>2019-06-07T05:25:16.000Z</time>
      </trkpt>
      <trkpt lat="50.311810" lon="26.619340">
        <ele>236.871401</ele>
        <time>2019-06-07T05:25:18.000Z</time>
      </trkpt>
      <trkpt lat="50.311770" lon="26.619482">
        <ele>236.916504</ele>
        <time>2019-06-07T05:25:20.000Z</time>
      </trkpt>
      <trkpt lat="50.311737" lon="26.619623">
        <ele>236.960146</ele>
        <time>2019-06-07T05:25:22.000Z</time>
      </trkpt>
      <trkpt lat="50.311703" lon="26.619772">
        <ele>237.006128</ele>
        <time>2019-06-07T05:25:24.000Z</time>
      </trkpt>
      <trkpt lat="50.311660" lon="26.619910">
        <ele>237.050752</ele>
        <time>2019-06-07T05:25:26.000Z</time>
      </trkpt>
      <trkpt lat="50.311623" lon="26.620050">
        <ele>237.094785</ele>
        <time>2019-06-07T05:25:28.000Z</time>
      </trkpt>
      <trkpt lat="50.311590" lon="26.620190">
        <ele>237.138153</ele>
        <time>2019-06-07T05:25:30.000Z</time>
      </trkpt>
      <trkpt lat="50.311550" lon="26.620335">
        <ele>237.184056</ele>
        <time>2019-06-07T05:25:32.000Z</time>
      </trkpt>
      <trkpt lat="50.311510" lon="26.620472">
        <ele>237.227834</ele>
        <time>2019-06-07T05:25:34.000Z</time>
      </trkpt>
      <trkpt lat="50.311466" lon="26.620611">
        <ele>237.272920</ele>
        <time>2019-06-07T05:25:36.000Z</time>
      </trkpt>
      <trkpt lat="50.311430" lon="26.620747">
        <ele>237.315704</ele>
        <time>2019-06-07T05:25:38.000Z</time>
      </trkpt>
      <trkpt lat="50.311398" lon="26.620890">
        <ele>237.359739</ele>
        <time>2019-06-07T05:25:40.000Z</time>
      </trkpt>
      <trkpt lat="50.311360" lon="26.621033">
        <ele>237.404752</ele>
        <time>2019-06-07T05:25:42.000Z</time>
      </trkpt>
      <trkpt lat="50.311320" lon="26.621174">
        <ele>237.449590</ele>
        <time>2019-06-07T05:25:44.000Z</time>
      </trkpt>
      <trkpt lat="50.311283" lon="26.621305">
        <ele>237.491218</ele>
        <time>2019-06-07T05:25:46.000Z</time>
      </trkpt>
      <trkpt lat="50.311250" lon="26.621445">
        <ele>237.534587</ele>
        <time>2019-06-07T05:25:48.000Z</time>
      </trkpt>
      <trkpt lat="50.311210" lon="26.621578">
        <ele>237.551990</ele>
        <time>2019-06-07T05:25:50.000Z</time>
      </trkpt>
      <trkpt lat="50.311170" lon="26.621716">
        <ele>237.568709</ele>
        <time>2019-06-07T05:25:52.000Z</time>
      </trkpt>
      <trkpt lat="50.311130" lon="26.621860">
        <ele>237.586033</ele>
        <time>2019-06-07T05:25:54.000Z</time>
      </trkpt>
      <trkpt lat="50.311085" lon="26.621998">
        <ele>237.603128</ele>
        <time>2019-06-07T05:25:56.000Z</time>
      </trkpt>
      <trkpt lat="50.311050" lon="26.622133">
        <ele>237.619202</ele>
        <time>2019-06-07T05:25:58.000Z</time>
      </trkpt>
      <trkpt lat="50.311012" lon="26.622270">
        <ele>237.635680</ele>
        <time>2019-06-07T05:26:00.000Z</time>
      </trkpt>
      <trkpt lat="50.310974" lon="26.622410">
        <ele>237.652462</ele>
        <time>2019-06-07T05:26:02.000Z</time>
      </trkpt>
      <trkpt lat="50.310932" lon="26.622551">
        <ele>237.669627</ele>
        <time>2019-06-07T05:26:04.000Z</time>
      </trkpt>
      <trkpt lat="50.310886" lon="26.622688">
        <ele>237.686703</ele>
        <time>2019-06-07T05:26:06.000Z</time>
      </trkpt>
      <trkpt lat="50.310840" lon="26.622820">
        <ele>237.703292</ele>
        <time>2019-06-07T05:26:08.000Z</time>
      </trkpt>
      <trkpt lat="50.310783" lon="26.622995">
        <ele>237.724965</ele>
        <time>2019-06-07T05:26:11.000Z</time>
      </trkpt>
      <trkpt lat="50.310722" lon="26.623178">
        <ele>237.747739</ele>
        <time>2019-06-07T05:26:14.000Z</time>
      </trkpt>
      <trkpt lat="50.310680" lon="26.623308">
        <ele>237.763811</ele>
        <time>2019-06-07T05:26:16.000Z</time>
      </trkpt>
      <trkpt lat="50.310610" lon="26.623472">
        <ele>237.785574</ele>
        <time>2019-06-07T05:26:19.000Z</time>
      </trkpt>
      <trkpt lat="50.310530" lon="26.623625">
        <ele>237.807389</ele>
        <time>2019-06-07T05:26:22.000Z</time>
      </trkpt>
      <trkpt lat="50.310470" lon="26.623758">
        <ele>237.825354</ele>
        <time>2019-06-07T05:26:25.000Z</time>
      </trkpt>
      <trkpt lat="50.310394" lon="26.623901">
        <ele>237.845878</ele>
        <time>2019-06-07T05:26:29.000Z</time>
      </trkpt>
      <trkpt lat="50.310333" lon="26.624018">
        <ele>237.875069</ele>
        <time>2019-06-07T05:26:33.000Z</time>
      </trkpt>
      <trkpt lat="50.310276" lon="26.624144">
        <ele>237.906028</ele>
        <time>2019-06-07T05:26:38.000Z</time>
      </trkpt>
      <trkpt lat="50.310215" lon="26.624355">
        <ele>237.952467</ele>
        <time>2019-06-07T05:31:10.000Z</time>
      </trkpt>
      <trkpt lat="50.310160" lon="26.624498">
        <ele>237.985936</ele>
        <time>2019-06-07T05:31:15.000Z</time>
      </trkpt>
      <trkpt lat="50.310112" lon="26.624632">
        <ele>238.016741</ele>
        <time>2019-06-07T05:31:19.000Z</time>
      </trkpt>
      <trkpt lat="50.310074" lon="26.624784">
        <ele>238.049469</ele>
        <time>2019-06-07T05:31:23.000Z</time>
      </trkpt>
      <trkpt lat="50.310024" lon="26.624947">
        <ele>238.085725</ele>
        <time>2019-06-07T05:31:27.000Z</time>
      </trkpt>
      <trkpt lat="50.309980" lon="26.625076">
        <ele>238.115047</ele>
        <time>2019-06-07T05:31:30.000Z</time>
      </trkpt>
      <trkpt lat="50.309933" lon="26.625212">
        <ele>238.146052</ele>
        <time>2019-06-07T05:31:33.000Z</time>
      </trkpt>
      <trkpt lat="50.309890" lon="26.625357">
        <ele>238.178106</ele>
        <time>2019-06-07T05:31:36.000Z</time>
      </trkpt>
      <trkpt lat="50.309850" lon="26.625496">
        <ele>238.208674</ele>
        <time>2019-06-07T05:31:39.000Z</time>
      </trkpt>
      <trkpt lat="50.309800" lon="26.625643">
        <ele>238.242067</ele>
        <time>2019-06-07T05:31:42.000Z</time>
      </trkpt>
      <trkpt lat="50.309740" lon="26.625790">
        <ele>238.277046</ele>
        <time>2019-06-07T05:31:45.000Z</time>
      </trkpt>
      <trkpt lat="50.309685" lon="26.625929">
        <ele>238.309832</ele>
        <time>2019-06-07T05:31:48.000Z</time>
      </trkpt>
      <trkpt lat="50.309620" lon="26.626053">
        <ele>238.341997</ele>
        <time>2019-06-07T05:31:51.000Z</time>
      </trkpt>
      <trkpt lat="50.309547" lon="26.626167">
        <ele>238.374365</ele>
        <time>2019-06-07T05:31:54.000Z</time>
      </trkpt>
      <trkpt lat="50.309464" lon="26.626268">
        <ele>238.407367</ele>
        <time>2019-06-07T05:31:57.000Z</time>
      </trkpt>
      <trkpt lat="50.309383" lon="26.626364">
        <ele>238.373475</ele>
        <time>2019-06-07T05:32:00.000Z</time>
      </trkpt>
      <trkpt lat="50.309310" lon="26.626453">
        <ele>238.332675</ele>
        <time>2019-06-07T05:32:03.000Z</time>
      </trkpt>
      <trkpt lat="50.309230" lon="26.626537">
        <ele>238.290199</ele>
        <time>2019-06-07T05:32:06.000Z</time>
      </trkpt>
      <trkpt lat="50.309147" lon="26.626604">
        <ele>238.249019</ele>
        <time>2019-06-07T05:32:09.000Z</time>
      </trkpt>
      <trkpt lat="50.309050" lon="26.626665">
        <ele>238.202922</ele>
        <time>2019-06-07T05:32:12.000Z</time>
      </trkpt>
      <trkpt lat="50.308956" lon="26.626732">
        <ele>238.157377</ele>
        <time>2019-06-07T05:32:15.000Z</time>
      </trkpt>
      <trkpt lat="50.308870" lon="26.626800">
        <ele>238.114891</ele>
        <time>2019-06-07T05:32:18.000Z</time>
      </trkpt>
      <trkpt lat="50.308770" lon="26.626873">
        <ele>238.066235</ele>
        <time>2019-06-07T05:32:21.000Z</time>
      </trkpt>
      <trkpt lat="50.308662" lon="26.626950">
        <ele>238.013904</ele>
        <time>2019-06-07T05:32:24.000Z</time>
      </trkpt>
      <trkpt lat="50.308556" lon="26.626993">
        <ele>237.965616</ele>
        <time>2019-06-07T05:32:27.000Z</time>
      </trkpt>
      <trkpt lat="50.308437" lon="26.627045">
        <ele>237.911133</ele>
        <time>2019-06-07T05:32:30.000Z</time>
      </trkpt>
      <trkpt lat="50.308310" lon="26.627094">
        <ele>237.853452</ele>
        <time>2019-06-07T05:32:33.000Z</time>
      </trkpt>
      <trkpt lat="50.308193" lon="26.627125">
        <ele>237.801123</ele>
        <time>2019-06-07T05:32:36.000Z</time>
      </trkpt>
      <trkpt lat="50.308067" lon="26.627157">
        <ele>237.744833</ele>
        <time>2019-06-07T05:32:39.000Z</time>
      </trkpt>
      <trkpt lat="50.307940" lon="26.627178">
        <ele>237.688516</ele>
        <time>2019-06-07T05:32:42.000Z</time>
      </trkpt>
      <trkpt lat="50.307820" lon="26.627193">
        <ele>237.635429</ele>
        <time>2019-06-07T05:32:45.000Z</time>
      </trkpt>
      <trkpt lat="50.307693" lon="26.627218">
        <ele>237.646088</ele>
        <time>2019-06-07T05:32:48.000Z</time>
      </trkpt>
      <trkpt lat="50.307564" lon="26.627241">
        <ele>237.685511</ele>
        <time>2019-06-07T05:32:51.000Z</time>
      </trkpt>
      <trkpt lat="50.307446" lon="26.627253">
        <ele>237.721417</ele>
        <time>2019-06-07T05:32:54.000Z</time>
      </trkpt>
      <trkpt lat="50.307327" lon="26.627266">
        <ele>237.757639</ele>
        <time>2019-06-07T05:32:57.000Z</time>
      </trkpt>
      <trkpt lat="50.307205" lon="26.627298">
        <ele>237.795199</ele>
        <time>2019-06-07T05:33:00.000Z</time>
      </trkpt>
      <trkpt lat="50.307083" lon="26.627312">
        <ele>237.832344</ele>
        <time>2019-06-07T05:33:03.000Z</time>
      </trkpt>
      <trkpt lat="50.306957" lon="26.627338">
        <ele>237.870934</ele>
        <time>2019-06-07T05:33:06.000Z</time>
      </trkpt>
      <trkpt lat="50.306824" lon="26.627356">
        <ele>237.911469</ele>
        <time>2019-06-07T05:33:09.000Z</time>
      </trkpt>
      <trkpt lat="50.306700" lon="26.627375">
        <ele>237.949301</ele>
        <time>2019-06-07T05:33:12.000Z</time>
      </trkpt>
      <trkpt lat="50.306572" lon="26.627394">
        <ele>237.988342</ele>
        <time>2019-06-07T05:33:15.000Z</time>
      </trkpt>
      <trkpt lat="50.306460" lon="26.627413">
        <ele>238.022549</ele>
        <time>2019-06-07T05:33:18.000Z</time>
      </trkpt>
      <trkpt lat="50.306340" lon="26.627434">
        <ele>238.059214</ele>
        <time>2019-06-07T05:33:21.000Z</time>
      </trkpt>
      <trkpt lat="50.306213" lon="26.627440">
        <ele>238.097794</ele>
        <time>2019-06-07T05:33:24.000Z</time>
      </trkpt>
      <trkpt lat="50.306126" lon="26.627455">
        <ele>238.124371</ele>
        <time>2019-06-07T05:33:26.000Z</time>
      </trkpt>
      <trkpt lat="50.305996" lon="26.627476">
        <ele>238.164054</ele>
        <time>2019-06-07T05:33:29.000Z</time>
      </trkpt>
      <trkpt lat="50.305870" lon="26.627490">
        <ele>238.133619</ele>
        <time>2019-06-07T05:33:32.000Z</time>
      </trkpt>
      <trkpt lat="50.305717" lon="26.627516">
        <ele>238.094708</ele>
        <time>2019-06-07T05:33:36.000Z</time>
      </trkpt>
      <trkpt lat="50.305622" lon="26.627533">
        <ele>238.070533</ele>
        <time>2019-06-07T05:33:39.000Z</time>
      </trkpt>
      <trkpt lat="50.305523" lon="26.627596">
        <ele>238.043514</ele>
        <time>2019-06-07T05:33:43.000Z</time>
      </trkpt>
      <trkpt lat="50.305440" lon="26.627666">
        <ele>238.019678</ele>
        <time>2019-06-07T05:33:47.000Z</time>
      </trkpt>
      <trkpt lat="50.305355" lon="26.627745">
        <ele>237.994686</ele>
        <time>2019-06-07T05:33:50.000Z</time>
      </trkpt>
      <trkpt lat="50.305233" lon="26.627806">
        <ele>237.962305</ele>
        <time>2019-06-07T05:33:53.000Z</time>
      </trkpt>
      <trkpt lat="50.305130" lon="26.627857">
        <ele>237.934992</ele>
        <time>2019-06-07T05:33:56.000Z</time>
      </trkpt>
      <trkpt lat="50.305050" lon="26.627928">
        <ele>237.911742</ele>
        <time>2019-06-07T05:33:59.000Z</time>
      </trkpt>
      <trkpt lat="50.304977" lon="26.628020">
        <ele>237.888049</ele>
        <time>2019-06-07T05:34:02.000Z</time>
      </trkpt>
      <trkpt lat="50.304913" lon="26.628126">
        <ele>237.864494</ele>
        <time>2019-06-07T05:34:05.000Z</time>
      </trkpt>
      <trkpt lat="50.304850" lon="26.628235">
        <ele>237.840755</ele>
        <time>2019-06-07T05:34:08.000Z</time>
      </trkpt>
      <trkpt lat="50.304810" lon="26.628368">
        <ele>237.817015</ele>
        <time>2019-06-07T05:34:11.000Z</time>
      </trkpt>
      <trkpt lat="50.304756" lon="26.628580">
        <ele>237.780159</ele>
        <time>2019-06-07T05:34:15.000Z</time>
      </trkpt>
      <trkpt lat="50.304720" lon="26.628738">
        <ele>237.753069</ele>
        <time>2019-06-07T05:34:18.000Z</time>
      </trkpt>
      <trkpt lat="50.304676" lon="26.628883">
        <ele>237.727145</ele>
        <time>2019-06-07T05:34:21.000Z</time>
      </trkpt>
      <trkpt lat="50.304646" lon="26.629042">
        <ele>237.712188</ele>
        <time>2019-06-07T05:34:24.000Z</time>
      </trkpt>
      <trkpt lat="50.304600" lon="26.629183">
        <ele>237.717620</ele>
        <time>2019-06-07T05:34:27.000Z</time>
      </trkpt>
      <trkpt lat="50.304546" lon="26.629320">
        <ele>237.723143</ele>
        <time>2019-06-07T05:34:30.000Z</time>
      </trkpt>
      <trkpt lat="50.304485" lon="26.629465">
        <ele>237.729100</ele>
        <time>2019-06-07T05:34:33.000Z</time>
      </trkpt>
      <trkpt lat="50.304450" lon="26.629602">
        <ele>237.734162</ele>
        <time>2019-06-07T05:34:36.000Z</time>
      </trkpt>
      <trkpt lat="50.304417" lon="26.629747">
        <ele>237.739443</ele>
        <time>2019-06-07T05:34:39.000Z</time>
      </trkpt>
      <trkpt lat="50.304370" lon="26.629911">
        <ele>237.745610</ele>
        <time>2019-06-07T05:34:42.000Z</time>
      </trkpt>
      <trkpt lat="50.304348" lon="26.630074">
        <ele>237.751326</ele>
        <time>2019-06-07T05:34:45.000Z</time>
      </trkpt>
      <trkpt lat="50.304314" lon="26.630226">
        <ele>237.756851</ele>
        <time>2019-06-07T05:34:48.000Z</time>
      </trkpt>
      <trkpt lat="50.304276" lon="26.630390">
        <ele>237.762837</ele>
        <time>2019-06-07T05:34:51.000Z</time>
      </trkpt>
      <trkpt lat="50.304234" lon="26.630547">
        <ele>237.768677</ele>
        <time>2019-06-07T05:34:54.000Z</time>
      </trkpt>
      <trkpt lat="50.304190" lon="26.630692">
        <ele>237.774184</ele>
        <time>2019-06-07T05:34:57.000Z</time>
      </trkpt>
      <trkpt lat="50.304153" lon="26.630857">
        <ele>237.780184</ele>
        <time>2019-06-07T05:35:00.000Z</time>
      </trkpt>
      <trkpt lat="50.304115" lon="26.631027">
        <ele>237.786363</ele>
        <time>2019-06-07T05:35:03.000Z</time>
      </trkpt>
      <trkpt lat="50.304077" lon="26.631207">
        <ele>237.792867</ele>
        <time>2019-06-07T05:35:06.000Z</time>
      </trkpt>
      <trkpt lat="50.304028" lon="26.631384">
        <ele>237.799486</ele>
        <time>2019-06-07T05:35:09.000Z</time>
      </trkpt>
      <trkpt lat="50.303980" lon="26.631556">
        <ele>237.805926</ele>
        <time>2019-06-07T05:35:12.000Z</time>
      </trkpt>
      <trkpt lat="50.303940" lon="26.631704">
        <ele>237.833840</ele>
        <time>2019-06-07T05:35:15.000Z</time>
      </trkpt>
      <trkpt lat="50.303898" lon="26.631855">
        <ele>237.866381</ele>
        <time>2019-06-07T05:35:18.000Z</time>
      </trkpt>
      <trkpt lat="50.303850" lon="26.632019">
        <ele>237.902023</ele>
        <time>2019-06-07T05:35:21.000Z</time>
      </trkpt>
      <trkpt lat="50.303810" lon="26.632172">
        <ele>237.934687</ele>
        <time>2019-06-07T05:35:24.000Z</time>
      </trkpt>
      <trkpt lat="50.303787" lon="26.632350">
        <ele>237.970568</ele>
        <time>2019-06-07T05:35:27.000Z</time>
      </trkpt>
      <trkpt lat="50.303750" lon="26.632505">
        <ele>238.003261</ele>
        <time>2019-06-07T05:35:30.000Z</time>
      </trkpt>
      <trkpt lat="50.303703" lon="26.632668">
        <ele>238.038596</ele>
        <time>2019-06-07T05:35:33.000Z</time>
      </trkpt>
      <trkpt lat="50.303665" lon="26.632828">
        <ele>238.072323</ele>
        <time>2019-06-07T05:35:36.000Z</time>
      </trkpt>
      <trkpt lat="50.303627" lon="26.632994">
        <ele>238.107164</ele>
        <time>2019-06-07T05:35:39.000Z</time>
      </trkpt>
      <trkpt lat="50.303593" lon="26.633162">
        <ele>238.141984</ele>
        <time>2019-06-07T05:35:42.000Z</time>
      </trkpt>
      <trkpt lat="50.303550" lon="26.633340">
        <ele>238.179584</ele>
        <time>2019-06-07T05:35:45.000Z</time>
      </trkpt>
      <trkpt lat="50.303497" lon="26.633522">
        <ele>238.219104</ele>
        <time>2019-06-07T05:35:48.000Z</time>
      </trkpt>
      <trkpt lat="50.303444" lon="26.633684">
        <ele>238.255067</ele>
        <time>2019-06-07T05:35:51.000Z</time>
      </trkpt>
      <trkpt lat="50.303402" lon="26.633856">
        <ele>238.291449</ele>
        <time>2019-06-07T05:35:54.000Z</time>
      </trkpt>
      <trkpt lat="50.303356" lon="26.634037">
        <ele>238.329938</ele>
        <time>2019-06-07T05:35:57.000Z</time>
      </trkpt>
      <trkpt lat="50.303310" lon="26.634233">
        <ele>238.356032</ele>
        <time>2019-06-07T05:36:00.000Z</time>
      </trkpt>
      <trkpt lat="50.303280" lon="26.634375">
        <ele>238.330127</ele>
        <time>2019-06-07T05:36:02.000Z</time>
      </trkpt>
      <trkpt lat="50.303250" lon="26.634510">
        <ele>238.305370</ele>
        <time>2019-06-07T05:36:04.000Z</time>
      </trkpt>
      <trkpt lat="50.303215" lon="26.634640">
        <ele>238.280935</ele>
        <time>2019-06-07T05:36:06.000Z</time>
      </trkpt>
      <trkpt lat="50.303173" lon="26.634840">
        <ele>238.244470</ele>
        <time>2019-06-07T05:36:09.000Z</time>
      </trkpt>
      <trkpt lat="50.303127" lon="26.635033">
        <ele>238.208791</ele>
        <time>2019-06-07T05:36:12.000Z</time>
      </trkpt>
      <trkpt lat="50.303097" lon="26.635172">
        <ele>238.183378</ele>
        <time>2019-06-07T05:36:14.000Z</time>
      </trkpt>
      <trkpt lat="50.303050" lon="26.635359">
        <ele>238.148572</ele>
        <time>2019-06-07T05:36:17.000Z</time>
      </trkpt>
      <trkpt lat="50.302998" lon="26.635542">
        <ele>238.113881</ele>
        <time>2019-06-07T05:36:20.000Z</time>
      </trkpt>
      <trkpt lat="50.302975" lon="26.635685">
        <ele>238.088340</ele>
        <time>2019-06-07T05:36:22.000Z</time>
      </trkpt>
      <trkpt lat="50.302933" lon="26.635878">
        <ele>238.053024</ele>
        <time>2019-06-07T05:36:25.000Z</time>
      </trkpt>
      <trkpt lat="50.302870" lon="26.636053">
        <ele>238.018231</ele>
        <time>2019-06-07T05:36:28.000Z</time>
      </trkpt>
      <trkpt lat="50.302826" lon="26.636227">
        <ele>237.985818</ele>
        <time>2019-06-07T05:36:31.000Z</time>
      </trkpt>
      <trkpt lat="50.302784" lon="26.636417">
        <ele>237.950994</ele>
        <time>2019-06-07T05:36:34.000Z</time>
      </trkpt>
      <trkpt lat="50.302746" lon="26.636580">
        <ele>237.920940</ele>
        <time>2019-06-07T05:36:37.000Z</time>
      </trkpt>
      <trkpt lat="50.302704" lon="26.636736">
        <ele>237.891618</ele>
        <time>2019-06-07T05:36:40.000Z</time>
      </trkpt>
      <trkpt lat="50.302650" lon="26.636923">
        <ele>237.932367</ele>
        <time>2019-06-07T05:36:43.000Z</time>
      </trkpt>
      <trkpt lat="50.302605" lon="26.637120">
        <ele>238.039334</ele>
        <time>2019-06-07T05:36:46.000Z</time>
      </trkpt>
      <trkpt lat="50.302570" lon="26.637255">
        <ele>238.113824</ele>
        <time>2019-06-07T05:36:48.000Z</time>
      </trkpt>
      <trkpt lat="50.302550" lon="26.637444">
        <ele>238.211771</ele>
        <time>2019-06-07T05:36:51.000Z</time>
      </trkpt>
      <trkpt lat="50.302498" lon="26.637620">
        <ele>238.310914</ele>
        <time>2019-06-07T05:36:54.000Z</time>
      </trkpt>
      <trkpt lat="50.302452" lon="26.637802">
        <ele>238.410985</ele>
        <time>2019-06-07T05:36:57.000Z</time>
      </trkpt>
      <trkpt lat="50.302410" lon="26.637928">
        <ele>238.483650</ele>
        <time>2019-06-07T05:36:59.000Z</time>
      </trkpt>
      <trkpt lat="50.302364" lon="26.638120">
        <ele>238.588492</ele>
        <time>2019-06-07T05:37:02.000Z</time>
      </trkpt>
      <trkpt lat="50.302338" lon="26.638254">
        <ele>238.660093</ele>
        <time>2019-06-07T05:37:04.000Z</time>
      </trkpt>
      <trkpt lat="50.302288" lon="26.638440">
        <ele>238.763268</ele>
        <time>2019-06-07T05:37:07.000Z</time>
      </trkpt>
      <trkpt lat="50.302240" lon="26.638622">
        <ele>238.863940</ele>
        <time>2019-06-07T05:37:10.000Z</time>
      </trkpt>
      <trkpt lat="50.302180" lon="26.638802">
        <ele>238.967747</ele>
        <time>2019-06-07T05:37:13.000Z</time>
      </trkpt>
      <trkpt lat="50.302135" lon="26.638968">
        <ele>239.059945</ele>
        <time>2019-06-07T05:37:16.000Z</time>
      </trkpt>
      <trkpt lat="50.302116" lon="26.639135">
        <ele>239.146671</ele>
        <time>2019-06-07T05:37:19.000Z</time>
      </trkpt>
      <trkpt lat="50.302086" lon="26.639290">
        <ele>239.229477</ele>
        <time>2019-06-07T05:37:22.000Z</time>
      </trkpt>
      <trkpt lat="50.302048" lon="26.639439">
        <ele>239.311505</ele>
        <time>2019-06-07T05:37:25.000Z</time>
      </trkpt>
      <trkpt lat="50.301994" lon="26.639587">
        <ele>239.396692</ele>
        <time>2019-06-07T05:37:28.000Z</time>
      </trkpt>
      <trkpt lat="50.301960" lon="26.639742">
        <ele>239.478520</ele>
        <time>2019-06-07T05:37:31.000Z</time>
      </trkpt>
      <trkpt lat="50.301918" lon="26.639902">
        <ele>239.564892</ele>
        <time>2019-06-07T05:37:34.000Z</time>
      </trkpt>
      <trkpt lat="50.301884" lon="26.640038">
        <ele>239.637814</ele>
        <time>2019-06-07T05:37:37.000Z</time>
      </trkpt>
      <trkpt lat="50.301860" lon="26.640175">
        <ele>239.708745</ele>
        <time>2019-06-07T05:37:41.000Z</time>
      </trkpt>
      <trkpt lat="50.301926" lon="26.640300">
        <ele>239.789721</ele>
        <time>2019-06-07T05:37:47.000Z</time>
      </trkpt>
      <trkpt lat="50.302025" lon="26.640347">
        <ele>239.870589</ele>
        <time>2019-06-07T05:37:51.000Z</time>
      </trkpt>
      <trkpt lat="50.302128" lon="26.640398">
        <ele>239.955035</ele>
        <time>2019-06-07T05:37:55.000Z</time>
      </trkpt>
      <trkpt lat="50.302220" lon="26.640419">
        <ele>240.027712</ele>
        <time>2019-06-07T05:37:58.000Z</time>
      </trkpt>
      <trkpt lat="50.302330" lon="26.640478">
        <ele>240.118605</ele>
        <time>2019-06-07T05:38:02.000Z</time>
      </trkpt>
      <trkpt lat="50.302420" lon="26.640543">
        <ele>240.196083</ele>
        <time>2019-06-07T05:38:05.000Z</time>
      </trkpt>
      <trkpt lat="50.302525" lon="26.640598">
        <ele>240.282633</ele>
        <time>2019-06-07T05:38:08.000Z</time>
      </trkpt>
      <trkpt lat="50.302624" lon="26.640670">
        <ele>240.367964</ele>
        <time>2019-06-07T05:38:11.000Z</time>
      </trkpt>
      <trkpt lat="50.302734" lon="26.640736">
        <ele>240.460049</ele>
        <time>2019-06-07T05:38:14.000Z</time>
      </trkpt>
      <trkpt lat="50.302850" lon="26.640797">
        <ele>240.555705</ele>
        <time>2019-06-07T05:38:17.000Z</time>
      </trkpt>
      <trkpt lat="50.302970" lon="26.640856">
        <ele>240.654025</ele>
        <time>2019-06-07T05:38:20.000Z</time>
      </trkpt>
      <trkpt lat="50.303055" lon="26.640907">
        <ele>240.718196</ele>
        <time>2019-06-07T05:38:22.000Z</time>
      </trkpt>
      <trkpt lat="50.303173" lon="26.640991">
        <ele>240.646794</ele>
        <time>2019-06-07T05:38:25.000Z</time>
      </trkpt>
      <trkpt lat="50.303280" lon="26.641062">
        <ele>240.582780</ele>
        <time>2019-06-07T05:38:28.000Z</time>
      </trkpt>
      <trkpt lat="50.303380" lon="26.641129">
        <ele>240.522865</ele>
        <time>2019-06-07T05:38:31.000Z</time>
      </trkpt>
      <trkpt lat="50.303497" lon="26.641165">
        <ele>240.457184</ele>
        <time>2019-06-07T05:38:34.000Z</time>
      </trkpt>
      <trkpt lat="50.303600" lon="26.641247">
        <ele>240.393535</ele>
        <time>2019-06-07T05:38:37.000Z</time>
      </trkpt>
      <trkpt lat="50.303696" lon="26.641314">
        <ele>240.335638</ele>
        <time>2019-06-07T05:38:40.000Z</time>
      </trkpt>
      <trkpt lat="50.303800" lon="26.641382">
        <ele>240.273557</ele>
        <time>2019-06-07T05:38:43.000Z</time>
      </trkpt>
      <trkpt lat="50.303894" lon="26.641453">
        <ele>240.216068</ele>
        <time>2019-06-07T05:38:46.000Z</time>
      </trkpt>
      <trkpt lat="50.303990" lon="26.641521">
        <ele>240.158028</ele>
        <time>2019-06-07T05:38:49.000Z</time>
      </trkpt>
      <trkpt lat="50.304090" lon="26.641588">
        <ele>240.098112</ele>
        <time>2019-06-07T05:38:52.000Z</time>
      </trkpt>
      <trkpt lat="50.304195" lon="26.641659">
        <ele>240.035111</ele>
        <time>2019-06-07T05:38:55.000Z</time>
      </trkpt>
      <trkpt lat="50.304300" lon="26.641730">
        <ele>239.972110</ele>
        <time>2019-06-07T05:38:58.000Z</time>
      </trkpt>
      <trkpt lat="50.304394" lon="26.641794">
        <ele>239.915647</ele>
        <time>2019-06-07T05:39:01.000Z</time>
      </trkpt>
      <trkpt lat="50.304497" lon="26.641836">
        <ele>239.857019</ele>
        <time>2019-06-07T05:39:04.000Z</time>
      </trkpt>
      <trkpt lat="50.304607" lon="26.641907">
        <ele>239.791480</ele>
        <time>2019-06-07T05:39:07.000Z</time>
      </trkpt>
      <trkpt lat="50.304707" lon="26.641964">
        <ele>239.732860</ele>
        <time>2019-06-07T05:39:10.000Z</time>
      </trkpt>
      <trkpt lat="50.304806" lon="26.642021">
        <ele>239.687688</ele>
        <time>2019-06-07T05:39:13.000Z</time>
      </trkpt>
      <trkpt lat="50.304916" lon="26.642080">
        <ele>239.638542</ele>
        <time>2019-06-07T05:39:16.000Z</time>
      </trkpt>
      <trkpt lat="50.305054" lon="26.642153">
        <ele>239.576975</ele>
        <time>2019-06-07T05:39:20.000Z</time>
      </trkpt>
      <trkpt lat="50.305150" lon="26.642225">
        <ele>239.531984</ele>
        <time>2019-06-07T05:39:23.000Z</time>
      </trkpt>
      <trkpt lat="50.305264" lon="26.642305">
        <ele>239.479181</ele>
        <time>2019-06-07T05:39:26.000Z</time>
      </trkpt>
      <trkpt lat="50.305380" lon="26.642378">
        <ele>239.426339</ele>
        <time>2019-06-07T05:39:29.000Z</time>
      </trkpt>
      <trkpt lat="50.305500" lon="26.642448">
        <ele>239.372214</ele>
        <time>2019-06-07T05:39:32.000Z</time>
      </trkpt>
      <trkpt lat="50.305622" lon="26.642520">
        <ele>239.317107</ele>
        <time>2019-06-07T05:39:35.000Z</time>
      </trkpt>
      <trkpt lat="50.305740" lon="26.642600">
        <ele>239.262757</ele>
        <time>2019-06-07T05:39:38.000Z</time>
      </trkpt>
      <trkpt lat="50.305862" lon="26.642672">
        <ele>239.207650</ele>
        <time>2019-06-07T05:39:41.000Z</time>
      </trkpt>
      <trkpt lat="50.305980" lon="26.642727">
        <ele>239.155613</ele>
        <time>2019-06-07T05:39:44.000Z</time>
      </trkpt>
      <trkpt lat="50.306080" lon="26.642782">
        <ele>239.110814</ele>
        <time>2019-06-07T05:39:47.000Z</time>
      </trkpt>
      <trkpt lat="50.306180" lon="26.642836">
        <ele>239.066104</ele>
        <time>2019-06-07T05:39:50.000Z</time>
      </trkpt>
      <trkpt lat="50.306293" lon="26.642897">
        <ele>239.015584</ele>
        <time>2019-06-07T05:39:53.000Z</time>
      </trkpt>
      <trkpt lat="50.306380" lon="26.643011">
        <ele>238.972593</ele>
        <time>2019-06-07T05:39:56.000Z</time>
      </trkpt>
      <trkpt lat="50.306480" lon="26.643064">
        <ele>239.017541</ele>
        <time>2019-06-07T05:39:59.000Z</time>
      </trkpt>
      <trkpt lat="50.306587" lon="26.643133">
        <ele>239.066809</ele>
        <time>2019-06-07T05:40:02.000Z</time>
      </trkpt>
      <trkpt lat="50.306660" lon="26.643240">
        <ele>239.109383</ele>
        <time>2019-06-07T05:40:05.000Z</time>
      </trkpt>
      <trkpt lat="50.306680" lon="26.643383">
        <ele>239.149189</ele>
        <time>2019-06-07T05:40:08.000Z</time>
      </trkpt>
      <trkpt lat="50.306633" lon="26.643557">
        <ele>239.200560</ele>
        <time>2019-06-07T05:40:11.000Z</time>
      </trkpt>
      <trkpt lat="50.306595" lon="26.643740">
        <ele>239.252886</ele>
        <time>2019-06-07T05:40:14.000Z</time>
      </trkpt>
      <trkpt lat="50.306570" lon="26.643930">
        <ele>239.305635</ele>
        <time>2019-06-07T05:40:17.000Z</time>
      </trkpt>
      <trkpt lat="50.306526" lon="26.644096">
        <ele>239.354507</ele>
        <time>2019-06-07T05:40:20.000Z</time>
      </trkpt>
      <trkpt lat="50.306473" lon="26.644285">
        <ele>239.410636</ele>
        <time>2019-06-07T05:40:23.000Z</time>
      </trkpt>
      <trkpt lat="50.306423" lon="26.644464">
        <ele>239.463761</ele>
        <time>2019-06-07T05:40:26.000Z</time>
      </trkpt>
      <trkpt lat="50.306385" lon="26.644600">
        <ele>239.504127</ele>
        <time>2019-06-07T05:40:28.000Z</time>
      </trkpt>
      <trkpt lat="50.306340" lon="26.644793">
        <ele>239.559995</ele>
        <time>2019-06-07T05:40:31.000Z</time>
      </trkpt>
      <trkpt lat="50.306297" lon="26.644930">
        <ele>239.601504</ele>
        <time>2019-06-07T05:40:33.000Z</time>
      </trkpt>
      <trkpt lat="50.306248" lon="26.645128">
        <ele>239.659245</ele>
        <time>2019-06-07T05:40:36.000Z</time>
      </trkpt>
      <trkpt lat="50.306213" lon="26.645271">
        <ele>239.700887</ele>
        <time>2019-06-07T05:40:38.000Z</time>
      </trkpt>
      <trkpt lat="50.306183" lon="26.645405">
        <ele>239.740286</ele>
        <time>2019-06-07T05:40:40.000Z</time>
      </trkpt>
      <trkpt lat="50.306133" lon="26.645596">
        <ele>239.808635</ele>
        <time>2019-06-07T05:40:43.000Z</time>
      </trkpt>
      <trkpt lat="50.306080" lon="26.645786">
        <ele>239.877286</ele>
        <time>2019-06-07T05:40:46.000Z</time>
      </trkpt>
      <trkpt lat="50.306034" lon="26.645985">
        <ele>239.947362</ele>
        <time>2019-06-07T05:40:49.000Z</time>
      </trkpt>
      <trkpt lat="50.306004" lon="26.646122">
        <ele>239.995317</ele>
        <time>2019-06-07T05:40:51.000Z</time>
      </trkpt>
      <trkpt lat="50.305973" lon="26.646310">
        <ele>240.059608</ele>
        <time>2019-06-07T05:40:54.000Z</time>
      </trkpt>
      <trkpt lat="50.305927" lon="26.646507">
        <ele>240.129062</ele>
        <time>2019-06-07T05:40:57.000Z</time>
      </trkpt>
      <trkpt lat="50.305904" lon="26.646645">
        <ele>240.176286</ele>
        <time>2019-06-07T05:40:59.000Z</time>
      </trkpt>
      <trkpt lat="50.305855" lon="26.646833">
        <ele>240.243521</ele>
        <time>2019-06-07T05:41:02.000Z</time>
      </trkpt>
      <trkpt lat="50.305798" lon="26.647000">
        <ele>240.306218</ele>
        <time>2019-06-07T05:41:05.000Z</time>
      </trkpt>
      <trkpt lat="50.305760" lon="26.647182">
        <ele>240.369621</ele>
        <time>2019-06-07T05:41:08.000Z</time>
      </trkpt>
      <trkpt lat="50.305702" lon="26.647370">
        <ele>240.438753</ele>
        <time>2019-06-07T05:41:11.000Z</time>
      </trkpt>
      <trkpt lat="50.305645" lon="26.647558">
        <ele>240.507662</ele>
        <time>2019-06-07T05:41:14.000Z</time>
      </trkpt>
      <trkpt lat="50.305595" lon="26.647743">
        <ele>240.574178</ele>
        <time>2019-06-07T05:41:17.000Z</time>
      </trkpt>
      <trkpt lat="50.305546" lon="26.647926">
        <ele>240.639883</ele>
        <time>2019-06-07T05:41:20.000Z</time>
      </trkpt>
      <trkpt lat="50.305480" lon="26.648172">
        <ele>240.653105</ele>
        <time>2019-06-07T05:41:24.000Z</time>
      </trkpt>
      <trkpt lat="50.305443" lon="26.648361">
        <ele>240.636421</ele>
        <time>2019-06-07T05:41:27.000Z</time>
      </trkpt>
      <trkpt lat="50.305400" lon="26.648552">
        <ele>240.619328</ele>
        <time>2019-06-07T05:41:30.000Z</time>
      </trkpt>
      <trkpt lat="50.305350" lon="26.648745">
        <ele>240.601750</ele>
        <time>2019-06-07T05:41:33.000Z</time>
      </trkpt>
      <trkpt lat="50.305298" lon="26.648937">
        <ele>240.584148</ele>
        <time>2019-06-07T05:41:36.000Z</time>
      </trkpt>
      <trkpt lat="50.305252" lon="26.649136">
        <ele>240.566287</ele>
        <time>2019-06-07T05:41:39.000Z</time>
      </trkpt>
      <trkpt lat="50.305202" lon="26.649328">
        <ele>240.548786</ele>
        <time>2019-06-07T05:41:42.000Z</time>
      </trkpt>
      <trkpt lat="50.305157" lon="26.649525">
        <ele>240.531128</ele>
        <time>2019-06-07T05:41:45.000Z</time>
      </trkpt>
      <trkpt lat="50.305126" lon="26.649666">
        <ele>240.518542</ele>
        <time>2019-06-07T05:41:47.000Z</time>
      </trkpt>
      <trkpt lat="50.305088" lon="26.649803">
        <ele>240.505936</ele>
        <time>2019-06-07T05:41:49.000Z</time>
      </trkpt>
      <trkpt lat="50.305040" lon="26.649996">
        <ele>240.488455</ele>
        <time>2019-06-07T05:41:52.000Z</time>
      </trkpt>
      <trkpt lat="50.304990" lon="26.650192">
        <ele>240.470642</ele>
        <time>2019-06-07T05:41:55.000Z</time>
      </trkpt>
      <trkpt lat="50.304947" lon="26.650373">
        <ele>240.454343</ele>
        <time>2019-06-07T05:41:58.000Z</time>
      </trkpt>
      <trkpt lat="50.304910" lon="26.650564">
        <ele>240.437497</ele>
        <time>2019-06-07T05:42:01.000Z</time>
      </trkpt>
      <trkpt lat="50.304850" lon="26.650747">
        <ele>240.422143</ele>
        <time>2019-06-07T05:42:04.000Z</time>
      </trkpt>
      <trkpt lat="50.304794" lon="26.650920">
        <ele>240.408889</ele>
        <time>2019-06-07T05:42:07.000Z</time>
      </trkpt>
      <trkpt lat="50.304760" lon="26.651090">
        <ele>240.396716</ele>
        <time>2019-06-07T05:42:10.000Z</time>
      </trkpt>
      <trkpt lat="50.304726" lon="26.651232">
        <ele>240.386352</ele>
        <time>2019-06-07T05:42:13.000Z</time>
      </trkpt>
      <trkpt lat="50.304695" lon="26.651386">
        <ele>240.375318</ele>
        <time>2019-06-07T05:42:16.000Z</time>
      </trkpt>
      <trkpt lat="50.304650" lon="26.651539">
        <ele>240.363807</ele>
        <time>2019-06-07T05:42:19.000Z</time>
      </trkpt>
      <trkpt lat="50.304600" lon="26.651703">
        <ele>240.351389</ele>
        <time>2019-06-07T05:42:22.000Z</time>
      </trkpt>
      <trkpt lat="50.304565" lon="26.651875">
        <ele>240.339052</ele>
        <time>2019-06-07T05:42:25.000Z</time>
      </trkpt>
      <trkpt lat="50.304530" lon="26.652030">
        <ele>240.327818</ele>
        <time>2019-06-07T05:42:28.000Z</time>
      </trkpt>
      <trkpt lat="50.304500" lon="26.652182">
        <ele>240.316946</ele>
        <time>2019-06-07T05:42:31.000Z</time>
      </trkpt>
      <trkpt lat="50.304455" lon="26.652372">
        <ele>240.303098</ele>
        <time>2019-06-07T05:42:34.000Z</time>
      </trkpt>
      <trkpt lat="50.304410" lon="26.652540">
        <ele>240.290648</ele>
        <time>2019-06-07T05:42:37.000Z</time>
      </trkpt>
      <trkpt lat="50.304370" lon="26.652680">
        <ele>240.280167</ele>
        <time>2019-06-07T05:42:40.000Z</time>
      </trkpt>
      <trkpt lat="50.304317" lon="26.652811">
        <ele>240.269570</ele>
        <time>2019-06-07T05:42:44.000Z</time>
      </trkpt>
      <trkpt lat="50.304280" lon="26.652952">
        <ele>240.259153</ele>
        <time>2019-06-07T05:42:48.000Z</time>
      </trkpt>
      <trkpt lat="50.304260" lon="26.653101">
        <ele>240.248748</ele>
        <time>2019-06-07T05:42:53.000Z</time>
      </trkpt>
      <trkpt lat="50.304268" lon="26.653263">
        <ele>240.237810</ele>
        <time>2019-06-07T05:42:59.000Z</time>
      </trkpt>
      <trkpt lat="50.304264" lon="26.653414">
        <ele>240.230357</ele>
        <time>2019-06-07T05:43:05.000Z</time>
      </trkpt>
      <trkpt lat="50.304220" lon="26.653542">
        <ele>240.223189</ele>
        <time>2019-06-07T05:43:10.000Z</time>
      </trkpt>
      <trkpt lat="50.304127" lon="26.653624">
        <ele>240.214948</ele>
        <time>2019-06-07T05:43:15.000Z</time>
      </trkpt>
      <trkpt lat="50.304040" lon="26.653690">
        <ele>240.207484</ele>
        <time>2019-06-07T05:43:18.000Z</time>
      </trkpt>
      <trkpt lat="50.303947" lon="26.653757">
        <ele>240.199580</ele>
        <time>2019-06-07T05:43:21.000Z</time>
      </trkpt>
      <trkpt lat="50.303840" lon="26.653835">
        <ele>240.190466</ele>
        <time>2019-06-07T05:43:24.000Z</time>
      </trkpt>
      <trkpt lat="50.303730" lon="26.653894">
        <ele>240.181489</ele>
        <time>2019-06-07T05:43:27.000Z</time>
      </trkpt>
      <trkpt lat="50.303620" lon="26.653970">
        <ele>240.172205</ele>
        <time>2019-06-07T05:43:30.000Z</time>
      </trkpt>
      <trkpt lat="50.303500" lon="26.654026">
        <ele>240.162537</ele>
        <time>2019-06-07T05:43:33.000Z</time>
      </trkpt>
      <trkpt lat="50.303394" lon="26.654095">
        <ele>240.153674</ele>
        <time>2019-06-07T05:43:36.000Z</time>
      </trkpt>
      <trkpt lat="50.303284" lon="26.654156">
        <ele>240.144664</ele>
        <time>2019-06-07T05:43:39.000Z</time>
      </trkpt>
      <trkpt lat="50.303180" lon="26.654219">
        <ele>240.136054</ele>
        <time>2019-06-07T05:43:42.000Z</time>
      </trkpt>
      <trkpt lat="50.303036" lon="26.654312">
        <ele>240.124027</ele>
        <time>2019-06-07T05:43:46.000Z</time>
      </trkpt>
      <trkpt lat="50.302920" lon="26.654390">
        <ele>240.114279</ele>
        <time>2019-06-07T05:43:49.000Z</time>
      </trkpt>
      <trkpt lat="50.302807" lon="26.654459">
        <ele>240.104914</ele>
        <time>2019-06-07T05:43:52.000Z</time>
      </trkpt>
      <trkpt lat="50.302685" lon="26.654535">
        <ele>240.085205</ele>
        <time>2019-06-07T05:43:55.000Z</time>
      </trkpt>
      <trkpt lat="50.302600" lon="26.654587">
        <ele>240.063468</ele>
        <time>2019-06-07T05:43:57.000Z</time>
      </trkpt>
      <trkpt lat="50.302480" lon="26.654669">
        <ele>240.032281</ele>
        <time>2019-06-07T05:44:00.000Z</time>
      </trkpt>
      <trkpt lat="50.302395" lon="26.654716">
        <ele>240.010809</ele>
        <time>2019-06-07T05:44:02.000Z</time>
      </trkpt>
      <trkpt lat="50.302307" lon="26.654772">
        <ele>239.988183</ele>
        <time>2019-06-07T05:44:04.000Z</time>
      </trkpt>
      <trkpt lat="50.302220" lon="26.654827">
        <ele>239.965834</ele>
        <time>2019-06-07T05:44:06.000Z</time>
      </trkpt>
      <trkpt lat="50.302130" lon="26.654871">
        <ele>239.943376</ele>
        <time>2019-06-07T05:44:08.000Z</time>
      </trkpt>
      <trkpt lat="50.302044" lon="26.654928">
        <ele>239.921131</ele>
        <time>2019-06-07T05:44:10.000Z</time>
      </trkpt>
      <trkpt lat="50.301956" lon="26.654984">
        <ele>239.898505</ele>
        <time>2019-06-07T05:44:12.000Z</time>
      </trkpt>
      <trkpt lat="50.301830" lon="26.655054">
        <ele>239.866659</ele>
        <time>2019-06-07T05:44:15.000Z</time>
      </trkpt>
      <trkpt lat="50.301743" lon="26.655094">
        <ele>239.845061</ele>
        <time>2019-06-07T05:44:17.000Z</time>
      </trkpt>
      <trkpt lat="50.301650" lon="26.655146">
        <ele>239.821539</ele>
        <time>2019-06-07T05:44:19.000Z</time>
      </trkpt>
      <trkpt lat="50.301563" lon="26.655212">
        <ele>239.798512</ele>
        <time>2019-06-07T05:44:21.000Z</time>
      </trkpt>
      <trkpt lat="50.301476" lon="26.655272">
        <ele>239.775867</ele>
        <time>2019-06-07T05:44:23.000Z</time>
      </trkpt>
      <trkpt lat="50.301390" lon="26.655320">
        <ele>239.754120</ele>
        <time>2019-06-07T05:44:25.000Z</time>
      </trkpt>
      <trkpt lat="50.301277" lon="26.655392">
        <ele>239.725060</ele>
        <time>2019-06-07T05:44:28.000Z</time>
      </trkpt>
      <trkpt lat="50.301150" lon="26.655466">
        <ele>239.692783</ele>
        <time>2019-06-07T05:44:31.000Z</time>
      </trkpt>
      <trkpt lat="50.301067" lon="26.655518">
        <ele>239.671489</ele>
        <time>2019-06-07T05:44:33.000Z</time>
      </trkpt>
      <trkpt lat="50.300980" lon="26.655565">
        <ele>239.705987</ele>
        <time>2019-06-07T05:44:35.000Z</time>
      </trkpt>
      <trkpt lat="50.300896" lon="26.655619">
        <ele>239.741442</ele>
        <time>2019-06-07T05:44:37.000Z</time>
      </trkpt>
      <trkpt lat="50.300762" lon="26.655691">
        <ele>239.796759</ele>
        <time>2019-06-07T05:44:40.000Z</time>
      </trkpt>
      <trkpt lat="50.300640" lon="26.655775">
        <ele>239.848797</ele>
        <time>2019-06-07T05:44:43.000Z</time>
      </trkpt>
      <trkpt lat="50.300514" lon="26.655851">
        <ele>239.901520</ele>
        <time>2019-06-07T05:44:46.000Z</time>
      </trkpt>
      <trkpt lat="50.300390" lon="26.655918">
        <ele>239.952738</ele>
        <time>2019-06-07T05:44:49.000Z</time>
      </trkpt>
      <trkpt lat="50.300260" lon="26.655973">
        <ele>240.005318</ele>
        <time>2019-06-07T05:44:52.000Z</time>
      </trkpt>
      <trkpt lat="50.300170" lon="26.656000">
        <ele>240.041098</ele>
        <time>2019-06-07T05:44:54.000Z</time>
      </trkpt>
      <trkpt lat="50.300040" lon="26.656004">
        <ele>240.091867</ele>
        <time>2019-06-07T05:44:57.000Z</time>
      </trkpt>
      <trkpt lat="50.299953" lon="26.655964">
        <ele>240.127271</ele>
        <time>2019-06-07T05:44:59.000Z</time>
      </trkpt>
      <trkpt lat="50.299835" lon="26.655888">
        <ele>240.177091</ele>
        <time>2019-06-07T05:45:02.000Z</time>
      </trkpt>
      <trkpt lat="50.299710" lon="26.655810">
        <ele>240.229632</ele>
        <time>2019-06-07T05:45:05.000Z</time>
      </trkpt>
      <trkpt lat="50.299614" lon="26.655750">
        <ele>240.269992</ele>
        <time>2019-06-07T05:45:08.000Z</time>
      </trkpt>
      <trkpt lat="50.299690" lon="26.655846">
        <ele>240.308122</ele>
        <time>2019-06-07T05:47:09.000Z</time>
      </trkpt>
      <trkpt lat="50.299790" lon="26.655910">
        <ele>240.350304</ele>
        <time>2019-06-07T05:47:13.000Z</time>
      </trkpt>
      <trkpt lat="50.299873" lon="26.655964">
        <ele>240.388166</ele>
        <time>2019-06-07T05:47:16.000Z</time>
      </trkpt>
      <trkpt lat="50.299960" lon="26.656010">
        <ele>240.432173</ele>
        <time>2019-06-07T05:47:19.000Z</time>
      </trkpt>
      <trkpt lat="50.300070" lon="26.656029">
        <ele>240.485208</ele>
        <time>2019-06-07T05:47:23.000Z</time>
      </trkpt>
      <trkpt lat="50.300170" lon="26.656023">
        <ele>240.533167</ele>
        <time>2019-06-07T05:47:26.000Z</time>
      </trkpt>
      <trkpt lat="50.300262" lon="26.656006">
        <ele>240.577563</ele>
        <time>2019-06-07T05:47:29.000Z</time>
      </trkpt>
      <trkpt lat="50.300365" lon="26.655966">
        <ele>240.628420</ele>
        <time>2019-06-07T05:47:32.000Z</time>
      </trkpt>
      <trkpt lat="50.300472" lon="26.655909">
        <ele>240.682585</ele>
        <time>2019-06-07T05:47:35.000Z</time>
      </trkpt>
      <trkpt lat="50.300590" lon="26.655840">
        <ele>240.742951</ele>
        <time>2019-06-07T05:47:38.000Z</time>
      </trkpt>
      <trkpt lat="50.300700" lon="26.655773">
        <ele>240.799516</ele>
        <time>2019-06-07T05:47:41.000Z</time>
      </trkpt>
      <trkpt lat="50.300808" lon="26.655710">
        <ele>240.854749</ele>
        <time>2019-06-07T05:47:44.000Z</time>
      </trkpt>
      <trkpt lat="50.300910" lon="26.655647">
        <ele>240.907298</ele>
        <time>2019-06-07T05:47:47.000Z</time>
      </trkpt>
      <trkpt lat="50.301010" lon="26.655594">
        <ele>240.957893</ele>
        <time>2019-06-07T05:47:50.000Z</time>
      </trkpt>
      <trkpt lat="50.301100" lon="26.655552">
        <ele>241.002900</ele>
        <time>2019-06-07T05:47:53.000Z</time>
      </trkpt>
      <trkpt lat="50.301205" lon="26.655485">
        <ele>241.057239</ele>
        <time>2019-06-07T05:47:57.000Z</time>
      </trkpt>
      <trkpt lat="50.301320" lon="26.655418">
        <ele>241.116043</ele>
        <time>2019-06-07T05:48:01.000Z</time>
      </trkpt>
      <trkpt lat="50.301388" lon="26.655329">
        <ele>241.158519</ele>
        <time>2019-06-07T05:48:04.000Z</time>
      </trkpt>
      <trkpt lat="50.301490" lon="26.655273">
        <ele>241.210319</ele>
        <time>2019-06-07T05:48:07.000Z</time>
      </trkpt>
      <trkpt lat="50.301598" lon="26.655218">
        <ele>241.222854</ele>
        <time>2019-06-07T05:48:11.000Z</time>
      </trkpt>
      <trkpt lat="50.301685" lon="26.655163">
        <ele>241.204063</ele>
        <time>2019-06-07T05:48:14.000Z</time>
      </trkpt>
      <trkpt lat="50.301780" lon="26.655113">
        <ele>241.183990</ele>
        <time>2019-06-07T05:48:17.000Z</time>
      </trkpt>
      <trkpt lat="50.301870" lon="26.655058">
        <ele>241.164640</ele>
        <time>2019-06-07T05:48:20.000Z</time>
      </trkpt>
      <trkpt lat="50.301980" lon="26.654993">
        <ele>241.141093</ele>
        <time>2019-06-07T05:48:24.000Z</time>
      </trkpt>
      <trkpt lat="50.302082" lon="26.654928">
        <ele>241.119037</ele>
        <time>2019-06-07T05:48:28.000Z</time>
      </trkpt>
      <trkpt lat="50.302193" lon="26.654873">
        <ele>241.095720</ele>
        <time>2019-06-07T05:48:32.000Z</time>
      </trkpt>
      <trkpt lat="50.302284" lon="26.654823">
        <ele>241.076404</ele>
        <time>2019-06-07T05:48:35.000Z</time>
      </trkpt>
      <trkpt lat="50.302387" lon="26.654760">
        <ele>241.054258</ele>
        <time>2019-06-07T05:48:38.000Z</time>
      </trkpt>
      <trkpt lat="50.302475" lon="26.654703">
        <ele>241.035184</ele>
        <time>2019-06-07T05:48:41.000Z</time>
      </trkpt>
      <trkpt lat="50.302567" lon="26.654642">
        <ele>241.015174</ele>
        <time>2019-06-07T05:48:44.000Z</time>
      </trkpt>
      <trkpt lat="50.302666" lon="26.654570">
        <ele>240.993312</ele>
        <time>2019-06-07T05:48:47.000Z</time>
      </trkpt>
      <trkpt lat="50.302776" lon="26.654512">
        <ele>240.970066</ele>
        <time>2019-06-07T05:48:50.000Z</time>
      </trkpt>
      <trkpt lat="50.302883" lon="26.654440">
        <ele>240.946741</ele>
        <time>2019-06-07T05:48:53.000Z</time>
      </trkpt>
      <trkpt lat="50.302998" lon="26.654370">
        <ele>240.922029</ele>
        <time>2019-06-07T05:48:56.000Z</time>
      </trkpt>
      <trkpt lat="50.303116" lon="26.654287">
        <ele>240.896121</ele>
        <time>2019-06-07T05:48:59.000Z</time>
      </trkpt>
      <trkpt lat="50.303204" lon="26.654230">
        <ele>240.877048</ele>
        <time>2019-06-07T05:49:01.000Z</time>
      </trkpt>
      <trkpt lat="50.303320" lon="26.654161">
        <ele>240.873751</ele>
        <time>2019-06-07T05:49:04.000Z</time>
      </trkpt>
      <trkpt lat="50.303460" lon="26.654081">
        <ele>240.872150</ele>
        <time>2019-06-07T05:49:08.000Z</time>
      </trkpt>
      <trkpt lat="50.303590" lon="26.653994">
        <ele>240.870631</ele>
        <time>2019-06-07T05:49:12.000Z</time>
      </trkpt>
      <trkpt lat="50.303700" lon="26.653938">
        <ele>240.869388</ele>
        <time>2019-06-07T05:49:15.000Z</time>
      </trkpt>
      <trkpt lat="50.303795" lon="26.653880">
        <ele>240.868292</ele>
        <time>2019-06-07T05:49:18.000Z</time>
      </trkpt>
      <trkpt lat="50.303894" lon="26.653826">
        <ele>240.867166</ele>
        <time>2019-06-07T05:49:21.000Z</time>
      </trkpt>
      <trkpt lat="50.303986" lon="26.653753">
        <ele>240.866057</ele>
        <time>2019-06-07T05:49:24.000Z</time>
      </trkpt>
      <trkpt lat="50.304080" lon="26.653708">
        <ele>240.865001</ele>
        <time>2019-06-07T05:49:27.000Z</time>
      </trkpt>
      <trkpt lat="50.304173" lon="26.653664">
        <ele>240.863957</ele>
        <time>2019-06-07T05:49:30.000Z</time>
      </trkpt>
      <trkpt lat="50.304250" lon="26.653557">
        <ele>240.862851</ele>
        <time>2019-06-07T05:49:34.000Z</time>
      </trkpt>
      <trkpt lat="50.304270" lon="26.653404">
        <ele>240.861779</ele>
        <time>2019-06-07T05:49:38.000Z</time>
      </trkpt>
      <trkpt lat="50.304306" lon="26.653547">
        <ele>240.860724</ele>
        <time>2019-06-07T05:52:51.000Z</time>
      </trkpt>
      <trkpt lat="50.304325" lon="26.653734">
        <ele>240.859425</ele>
        <time>2019-06-07T05:52:55.000Z</time>
      </trkpt>
      <trkpt lat="50.304344" lon="26.653915">
        <ele>240.858166</ele>
        <time>2019-06-07T05:52:59.000Z</time>
      </trkpt>
      <trkpt lat="50.304344" lon="26.654095">
        <ele>240.856930</ele>
        <time>2019-06-07T05:53:03.000Z</time>
      </trkpt>
      <trkpt lat="50.304350" lon="26.654264">
        <ele>240.855769</ele>
        <time>2019-06-07T05:53:07.000Z</time>
      </trkpt>
      <trkpt lat="50.304348" lon="26.654455">
        <ele>241.065105</ele>
        <time>2019-06-07T05:53:11.000Z</time>
      </trkpt>
      <trkpt lat="50.304348" lon="26.654602">
        <ele>241.242877</ele>
        <time>2019-06-07T05:53:14.000Z</time>
      </trkpt>
      <trkpt lat="50.304348" lon="26.654760">
        <ele>241.433950</ele>
        <time>2019-06-07T05:53:17.000Z</time>
      </trkpt>
      <trkpt lat="50.304348" lon="26.654917">
        <ele>241.623815</ele>
        <time>2019-06-07T05:53:20.000Z</time>
      </trkpt>
      <trkpt lat="50.304356" lon="26.655073">
        <ele>241.813077</ele>
        <time>2019-06-07T05:53:23.000Z</time>
      </trkpt>
      <trkpt lat="50.304356" lon="26.655243">
        <ele>242.018663</ele>
        <time>2019-06-07T05:53:26.000Z</time>
      </trkpt>
      <trkpt lat="50.304370" lon="26.655396">
        <ele>242.205579</ele>
        <time>2019-06-07T05:53:29.000Z</time>
      </trkpt>
      <trkpt lat="50.304380" lon="26.655542">
        <ele>242.383153</ele>
        <time>2019-06-07T05:53:32.000Z</time>
      </trkpt>
      <trkpt lat="50.304367" lon="26.655697">
        <ele>242.572208</ele>
        <time>2019-06-07T05:53:35.000Z</time>
      </trkpt>
      <trkpt lat="50.304360" lon="26.655857">
        <ele>242.766153</ele>
        <time>2019-06-07T05:53:38.000Z</time>
      </trkpt>
      <trkpt lat="50.304356" lon="26.656015">
        <ele>242.957377</ele>
        <time>2019-06-07T05:53:41.000Z</time>
      </trkpt>
      <trkpt lat="50.304363" lon="26.656168">
        <ele>243.142878</ele>
        <time>2019-06-07T05:53:44.000Z</time>
      </trkpt>
      <trkpt lat="50.304380" lon="26.656355">
        <ele>243.371302</ele>
        <time>2019-06-07T05:53:48.000Z</time>
      </trkpt>
      <trkpt lat="50.304380" lon="26.656498">
        <ele>243.544235</ele>
        <time>2019-06-07T05:53:51.000Z</time>
      </trkpt>
      <trkpt lat="50.304360" lon="26.656645">
        <ele>243.725995</ele>
        <time>2019-06-07T05:53:54.000Z</time>
      </trkpt>
      <trkpt lat="50.304363" lon="26.656805">
        <ele>243.919571</ele>
        <time>2019-06-07T05:53:57.000Z</time>
      </trkpt>
      <trkpt lat="50.304370" lon="26.656960">
        <ele>244.107484</ele>
        <time>2019-06-07T05:54:00.000Z</time>
      </trkpt>
      <trkpt lat="50.304367" lon="26.657114">
        <ele>244.248799</ele>
        <time>2019-06-07T05:54:03.000Z</time>
      </trkpt>
      <trkpt lat="50.304356" lon="26.657270">
        <ele>244.176745</ele>
        <time>2019-06-07T05:54:06.000Z</time>
      </trkpt>
      <trkpt lat="50.304350" lon="26.657430">
        <ele>244.103163</ele>
        <time>2019-06-07T05:54:09.000Z</time>
      </trkpt>
      <trkpt lat="50.304350" lon="26.657597">
        <ele>244.026495</ele>
        <time>2019-06-07T05:54:12.000Z</time>
      </trkpt>
      <trkpt lat="50.304350" lon="26.657763">
        <ele>243.950285</ele>
        <time>2019-06-07T05:54:15.000Z</time>
      </trkpt>
      <trkpt lat="50.304348" lon="26.657920">
        <ele>243.878193</ele>
        <time>2019-06-07T05:54:18.000Z</time>
      </trkpt>
      <trkpt lat="50.304340" lon="26.658072">
        <ele>243.808174</ele>
        <time>2019-06-07T05:54:21.000Z</time>
      </trkpt>
      <trkpt lat="50.304333" lon="26.658253">
        <ele>243.724925</ele>
        <time>2019-06-07T05:54:25.000Z</time>
      </trkpt>
      <trkpt lat="50.304330" lon="26.658413">
        <ele>243.651438</ele>
        <time>2019-06-07T05:54:28.000Z</time>
      </trkpt>
      <trkpt lat="50.304325" lon="26.658571">
        <ele>243.578812</ele>
        <time>2019-06-07T05:54:31.000Z</time>
      </trkpt>
      <trkpt lat="50.304325" lon="26.658726">
        <ele>243.507653</ele>
        <time>2019-06-07T05:54:34.000Z</time>
      </trkpt>
      <trkpt lat="50.304337" lon="26.658882">
        <ele>243.435516</ele>
        <time>2019-06-07T05:54:37.000Z</time>
      </trkpt>
      <trkpt lat="50.304337" lon="26.659048">
        <ele>243.359306</ele>
        <time>2019-06-07T05:54:40.000Z</time>
      </trkpt>
      <trkpt lat="50.304330" lon="26.659212">
        <ele>243.283847</ele>
        <time>2019-06-07T05:54:43.000Z</time>
      </trkpt>
      <trkpt lat="50.304330" lon="26.659386">
        <ele>243.203964</ele>
        <time>2019-06-07T05:54:46.000Z</time>
      </trkpt>
      <trkpt lat="50.304330" lon="26.659560">
        <ele>243.124082</ele>
        <time>2019-06-07T05:54:49.000Z</time>
      </trkpt>
      <trkpt lat="50.304350" lon="26.659733">
        <ele>243.043368</ele>
        <time>2019-06-07T05:54:52.000Z</time>
      </trkpt>
      <trkpt lat="50.304370" lon="26.659954">
        <ele>242.916200</ele>
        <time>2019-06-07T05:54:56.000Z</time>
      </trkpt>
      <trkpt lat="50.304360" lon="26.660112">
        <ele>242.777733</ele>
        <time>2019-06-07T05:54:59.000Z</time>
      </trkpt>
      <trkpt lat="50.304367" lon="26.660288">
        <ele>242.623947</ele>
        <time>2019-06-07T05:55:02.000Z</time>
      </trkpt>
      <trkpt lat="50.304363" lon="26.660461">
        <ele>242.472975</ele>
        <time>2019-06-07T05:55:05.000Z</time>
      </trkpt>
      <trkpt lat="50.304363" lon="26.660633">
        <ele>242.322974</ele>
        <time>2019-06-07T05:55:08.000Z</time>
      </trkpt>
      <trkpt lat="50.304344" lon="26.660824">
        <ele>242.154395</ele>
        <time>2019-06-07T05:55:12.000Z</time>
      </trkpt>
      <trkpt lat="50.304344" lon="26.660994">
        <ele>242.006139</ele>
        <time>2019-06-07T05:55:15.000Z</time>
      </trkpt>
      <trkpt lat="50.304348" lon="26.661175">
        <ele>241.848194</ele>
        <time>2019-06-07T05:55:18.000Z</time>
      </trkpt>
      <trkpt lat="50.304344" lon="26.661327">
        <ele>241.715523</ele>
        <time>2019-06-07T05:55:21.000Z</time>
      </trkpt>
      <trkpt lat="50.304340" lon="26.661484">
        <ele>241.578495</ele>
        <time>2019-06-07T05:55:24.000Z</time>
      </trkpt>
      <trkpt lat="50.304350" lon="26.661640">
        <ele>241.441764</ele>
        <time>2019-06-07T05:55:27.000Z</time>
      </trkpt>
      <trkpt lat="50.304363" lon="26.661829">
        <ele>241.275984</ele>
        <time>2019-06-07T05:55:31.000Z</time>
      </trkpt>
      <trkpt lat="50.304363" lon="26.661995">
        <ele>241.131216</ele>
        <time>2019-06-07T05:55:34.000Z</time>
      </trkpt>
      <trkpt lat="50.304356" lon="26.662160">
        <ele>240.987003</ele>
        <time>2019-06-07T05:55:37.000Z</time>
      </trkpt>
      <trkpt lat="50.304367" lon="26.662354">
        <ele>240.817150</ele>
        <time>2019-06-07T05:55:40.000Z</time>
      </trkpt>
      <trkpt lat="50.304367" lon="26.662530">
        <ele>240.663661</ele>
        <time>2019-06-07T05:55:43.000Z</time>
      </trkpt>
      <trkpt lat="50.304367" lon="26.662706">
        <ele>240.516408</ele>
        <time>2019-06-07T05:55:46.000Z</time>
      </trkpt>
      <trkpt lat="50.304363" lon="26.662874">
        <ele>240.768360</ele>
        <time>2019-06-07T05:55:49.000Z</time>
      </trkpt>
      <trkpt lat="50.304363" lon="26.663038">
        <ele>241.014142</ele>
        <time>2019-06-07T05:55:52.000Z</time>
      </trkpt>
      <trkpt lat="50.304363" lon="26.663240">
        <ele>241.316874</ele>
        <time>2019-06-07T05:55:55.000Z</time>
      </trkpt>
      <trkpt lat="50.304360" lon="26.663385">
        <ele>241.534296</ele>
        <time>2019-06-07T05:55:57.000Z</time>
      </trkpt>
      <trkpt lat="50.304367" lon="26.663553">
        <ele>241.786608</ele>
        <time>2019-06-07T05:56:00.000Z</time>
      </trkpt>
      <trkpt lat="50.304370" lon="26.663721">
        <ele>242.038484</ele>
        <time>2019-06-07T05:56:03.000Z</time>
      </trkpt>
      <trkpt lat="50.304367" lon="26.663912">
        <ele>242.324817</ele>
        <time>2019-06-07T05:56:06.000Z</time>
      </trkpt>
      <trkpt lat="50.304360" lon="26.664091">
        <ele>242.593582</ele>
        <time>2019-06-07T05:56:09.000Z</time>
      </trkpt>
      <trkpt lat="50.304360" lon="26.664259">
        <ele>242.845359</ele>
        <time>2019-06-07T05:56:12.000Z</time>
      </trkpt>
      <trkpt lat="50.304356" lon="26.664465">
        <ele>243.154228</ele>
        <time>2019-06-07T05:56:15.000Z</time>
      </trkpt>
      <trkpt lat="50.304356" lon="26.664656">
        <ele>243.440475</ele>
        <time>2019-06-07T05:56:18.000Z</time>
      </trkpt>
      <trkpt lat="50.304344" lon="26.664840">
        <ele>243.717664</ele>
        <time>2019-06-07T05:56:21.000Z</time>
      </trkpt>
      <trkpt lat="50.304344" lon="26.665033">
        <ele>244.006908</ele>
        <time>2019-06-07T05:56:24.000Z</time>
      </trkpt>
      <trkpt lat="50.304348" lon="26.665236">
        <ele>244.311284</ele>
        <time>2019-06-07T05:56:27.000Z</time>
      </trkpt>
      <trkpt lat="50.304367" lon="26.665438">
        <ele>244.617281</ele>
        <time>2019-06-07T05:56:30.000Z</time>
      </trkpt>
      <trkpt lat="50.304380" lon="26.665577">
        <ele>244.750613</ele>
        <time>2019-06-07T05:56:32.000Z</time>
      </trkpt>
      <trkpt lat="50.304386" lon="26.665724">
        <ele>244.791961</ele>
        <time>2019-06-07T05:56:34.000Z</time>
      </trkpt>
      <trkpt lat="50.304394" lon="26.665922">
        <ele>244.847653</ele>
        <time>2019-06-07T05:56:37.000Z</time>
      </trkpt>
      <trkpt lat="50.304382" lon="26.666128">
        <ele>244.905719</ele>
        <time>2019-06-07T05:56:40.000Z</time>
      </trkpt>
      <trkpt lat="50.304390" lon="26.666271">
        <ele>244.946014</ele>
        <time>2019-06-07T05:56:42.000Z</time>
      </trkpt>
      <trkpt lat="50.304394" lon="26.666412">
        <ele>244.985634</ele>
        <time>2019-06-07T05:56:44.000Z</time>
      </trkpt>
      <trkpt lat="50.304386" lon="26.666613">
        <ele>245.042166</ele>
        <time>2019-06-07T05:56:47.000Z</time>
      </trkpt>
      <trkpt lat="50.304367" lon="26.666811">
        <ele>245.098370</ele>
        <time>2019-06-07T05:56:50.000Z</time>
      </trkpt>
      <trkpt lat="50.304350" lon="26.667013">
        <ele>245.155564</ele>
        <time>2019-06-07T05:56:53.000Z</time>
      </trkpt>
      <trkpt lat="50.304337" lon="26.667212">
        <ele>245.211717</ele>
        <time>2019-06-07T05:56:56.000Z</time>
      </trkpt>
      <trkpt lat="50.304325" lon="26.667408">
        <ele>245.266988</ele>
        <time>2019-06-07T05:56:59.000Z</time>
      </trkpt>
      <trkpt lat="50.304325" lon="26.667606">
        <ele>245.322569</ele>
        <time>2019-06-07T05:57:02.000Z</time>
      </trkpt>
      <trkpt lat="50.304340" lon="26.667826">
        <ele>245.384676</ele>
        <time>2019-06-07T05:57:05.000Z</time>
      </trkpt>
      <trkpt lat="50.304337" lon="26.667978">
        <ele>245.427364</ele>
        <time>2019-06-07T05:57:07.000Z</time>
      </trkpt>
      <trkpt lat="50.304350" lon="26.668133">
        <ele>245.471248</ele>
        <time>2019-06-07T05:57:09.000Z</time>
      </trkpt>
      <trkpt lat="50.304356" lon="26.668300">
        <ele>245.518201</ele>
        <time>2019-06-07T05:57:11.000Z</time>
      </trkpt>
      <trkpt lat="50.304356" lon="26.668491">
        <ele>245.246353</ele>
        <time>2019-06-07T05:57:13.000Z</time>
      </trkpt>
      <trkpt lat="50.304363" lon="26.668688">
        <ele>244.930075</ele>
        <time>2019-06-07T05:57:15.000Z</time>
      </trkpt>
      <trkpt lat="50.304367" lon="26.668879">
        <ele>244.623738</ele>
        <time>2019-06-07T05:57:17.000Z</time>
      </trkpt>
      <trkpt lat="50.304367" lon="26.669073">
        <ele>244.312758</ele>
        <time>2019-06-07T05:57:19.000Z</time>
      </trkpt>
      <trkpt lat="50.304367" lon="26.669287">
        <ele>243.969717</ele>
        <time>2019-06-07T05:57:21.000Z</time>
      </trkpt>
      <trkpt lat="50.304380" lon="26.669516">
        <ele>243.601184</ele>
        <time>2019-06-07T05:57:23.000Z</time>
      </trkpt>
      <trkpt lat="50.304370" lon="26.669737">
        <ele>243.246034</ele>
        <time>2019-06-07T05:57:25.000Z</time>
      </trkpt>
      <trkpt lat="50.304350" lon="26.669950">
        <ele>242.900927</ele>
        <time>2019-06-07T05:57:27.000Z</time>
      </trkpt>
      <trkpt lat="50.304348" lon="26.670168">
        <ele>242.551438</ele>
        <time>2019-06-07T05:57:29.000Z</time>
      </trkpt>
      <trkpt lat="50.304344" lon="26.670383">
        <ele>242.206648</ele>
        <time>2019-06-07T05:57:31.000Z</time>
      </trkpt>
      <trkpt lat="50.304333" lon="26.670595">
        <ele>241.865693</ele>
        <time>2019-06-07T05:57:33.000Z</time>
      </trkpt>
      <trkpt lat="50.304325" lon="26.670815">
        <ele>241.512463</ele>
        <time>2019-06-07T05:57:35.000Z</time>
      </trkpt>
      <trkpt lat="50.304317" lon="26.671041">
        <ele>241.149630</ele>
        <time>2019-06-07T05:57:37.000Z</time>
      </trkpt>
      <trkpt lat="50.304317" lon="26.671250">
        <ele>240.714354</ele>
        <time>2019-06-07T05:57:39.000Z</time>
      </trkpt>
      <trkpt lat="50.304300" lon="26.671423">
        <ele>240.289216</ele>
        <time>2019-06-07T05:57:41.000Z</time>
      </trkpt>
      <trkpt lat="50.304280" lon="26.671606">
        <ele>239.838274</ele>
        <time>2019-06-07T05:57:43.000Z</time>
      </trkpt>
      <trkpt lat="50.304276" lon="26.671790">
        <ele>239.391104</ele>
        <time>2019-06-07T05:57:45.000Z</time>
      </trkpt>
      <trkpt lat="50.304283" lon="26.671968">
        <ele>238.957947</ele>
        <time>2019-06-07T05:57:47.000Z</time>
      </trkpt>
      <trkpt lat="50.304290" lon="26.672148">
        <ele>238.519942</ele>
        <time>2019-06-07T05:57:49.000Z</time>
      </trkpt>
      <trkpt lat="50.304290" lon="26.672323">
        <ele>238.094891</ele>
        <time>2019-06-07T05:57:51.000Z</time>
      </trkpt>
      <trkpt lat="50.304290" lon="26.672497">
        <ele>237.672268</ele>
        <time>2019-06-07T05:57:53.000Z</time>
      </trkpt>
      <trkpt lat="50.304287" lon="26.672659">
        <ele>237.278627</ele>
        <time>2019-06-07T05:57:55.000Z</time>
      </trkpt>
      <trkpt lat="50.304287" lon="26.672827">
        <ele>236.870578</ele>
        <time>2019-06-07T05:57:57.000Z</time>
      </trkpt>
      <trkpt lat="50.304295" lon="26.673012">
        <ele>236.420209</ele>
        <time>2019-06-07T05:57:59.000Z</time>
      </trkpt>
      <trkpt lat="50.304306" lon="26.673195">
        <ele>235.973763</ele>
        <time>2019-06-07T05:58:01.000Z</time>
      </trkpt>
      <trkpt lat="50.304330" lon="26.673378">
        <ele>235.520008</ele>
        <time>2019-06-07T05:58:03.000Z</time>
      </trkpt>
      <trkpt lat="50.304356" lon="26.673557">
        <ele>235.074141</ele>
        <time>2019-06-07T05:58:05.000Z</time>
      </trkpt>
      <trkpt lat="50.304370" lon="26.673730">
        <ele>234.650589</ele>
        <time>2019-06-07T05:58:07.000Z</time>
      </trkpt>
      <trkpt lat="50.304380" lon="26.673914">
        <ele>234.202063</ele>
        <time>2019-06-07T05:58:09.000Z</time>
      </trkpt>
      <trkpt lat="50.304390" lon="26.674086">
        <ele>234.130990</ele>
        <time>2019-06-07T05:58:11.000Z</time>
      </trkpt>
      <trkpt lat="50.304386" lon="26.674253">
        <ele>234.090713</ele>
        <time>2019-06-07T05:58:13.000Z</time>
      </trkpt>
      <trkpt lat="50.304375" lon="26.674416">
        <ele>234.051210</ele>
        <time>2019-06-07T05:58:15.000Z</time>
      </trkpt>
      <trkpt lat="50.304367" lon="26.674574">
        <ele>234.013011</ele>
        <time>2019-06-07T05:58:17.000Z</time>
      </trkpt>
      <trkpt lat="50.304348" lon="26.674736">
        <ele>233.973314</ele>
        <time>2019-06-07T05:58:19.000Z</time>
      </trkpt>
      <trkpt lat="50.304325" lon="26.674892">
        <ele>233.934728</ele>
        <time>2019-06-07T05:58:21.000Z</time>
      </trkpt>
      <trkpt lat="50.304306" lon="26.675056">
        <ele>233.894557</ele>
        <time>2019-06-07T05:58:23.000Z</time>
      </trkpt>
      <trkpt lat="50.304283" lon="26.675219">
        <ele>233.854325</ele>
        <time>2019-06-07T05:58:25.000Z</time>
      </trkpt>
      <trkpt lat="50.304264" lon="26.675371">
        <ele>233.816997</ele>
        <time>2019-06-07T05:58:27.000Z</time>
      </trkpt>
      <trkpt lat="50.304245" lon="26.675518">
        <ele>233.780850</ele>
        <time>2019-06-07T05:58:29.000Z</time>
      </trkpt>
      <trkpt lat="50.304220" lon="26.675730">
        <ele>233.728892</ele>
        <time>2019-06-07T05:58:32.000Z</time>
      </trkpt>
      <trkpt lat="50.304207" lon="26.675875">
        <ele>233.693603</ele>
        <time>2019-06-07T05:58:34.000Z</time>
      </trkpt>
      <trkpt lat="50.304195" lon="26.676031">
        <ele>233.655734</ele>
        <time>2019-06-07T05:58:36.000Z</time>
      </trkpt>
      <trkpt lat="50.304188" lon="26.676176">
        <ele>233.620687</ele>
        <time>2019-06-07T05:58:38.000Z</time>
      </trkpt>
      <trkpt lat="50.304180" lon="26.676327">
        <ele>233.584170</ele>
        <time>2019-06-07T05:58:40.000Z</time>
      </trkpt>
      <trkpt lat="50.304173" lon="26.676487">
        <ele>233.545518</ele>
        <time>2019-06-07T05:58:42.000Z</time>
      </trkpt>
      <trkpt lat="50.304173" lon="26.676645">
        <ele>233.507438</ele>
        <time>2019-06-07T05:58:44.000Z</time>
      </trkpt>
      <trkpt lat="50.304180" lon="26.676813">
        <ele>233.581828</ele>
        <time>2019-06-07T05:58:46.000Z</time>
      </trkpt>
      <trkpt lat="50.304188" lon="26.676971">
        <ele>233.728071</ele>
        <time>2019-06-07T05:58:48.000Z</time>
      </trkpt>
      <trkpt lat="50.304203" lon="26.677124">
        <ele>233.870896</ele>
        <time>2019-06-07T05:58:50.000Z</time>
      </trkpt>
      <trkpt lat="50.304210" lon="26.677273">
        <ele>234.008749</ele>
        <time>2019-06-07T05:58:52.000Z</time>
      </trkpt>
      <trkpt lat="50.304214" lon="26.677431">
        <ele>234.154648</ele>
        <time>2019-06-07T05:58:54.000Z</time>
      </trkpt>
      <trkpt lat="50.304234" lon="26.677590">
        <ele>234.304174</ele>
        <time>2019-06-07T05:58:56.000Z</time>
      </trkpt>
      <trkpt lat="50.304250" lon="26.677744">
        <ele>234.448136</ele>
        <time>2019-06-07T05:58:58.000Z</time>
      </trkpt>
      <trkpt lat="50.304260" lon="26.677889">
        <ele>234.582704</ele>
        <time>2019-06-07T05:59:00.000Z</time>
      </trkpt>
      <trkpt lat="50.304283" lon="26.678034">
        <ele>234.720558</ele>
        <time>2019-06-07T05:59:02.000Z</time>
      </trkpt>
      <trkpt lat="50.304317" lon="26.678180">
        <ele>234.863946</ele>
        <time>2019-06-07T05:59:04.000Z</time>
      </trkpt>
      <trkpt lat="50.304348" lon="26.678330">
        <ele>235.009414</ele>
        <time>2019-06-07T05:59:06.000Z</time>
      </trkpt>
      <trkpt lat="50.304390" lon="26.678473">
        <ele>235.154640</ele>
        <time>2019-06-07T05:59:08.000Z</time>
      </trkpt>
      <trkpt lat="50.304432" lon="26.678606">
        <ele>235.291537</ele>
        <time>2019-06-07T05:59:10.000Z</time>
      </trkpt>
      <trkpt lat="50.304474" lon="26.678738">
        <ele>235.427608</ele>
        <time>2019-06-07T05:59:12.000Z</time>
      </trkpt>
      <trkpt lat="50.304516" lon="26.678865">
        <ele>235.559565</ele>
        <time>2019-06-07T05:59:14.000Z</time>
      </trkpt>
      <trkpt lat="50.304573" lon="26.679054">
        <ele>235.752416</ele>
        <time>2019-06-07T05:59:17.000Z</time>
      </trkpt>
      <trkpt lat="50.304634" lon="26.679216">
        <ele>235.925933</ele>
        <time>2019-06-07T05:59:20.000Z</time>
      </trkpt>
      <trkpt lat="50.304684" lon="26.679382">
        <ele>236.092401</ele>
        <time>2019-06-07T05:59:23.000Z</time>
      </trkpt>
      <trkpt lat="50.304737" lon="26.679565">
        <ele>236.192636</ele>
        <time>2019-06-07T05:59:26.000Z</time>
      </trkpt>
      <trkpt lat="50.304787" lon="26.679752">
        <ele>236.293763</ele>
        <time>2019-06-07T05:59:29.000Z</time>
      </trkpt>
      <trkpt lat="50.304848" lon="26.679916">
        <ele>236.388434</ele>
        <time>2019-06-07T05:59:32.000Z</time>
      </trkpt>
      <trkpt lat="50.304897" lon="26.680082">
        <ele>236.479657</ele>
        <time>2019-06-07T05:59:35.000Z</time>
      </trkpt>
      <trkpt lat="50.304924" lon="26.680271">
        <ele>236.576267</ele>
        <time>2019-06-07T05:59:38.000Z</time>
      </trkpt>
      <trkpt lat="50.304955" lon="26.680466">
        <ele>236.676508</ele>
        <time>2019-06-07T05:59:41.000Z</time>
      </trkpt>
      <trkpt lat="50.304977" lon="26.680660">
        <ele>236.774796</ele>
        <time>2019-06-07T05:59:44.000Z</time>
      </trkpt>
      <trkpt lat="50.305010" lon="26.680847">
        <ele>236.871574</ele>
        <time>2019-06-07T05:59:47.000Z</time>
      </trkpt>
      <trkpt lat="50.305050" lon="26.681026">
        <ele>236.966173</ele>
        <time>2019-06-07T05:59:50.000Z</time>
      </trkpt>
      <trkpt lat="50.305073" lon="26.681194">
        <ele>237.051882</ele>
        <time>2019-06-07T05:59:53.000Z</time>
      </trkpt>
      <trkpt lat="50.305100" lon="26.681356">
        <ele>237.135399</ele>
        <time>2019-06-07T05:59:56.000Z</time>
      </trkpt>
      <trkpt lat="50.305134" lon="26.681517">
        <ele>237.219988</ele>
        <time>2019-06-07T05:59:59.000Z</time>
      </trkpt>
      <trkpt lat="50.305160" lon="26.681684">
        <ele>237.305733</ele>
        <time>2019-06-07T06:00:02.000Z</time>
      </trkpt>
      <trkpt lat="50.305183" lon="26.681830">
        <ele>237.380746</ele>
        <time>2019-06-07T06:00:05.000Z</time>
      </trkpt>
      <trkpt lat="50.305206" lon="26.681967">
        <ele>237.451408</ele>
        <time>2019-06-07T06:00:08.000Z</time>
      </trkpt>
      <trkpt lat="50.305237" lon="26.682146">
        <ele>237.480821</ele>
        <time>2019-06-07T06:00:12.000Z</time>
      </trkpt>
      <trkpt lat="50.305252" lon="26.682287">
        <ele>237.462369</ele>
        <time>2019-06-07T06:00:15.000Z</time>
      </trkpt>
      <trkpt lat="50.305264" lon="26.682440">
        <ele>237.442471</ele>
        <time>2019-06-07T06:00:18.000Z</time>
      </trkpt>
      <trkpt lat="50.305275" lon="26.682623">
        <ele>237.418743</ele>
        <time>2019-06-07T06:00:22.000Z</time>
      </trkpt>
      <trkpt lat="50.305290" lon="26.682772">
        <ele>237.399272</ele>
        <time>2019-06-07T06:00:25.000Z</time>
      </trkpt>
      <trkpt lat="50.305305" lon="26.682930">
        <ele>237.378652</ele>
        <time>2019-06-07T06:00:28.000Z</time>
      </trkpt>
      <trkpt lat="50.305325" lon="26.683115">
        <ele>237.354432</ele>
        <time>2019-06-07T06:00:31.000Z</time>
      </trkpt>
      <trkpt lat="50.305347" lon="26.683308">
        <ele>237.329124</ele>
        <time>2019-06-07T06:00:34.000Z</time>
      </trkpt>
      <trkpt lat="50.305367" lon="26.683504">
        <ele>237.303502</ele>
        <time>2019-06-07T06:00:37.000Z</time>
      </trkpt>
      <trkpt lat="50.305393" lon="26.683708">
        <ele>237.276650</ele>
        <time>2019-06-07T06:00:40.000Z</time>
      </trkpt>
      <trkpt lat="50.305412" lon="26.683912">
        <ele>237.250038</ele>
        <time>2019-06-07T06:00:43.000Z</time>
      </trkpt>
      <trkpt lat="50.305428" lon="26.684103">
        <ele>237.225171</ele>
        <time>2019-06-07T06:00:46.000Z</time>
      </trkpt>
      <trkpt lat="50.305447" lon="26.684296">
        <ele>237.199963</ele>
        <time>2019-06-07T06:00:49.000Z</time>
      </trkpt>
      <trkpt lat="50.305477" lon="26.684498">
        <ele>237.173192</ele>
        <time>2019-06-07T06:00:52.000Z</time>
      </trkpt>
      <trkpt lat="50.305500" lon="26.684694">
        <ele>237.147468</ele>
        <time>2019-06-07T06:00:55.000Z</time>
      </trkpt>
      <trkpt lat="50.305523" lon="26.684883">
        <ele>237.091175</ele>
        <time>2019-06-07T06:00:58.000Z</time>
      </trkpt>
      <trkpt lat="50.305542" lon="26.685087">
        <ele>236.954984</ele>
        <time>2019-06-07T06:01:01.000Z</time>
      </trkpt>
      <trkpt lat="50.305570" lon="26.685282">
        <ele>236.822948</ele>
        <time>2019-06-07T06:01:04.000Z</time>
      </trkpt>
      <trkpt lat="50.305590" lon="26.685457">
        <ele>236.705504</ele>
        <time>2019-06-07T06:01:07.000Z</time>
      </trkpt>
      <trkpt lat="50.305603" lon="26.685630">
        <ele>236.590430</ele>
        <time>2019-06-07T06:01:10.000Z</time>
      </trkpt>
      <trkpt lat="50.305620" lon="26.685806">
        <ele>236.472839</ele>
        <time>2019-06-07T06:01:13.000Z</time>
      </trkpt>
      <trkpt lat="50.305626" lon="26.685993">
        <ele>236.349149</ele>
        <time>2019-06-07T06:01:16.000Z</time>
      </trkpt>
      <trkpt lat="50.305637" lon="26.686184">
        <ele>236.222459</ele>
        <time>2019-06-07T06:01:19.000Z</time>
      </trkpt>
      <trkpt lat="50.305650" lon="26.686384">
        <ele>236.089654</ele>
        <time>2019-06-07T06:01:22.000Z</time>
      </trkpt>
      <trkpt lat="50.305656" lon="26.686533">
        <ele>235.991027</ele>
        <time>2019-06-07T06:01:24.000Z</time>
      </trkpt>
      <trkpt lat="50.305676" lon="26.686680">
        <ele>235.891738</ele>
        <time>2019-06-07T06:01:26.000Z</time>
      </trkpt>
      <trkpt lat="50.305676" lon="26.686829">
        <ele>235.793306</ele>
        <time>2019-06-07T06:01:28.000Z</time>
      </trkpt>
      <trkpt lat="50.305687" lon="26.686981">
        <ele>235.692250</ele>
        <time>2019-06-07T06:01:30.000Z</time>
      </trkpt>
      <trkpt lat="50.305695" lon="26.687132">
        <ele>235.592155</ele>
        <time>2019-06-07T06:01:32.000Z</time>
      </trkpt>
      <trkpt lat="50.305702" lon="26.687273">
        <ele>235.498727</ele>
        <time>2019-06-07T06:01:34.000Z</time>
      </trkpt>
      <trkpt lat="50.305714" lon="26.687477">
        <ele>235.363392</ele>
        <time>2019-06-07T06:01:37.000Z</time>
      </trkpt>
      <trkpt lat="50.305720" lon="26.687674">
        <ele>235.249009</ele>
        <time>2019-06-07T06:01:40.000Z</time>
      </trkpt>
      <trkpt lat="50.305730" lon="26.687866">
        <ele>235.176773</ele>
        <time>2019-06-07T06:01:43.000Z</time>
      </trkpt>
      <trkpt lat="50.305737" lon="26.688005">
        <ele>235.124489</ele>
        <time>2019-06-07T06:01:45.000Z</time>
      </trkpt>
      <trkpt lat="50.305750" lon="26.688213">
        <ele>235.046119</ele>
        <time>2019-06-07T06:01:48.000Z</time>
      </trkpt>
      <trkpt lat="50.305763" lon="26.688416">
        <ele>234.969616</ele>
        <time>2019-06-07T06:01:51.000Z</time>
      </trkpt>
      <trkpt lat="50.305770" lon="26.688559">
        <ele>234.915836</ele>
        <time>2019-06-07T06:01:53.000Z</time>
      </trkpt>
      <trkpt lat="50.305775" lon="26.688700">
        <ele>234.862882</ele>
        <time>2019-06-07T06:01:55.000Z</time>
      </trkpt>
      <trkpt lat="50.305786" lon="26.688847">
        <ele>234.807382</ele>
        <time>2019-06-07T06:01:57.000Z</time>
      </trkpt>
      <trkpt lat="50.305794" lon="26.688992">
        <ele>234.752807</ele>
        <time>2019-06-07T06:01:59.000Z</time>
      </trkpt>
      <trkpt lat="50.305805" lon="26.689135">
        <ele>234.698797</ele>
        <time>2019-06-07T06:02:01.000Z</time>
      </trkpt>
      <trkpt lat="50.305817" lon="26.689276">
        <ele>234.645456</ele>
        <time>2019-06-07T06:02:03.000Z</time>
      </trkpt>
      <trkpt lat="50.305830" lon="26.689415">
        <ele>234.592778</ele>
        <time>2019-06-07T06:02:05.000Z</time>
      </trkpt>
      <trkpt lat="50.305836" lon="26.689558">
        <ele>234.539040</ele>
        <time>2019-06-07T06:02:07.000Z</time>
      </trkpt>
      <trkpt lat="50.305832" lon="26.689705">
        <ele>234.483867</ele>
        <time>2019-06-07T06:02:09.000Z</time>
      </trkpt>
      <trkpt lat="50.305832" lon="26.689846">
        <ele>234.430994</ele>
        <time>2019-06-07T06:02:11.000Z</time>
      </trkpt>
      <trkpt lat="50.305820" lon="26.690050">
        <ele>234.354174</ele>
        <time>2019-06-07T06:02:14.000Z</time>
      </trkpt>
      <trkpt lat="50.305817" lon="26.690195">
        <ele>234.299773</ele>
        <time>2019-06-07T06:02:16.000Z</time>
      </trkpt>
      <trkpt lat="50.305813" lon="26.690338">
        <ele>234.246099</ele>
        <time>2019-06-07T06:02:18.000Z</time>
      </trkpt>
      <trkpt lat="50.305813" lon="26.690544">
        <ele>234.237093</ele>
        <time>2019-06-07T06:02:21.000Z</time>
      </trkpt>
      <trkpt lat="50.305813" lon="26.690685">
        <ele>234.264346</ele>
        <time>2019-06-07T06:02:23.000Z</time>
      </trkpt>
      <trkpt lat="50.305810" lon="26.690826">
        <ele>234.291614</ele>
        <time>2019-06-07T06:02:25.000Z</time>
      </trkpt>
      <trkpt lat="50.305813" lon="26.690973">
        <ele>234.320041</ele>
        <time>2019-06-07T06:02:27.000Z</time>
      </trkpt>
      <trkpt lat="50.305805" lon="26.691180">
        <ele>234.360124</ele>
        <time>2019-06-07T06:02:30.000Z</time>
      </trkpt>
      <trkpt lat="50.305800" lon="26.691328">
        <ele>234.388770</ele>
        <time>2019-06-07T06:02:32.000Z</time>
      </trkpt>
      <trkpt lat="50.305798" lon="26.691475">
        <ele>234.417189</ele>
        <time>2019-06-07T06:02:34.000Z</time>
      </trkpt>
      <trkpt lat="50.305790" lon="26.691680">
        <ele>234.456886</ele>
        <time>2019-06-07T06:02:37.000Z</time>
      </trkpt>
      <trkpt lat="50.305782" lon="26.691880">
        <ele>234.495618</ele>
        <time>2019-06-07T06:02:40.000Z</time>
      </trkpt>
      <trkpt lat="50.305770" lon="26.692081">
        <ele>234.534637</ele>
        <time>2019-06-07T06:02:43.000Z</time>
      </trkpt>
      <trkpt lat="50.305767" lon="26.692282">
        <ele>234.573498</ele>
        <time>2019-06-07T06:02:46.000Z</time>
      </trkpt>
      <trkpt lat="50.305760" lon="26.692423">
        <ele>234.600833</ele>
        <time>2019-06-07T06:02:48.000Z</time>
      </trkpt>
      <trkpt lat="50.305750" lon="26.692629">
        <ele>234.640764</ele>
        <time>2019-06-07T06:02:51.000Z</time>
      </trkpt>
      <trkpt lat="50.305750" lon="26.692842">
        <ele>234.681934</ele>
        <time>2019-06-07T06:02:54.000Z</time>
      </trkpt>
      <trkpt lat="50.305748" lon="26.693040">
        <ele>234.720208</ele>
        <time>2019-06-07T06:02:57.000Z</time>
      </trkpt>
      <trkpt lat="50.305740" lon="26.693250">
        <ele>234.752665</ele>
        <time>2019-06-07T06:03:00.000Z</time>
      </trkpt>
      <trkpt lat="50.305733" lon="26.693405">
        <ele>234.690558</ele>
        <time>2019-06-07T06:03:02.000Z</time>
      </trkpt>
      <trkpt lat="50.305733" lon="26.693546">
        <ele>234.634202</ele>
        <time>2019-06-07T06:03:04.000Z</time>
      </trkpt>
      <trkpt lat="50.305725" lon="26.693687">
        <ele>234.577624</ele>
        <time>2019-06-07T06:03:06.000Z</time>
      </trkpt>
      <trkpt lat="50.305725" lon="26.693829">
        <ele>234.520869</ele>
        <time>2019-06-07T06:03:08.000Z</time>
      </trkpt>
      <trkpt lat="50.305720" lon="26.693972">
        <ele>234.463628</ele>
        <time>2019-06-07T06:03:10.000Z</time>
      </trkpt>
      <trkpt lat="50.305714" lon="26.694115">
        <ele>234.406349</ele>
        <time>2019-06-07T06:03:12.000Z</time>
      </trkpt>
      <trkpt lat="50.305702" lon="26.694332">
        <ele>234.319292</ele>
        <time>2019-06-07T06:03:15.000Z</time>
      </trkpt>
      <trkpt lat="50.305700" lon="26.694532">
        <ele>234.239345</ele>
        <time>2019-06-07T06:03:18.000Z</time>
      </trkpt>
      <trkpt lat="50.305690" lon="26.694675">
        <ele>234.181847</ele>
        <time>2019-06-07T06:03:20.000Z</time>
      </trkpt>
      <trkpt lat="50.305687" lon="26.694820">
        <ele>234.123862</ele>
        <time>2019-06-07T06:03:22.000Z</time>
      </trkpt>
      <trkpt lat="50.305683" lon="26.695026">
        <ele>234.041488</ele>
        <time>2019-06-07T06:03:25.000Z</time>
      </trkpt>
      <trkpt lat="50.305668" lon="26.695202">
        <ele>233.970519</ele>
        <time>2019-06-07T06:03:28.000Z</time>
      </trkpt>
      <trkpt lat="50.305650" lon="26.695404">
        <ele>233.889000</ele>
        <time>2019-06-07T06:03:31.000Z</time>
      </trkpt>
      <trkpt lat="50.305650" lon="26.695545">
        <ele>233.832644</ele>
        <time>2019-06-07T06:03:33.000Z</time>
      </trkpt>
      <trkpt lat="50.305645" lon="26.695686">
        <ele>233.776201</ele>
        <time>2019-06-07T06:03:35.000Z</time>
      </trkpt>
      <trkpt lat="50.305640" lon="26.695885">
        <ele>233.696601</ele>
        <time>2019-06-07T06:03:38.000Z</time>
      </trkpt>
      <trkpt lat="50.305630" lon="26.696066">
        <ele>233.639701</ele>
        <time>2019-06-07T06:03:41.000Z</time>
      </trkpt>
      <trkpt lat="50.305607" lon="26.696260">
        <ele>233.704450</ele>
        <time>2019-06-07T06:03:44.000Z</time>
      </trkpt>
      <trkpt lat="50.305588" lon="26.696451">
        <ele>233.767882</ele>
        <time>2019-06-07T06:03:47.000Z</time>
      </trkpt>
      <trkpt lat="50.305580" lon="26.696640">
        <ele>233.830038</ele>
        <time>2019-06-07T06:03:50.000Z</time>
      </trkpt>
      <trkpt lat="50.305570" lon="26.696842">
        <ele>233.896523</ele>
        <time>2019-06-07T06:03:53.000Z</time>
      </trkpt>
      <trkpt lat="50.305546" lon="26.697030">
        <ele>233.959435</ele>
        <time>2019-06-07T06:03:56.000Z</time>
      </trkpt>
      <trkpt lat="50.305534" lon="26.697233">
        <ele>234.026334</ele>
        <time>2019-06-07T06:03:59.000Z</time>
      </trkpt>
      <trkpt lat="50.305515" lon="26.697435">
        <ele>234.093335</ele>
        <time>2019-06-07T06:04:02.000Z</time>
      </trkpt>
      <trkpt lat="50.305504" lon="26.697638">
        <ele>234.160189</ele>
        <time>2019-06-07T06:04:05.000Z</time>
      </trkpt>
      <trkpt lat="50.305490" lon="26.697834">
        <ele>234.224907</ele>
        <time>2019-06-07T06:04:08.000Z</time>
      </trkpt>
      <trkpt lat="50.305466" lon="26.698032">
        <ele>234.291040</ele>
        <time>2019-06-07T06:04:11.000Z</time>
      </trkpt>
      <trkpt lat="50.305447" lon="26.698230">
        <ele>234.356743</ele>
        <time>2019-06-07T06:04:14.000Z</time>
      </trkpt>
      <trkpt lat="50.305430" lon="26.698374">
        <ele>234.404797</ele>
        <time>2019-06-07T06:04:16.000Z</time>
      </trkpt>
      <trkpt lat="50.305405" lon="26.698578">
        <ele>234.472961</ele>
        <time>2019-06-07T06:04:19.000Z</time>
      </trkpt>
      <trkpt lat="50.305390" lon="26.698784">
        <ele>234.540998</ele>
        <time>2019-06-07T06:04:22.000Z</time>
      </trkpt>
      <trkpt lat="50.305363" lon="26.698965">
        <ele>234.585380</ele>
        <time>2019-06-07T06:04:25.000Z</time>
      </trkpt>
      <trkpt lat="50.305350" lon="26.699104">
        <ele>234.614561</ele>
        <time>2019-06-07T06:04:27.000Z</time>
      </trkpt>
      <trkpt lat="50.305336" lon="26.699310">
        <ele>234.657593</ele>
        <time>2019-06-07T06:04:30.000Z</time>
      </trkpt>
      <trkpt lat="50.305330" lon="26.699455">
        <ele>234.687775</ele>
        <time>2019-06-07T06:04:32.000Z</time>
      </trkpt>
      <trkpt lat="50.305305" lon="26.699640">
        <ele>234.727054</ele>
        <time>2019-06-07T06:04:35.000Z</time>
      </trkpt>
      <trkpt lat="50.305283" lon="26.699837">
        <ele>234.768596</ele>
        <time>2019-06-07T06:04:38.000Z</time>
      </trkpt>
      <trkpt lat="50.305260" lon="26.700022">
        <ele>234.807746</ele>
        <time>2019-06-07T06:04:41.000Z</time>
      </trkpt>
      <trkpt lat="50.305240" lon="26.700205">
        <ele>234.846311</ele>
        <time>2019-06-07T06:04:44.000Z</time>
      </trkpt>
      <trkpt lat="50.305230" lon="26.700415">
        <ele>234.890054</ele>
        <time>2019-06-07T06:04:47.000Z</time>
      </trkpt>
      <trkpt lat="50.305220" lon="26.700600">
        <ele>234.928619</ele>
        <time>2019-06-07T06:04:50.000Z</time>
      </trkpt>
      <trkpt lat="50.305206" lon="26.700750">
        <ele>234.960108</ele>
        <time>2019-06-07T06:04:53.000Z</time>
      </trkpt>
      <trkpt lat="50.305187" lon="26.700900">
        <ele>234.991873</ele>
        <time>2019-06-07T06:04:56.000Z</time>
      </trkpt>
      <trkpt lat="50.305170" lon="26.701070">
        <ele>235.027616</ele>
        <time>2019-06-07T06:04:59.000Z</time>
      </trkpt>
      <trkpt lat="50.305157" lon="26.701214">
        <ele>235.057825</ele>
        <time>2019-06-07T06:05:02.000Z</time>
      </trkpt>
      <trkpt lat="50.305138" lon="26.701387">
        <ele>235.094289</ele>
        <time>2019-06-07T06:05:05.000Z</time>
      </trkpt>
      <trkpt lat="50.305115" lon="26.701570">
        <ele>235.133031</ele>
        <time>2019-06-07T06:05:08.000Z</time>
      </trkpt>
      <trkpt lat="50.305100" lon="26.701727">
        <ele>235.294564</ele>
        <time>2019-06-07T06:05:11.000Z</time>
      </trkpt>
      <trkpt lat="50.305096" lon="26.701878">
        <ele>235.491949</ele>
        <time>2019-06-07T06:05:14.000Z</time>
      </trkpt>
      <trkpt lat="50.305084" lon="26.702038">
        <ele>235.702355</ele>
        <time>2019-06-07T06:05:17.000Z</time>
      </trkpt>
      <trkpt lat="50.305070" lon="26.702190">
        <ele>235.902931</ele>
        <time>2019-06-07T06:05:20.000Z</time>
      </trkpt>
      <trkpt lat="50.305054" lon="26.702358">
        <ele>236.124776</ele>
        <time>2019-06-07T06:05:23.000Z</time>
      </trkpt>
      <trkpt lat="50.305042" lon="26.702526">
        <ele>236.345562</ele>
        <time>2019-06-07T06:05:26.000Z</time>
      </trkpt>
      <trkpt lat="50.305023" lon="26.702698">
        <ele>236.573541</ele>
        <time>2019-06-07T06:05:29.000Z</time>
      </trkpt>
      <trkpt lat="50.305008" lon="26.702875">
        <ele>236.806741</ele>
        <time>2019-06-07T06:05:32.000Z</time>
      </trkpt>
      <trkpt lat="50.304990" lon="26.703053">
        <ele>237.042116</ele>
        <time>2019-06-07T06:05:35.000Z</time>
      </trkpt>
      <trkpt lat="50.304974" lon="26.703226">
        <ele>237.270422</ele>
        <time>2019-06-07T06:05:38.000Z</time>
      </trkpt>
      <trkpt lat="50.304960" lon="26.703392">
        <ele>237.489111</ele>
        <time>2019-06-07T06:05:41.000Z</time>
      </trkpt>
      <trkpt lat="50.304943" lon="26.703554">
        <ele>237.703531</ele>
        <time>2019-06-07T06:05:44.000Z</time>
      </trkpt>
      <trkpt lat="50.304940" lon="26.703724">
        <ele>237.925648</ele>
        <time>2019-06-07T06:05:48.000Z</time>
      </trkpt>
      <trkpt lat="50.304930" lon="26.703875">
        <ele>238.123921</ele>
        <time>2019-06-07T06:05:56.000Z</time>
      </trkpt>
      <trkpt lat="50.304962" lon="26.704018">
        <ele>238.321820</ele>
        <time>2019-06-07T06:06:10.000Z</time>
      </trkpt>
      <trkpt lat="50.304990" lon="26.704176">
        <ele>238.535975</ele>
        <time>2019-06-07T06:06:15.000Z</time>
      </trkpt>
      <trkpt lat="50.305027" lon="26.704325">
        <ele>238.744770</ele>
        <time>2019-06-07T06:06:19.000Z</time>
      </trkpt>
      <trkpt lat="50.305077" lon="26.704504">
        <ele>238.824623</ele>
        <time>2019-06-07T06:06:24.000Z</time>
      </trkpt>
      <trkpt lat="50.305122" lon="26.704647">
        <ele>238.830307</ele>
        <time>2019-06-07T06:06:28.000Z</time>
      </trkpt>
      <trkpt lat="50.305172" lon="26.704802">
        <ele>238.836498</ele>
        <time>2019-06-07T06:06:32.000Z</time>
      </trkpt>
      <trkpt lat="50.305225" lon="26.704940">
        <ele>238.842239</ele>
        <time>2019-06-07T06:06:35.000Z</time>
      </trkpt>
      <trkpt lat="50.305280" lon="26.705065">
        <ele>238.847650</ele>
        <time>2019-06-07T06:06:38.000Z</time>
      </trkpt>
      <trkpt lat="50.305347" lon="26.705177">
        <ele>238.853121</ele>
        <time>2019-06-07T06:06:41.000Z</time>
      </trkpt>
      <trkpt lat="50.305416" lon="26.705297">
        <ele>238.858878</ele>
        <time>2019-06-07T06:06:44.000Z</time>
      </trkpt>
      <trkpt lat="50.305485" lon="26.705414">
        <ele>238.864556</ele>
        <time>2019-06-07T06:06:47.000Z</time>
      </trkpt>
      <trkpt lat="50.305573" lon="26.705523">
        <ele>238.870819</ele>
        <time>2019-06-07T06:06:50.000Z</time>
      </trkpt>
      <trkpt lat="50.305660" lon="26.705633">
        <ele>238.877061</ele>
        <time>2019-06-07T06:06:53.000Z</time>
      </trkpt>
      <trkpt lat="50.305760" lon="26.705736">
        <ele>238.883743</ele>
        <time>2019-06-07T06:06:56.000Z</time>
      </trkpt>
      <trkpt lat="50.305855" lon="26.705828">
        <ele>238.889978</ele>
        <time>2019-06-07T06:06:59.000Z</time>
      </trkpt>
      <trkpt lat="50.305965" lon="26.705906">
        <ele>238.896719</ele>
        <time>2019-06-07T06:07:02.000Z</time>
      </trkpt>
      <trkpt lat="50.306076" lon="26.705996">
        <ele>238.903697</ele>
        <time>2019-06-07T06:07:05.000Z</time>
      </trkpt>
      <trkpt lat="50.306194" lon="26.706100">
        <ele>238.911255</ele>
        <time>2019-06-07T06:07:08.000Z</time>
      </trkpt>
      <trkpt lat="50.306305" lon="26.706170">
        <ele>238.917935</ele>
        <time>2019-06-07T06:07:11.000Z</time>
      </trkpt>
      <trkpt lat="50.306420" lon="26.706238">
        <ele>238.831824</ele>
        <time>2019-06-07T06:07:14.000Z</time>
      </trkpt>
      <trkpt lat="50.306534" lon="26.706327">
        <ele>238.698044</ele>
        <time>2019-06-07T06:07:17.000Z</time>
      </trkpt>
      <trkpt lat="50.306656" lon="26.706408">
        <ele>238.558877</ele>
        <time>2019-06-07T06:07:20.000Z</time>
      </trkpt>
      <trkpt lat="50.306740" lon="26.706467">
        <ele>238.462191</ele>
        <time>2019-06-07T06:07:22.000Z</time>
      </trkpt>
      <trkpt lat="50.306866" lon="26.706568">
        <ele>238.313534</ele>
        <time>2019-06-07T06:07:25.000Z</time>
      </trkpt>
      <trkpt lat="50.306957" lon="26.706627">
        <ele>238.210097</ele>
        <time>2019-06-07T06:07:27.000Z</time>
      </trkpt>
      <trkpt lat="50.307045" lon="26.706697">
        <ele>238.106437</ele>
        <time>2019-06-07T06:07:29.000Z</time>
      </trkpt>
      <trkpt lat="50.307137" lon="26.706776">
        <ele>237.996243</ele>
        <time>2019-06-07T06:07:31.000Z</time>
      </trkpt>
      <trkpt lat="50.307217" lon="26.706870">
        <ele>237.891202</ele>
        <time>2019-06-07T06:07:33.000Z</time>
      </trkpt>
      <trkpt lat="50.307297" lon="26.706976">
        <ele>237.781141</ele>
        <time>2019-06-07T06:07:35.000Z</time>
      </trkpt>
      <trkpt lat="50.307370" lon="26.707088">
        <ele>237.673807</ele>
        <time>2019-06-07T06:07:37.000Z</time>
      </trkpt>
      <trkpt lat="50.307446" lon="26.707195">
        <ele>237.566471</ele>
        <time>2019-06-07T06:07:39.000Z</time>
      </trkpt>
      <trkpt lat="50.307514" lon="26.707312">
        <ele>237.460366</ele>
        <time>2019-06-07T06:07:41.000Z</time>
      </trkpt>
      <trkpt lat="50.307568" lon="26.707428">
        <ele>237.364088</ele>
        <time>2019-06-07T06:07:43.000Z</time>
      </trkpt>
      <trkpt lat="50.307632" lon="26.707602">
        <ele>237.229412</ele>
        <time>2019-06-07T06:07:46.000Z</time>
      </trkpt>
      <trkpt lat="50.307693" lon="26.707777">
        <ele>237.095691</ele>
        <time>2019-06-07T06:07:49.000Z</time>
      </trkpt>
      <trkpt lat="50.307755" lon="26.707973">
        <ele>237.125665</ele>
        <time>2019-06-07T06:07:52.000Z</time>
      </trkpt>
      <trkpt lat="50.307790" lon="26.708107">
        <ele>237.237290</ele>
        <time>2019-06-07T06:07:54.000Z</time>
      </trkpt>
      <trkpt lat="50.307835" lon="26.708244">
        <ele>237.356073</ele>
        <time>2019-06-07T06:07:56.000Z</time>
      </trkpt>
      <trkpt lat="50.307877" lon="26.708380">
        <ele>237.472550</ele>
        <time>2019-06-07T06:07:58.000Z</time>
      </trkpt>
      <trkpt lat="50.307920" lon="26.708508">
        <ele>237.584063</ele>
        <time>2019-06-07T06:08:00.000Z</time>
      </trkpt>
      <trkpt lat="50.307950" lon="26.708643">
        <ele>237.694273</ele>
        <time>2019-06-07T06:08:02.000Z</time>
      </trkpt>
      <trkpt lat="50.308006" lon="26.708834">
        <ele>237.856317</ele>
        <time>2019-06-07T06:08:05.000Z</time>
      </trkpt>
      <trkpt lat="50.308044" lon="26.708963">
        <ele>237.965851</ele>
        <time>2019-06-07T06:08:07.000Z</time>
      </trkpt>
      <trkpt lat="50.308080" lon="26.709095">
        <ele>238.076518</ele>
        <time>2019-06-07T06:08:09.000Z</time>
      </trkpt>
      <trkpt lat="50.308132" lon="26.709284">
        <ele>238.235190</ele>
        <time>2019-06-07T06:08:12.000Z</time>
      </trkpt>
      <trkpt lat="50.308178" lon="26.709427">
        <ele>238.358643</ele>
        <time>2019-06-07T06:08:14.000Z</time>
      </trkpt>
      <trkpt lat="50.308224" lon="26.709572">
        <ele>238.483475</ele>
        <time>2019-06-07T06:08:16.000Z</time>
      </trkpt>
      <trkpt lat="50.308258" lon="26.709703">
        <ele>238.592502</ele>
        <time>2019-06-07T06:08:18.000Z</time>
      </trkpt>
      <trkpt lat="50.308292" lon="26.709835">
        <ele>238.702243</ele>
        <time>2019-06-07T06:08:20.000Z</time>
      </trkpt>
      <trkpt lat="50.308334" lon="26.709978">
        <ele>238.823601</ele>
        <time>2019-06-07T06:08:22.000Z</time>
      </trkpt>
      <trkpt lat="50.308372" lon="26.710110">
        <ele>238.935238</ele>
        <time>2019-06-07T06:08:24.000Z</time>
      </trkpt>
      <trkpt lat="50.308403" lon="26.710247">
        <ele>239.047302</ele>
        <time>2019-06-07T06:08:26.000Z</time>
      </trkpt>
      <trkpt lat="50.308437" lon="26.710377">
        <ele>239.155615</ele>
        <time>2019-06-07T06:08:28.000Z</time>
      </trkpt>
      <trkpt lat="50.308475" lon="26.710518">
        <ele>239.198085</ele>
        <time>2019-06-07T06:08:30.000Z</time>
      </trkpt>
      <trkpt lat="50.308510" lon="26.710653">
        <ele>239.190910</ele>
        <time>2019-06-07T06:08:32.000Z</time>
      </trkpt>
      <trkpt lat="50.308548" lon="26.710793">
        <ele>239.183419</ele>
        <time>2019-06-07T06:08:34.000Z</time>
      </trkpt>
      <trkpt lat="50.308594" lon="26.710928">
        <ele>239.175885</ele>
        <time>2019-06-07T06:08:36.000Z</time>
      </trkpt>
      <trkpt lat="50.308640" lon="26.711071">
        <ele>239.168000</ele>
        <time>2019-06-07T06:08:38.000Z</time>
      </trkpt>
      <trkpt lat="50.308685" lon="26.711216">
        <ele>239.160062</ele>
        <time>2019-06-07T06:08:40.000Z</time>
      </trkpt>
      <trkpt lat="50.308727" lon="26.711346">
        <ele>239.152888</ele>
        <time>2019-06-07T06:08:42.000Z</time>
      </trkpt>
      <trkpt lat="50.308780" lon="26.711544">
        <ele>239.142316</ele>
        <time>2019-06-07T06:08:45.000Z</time>
      </trkpt>
      <trkpt lat="50.308820" lon="26.711676">
        <ele>239.135121</ele>
        <time>2019-06-07T06:08:47.000Z</time>
      </trkpt>
      <trkpt lat="50.308853" lon="26.711820">
        <ele>239.127588</ele>
        <time>2019-06-07T06:08:49.000Z</time>
      </trkpt>
      <trkpt lat="50.308900" lon="26.711958">
        <ele>239.119886</ele>
        <time>2019-06-07T06:08:51.000Z</time>
      </trkpt>
      <trkpt lat="50.308940" lon="26.712093">
        <ele>239.112558</ele>
        <time>2019-06-07T06:08:53.000Z</time>
      </trkpt>
      <trkpt lat="50.308975" lon="26.712233">
        <ele>239.105155</ele>
        <time>2019-06-07T06:08:55.000Z</time>
      </trkpt>
      <trkpt lat="50.309013" lon="26.712368">
        <ele>239.097890</ele>
        <time>2019-06-07T06:08:57.000Z</time>
      </trkpt>
      <trkpt lat="50.309048" lon="26.712511">
        <ele>239.090349</ele>
        <time>2019-06-07T06:08:59.000Z</time>
      </trkpt>
      <trkpt lat="50.309082" lon="26.712660">
        <ele>239.082558</ele>
        <time>2019-06-07T06:09:01.000Z</time>
      </trkpt>
      <trkpt lat="50.309116" lon="26.712797">
        <ele>239.075320</ele>
        <time>2019-06-07T06:09:03.000Z</time>
      </trkpt>
      <trkpt lat="50.309160" lon="26.712950">
        <ele>239.067057</ele>
        <time>2019-06-07T06:09:05.000Z</time>
      </trkpt>
      <trkpt lat="50.309193" lon="26.713090">
        <ele>239.015539</ele>
        <time>2019-06-07T06:09:07.000Z</time>
      </trkpt>
      <trkpt lat="50.309235" lon="26.713240">
        <ele>238.923209</ele>
        <time>2019-06-07T06:09:09.000Z</time>
      </trkpt>
      <trkpt lat="50.309277" lon="26.713377">
        <ele>238.837541</ele>
        <time>2019-06-07T06:09:11.000Z</time>
      </trkpt>
      <trkpt lat="50.309315" lon="26.713520">
        <ele>238.750228</ele>
        <time>2019-06-07T06:09:13.000Z</time>
      </trkpt>
      <trkpt lat="50.309350" lon="26.713665">
        <ele>238.662844</ele>
        <time>2019-06-07T06:09:15.000Z</time>
      </trkpt>
      <trkpt lat="50.309380" lon="26.713806">
        <ele>238.579063</ele>
        <time>2019-06-07T06:09:17.000Z</time>
      </trkpt>
      <trkpt lat="50.309410" lon="26.713960">
        <ele>238.488300</ele>
        <time>2019-06-07T06:09:19.000Z</time>
      </trkpt>
      <trkpt lat="50.309444" lon="26.714106">
        <ele>238.400695</ele>
        <time>2019-06-07T06:09:21.000Z</time>
      </trkpt>
      <trkpt lat="50.309475" lon="26.714247">
        <ele>238.316631</ele>
        <time>2019-06-07T06:09:23.000Z</time>
      </trkpt>
      <trkpt lat="50.309510" lon="26.714396">
        <ele>238.227135</ele>
        <time>2019-06-07T06:09:25.000Z</time>
      </trkpt>
      <trkpt lat="50.309544" lon="26.714540">
        <ele>238.140588</ele>
        <time>2019-06-07T06:09:27.000Z</time>
      </trkpt>
      <trkpt lat="50.309570" lon="26.714687">
        <ele>238.054601</ele>
        <time>2019-06-07T06:09:29.000Z</time>
      </trkpt>
      <trkpt lat="50.309597" lon="26.714834">
        <ele>237.968374</ele>
        <time>2019-06-07T06:09:31.000Z</time>
      </trkpt>
      <trkpt lat="50.309624" lon="26.714981">
        <ele>237.882148</ele>
        <time>2019-06-07T06:09:33.000Z</time>
      </trkpt>
      <trkpt lat="50.309647" lon="26.715130">
        <ele>237.795734</ele>
        <time>2019-06-07T06:09:35.000Z</time>
      </trkpt>
      <trkpt lat="50.309673" lon="26.715275">
        <ele>237.710833</ele>
        <time>2019-06-07T06:09:37.000Z</time>
      </trkpt>
      <trkpt lat="50.309700" lon="26.715433">
        <ele>237.618631</ele>
        <time>2019-06-07T06:09:39.000Z</time>
      </trkpt>
      <trkpt lat="50.309727" lon="26.715593">
        <ele>237.525340</ele>
        <time>2019-06-07T06:09:41.000Z</time>
      </trkpt>
      <trkpt lat="50.309757" lon="26.715754">
        <ele>237.492342</ele>
        <time>2019-06-07T06:09:43.000Z</time>
      </trkpt>
      <trkpt lat="50.309788" lon="26.715914">
        <ele>237.525631</ele>
        <time>2019-06-07T06:09:45.000Z</time>
      </trkpt>
      <trkpt lat="50.309810" lon="26.716068">
        <ele>237.557050</ele>
        <time>2019-06-07T06:09:47.000Z</time>
      </trkpt>
      <trkpt lat="50.309830" lon="26.716223">
        <ele>237.588533</ele>
        <time>2019-06-07T06:09:49.000Z</time>
      </trkpt>
      <trkpt lat="50.309850" lon="26.716373">
        <ele>237.619042</ele>
        <time>2019-06-07T06:09:51.000Z</time>
      </trkpt>
      <trkpt lat="50.309856" lon="26.716520">
        <ele>237.648369</ele>
        <time>2019-06-07T06:09:53.000Z</time>
      </trkpt>
      <trkpt lat="50.309870" lon="26.716661">
        <ele>237.676778</ele>
        <time>2019-06-07T06:09:55.000Z</time>
      </trkpt>
      <trkpt lat="50.309887" lon="26.716806">
        <ele>237.706130</ele>
        <time>2019-06-07T06:09:57.000Z</time>
      </trkpt>
      <trkpt lat="50.309900" lon="26.716951">
        <ele>237.735282</ele>
        <time>2019-06-07T06:09:59.000Z</time>
      </trkpt>
      <trkpt lat="50.309910" lon="26.717100">
        <ele>237.765111</ele>
        <time>2019-06-07T06:10:01.000Z</time>
      </trkpt>
      <trkpt lat="50.309920" lon="26.717260">
        <ele>237.797118</ele>
        <time>2019-06-07T06:10:03.000Z</time>
      </trkpt>
      <trkpt lat="50.309937" lon="26.717413">
        <ele>237.828038</ele>
        <time>2019-06-07T06:10:05.000Z</time>
      </trkpt>
      <trkpt lat="50.309948" lon="26.717571">
        <ele>237.859681</ele>
        <time>2019-06-07T06:10:07.000Z</time>
      </trkpt>
      <trkpt lat="50.309967" lon="26.717731">
        <ele>237.892083</ele>
        <time>2019-06-07T06:10:09.000Z</time>
      </trkpt>
      <trkpt lat="50.309980" lon="26.717890">
        <ele>237.923997</ele>
        <time>2019-06-07T06:10:11.000Z</time>
      </trkpt>
      <trkpt lat="50.309990" lon="26.718044">
        <ele>237.954816</ele>
        <time>2019-06-07T06:10:13.000Z</time>
      </trkpt>
      <trkpt lat="50.309998" lon="26.718200">
        <ele>237.985975</ele>
        <time>2019-06-07T06:10:15.000Z</time>
      </trkpt>
      <trkpt lat="50.310010" lon="26.718350">
        <ele>238.016073</ele>
        <time>2019-06-07T06:10:17.000Z</time>
      </trkpt>
      <trkpt lat="50.310028" lon="26.718544">
        <ele>238.140707</ele>
        <time>2019-06-07T06:10:20.000Z</time>
      </trkpt>
      <trkpt lat="50.310047" lon="26.718744">
        <ele>238.371445</ele>
        <time>2019-06-07T06:10:23.000Z</time>
      </trkpt>
      <trkpt lat="50.310066" lon="26.718933">
        <ele>238.589775</ele>
        <time>2019-06-07T06:10:26.000Z</time>
      </trkpt>
      <trkpt lat="50.310080" lon="26.719126">
        <ele>238.811429</ele>
        <time>2019-06-07T06:10:29.000Z</time>
      </trkpt>
      <trkpt lat="50.310097" lon="26.719316">
        <ele>239.030362</ele>
        <time>2019-06-07T06:10:32.000Z</time>
      </trkpt>
      <trkpt lat="50.310112" lon="26.719511">
        <ele>239.254491</ele>
        <time>2019-06-07T06:10:35.000Z</time>
      </trkpt>
      <trkpt lat="50.310127" lon="26.719698">
        <ele>239.469559</ele>
        <time>2019-06-07T06:10:38.000Z</time>
      </trkpt>
      <trkpt lat="50.310154" lon="26.719877">
        <ele>239.679442</ele>
        <time>2019-06-07T06:10:41.000Z</time>
      </trkpt>
      <trkpt lat="50.310180" lon="26.720062">
        <ele>239.895602</ele>
        <time>2019-06-07T06:10:44.000Z</time>
      </trkpt>
      <trkpt lat="50.310204" lon="26.720264">
        <ele>240.130065</ele>
        <time>2019-06-07T06:10:47.000Z</time>
      </trkpt>
      <trkpt lat="50.310223" lon="26.720455">
        <ele>240.350649</ele>
        <time>2019-06-07T06:10:50.000Z</time>
      </trkpt>
      <trkpt lat="50.310238" lon="26.720654">
        <ele>240.579310</ele>
        <time>2019-06-07T06:10:53.000Z</time>
      </trkpt>
      <trkpt lat="50.310257" lon="26.720852">
        <ele>240.807790</ele>
        <time>2019-06-07T06:10:56.000Z</time>
      </trkpt>
      <trkpt lat="50.310287" lon="26.721054">
        <ele>241.044449</ele>
        <time>2019-06-07T06:10:59.000Z</time>
      </trkpt>
      <trkpt lat="50.310326" lon="26.721247">
        <ele>241.263832</ele>
        <time>2019-06-07T06:11:02.000Z</time>
      </trkpt>
      <trkpt lat="50.310352" lon="26.721418">
        <ele>241.369528</ele>
        <time>2019-06-07T06:11:05.000Z</time>
      </trkpt>
      <trkpt lat="50.310390" lon="26.721573">
        <ele>241.469361</ele>
        <time>2019-06-07T06:11:08.000Z</time>
      </trkpt>
      <trkpt lat="50.310436" lon="26.721746">
        <ele>241.582042</ele>
        <time>2019-06-07T06:11:11.000Z</time>
      </trkpt>
      <trkpt lat="50.310490" lon="26.721918">
        <ele>241.697288</ele>
        <time>2019-06-07T06:11:14.000Z</time>
      </trkpt>
      <trkpt lat="50.310577" lon="26.722166">
        <ele>241.867427</ele>
        <time>2019-06-07T06:11:18.000Z</time>
      </trkpt>
      <trkpt lat="50.310640" lon="26.722353">
        <ele>241.994556</ele>
        <time>2019-06-07T06:11:21.000Z</time>
      </trkpt>
      <trkpt lat="50.310677" lon="26.722488">
        <ele>242.082891</ele>
        <time>2019-06-07T06:11:23.000Z</time>
      </trkpt>
      <trkpt lat="50.310722" lon="26.722612">
        <ele>242.168649</ele>
        <time>2019-06-07T06:11:25.000Z</time>
      </trkpt>
      <trkpt lat="50.310760" lon="26.722740">
        <ele>242.253525</ele>
        <time>2019-06-07T06:11:27.000Z</time>
      </trkpt>
      <trkpt lat="50.310806" lon="26.722866">
        <ele>242.340794</ele>
        <time>2019-06-07T06:11:29.000Z</time>
      </trkpt>
      <trkpt lat="50.310852" lon="26.722990">
        <ele>242.427021</ele>
        <time>2019-06-07T06:11:31.000Z</time>
      </trkpt>
      <trkpt lat="50.310894" lon="26.723116">
        <ele>242.512483</ele>
        <time>2019-06-07T06:11:33.000Z</time>
      </trkpt>
      <trkpt lat="50.310940" lon="26.723238">
        <ele>242.597673</ele>
        <time>2019-06-07T06:11:35.000Z</time>
      </trkpt>
      <trkpt lat="50.310997" lon="26.723421">
        <ele>242.720100</ele>
        <time>2019-06-07T06:11:38.000Z</time>
      </trkpt>
      <trkpt lat="50.311035" lon="26.723550">
        <ele>242.805520</ele>
        <time>2019-06-07T06:11:40.000Z</time>
      </trkpt>
      <trkpt lat="50.311077" lon="26.723675">
        <ele>242.890450</ele>
        <time>2019-06-07T06:11:42.000Z</time>
      </trkpt>
      <trkpt lat="50.311123" lon="26.723797">
        <ele>242.932860</ele>
        <time>2019-06-07T06:11:44.000Z</time>
      </trkpt>
      <trkpt lat="50.311184" lon="26.723974">
        <ele>242.888168</ele>
        <time>2019-06-07T06:11:47.000Z</time>
      </trkpt>
      <trkpt lat="50.311245" lon="26.724148">
        <ele>242.844062</ele>
        <time>2019-06-07T06:11:50.000Z</time>
      </trkpt>
      <trkpt lat="50.311320" lon="26.724310">
        <ele>242.799601</ele>
        <time>2019-06-07T06:11:53.000Z</time>
      </trkpt>
      <trkpt lat="50.311394" lon="26.724466">
        <ele>242.756421</ele>
        <time>2019-06-07T06:11:56.000Z</time>
      </trkpt>
      <trkpt lat="50.311466" lon="26.724623">
        <ele>242.713472</ele>
        <time>2019-06-07T06:11:59.000Z</time>
      </trkpt>
      <trkpt lat="50.311546" lon="26.724762">
        <ele>242.671894</ele>
        <time>2019-06-07T06:12:02.000Z</time>
      </trkpt>
      <trkpt lat="50.311620" lon="26.724865">
        <ele>242.637445</ele>
        <time>2019-06-07T06:12:05.000Z</time>
      </trkpt>
      <trkpt lat="50.311703" lon="26.724964">
        <ele>242.601141</ele>
        <time>2019-06-07T06:12:08.000Z</time>
      </trkpt>
      <trkpt lat="50.311802" lon="26.725086">
        <ele>242.557307</ele>
        <time>2019-06-07T06:12:11.000Z</time>
      </trkpt>
      <trkpt lat="50.311905" lon="26.725203">
        <ele>242.513033</ele>
        <time>2019-06-07T06:12:14.000Z</time>
      </trkpt>
      <trkpt lat="50.311977" lon="26.725279">
        <ele>242.482820</ele>
        <time>2019-06-07T06:12:16.000Z</time>
      </trkpt>
      <trkpt lat="50.312054" lon="26.725372">
        <ele>242.448985</ele>
        <time>2019-06-07T06:12:18.000Z</time>
      </trkpt>
      <trkpt lat="50.312126" lon="26.725462">
        <ele>242.416930</ele>
        <time>2019-06-07T06:12:20.000Z</time>
      </trkpt>
      <trkpt lat="50.312200" lon="26.725550">
        <ele>242.384599</ele>
        <time>2019-06-07T06:12:22.000Z</time>
      </trkpt>
      <trkpt lat="50.312275" lon="26.725641">
        <ele>242.351587</ele>
        <time>2019-06-07T06:12:24.000Z</time>
      </trkpt>
      <trkpt lat="50.312344" lon="26.725730">
        <ele>242.320482</ele>
        <time>2019-06-07T06:12:26.000Z</time>
      </trkpt>
      <trkpt lat="50.312443" lon="26.725860">
        <ele>242.220062</ele>
        <time>2019-06-07T06:12:29.000Z</time>
      </trkpt>
      <trkpt lat="50.312553" lon="26.725990">
        <ele>242.110328</ele>
        <time>2019-06-07T06:12:32.000Z</time>
      </trkpt>
      <trkpt lat="50.312626" lon="26.726084">
        <ele>242.035073</ele>
        <time>2019-06-07T06:12:34.000Z</time>
      </trkpt>
      <trkpt lat="50.312710" lon="26.726180">
        <ele>241.952269</ele>
        <time>2019-06-07T06:12:36.000Z</time>
      </trkpt>
      <trkpt lat="50.312780" lon="26.726278">
        <ele>241.877503</ele>
        <time>2019-06-07T06:12:38.000Z</time>
      </trkpt>
      <trkpt lat="50.312850" lon="26.726374">
        <ele>241.803411</ele>
        <time>2019-06-07T06:12:40.000Z</time>
      </trkpt>
      <trkpt lat="50.312930" lon="26.726467">
        <ele>241.724076</ele>
        <time>2019-06-07T06:12:42.000Z</time>
      </trkpt>
      <trkpt lat="50.313004" lon="26.726564">
        <ele>241.647234</ele>
        <time>2019-06-07T06:12:44.000Z</time>
      </trkpt>
      <trkpt lat="50.313084" lon="26.726660">
        <ele>241.566980</ele>
        <time>2019-06-07T06:12:46.000Z</time>
      </trkpt>
      <trkpt lat="50.313156" lon="26.726746">
        <ele>241.494876</ele>
        <time>2019-06-07T06:12:48.000Z</time>
      </trkpt>
      <trkpt lat="50.313230" lon="26.726835">
        <ele>241.420580</ele>
        <time>2019-06-07T06:12:50.000Z</time>
      </trkpt>
      <trkpt lat="50.313310" lon="26.726929">
        <ele>241.340941</ele>
        <time>2019-06-07T06:12:52.000Z</time>
      </trkpt>
      <trkpt lat="50.313390" lon="26.727026">
        <ele>241.260377</ele>
        <time>2019-06-07T06:12:54.000Z</time>
      </trkpt>
      <trkpt lat="50.313470" lon="26.727121">
        <ele>241.180432</ele>
        <time>2019-06-07T06:12:56.000Z</time>
      </trkpt>
      <trkpt lat="50.313553" lon="26.727226">
        <ele>241.095471</ele>
        <time>2019-06-07T06:12:58.000Z</time>
      </trkpt>
      <trkpt lat="50.313633" lon="26.727330">
        <ele>241.012681</ele>
        <time>2019-06-07T06:13:00.000Z</time>
      </trkpt>
      <trkpt lat="50.313710" lon="26.727425">
        <ele>240.934626</ele>
        <time>2019-06-07T06:13:02.000Z</time>
      </trkpt>
      <trkpt lat="50.313786" lon="26.727509">
        <ele>240.899728</ele>
        <time>2019-06-07T06:13:04.000Z</time>
      </trkpt>
      <trkpt lat="50.313866" lon="26.727600">
        <ele>240.940365</ele>
        <time>2019-06-07T06:13:06.000Z</time>
      </trkpt>
      <trkpt lat="50.313946" lon="26.727692">
        <ele>240.981158</ele>
        <time>2019-06-07T06:13:08.000Z</time>
      </trkpt>
      <trkpt lat="50.314020" lon="26.727781">
        <ele>241.019505</ele>
        <time>2019-06-07T06:13:10.000Z</time>
      </trkpt>
      <trkpt lat="50.314100" lon="26.727880">
        <ele>241.061411</ele>
        <time>2019-06-07T06:13:12.000Z</time>
      </trkpt>
      <trkpt lat="50.314175" lon="26.727974">
        <ele>241.100892</ele>
        <time>2019-06-07T06:13:14.000Z</time>
      </trkpt>
      <trkpt lat="50.314247" lon="26.728071">
        <ele>241.139927</ele>
        <time>2019-06-07T06:13:16.000Z</time>
      </trkpt>
      <trkpt lat="50.314316" lon="26.728168">
        <ele>241.178035</ele>
        <time>2019-06-07T06:13:18.000Z</time>
      </trkpt>
      <trkpt lat="50.314392" lon="26.728266">
        <ele>241.218497</ele>
        <time>2019-06-07T06:13:20.000Z</time>
      </trkpt>
      <trkpt lat="50.314470" lon="26.728355">
        <ele>241.258160</ele>
        <time>2019-06-07T06:13:22.000Z</time>
      </trkpt>
      <trkpt lat="50.314550" lon="26.728449">
        <ele>241.299266</ele>
        <time>2019-06-07T06:13:24.000Z</time>
      </trkpt>
      <trkpt lat="50.314650" lon="26.728588">
        <ele>241.354219</ele>
        <time>2019-06-07T06:13:27.000Z</time>
      </trkpt>
      <trkpt lat="50.314728" lon="26.728685">
        <ele>241.395154</ele>
        <time>2019-06-07T06:13:29.000Z</time>
      </trkpt>
      <trkpt lat="50.314808" lon="26.728777">
        <ele>241.435947</ele>
        <time>2019-06-07T06:13:31.000Z</time>
      </trkpt>
      <trkpt lat="50.314884" lon="26.728880">
        <ele>241.477254</ele>
        <time>2019-06-07T06:13:33.000Z</time>
      </trkpt>
      <trkpt lat="50.314964" lon="26.728973">
        <ele>241.518202</ele>
        <time>2019-06-07T06:13:35.000Z</time>
      </trkpt>
      <trkpt lat="50.315050" lon="26.729073">
        <ele>241.562225</ele>
        <time>2019-06-07T06:13:37.000Z</time>
      </trkpt>
      <trkpt lat="50.315125" lon="26.729166">
        <ele>241.601542</ele>
        <time>2019-06-07T06:13:39.000Z</time>
      </trkpt>
      <trkpt lat="50.315210" lon="26.729265">
        <ele>241.640035</ele>
        <time>2019-06-07T06:13:41.000Z</time>
      </trkpt>
      <trkpt lat="50.315292" lon="26.729359">
        <ele>241.670980</ele>
        <time>2019-06-07T06:13:43.000Z</time>
      </trkpt>
      <trkpt lat="50.315376" lon="26.729448">
        <ele>241.701863</ele>
        <time>2019-06-07T06:13:45.000Z</time>
      </trkpt>
      <trkpt lat="50.315453" lon="26.729536">
        <ele>241.730890</ele>
        <time>2019-06-07T06:13:47.000Z</time>
      </trkpt>
      <trkpt lat="50.315536" lon="26.729626">
        <ele>241.761631</ele>
        <time>2019-06-07T06:13:49.000Z</time>
      </trkpt>
      <trkpt lat="50.315620" lon="26.729729">
        <ele>241.794118</ele>
        <time>2019-06-07T06:13:51.000Z</time>
      </trkpt>
      <trkpt lat="50.315704" lon="26.729834">
        <ele>241.826846</ele>
        <time>2019-06-07T06:13:53.000Z</time>
      </trkpt>
      <trkpt lat="50.315790" lon="26.729930">
        <ele>241.859006</ele>
        <time>2019-06-07T06:13:55.000Z</time>
      </trkpt>
      <trkpt lat="50.315870" lon="26.730036">
        <ele>241.890916</ele>
        <time>2019-06-07T06:13:57.000Z</time>
      </trkpt>
      <trkpt lat="50.315937" lon="26.730156">
        <ele>241.921911</ele>
        <time>2019-06-07T06:13:59.000Z</time>
      </trkpt>
      <trkpt lat="50.316006" lon="26.730282">
        <ele>241.954187</ele>
        <time>2019-06-07T06:14:01.000Z</time>
      </trkpt>
      <trkpt lat="50.316063" lon="26.730394">
        <ele>241.982036</ele>
        <time>2019-06-07T06:14:03.000Z</time>
      </trkpt>
      <trkpt lat="50.316120" lon="26.730509">
        <ele>242.010343</ele>
        <time>2019-06-07T06:14:05.000Z</time>
      </trkpt>
      <trkpt lat="50.316180" lon="26.730637">
        <ele>242.041218</ele>
        <time>2019-06-07T06:14:07.000Z</time>
      </trkpt>
      <trkpt lat="50.316242" lon="26.730751">
        <ele>242.070335</ele>
        <time>2019-06-07T06:14:09.000Z</time>
      </trkpt>
      <trkpt lat="50.316296" lon="26.730870">
        <ele>242.098721</ele>
        <time>2019-06-07T06:14:11.000Z</time>
      </trkpt>
      <trkpt lat="50.316357" lon="26.730984">
        <ele>242.127641</ele>
        <time>2019-06-07T06:14:13.000Z</time>
      </trkpt>
      <trkpt lat="50.316414" lon="26.731096">
        <ele>242.155490</ele>
        <time>2019-06-07T06:14:15.000Z</time>
      </trkpt>
      <trkpt lat="50.316470" lon="26.731216">
        <ele>242.174303</ele>
        <time>2019-06-07T06:14:17.000Z</time>
      </trkpt>
      <trkpt lat="50.316532" lon="26.731325">
        <ele>242.176840</ele>
        <time>2019-06-07T06:14:19.000Z</time>
      </trkpt>
      <trkpt lat="50.316586" lon="26.731434">
        <ele>242.179237</ele>
        <time>2019-06-07T06:14:21.000Z</time>
      </trkpt>
      <trkpt lat="50.316643" lon="26.731558">
        <ele>242.181892</ele>
        <time>2019-06-07T06:14:23.000Z</time>
      </trkpt>
      <trkpt lat="50.316704" lon="26.731667">
        <ele>242.184411</ele>
        <time>2019-06-07T06:14:25.000Z</time>
      </trkpt>
      <trkpt lat="50.316770" lon="26.731773">
        <ele>242.186983</ele>
        <time>2019-06-07T06:14:27.000Z</time>
      </trkpt>
      <trkpt lat="50.316837" lon="26.731874">
        <ele>242.189514</ele>
        <time>2019-06-07T06:14:29.000Z</time>
      </trkpt>
      <trkpt lat="50.316902" lon="26.731985">
        <ele>242.192131</ele>
        <time>2019-06-07T06:14:31.000Z</time>
      </trkpt>
      <trkpt lat="50.316990" lon="26.732120">
        <ele>242.195484</ele>
        <time>2019-06-07T06:14:34.000Z</time>
      </trkpt>
      <trkpt lat="50.317080" lon="26.732258">
        <ele>242.198911</ele>
        <time>2019-06-07T06:14:37.000Z</time>
      </trkpt>
      <trkpt lat="50.317158" lon="26.732382">
        <ele>242.201936</ele>
        <time>2019-06-07T06:14:40.000Z</time>
      </trkpt>
      <trkpt lat="50.317234" lon="26.732490">
        <ele>242.204729</ele>
        <time>2019-06-07T06:14:43.000Z</time>
      </trkpt>
      <trkpt lat="50.317307" lon="26.732601">
        <ele>242.207497</ele>
        <time>2019-06-07T06:14:46.000Z</time>
      </trkpt>
      <trkpt lat="50.317383" lon="26.732700">
        <ele>242.210188</ele>
        <time>2019-06-07T06:14:49.000Z</time>
      </trkpt>
      <trkpt lat="50.317448" lon="26.732800">
        <ele>242.212667</ele>
        <time>2019-06-07T06:14:52.000Z</time>
      </trkpt>
      <trkpt lat="50.317524" lon="26.732899">
        <ele>242.215357</ele>
        <time>2019-06-07T06:14:55.000Z</time>
      </trkpt>
      <trkpt lat="50.317600" lon="26.732990">
        <ele>242.217961</ele>
        <time>2019-06-07T06:14:58.000Z</time>
      </trkpt>
      <trkpt lat="50.317677" lon="26.733095">
        <ele>242.220739</ele>
        <time>2019-06-07T06:15:01.000Z</time>
      </trkpt>
      <trkpt lat="50.317757" lon="26.733202">
        <ele>242.150247</ele>
        <time>2019-06-07T06:15:04.000Z</time>
      </trkpt>
      <trkpt lat="50.317837" lon="26.733292">
        <ele>242.006385</ele>
        <time>2019-06-07T06:15:07.000Z</time>
      </trkpt>
      <trkpt lat="50.317917" lon="26.733397">
        <ele>241.853939</ele>
        <time>2019-06-07T06:15:10.000Z</time>
      </trkpt>
      <trkpt lat="50.317993" lon="26.733494">
        <ele>241.710749</ele>
        <time>2019-06-07T06:15:13.000Z</time>
      </trkpt>
      <trkpt lat="50.318077" lon="26.733590">
        <ele>241.558874</ele>
        <time>2019-06-07T06:15:16.000Z</time>
      </trkpt>
      <trkpt lat="50.318153" lon="26.733696">
        <ele>241.410239</ele>
        <time>2019-06-07T06:15:19.000Z</time>
      </trkpt>
      <trkpt lat="50.318250" lon="26.733803">
        <ele>241.236956</ele>
        <time>2019-06-07T06:15:22.000Z</time>
      </trkpt>
      <trkpt lat="50.318330" lon="26.733908">
        <ele>241.084510</ele>
        <time>2019-06-07T06:15:25.000Z</time>
      </trkpt>
      <trkpt lat="50.318413" lon="26.734005">
        <ele>240.933257</ele>
        <time>2019-06-07T06:15:28.000Z</time>
      </trkpt>
      <trkpt lat="50.318497" lon="26.734106">
        <ele>240.778588</ele>
        <time>2019-06-07T06:15:31.000Z</time>
      </trkpt>
      <trkpt lat="50.318584" lon="26.734207">
        <ele>240.620422</ele>
        <time>2019-06-07T06:15:34.000Z</time>
      </trkpt>
      <trkpt lat="50.318676" lon="26.734310">
        <ele>240.455254</ele>
        <time>2019-06-07T06:15:37.000Z</time>
      </trkpt>
      <trkpt lat="50.318775" lon="26.734415">
        <ele>240.280628</ele>
        <time>2019-06-07T06:15:40.000Z</time>
      </trkpt>
      <trkpt lat="50.318874" lon="26.734524">
        <ele>240.103884</ele>
        <time>2019-06-07T06:15:43.000Z</time>
      </trkpt>
      <trkpt lat="50.318947" lon="26.734612">
        <ele>239.969341</ele>
        <time>2019-06-07T06:15:45.000Z</time>
      </trkpt>
      <trkpt lat="50.319046" lon="26.734722">
        <ele>239.792059</ele>
        <time>2019-06-07T06:15:48.000Z</time>
      </trkpt>
      <trkpt lat="50.319150" lon="26.734835">
        <ele>239.607192</ele>
        <time>2019-06-07T06:15:51.000Z</time>
      </trkpt>
      <trkpt lat="50.319220" lon="26.734919">
        <ele>239.618615</ele>
        <time>2019-06-07T06:15:53.000Z</time>
      </trkpt>
      <trkpt lat="50.319330" lon="26.735030">
        <ele>239.656657</ele>
        <time>2019-06-07T06:15:56.000Z</time>
      </trkpt>
      <trkpt lat="50.319424" lon="26.735167">
        <ele>239.693986</ele>
        <time>2019-06-07T06:15:59.000Z</time>
      </trkpt>
      <trkpt lat="50.319496" lon="26.735247">
        <ele>239.719650</ele>
        <time>2019-06-07T06:16:01.000Z</time>
      </trkpt>
      <trkpt lat="50.319590" lon="26.735369">
        <ele>239.755142</ele>
        <time>2019-06-07T06:16:04.000Z</time>
      </trkpt>
      <trkpt lat="50.319690" lon="26.735474">
        <ele>239.790142</ele>
        <time>2019-06-07T06:16:07.000Z</time>
      </trkpt>
      <trkpt lat="50.319790" lon="26.735592">
        <ele>239.826542</ele>
        <time>2019-06-07T06:16:10.000Z</time>
      </trkpt>
      <trkpt lat="50.319870" lon="26.735697">
        <ele>239.856886</ele>
        <time>2019-06-07T06:16:13.000Z</time>
      </trkpt>
      <trkpt lat="50.319942" lon="26.735788">
        <ele>239.883783</ele>
        <time>2019-06-07T06:16:16.000Z</time>
      </trkpt>
      <trkpt lat="50.320023" lon="26.735890">
        <ele>239.913999</ele>
        <time>2019-06-07T06:16:21.000Z</time>
      </trkpt>
      <trkpt lat="50.319977" lon="26.735758">
        <ele>239.941913</ele>
        <time>2019-06-07T06:16:28.000Z</time>
      </trkpt>
      <trkpt lat="50.319893" lon="26.735645">
        <ele>239.974104</ele>
        <time>2019-06-07T06:16:33.000Z</time>
      </trkpt>
      <trkpt lat="50.319813" lon="26.735546">
        <ele>240.003745</ele>
        <time>2019-06-07T06:16:38.000Z</time>
      </trkpt>
      <trkpt lat="50.319862" lon="26.735682">
        <ele>240.032732</ele>
        <time>2019-06-07T06:17:39.000Z</time>
      </trkpt>
      <trkpt lat="50.319935" lon="26.735792">
        <ele>240.062182</ele>
        <time>2019-06-07T06:17:44.000Z</time>
      </trkpt>
      <trkpt lat="50.320020" lon="26.735863">
        <ele>240.090188</ele>
        <time>2019-06-07T06:17:50.000Z</time>
      </trkpt>
      <trkpt lat="50.320070" lon="26.735981">
        <ele>240.116475</ele>
        <time>2019-06-07T06:17:56.000Z</time>
      </trkpt>
      <trkpt lat="50.320114" lon="26.736130">
        <ele>240.331291</ele>
        <time>2019-06-07T06:18:02.000Z</time>
      </trkpt>
      <trkpt lat="50.320150" lon="26.736284">
        <ele>240.557153</ele>
        <time>2019-06-07T06:18:08.000Z</time>
      </trkpt>
      <trkpt lat="50.320126" lon="26.736454">
        <ele>240.796938</ele>
        <time>2019-06-07T06:18:13.000Z</time>
      </trkpt>
      <trkpt lat="50.320065" lon="26.736597">
        <ele>241.033791</ele>
        <time>2019-06-07T06:18:18.000Z</time>
      </trkpt>
      <trkpt lat="50.320015" lon="26.736712">
        <ele>241.225406</ele>
        <time>2019-06-07T06:18:22.000Z</time>
      </trkpt>
      <trkpt lat="50.319946" lon="26.736824">
        <ele>241.439752</ele>
        <time>2019-06-07T06:18:27.000Z</time>
      </trkpt>
      <trkpt lat="50.319880" lon="26.736952">
        <ele>241.666344</ele>
        <time>2019-06-07T06:18:32.000Z</time>
      </trkpt>
      <trkpt lat="50.319828" lon="26.737068">
        <ele>241.861546</ele>
        <time>2019-06-07T06:18:36.000Z</time>
      </trkpt>
      <trkpt lat="50.319775" lon="26.737190">
        <ele>242.064773</ele>
        <time>2019-06-07T06:18:40.000Z</time>
      </trkpt>
      <trkpt lat="50.319717" lon="26.737322">
        <ele>242.285457</ele>
        <time>2019-06-07T06:18:44.000Z</time>
      </trkpt>
      <trkpt lat="50.319645" lon="26.737469">
        <ele>242.540618</ele>
        <time>2019-06-07T06:18:48.000Z</time>
      </trkpt>
      <trkpt lat="50.319588" lon="26.737587">
        <ele>242.744401</ele>
        <time>2019-06-07T06:18:51.000Z</time>
      </trkpt>
      <trkpt lat="50.319523" lon="26.737700">
        <ele>242.953871</ele>
        <time>2019-06-07T06:18:54.000Z</time>
      </trkpt>
      <trkpt lat="50.319466" lon="26.737812">
        <ele>243.151127</ele>
        <time>2019-06-07T06:18:57.000Z</time>
      </trkpt>
      <trkpt lat="50.319400" lon="26.737934">
        <ele>243.371353</ele>
        <time>2019-06-07T06:19:00.000Z</time>
      </trkpt>
      <trkpt lat="50.319340" lon="26.738058">
        <ele>243.585631</ele>
        <time>2019-06-07T06:19:03.000Z</time>
      </trkpt>
      <trkpt lat="50.319280" lon="26.738178">
        <ele>243.795545</ele>
        <time>2019-06-07T06:19:06.000Z</time>
      </trkpt>
      <trkpt lat="50.319225" lon="26.738306">
        <ele>243.998556</ele>
        <time>2019-06-07T06:19:09.000Z</time>
      </trkpt>
      <trkpt lat="50.319176" lon="26.738440">
        <ele>244.012546</ele>
        <time>2019-06-07T06:19:12.000Z</time>
      </trkpt>
      <trkpt lat="50.319115" lon="26.738558">
        <ele>244.026301</ele>
        <time>2019-06-07T06:19:15.000Z</time>
      </trkpt>
      <trkpt lat="50.319042" lon="26.738708">
        <ele>244.043387</ele>
        <time>2019-06-07T06:19:19.000Z</time>
      </trkpt>
      <trkpt lat="50.318990" lon="26.738829">
        <ele>244.056601</ele>
        <time>2019-06-07T06:19:22.000Z</time>
      </trkpt>
      <trkpt lat="50.318930" lon="26.738949">
        <ele>244.070409</ele>
        <time>2019-06-07T06:19:25.000Z</time>
      </trkpt>
      <trkpt lat="50.318882" lon="26.739098">
        <ele>244.085528</ele>
        <time>2019-06-07T06:19:29.000Z</time>
      </trkpt>
      <trkpt lat="50.318830" lon="26.739223">
        <ele>244.099044</ele>
        <time>2019-06-07T06:19:33.000Z</time>
      </trkpt>
      <trkpt lat="50.318760" lon="26.739370">
        <ele>244.115658</ele>
        <time>2019-06-07T06:19:37.000Z</time>
      </trkpt>
      <trkpt lat="50.318714" lon="26.739494">
        <ele>244.128650</ele>
        <time>2019-06-07T06:19:40.000Z</time>
      </trkpt>
      <trkpt lat="50.318657" lon="26.739613">
        <ele>244.142127</ele>
        <time>2019-06-07T06:19:43.000Z</time>
      </trkpt>
      <trkpt lat="50.318607" lon="26.739740">
        <ele>244.155644</ele>
        <time>2019-06-07T06:19:46.000Z</time>
      </trkpt>
      <trkpt lat="50.318542" lon="26.739874">
        <ele>244.170890</ele>
        <time>2019-06-07T06:19:49.000Z</time>
      </trkpt>
      <trkpt lat="50.318480" lon="26.740007">
        <ele>244.185809</ele>
        <time>2019-06-07T06:19:52.000Z</time>
      </trkpt>
      <trkpt lat="50.318417" lon="26.740147">
        <ele>244.201326</ele>
        <time>2019-06-07T06:19:55.000Z</time>
      </trkpt>
      <trkpt lat="50.318356" lon="26.740297">
        <ele>244.217437</ele>
        <time>2019-06-07T06:19:58.000Z</time>
      </trkpt>
      <trkpt lat="50.318283" lon="26.740456">
        <ele>244.235179</ele>
        <time>2019-06-07T06:20:01.000Z</time>
      </trkpt>
      <trkpt lat="50.318210" lon="26.740623">
        <ele>244.247710</ele>
        <time>2019-06-07T06:20:04.000Z</time>
      </trkpt>
      <trkpt lat="50.318140" lon="26.740790">
        <ele>244.018466</ele>
        <time>2019-06-07T06:20:07.000Z</time>
      </trkpt>
      <trkpt lat="50.318070" lon="26.740961">
        <ele>243.785371</ele>
        <time>2019-06-07T06:20:10.000Z</time>
      </trkpt>
      <trkpt lat="50.317990" lon="26.741123">
        <ele>243.550357</ele>
        <time>2019-06-07T06:20:13.000Z</time>
      </trkpt>
      <trkpt lat="50.317940" lon="26.741243">
        <ele>243.385925</ele>
        <time>2019-06-07T06:20:15.000Z</time>
      </trkpt>
      <trkpt lat="50.317883" lon="26.741360">
        <ele>243.217044</ele>
        <time>2019-06-07T06:20:17.000Z</time>
      </trkpt>
      <trkpt lat="50.317806" lon="26.741528">
        <ele>242.979730</ele>
        <time>2019-06-07T06:20:20.000Z</time>
      </trkpt>
      <trkpt lat="50.317726" lon="26.741680">
        <ele>242.753684</ele>
        <time>2019-06-07T06:20:23.000Z</time>
      </trkpt>
      <trkpt lat="50.317640" lon="26.741837">
        <ele>242.516306</ele>
        <time>2019-06-07T06:20:26.000Z</time>
      </trkpt>
      <trkpt lat="50.317562" lon="26.742000">
        <ele>242.282555</ele>
        <time>2019-06-07T06:20:29.000Z</time>
      </trkpt>
      <trkpt lat="50.317490" lon="26.742167">
        <ele>242.051317</ele>
        <time>2019-06-07T06:20:32.000Z</time>
      </trkpt>
      <trkpt lat="50.317406" lon="26.742336">
        <ele>241.805547</ele>
        <time>2019-06-07T06:20:35.000Z</time>
      </trkpt>
      <trkpt lat="50.317352" lon="26.742453">
        <ele>241.639880</ele>
        <time>2019-06-07T06:20:37.000Z</time>
      </trkpt>
      <trkpt lat="50.317295" lon="26.742570">
        <ele>241.470998</ele>
        <time>2019-06-07T06:20:39.000Z</time>
      </trkpt>
      <trkpt lat="50.317240" lon="26.742691">
        <ele>241.300553</ele>
        <time>2019-06-07T06:20:41.000Z</time>
      </trkpt>
      <trkpt lat="50.317190" lon="26.742811">
        <ele>241.136119</ele>
        <time>2019-06-07T06:20:43.000Z</time>
      </trkpt>
      <trkpt lat="50.317142" lon="26.742933">
        <ele>241.044350</ele>
        <time>2019-06-07T06:20:45.000Z</time>
      </trkpt>
      <trkpt lat="50.317097" lon="26.743060">
        <ele>241.125349</ele>
        <time>2019-06-07T06:20:47.000Z</time>
      </trkpt>
      <trkpt lat="50.317013" lon="26.743227">
        <ele>241.243906</ele>
        <time>2019-06-07T06:20:50.000Z</time>
      </trkpt>
      <trkpt lat="50.316936" lon="26.743376">
        <ele>241.350804</ele>
        <time>2019-06-07T06:20:53.000Z</time>
      </trkpt>
      <trkpt lat="50.316845" lon="26.743534">
        <ele>241.469465</ele>
        <time>2019-06-07T06:20:56.000Z</time>
      </trkpt>
      <trkpt lat="50.316784" lon="26.743704">
        <ele>241.578215</ele>
        <time>2019-06-07T06:20:59.000Z</time>
      </trkpt>
      <trkpt lat="50.316710" lon="26.743889">
        <ele>241.699957</ele>
        <time>2019-06-07T06:21:02.000Z</time>
      </trkpt>
      <trkpt lat="50.316654" lon="26.744019">
        <ele>241.787411</ele>
        <time>2019-06-07T06:21:04.000Z</time>
      </trkpt>
      <trkpt lat="50.316590" lon="26.744200">
        <ele>241.902794</ele>
        <time>2019-06-07T06:21:07.000Z</time>
      </trkpt>
      <trkpt lat="50.316530" lon="26.744389">
        <ele>242.020504</ele>
        <time>2019-06-07T06:21:10.000Z</time>
      </trkpt>
      <trkpt lat="50.316470" lon="26.744564">
        <ele>242.131278</ele>
        <time>2019-06-07T06:21:13.000Z</time>
      </trkpt>
      <trkpt lat="50.316418" lon="26.744745">
        <ele>242.241965</ele>
        <time>2019-06-07T06:21:16.000Z</time>
      </trkpt>
      <trkpt lat="50.316370" lon="26.744938">
        <ele>242.357474</ele>
        <time>2019-06-07T06:21:19.000Z</time>
      </trkpt>
      <trkpt lat="50.316330" lon="26.745127">
        <ele>242.468516</ele>
        <time>2019-06-07T06:21:22.000Z</time>
      </trkpt>
      <trkpt lat="50.316296" lon="26.745258">
        <ele>242.547377</ele>
        <time>2019-06-07T06:21:24.000Z</time>
      </trkpt>
      <trkpt lat="50.316265" lon="26.745403">
        <ele>242.589958</ele>
        <time>2019-06-07T06:21:26.000Z</time>
      </trkpt>
      <trkpt lat="50.316235" lon="26.745552">
        <ele>242.586785</ele>
        <time>2019-06-07T06:21:28.000Z</time>
      </trkpt>
      <trkpt lat="50.316210" lon="26.745690">
        <ele>242.583871</ele>
        <time>2019-06-07T06:21:30.000Z</time>
      </trkpt>
      <trkpt lat="50.316174" lon="26.745893">
        <ele>242.579592</ele>
        <time>2019-06-07T06:21:33.000Z</time>
      </trkpt>
      <trkpt lat="50.316150" lon="26.746033">
        <ele>242.576647</ele>
        <time>2019-06-07T06:21:35.000Z</time>
      </trkpt>
      <trkpt lat="50.316140" lon="26.746191">
        <ele>242.573422</ele>
        <time>2019-06-07T06:21:37.000Z</time>
      </trkpt>
      <trkpt lat="50.316124" lon="26.746336">
        <ele>242.570433</ele>
        <time>2019-06-07T06:21:39.000Z</time>
      </trkpt>
      <trkpt lat="50.316110" lon="26.746485">
        <ele>242.567374</ele>
        <time>2019-06-07T06:21:41.000Z</time>
      </trkpt>
      <trkpt lat="50.316097" lon="26.746635">
        <ele>242.564299</ele>
        <time>2019-06-07T06:21:43.000Z</time>
      </trkpt>
      <trkpt lat="50.316090" lon="26.746800">
        <ele>242.560940</ele>
        <time>2019-06-07T06:21:45.000Z</time>
      </trkpt>
      <trkpt lat="50.316074" lon="26.746970">
        <ele>242.557450</ele>
        <time>2019-06-07T06:21:47.000Z</time>
      </trkpt>
      <trkpt lat="50.316060" lon="26.747133">
        <ele>242.554109</ele>
        <time>2019-06-07T06:21:49.000Z</time>
      </trkpt>
      <trkpt lat="50.316048" lon="26.747284">
        <ele>242.551019</ele>
        <time>2019-06-07T06:21:51.000Z</time>
      </trkpt>
      <trkpt lat="50.316044" lon="26.747430">
        <ele>242.548050</ele>
        <time>2019-06-07T06:21:53.000Z</time>
      </trkpt>
      <trkpt lat="50.316032" lon="26.747576">
        <ele>242.545060</ele>
        <time>2019-06-07T06:21:55.000Z</time>
      </trkpt>
      <trkpt lat="50.316030" lon="26.747732">
        <ele>242.541891</ele>
        <time>2019-06-07T06:21:57.000Z</time>
      </trkpt>
      <trkpt lat="50.316030" lon="26.747890">
        <ele>242.538681</ele>
        <time>2019-06-07T06:21:59.000Z</time>
      </trkpt>
      <trkpt lat="50.316017" lon="26.748045">
        <ele>242.535506</ele>
        <time>2019-06-07T06:22:01.000Z</time>
      </trkpt>
      <trkpt lat="50.316006" lon="26.748201">
        <ele>242.498429</ele>
        <time>2019-06-07T06:22:03.000Z</time>
      </trkpt>
      <trkpt lat="50.316000" lon="26.748350">
        <ele>242.442036</ele>
        <time>2019-06-07T06:22:05.000Z</time>
      </trkpt>
      <trkpt lat="50.315998" lon="26.748510">
        <ele>242.381588</ele>
        <time>2019-06-07T06:22:07.000Z</time>
      </trkpt>
      <trkpt lat="50.315990" lon="26.748657">
        <ele>242.325861</ele>
        <time>2019-06-07T06:22:09.000Z</time>
      </trkpt>
      <trkpt lat="50.315983" lon="26.748867">
        <ele>242.246431</ele>
        <time>2019-06-07T06:22:12.000Z</time>
      </trkpt>
      <trkpt lat="50.315975" lon="26.749077">
        <ele>242.166967</ele>
        <time>2019-06-07T06:22:15.000Z</time>
      </trkpt>
      <trkpt lat="50.315980" lon="26.749285">
        <ele>242.088344</ele>
        <time>2019-06-07T06:22:18.000Z</time>
      </trkpt>
      <trkpt lat="50.315983" lon="26.749430">
        <ele>242.033545</ele>
        <time>2019-06-07T06:22:20.000Z</time>
      </trkpt>
      <trkpt lat="50.315987" lon="26.749575">
        <ele>241.978724</ele>
        <time>2019-06-07T06:22:22.000Z</time>
      </trkpt>
      <trkpt lat="50.315987" lon="26.749722">
        <ele>241.923198</ele>
        <time>2019-06-07T06:22:24.000Z</time>
      </trkpt>
      <trkpt lat="50.315983" lon="26.749872">
        <ele>241.866490</ele>
        <time>2019-06-07T06:22:26.000Z</time>
      </trkpt>
      <trkpt lat="50.315990" lon="26.750023">
        <ele>241.809303</ele>
        <time>2019-06-07T06:22:28.000Z</time>
      </trkpt>
      <trkpt lat="50.315990" lon="26.750181">
        <ele>241.749622</ele>
        <time>2019-06-07T06:22:30.000Z</time>
      </trkpt>
      <trkpt lat="50.316006" lon="26.750326">
        <ele>241.694040</ele>
        <time>2019-06-07T06:22:32.000Z</time>
      </trkpt>
      <trkpt lat="50.316032" lon="26.750532">
        <ele>241.614723</ele>
        <time>2019-06-07T06:22:35.000Z</time>
      </trkpt>
      <trkpt lat="50.316055" lon="26.750690">
        <ele>241.553511</ele>
        <time>2019-06-07T06:22:37.000Z</time>
      </trkpt>
      <trkpt lat="50.316067" lon="26.750830">
        <ele>241.500155</ele>
        <time>2019-06-07T06:22:39.000Z</time>
      </trkpt>
      <trkpt lat="50.316080" lon="26.750973">
        <ele>241.428421</ele>
        <time>2019-06-07T06:22:41.000Z</time>
      </trkpt>
      <trkpt lat="50.316090" lon="26.751179">
        <ele>241.296098</ele>
        <time>2019-06-07T06:22:44.000Z</time>
      </trkpt>
      <trkpt lat="50.316100" lon="26.751389">
        <ele>241.161220</ele>
        <time>2019-06-07T06:22:47.000Z</time>
      </trkpt>
      <trkpt lat="50.316110" lon="26.751530">
        <ele>241.070355</ele>
        <time>2019-06-07T06:22:49.000Z</time>
      </trkpt>
      <trkpt lat="50.316110" lon="26.751745">
        <ele>240.932648</ele>
        <time>2019-06-07T06:22:52.000Z</time>
      </trkpt>
      <trkpt lat="50.316100" lon="26.751890">
        <ele>240.839236</ele>
        <time>2019-06-07T06:22:54.000Z</time>
      </trkpt>
      <trkpt lat="50.316086" lon="26.752033">
        <ele>240.746574</ele>
        <time>2019-06-07T06:22:56.000Z</time>
      </trkpt>
      <trkpt lat="50.316060" lon="26.752169">
        <ele>240.655647</ele>
        <time>2019-06-07T06:22:58.000Z</time>
      </trkpt>
      <trkpt lat="50.316025" lon="26.752346">
        <ele>240.536967</ele>
        <time>2019-06-07T06:23:01.000Z</time>
      </trkpt>
      <trkpt lat="50.315956" lon="26.752518">
        <ele>240.406865</ele>
        <time>2019-06-07T06:23:04.000Z</time>
      </trkpt>
      <trkpt lat="50.315895" lon="26.752634">
        <ele>240.310616</ele>
        <time>2019-06-07T06:23:06.000Z</time>
      </trkpt>
      <trkpt lat="50.315838" lon="26.752754">
        <ele>240.214823</ele>
        <time>2019-06-07T06:23:08.000Z</time>
      </trkpt>
      <trkpt lat="50.315780" lon="26.752872">
        <ele>240.119446</ele>
        <time>2019-06-07T06:23:10.000Z</time>
      </trkpt>
      <trkpt lat="50.315704" lon="26.753044">
        <ele>239.985477</ele>
        <time>2019-06-07T06:23:13.000Z</time>
      </trkpt>
      <trkpt lat="50.315624" lon="26.753202">
        <ele>239.856324</ele>
        <time>2019-06-07T06:23:16.000Z</time>
      </trkpt>
      <trkpt lat="50.315567" lon="26.753315">
        <ele>239.764089</ele>
        <time>2019-06-07T06:23:18.000Z</time>
      </trkpt>
      <trkpt lat="50.315502" lon="26.753475">
        <ele>239.712022</ele>
        <time>2019-06-07T06:23:21.000Z</time>
      </trkpt>
      <trkpt lat="50.315426" lon="26.753626">
        <ele>239.952010</ele>
        <time>2019-06-07T06:23:24.000Z</time>
      </trkpt>
      <trkpt lat="50.315365" lon="26.753801">
        <ele>240.200871</ele>
        <time>2019-06-07T06:23:27.000Z</time>
      </trkpt>
      <trkpt lat="50.315304" lon="26.753988">
        <ele>240.462978</ele>
        <time>2019-06-07T06:23:30.000Z</time>
      </trkpt>
      <trkpt lat="50.315254" lon="26.754114">
        <ele>240.648147</ele>
        <time>2019-06-07T06:23:32.000Z</time>
      </trkpt>
      <trkpt lat="50.315200" lon="26.754234">
        <ele>240.831388</ele>
        <time>2019-06-07T06:23:34.000Z</time>
      </trkpt>
      <trkpt lat="50.315130" lon="26.754408">
        <ele>241.088085</ele>
        <time>2019-06-07T06:23:37.000Z</time>
      </trkpt>
      <trkpt lat="50.315060" lon="26.754587">
        <ele>241.350084</ele>
        <time>2019-06-07T06:23:40.000Z</time>
      </trkpt>
      <trkpt lat="50.315010" lon="26.754710">
        <ele>241.532084</ele>
        <time>2019-06-07T06:23:42.000Z</time>
      </trkpt>
      <trkpt lat="50.314960" lon="26.754833">
        <ele>241.714084</ele>
        <time>2019-06-07T06:23:44.000Z</time>
      </trkpt>
      <trkpt lat="50.314910" lon="26.754953">
        <ele>241.892936</ele>
        <time>2019-06-07T06:23:46.000Z</time>
      </trkpt>
      <trkpt lat="50.314850" lon="26.755140">
        <ele>242.154162</ele>
        <time>2019-06-07T06:23:49.000Z</time>
      </trkpt>
      <trkpt lat="50.314790" lon="26.755325">
        <ele>242.413159</ele>
        <time>2019-06-07T06:23:52.000Z</time>
      </trkpt>
      <trkpt lat="50.314724" lon="26.755490">
        <ele>242.656186</ele>
        <time>2019-06-07T06:23:55.000Z</time>
      </trkpt>
      <trkpt lat="50.314674" lon="26.755613">
        <ele>242.838187</ele>
        <time>2019-06-07T06:23:57.000Z</time>
      </trkpt>
      <trkpt lat="50.314620" lon="26.755733">
        <ele>243.021430</ele>
        <time>2019-06-07T06:23:59.000Z</time>
      </trkpt>
      <trkpt lat="50.314552" lon="26.755910">
        <ele>243.191706</ele>
        <time>2019-06-07T06:24:02.000Z</time>
      </trkpt>
      <trkpt lat="50.314520" lon="26.756054">
        <ele>243.210700</ele>
        <time>2019-06-07T06:24:04.000Z</time>
      </trkpt>
      <trkpt lat="50.314472" lon="26.756182">
        <ele>243.229192</ele>
        <time>2019-06-07T06:24:06.000Z</time>
      </trkpt>
      <trkpt lat="50.314410" lon="26.756353">
        <ele>243.253688</ele>
        <time>2019-06-07T06:24:09.000Z</time>
      </trkpt>
      <trkpt lat="50.314350" lon="26.756523">
        <ele>243.277886</ele>
        <time>2019-06-07T06:24:12.000Z</time>
      </trkpt>
      <trkpt lat="50.314285" lon="26.756706">
        <ele>243.303972</ele>
        <time>2019-06-07T06:24:15.000Z</time>
      </trkpt>
      <trkpt lat="50.314247" lon="26.756836">
        <ele>243.321783</ele>
        <time>2019-06-07T06:24:17.000Z</time>
      </trkpt>
      <trkpt lat="50.314205" lon="26.756960">
        <ele>243.339269</ele>
        <time>2019-06-07T06:24:19.000Z</time>
      </trkpt>
      <trkpt lat="50.314140" lon="26.757133">
        <ele>243.364275</ele>
        <time>2019-06-07T06:24:22.000Z</time>
      </trkpt>
      <trkpt lat="50.314056" lon="26.757275">
        <ele>243.388388</ele>
        <time>2019-06-07T06:24:25.000Z</time>
      </trkpt>
      <trkpt lat="50.313995" lon="26.757399">
        <ele>243.407888</ele>
        <time>2019-06-07T06:24:28.000Z</time>
      </trkpt>
      <trkpt lat="50.313946" lon="26.757536">
        <ele>243.427450</ele>
        <time>2019-06-07T06:24:31.000Z</time>
      </trkpt>
      <trkpt lat="50.313923" lon="26.757698">
        <ele>243.448124</ele>
        <time>2019-06-07T06:24:34.000Z</time>
      </trkpt>
      <trkpt lat="50.313942" lon="26.757856">
        <ele>243.468153</ele>
        <time>2019-06-07T06:24:37.000Z</time>
      </trkpt>
      <trkpt lat="50.313995" lon="26.758000">
        <ele>243.488859</ele>
        <time>2019-06-07T06:24:40.000Z</time>
      </trkpt>
      <trkpt lat="50.314087" lon="26.758156">
        <ele>243.515312</ele>
        <time>2019-06-07T06:24:43.000Z</time>
      </trkpt>
      <trkpt lat="50.314156" lon="26.758272">
        <ele>243.533780</ele>
        <time>2019-06-07T06:24:45.000Z</time>
      </trkpt>
      <trkpt lat="50.314205" lon="26.758394">
        <ele>243.541163</ele>
        <time>2019-06-07T06:24:47.000Z</time>
      </trkpt>
      <trkpt lat="50.314260" lon="26.758524">
        <ele>243.549152</ele>
        <time>2019-06-07T06:24:49.000Z</time>
      </trkpt>
      <trkpt lat="50.314297" lon="26.758660">
        <ele>243.556725</ele>
        <time>2019-06-07T06:24:51.000Z</time>
      </trkpt>
      <trkpt lat="50.314274" lon="26.758804">
        <ele>243.564329</ele>
        <time>2019-06-07T06:24:53.000Z</time>
      </trkpt>
      <trkpt lat="50.314240" lon="26.758936">
        <ele>243.571620</ele>
        <time>2019-06-07T06:24:55.000Z</time>
      </trkpt>
      <trkpt lat="50.314200" lon="26.759075">
        <ele>243.579431</ele>
        <time>2019-06-07T06:24:57.000Z</time>
      </trkpt>
      <trkpt lat="50.314160" lon="26.759210">
        <ele>243.587055</ele>
        <time>2019-06-07T06:24:59.000Z</time>
      </trkpt>
      <trkpt lat="50.314102" lon="26.759350">
        <ele>243.595604</ele>
        <time>2019-06-07T06:25:01.000Z</time>
      </trkpt>
      <trkpt lat="50.314040" lon="26.759476">
        <ele>243.603753</ele>
        <time>2019-06-07T06:25:03.000Z</time>
      </trkpt>
      <trkpt lat="50.313972" lon="26.759602">
        <ele>243.612204</ele>
        <time>2019-06-07T06:25:05.000Z</time>
      </trkpt>
      <trkpt lat="50.313910" lon="26.759716">
        <ele>243.619875</ele>
        <time>2019-06-07T06:25:07.000Z</time>
      </trkpt>
      <trkpt lat="50.313840" lon="26.759836">
        <ele>243.628201</ele>
        <time>2019-06-07T06:25:09.000Z</time>
      </trkpt>
      <trkpt lat="50.313770" lon="26.759945">
        <ele>243.636121</ele>
        <time>2019-06-07T06:25:11.000Z</time>
      </trkpt>
      <trkpt lat="50.313705" lon="26.760061">
        <ele>243.644026</ele>
        <time>2019-06-07T06:25:13.000Z</time>
      </trkpt>
      <trkpt lat="50.313644" lon="26.760168">
        <ele>243.651375</ele>
        <time>2019-06-07T06:25:15.000Z</time>
      </trkpt>
      <trkpt lat="50.313580" lon="26.760280">
        <ele>243.659074</ele>
        <time>2019-06-07T06:25:17.000Z</time>
      </trkpt>
      <trkpt lat="50.313510" lon="26.760387">
        <ele>243.666921</ele>
        <time>2019-06-07T06:25:19.000Z</time>
      </trkpt>
      <trkpt lat="50.313450" lon="26.760496">
        <ele>243.674294</ele>
        <time>2019-06-07T06:25:21.000Z</time>
      </trkpt>
      <trkpt lat="50.313385" lon="26.760610">
        <ele>243.725548</ele>
        <time>2019-06-07T06:25:23.000Z</time>
      </trkpt>
      <trkpt lat="50.313320" lon="26.760715">
        <ele>243.798814</ele>
        <time>2019-06-07T06:25:25.000Z</time>
      </trkpt>
      <trkpt lat="50.313225" lon="26.760859">
        <ele>243.902544</ele>
        <time>2019-06-07T06:25:28.000Z</time>
      </trkpt>
      <trkpt lat="50.313160" lon="26.760980">
        <ele>243.981762</ele>
        <time>2019-06-07T06:25:30.000Z</time>
      </trkpt>
      <trkpt lat="50.313100" lon="26.761099">
        <ele>244.057725</ele>
        <time>2019-06-07T06:25:32.000Z</time>
      </trkpt>
      <trkpt lat="50.313050" lon="26.761217">
        <ele>244.128675</ele>
        <time>2019-06-07T06:25:34.000Z</time>
      </trkpt>
      <trkpt lat="50.313004" lon="26.761337">
        <ele>244.198796</ele>
        <time>2019-06-07T06:25:36.000Z</time>
      </trkpt>
      <trkpt lat="50.312954" lon="26.761469">
        <ele>244.275688</ele>
        <time>2019-06-07T06:25:38.000Z</time>
      </trkpt>
      <trkpt lat="50.312912" lon="26.761602">
        <ele>244.350024</ele>
        <time>2019-06-07T06:25:40.000Z</time>
      </trkpt>
      <trkpt lat="50.312862" lon="26.761778">
        <ele>244.446534</ele>
        <time>2019-06-07T06:25:43.000Z</time>
      </trkpt>
      <trkpt lat="50.312805" lon="26.761957">
        <ele>244.546746</ele>
        <time>2019-06-07T06:25:46.000Z</time>
      </trkpt>
      <trkpt lat="50.312733" lon="26.762129">
        <ele>244.649784</ele>
        <time>2019-06-07T06:25:49.000Z</time>
      </trkpt>
      <trkpt lat="50.312690" lon="26.762259">
        <ele>244.723133</ele>
        <time>2019-06-07T06:25:51.000Z</time>
      </trkpt>
      <trkpt lat="50.312645" lon="26.762450">
        <ele>244.825131</ele>
        <time>2019-06-07T06:25:54.000Z</time>
      </trkpt>
      <trkpt lat="50.312603" lon="26.762589">
        <ele>244.902174</ele>
        <time>2019-06-07T06:25:56.000Z</time>
      </trkpt>
      <trkpt lat="50.312557" lon="26.762772">
        <ele>245.000707</ele>
        <time>2019-06-07T06:25:59.000Z</time>
      </trkpt>
      <trkpt lat="50.312527" lon="26.762968">
        <ele>245.094943</ele>
        <time>2019-06-07T06:26:02.000Z</time>
      </trkpt>
      <trkpt lat="50.312520" lon="26.763147">
        <ele>245.139528</ele>
        <time>2019-06-07T06:26:05.000Z</time>
      </trkpt>
      <trkpt lat="50.312527" lon="26.763306">
        <ele>245.179151</ele>
        <time>2019-06-07T06:26:08.000Z</time>
      </trkpt>
      <trkpt lat="50.312603" lon="26.763420">
        <ele>245.220122</ele>
        <time>2019-06-07T06:26:12.000Z</time>
      </trkpt>
      <trkpt lat="50.312702" lon="26.763433">
        <ele>245.258799</ele>
        <time>2019-06-07T06:26:16.000Z</time>
      </trkpt>
      <trkpt lat="50.312800" lon="26.763462">
        <ele>245.297626</ele>
        <time>2019-06-07T06:26:20.000Z</time>
      </trkpt>
      <trkpt lat="50.312900" lon="26.763490">
        <ele>245.337174</ele>
        <time>2019-06-07T06:26:24.000Z</time>
      </trkpt>
      <trkpt lat="50.313015" lon="26.763512">
        <ele>245.382277</ele>
        <time>2019-06-07T06:26:28.000Z</time>
      </trkpt>
      <trkpt lat="50.313118" lon="26.763550">
        <ele>245.423473</ele>
        <time>2019-06-07T06:26:32.000Z</time>
      </trkpt>
      <trkpt lat="50.313217" lon="26.763554">
        <ele>245.462027</ele>
        <time>2019-06-07T06:26:36.000Z</time>
      </trkpt>
      <trkpt lat="50.313320" lon="26.763578">
        <ele>245.502567</ele>
        <time>2019-06-07T06:26:40.000Z</time>
      </trkpt>
      <trkpt lat="50.313410" lon="26.763613">
        <ele>245.538669</ele>
        <time>2019-06-07T06:26:44.000Z</time>
      </trkpt>
      <trkpt lat="50.313503" lon="26.763630">
        <ele>245.575120</ele>
        <time>2019-06-07T06:26:48.000Z</time>
      </trkpt>
      <trkpt lat="50.313595" lon="26.763641">
        <ele>245.611040</ele>
        <time>2019-06-07T06:26:53.000Z</time>
      </trkpt>
      <trkpt lat="50.313686" lon="26.763689">
        <ele>245.648423</ele>
        <time>2019-06-07T06:26:58.000Z</time>
      </trkpt>
      <trkpt lat="50.313774" lon="26.763733">
        <ele>245.684386</ele>
        <time>2019-06-07T06:27:02.000Z</time>
      </trkpt>
      <trkpt lat="50.313885" lon="26.763779">
        <ele>245.729086</ele>
        <time>2019-06-07T06:27:06.000Z</time>
      </trkpt>
      <trkpt lat="50.313976" lon="26.763805">
        <ele>245.765098</ele>
        <time>2019-06-07T06:27:10.000Z</time>
      </trkpt>
      <trkpt lat="50.314075" lon="26.763824">
        <ele>245.736666</ele>
        <time>2019-06-07T06:27:14.000Z</time>
      </trkpt>
      <trkpt lat="50.314180" lon="26.763851">
        <ele>245.597213</ele>
        <time>2019-06-07T06:27:18.000Z</time>
      </trkpt>
      <trkpt lat="50.314280" lon="26.763903">
        <ele>245.459120</ele>
        <time>2019-06-07T06:27:22.000Z</time>
      </trkpt>
      <trkpt lat="50.314360" lon="26.764004">
        <ele>245.324445</ele>
        <time>2019-06-07T06:27:26.000Z</time>
      </trkpt>
      <trkpt lat="50.314460" lon="26.763968">
        <ele>245.189969</ele>
        <time>2019-06-07T06:30:36.000Z</time>
      </trkpt>
      <trkpt lat="50.314564" lon="26.764023">
        <ele>245.046108</ele>
        <time>2019-06-07T06:30:40.000Z</time>
      </trkpt>
      <trkpt lat="50.314663" lon="26.764048">
        <ele>244.914685</ele>
        <time>2019-06-07T06:30:43.000Z</time>
      </trkpt>
      <trkpt lat="50.314770" lon="26.764061">
        <ele>244.774033</ele>
        <time>2019-06-07T06:30:47.000Z</time>
      </trkpt>
      <trkpt lat="50.314880" lon="26.764082">
        <ele>244.628803</ele>
        <time>2019-06-07T06:30:51.000Z</time>
      </trkpt>
      <trkpt lat="50.314987" lon="26.764097">
        <ele>244.488011</ele>
        <time>2019-06-07T06:30:55.000Z</time>
      </trkpt>
      <trkpt lat="50.315083" lon="26.764110">
        <ele>244.361727</ele>
        <time>2019-06-07T06:30:58.000Z</time>
      </trkpt>
      <trkpt lat="50.315186" lon="26.764140">
        <ele>244.224423</ele>
        <time>2019-06-07T06:31:02.000Z</time>
      </trkpt>
      <trkpt lat="50.315273" lon="26.764164">
        <ele>244.108648</ele>
        <time>2019-06-07T06:31:05.000Z</time>
      </trkpt>
      <trkpt lat="50.315390" lon="26.764185">
        <ele>243.954308</ele>
        <time>2019-06-07T06:31:09.000Z</time>
      </trkpt>
      <trkpt lat="50.315495" lon="26.764206">
        <ele>243.815580</ele>
        <time>2019-06-07T06:31:12.000Z</time>
      </trkpt>
      <trkpt lat="50.315610" lon="26.764248">
        <ele>243.660820</ele>
        <time>2019-06-07T06:31:15.000Z</time>
      </trkpt>
      <trkpt lat="50.315712" lon="26.764269">
        <ele>243.525992</ele>
        <time>2019-06-07T06:31:18.000Z</time>
      </trkpt>
      <trkpt lat="50.315823" lon="26.764282">
        <ele>243.466466</ele>
        <time>2019-06-07T06:31:22.000Z</time>
      </trkpt>
      <trkpt lat="50.315918" lon="26.764317">
        <ele>243.554437</ele>
        <time>2019-06-07T06:31:26.000Z</time>
      </trkpt>
      <trkpt lat="50.316017" lon="26.764362">
        <ele>243.647359</ele>
        <time>2019-06-07T06:31:30.000Z</time>
      </trkpt>
      <trkpt lat="50.316110" lon="26.764404">
        <ele>243.734606</ele>
        <time>2019-06-07T06:31:33.000Z</time>
      </trkpt>
      <trkpt lat="50.316216" lon="26.764430">
        <ele>243.831320</ele>
        <time>2019-06-07T06:31:36.000Z</time>
      </trkpt>
      <trkpt lat="50.316310" lon="26.764454">
        <ele>243.917171</ele>
        <time>2019-06-07T06:31:39.000Z</time>
      </trkpt>
      <trkpt lat="50.316402" lon="26.764465">
        <ele>244.000341</ele>
        <time>2019-06-07T06:31:42.000Z</time>
      </trkpt>
      <trkpt lat="50.316500" lon="26.764526">
        <ele>244.095401</ele>
        <time>2019-06-07T06:31:45.000Z</time>
      </trkpt>
      <trkpt lat="50.316610" lon="26.764559">
        <ele>244.196358</ele>
        <time>2019-06-07T06:31:48.000Z</time>
      </trkpt>
      <trkpt lat="50.316720" lon="26.764593">
        <ele>244.297426</ele>
        <time>2019-06-07T06:31:51.000Z</time>
      </trkpt>
      <trkpt lat="50.316822" lon="26.764627">
        <ele>244.391429</ele>
        <time>2019-06-07T06:31:54.000Z</time>
      </trkpt>
      <trkpt lat="50.316930" lon="26.764656">
        <ele>244.490201</ele>
        <time>2019-06-07T06:31:57.000Z</time>
      </trkpt>
      <trkpt lat="50.317040" lon="26.764680">
        <ele>244.590313</ele>
        <time>2019-06-07T06:32:00.000Z</time>
      </trkpt>
      <trkpt lat="50.317135" lon="26.764706">
        <ele>244.677244</ele>
        <time>2019-06-07T06:32:03.000Z</time>
      </trkpt>
      <trkpt lat="50.317223" lon="26.764738">
        <ele>244.758678</ele>
        <time>2019-06-07T06:32:06.000Z</time>
      </trkpt>
      <trkpt lat="50.317320" lon="26.764803">
        <ele>244.853783</ele>
        <time>2019-06-07T06:32:10.000Z</time>
      </trkpt>
      <trkpt lat="50.317387" lon="26.764900">
        <ele>244.936030</ele>
        <time>2019-06-07T06:32:13.000Z</time>
      </trkpt>
      <trkpt lat="50.317440" lon="26.765064">
        <ele>245.041825</ele>
        <time>2019-06-07T06:32:16.000Z</time>
      </trkpt>
      <trkpt lat="50.317467" lon="26.765259">
        <ele>244.855247</ele>
        <time>2019-06-07T06:32:19.000Z</time>
      </trkpt>
      <trkpt lat="50.317482" lon="26.765461">
        <ele>244.633342</ele>
        <time>2019-06-07T06:32:22.000Z</time>
      </trkpt>
      <trkpt lat="50.317486" lon="26.765627">
        <ele>244.452076</ele>
        <time>2019-06-07T06:32:25.000Z</time>
      </trkpt>
      <trkpt lat="50.317505" lon="26.765772">
        <ele>244.290557</ele>
        <time>2019-06-07T06:32:28.000Z</time>
      </trkpt>
      <trkpt lat="50.317520" lon="26.765953">
        <ele>244.091396</ele>
        <time>2019-06-07T06:32:32.000Z</time>
      </trkpt>
      <trkpt lat="50.317530" lon="26.766104">
        <ele>243.925743</ele>
        <time>2019-06-07T06:32:35.000Z</time>
      </trkpt>
      <trkpt lat="50.317543" lon="26.766281">
        <ele>243.731329</ele>
        <time>2019-06-07T06:32:39.000Z</time>
      </trkpt>
      <trkpt lat="50.317554" lon="26.766440">
        <ele>243.556816</ele>
        <time>2019-06-07T06:32:43.000Z</time>
      </trkpt>
      <trkpt lat="50.317570" lon="26.766626">
        <ele>243.352022</ele>
        <time>2019-06-07T06:32:47.000Z</time>
      </trkpt>
      <trkpt lat="50.317577" lon="26.766779">
        <ele>243.184642</ele>
        <time>2019-06-07T06:32:50.000Z</time>
      </trkpt>
      <trkpt lat="50.317577" lon="26.766924">
        <ele>243.026421</ele>
        <time>2019-06-07T06:32:53.000Z</time>
      </trkpt>
      <trkpt lat="50.317590" lon="26.767067">
        <ele>242.868808</ele>
        <time>2019-06-07T06:32:56.000Z</time>
      </trkpt>
      <trkpt lat="50.317604" lon="26.767237">
        <ele>242.681770</ele>
        <time>2019-06-07T06:33:00.000Z</time>
      </trkpt>
      <trkpt lat="50.317610" lon="26.767406">
        <ele>242.497075</ele>
        <time>2019-06-07T06:33:04.000Z</time>
      </trkpt>
      <trkpt lat="50.317623" lon="26.767551">
        <ele>242.337301</ele>
        <time>2019-06-07T06:33:07.000Z</time>
      </trkpt>
      <trkpt lat="50.317642" lon="26.767704">
        <ele>242.167222</ele>
        <time>2019-06-07T06:33:10.000Z</time>
      </trkpt>
      <trkpt lat="50.317646" lon="26.767890">
        <ele>241.989845</ele>
        <time>2019-06-07T06:33:13.000Z</time>
      </trkpt>
      <trkpt lat="50.317646" lon="26.768085">
        <ele>242.148050</ele>
        <time>2019-06-07T06:33:16.000Z</time>
      </trkpt>
      <trkpt lat="50.317646" lon="26.768284">
        <ele>242.309500</ele>
        <time>2019-06-07T06:33:19.000Z</time>
      </trkpt>
      <trkpt lat="50.317660" lon="26.768425">
        <ele>242.425268</ele>
        <time>2019-06-07T06:33:21.000Z</time>
      </trkpt>
      <trkpt lat="50.317677" lon="26.768580">
        <ele>242.552862</ele>
        <time>2019-06-07T06:33:23.000Z</time>
      </trkpt>
      <trkpt lat="50.317688" lon="26.768730">
        <ele>242.675358</ele>
        <time>2019-06-07T06:33:25.000Z</time>
      </trkpt>
      <trkpt lat="50.317696" lon="26.768870">
        <ele>242.789395</ele>
        <time>2019-06-07T06:33:27.000Z</time>
      </trkpt>
      <trkpt lat="50.317703" lon="26.769073">
        <ele>242.954329</ele>
        <time>2019-06-07T06:33:30.000Z</time>
      </trkpt>
      <trkpt lat="50.317715" lon="26.769217">
        <ele>243.072148</ele>
        <time>2019-06-07T06:33:32.000Z</time>
      </trkpt>
      <trkpt lat="50.317730" lon="26.769356">
        <ele>243.186518</ele>
        <time>2019-06-07T06:33:34.000Z</time>
      </trkpt>
      <trkpt lat="50.317738" lon="26.769526">
        <ele>243.324814</ele>
        <time>2019-06-07T06:33:37.000Z</time>
      </trkpt>
      <trkpt lat="50.317738" lon="26.769674">
        <ele>243.444887</ele>
        <time>2019-06-07T06:33:40.000Z</time>
      </trkpt>
      <trkpt lat="50.317745" lon="26.769835">
        <ele>243.575810</ele>
        <time>2019-06-07T06:33:43.000Z</time>
      </trkpt>
      <trkpt lat="50.317757" lon="26.770006">
        <ele>243.715378</ele>
        <time>2019-06-07T06:33:46.000Z</time>
      </trkpt>
      <trkpt lat="50.317776" lon="26.770163">
        <ele>243.845020</ele>
        <time>2019-06-07T06:33:49.000Z</time>
      </trkpt>
      <trkpt lat="50.317787" lon="26.770338">
        <ele>243.987684</ele>
        <time>2019-06-07T06:33:52.000Z</time>
      </trkpt>
      <trkpt lat="50.317802" lon="26.770506">
        <ele>244.125309</ele>
        <time>2019-06-07T06:33:55.000Z</time>
      </trkpt>
      <trkpt lat="50.317818" lon="26.770658">
        <ele>244.250292</ele>
        <time>2019-06-07T06:33:58.000Z</time>
      </trkpt>
      <trkpt lat="50.317840" lon="26.770815">
        <ele>244.478337</ele>
        <time>2019-06-07T06:34:01.000Z</time>
      </trkpt>
      <trkpt lat="50.317850" lon="26.770975">
        <ele>244.718090</ele>
        <time>2019-06-07T06:34:04.000Z</time>
      </trkpt>
      <trkpt lat="50.317860" lon="26.771132">
        <ele>244.953390</ele>
        <time>2019-06-07T06:34:07.000Z</time>
      </trkpt>
      <trkpt lat="50.317867" lon="26.771301">
        <ele>245.205955</ele>
        <time>2019-06-07T06:34:10.000Z</time>
      </trkpt>
      <trkpt lat="50.317870" lon="26.771473">
        <ele>245.462559</ele>
        <time>2019-06-07T06:34:13.000Z</time>
      </trkpt>
      <trkpt lat="50.317867" lon="26.771650">
        <ele>245.726617</ele>
        <time>2019-06-07T06:34:16.000Z</time>
      </trkpt>
      <trkpt lat="50.317886" lon="26.771816">
        <ele>245.978124</ele>
        <time>2019-06-07T06:34:19.000Z</time>
      </trkpt>
      <trkpt lat="50.317894" lon="26.771957">
        <ele>246.189230</ele>
        <time>2019-06-07T06:34:22.000Z</time>
      </trkpt>
      <trkpt lat="50.317910" lon="26.772112">
        <ele>246.423387</ele>
        <time>2019-06-07T06:34:25.000Z</time>
      </trkpt>
      <trkpt lat="50.317936" lon="26.772310">
        <ele>246.724849</ele>
        <time>2019-06-07T06:34:28.000Z</time>
      </trkpt>
      <trkpt lat="50.317963" lon="26.772501">
        <ele>247.016589</ele>
        <time>2019-06-07T06:34:31.000Z</time>
      </trkpt>
      <trkpt lat="50.317980" lon="26.772694">
        <ele>247.307141</ele>
        <time>2019-06-07T06:34:34.000Z</time>
      </trkpt>
      <trkpt lat="50.317986" lon="26.772877">
        <ele>247.580413</ele>
        <time>2019-06-07T06:34:37.000Z</time>
      </trkpt>
      <trkpt lat="50.318000" lon="26.773048">
        <ele>247.837517</ele>
        <time>2019-06-07T06:34:40.000Z</time>
      </trkpt>
      <trkpt lat="50.318020" lon="26.773243">
        <ele>248.132053</ele>
        <time>2019-06-07T06:34:43.000Z</time>
      </trkpt>
      <trkpt lat="50.318027" lon="26.773434">
        <ele>248.417365</ele>
        <time>2019-06-07T06:34:46.000Z</time>
      </trkpt>
      <trkpt lat="50.318043" lon="26.773607">
        <ele>248.531756</ele>
        <time>2019-06-07T06:34:49.000Z</time>
      </trkpt>
      <trkpt lat="50.318050" lon="26.773790">
        <ele>248.617354</ele>
        <time>2019-06-07T06:34:52.000Z</time>
      </trkpt>
      <trkpt lat="50.318080" lon="26.773958">
        <ele>248.698805</ele>
        <time>2019-06-07T06:34:55.000Z</time>
      </trkpt>
      <trkpt lat="50.318092" lon="26.774126">
        <ele>248.777735</ele>
        <time>2019-06-07T06:34:58.000Z</time>
      </trkpt>
      <trkpt lat="50.318108" lon="26.774288">
        <ele>248.854275</ele>
        <time>2019-06-07T06:35:01.000Z</time>
      </trkpt>
      <trkpt lat="50.318123" lon="26.774460">
        <ele>248.935329</ele>
        <time>2019-06-07T06:35:04.000Z</time>
      </trkpt>
      <trkpt lat="50.318134" lon="26.774628">
        <ele>249.014182</ele>
        <time>2019-06-07T06:35:07.000Z</time>
      </trkpt>
      <trkpt lat="50.318140" lon="26.774810">
        <ele>249.099273</ele>
        <time>2019-06-07T06:35:10.000Z</time>
      </trkpt>
      <trkpt lat="50.318142" lon="26.774990">
        <ele>249.183330</ele>
        <time>2019-06-07T06:35:13.000Z</time>
      </trkpt>
      <trkpt lat="50.318153" lon="26.775175">
        <ele>249.270082</ele>
        <time>2019-06-07T06:35:16.000Z</time>
      </trkpt>
      <trkpt lat="50.318157" lon="26.775362">
        <ele>249.357443</ele>
        <time>2019-06-07T06:35:19.000Z</time>
      </trkpt>
      <trkpt lat="50.318172" lon="26.775507">
        <ele>249.426028</ele>
        <time>2019-06-07T06:35:22.000Z</time>
      </trkpt>
      <trkpt lat="50.318180" lon="26.775680">
        <ele>249.507015</ele>
        <time>2019-06-07T06:35:25.000Z</time>
      </trkpt>
      <trkpt lat="50.318188" lon="26.775862">
        <ele>249.592194</ele>
        <time>2019-06-07T06:35:28.000Z</time>
      </trkpt>
      <trkpt lat="50.318220" lon="26.776054">
        <ele>249.684845</ele>
        <time>2019-06-07T06:35:31.000Z</time>
      </trkpt>
      <trkpt lat="50.318250" lon="26.776245">
        <ele>249.776683</ele>
        <time>2019-06-07T06:35:34.000Z</time>
      </trkpt>
      <trkpt lat="50.318264" lon="26.776455">
        <ele>249.635617</ele>
        <time>2019-06-07T06:35:37.000Z</time>
      </trkpt>
      <trkpt lat="50.318280" lon="26.776604">
        <ele>249.528128</ele>
        <time>2019-06-07T06:35:39.000Z</time>
      </trkpt>
      <trkpt lat="50.318283" lon="26.776802">
        <ele>249.387229</ele>
        <time>2019-06-07T06:35:42.000Z</time>
      </trkpt>
      <trkpt lat="50.318295" lon="26.777000">
        <ele>249.245737</ele>
        <time>2019-06-07T06:35:45.000Z</time>
      </trkpt>
      <trkpt lat="50.318295" lon="26.777200">
        <ele>249.103454</ele>
        <time>2019-06-07T06:35:48.000Z</time>
      </trkpt>
      <trkpt lat="50.318270" lon="26.777397">
        <ele>248.960565</ele>
        <time>2019-06-07T06:35:51.000Z</time>
      </trkpt>
      <trkpt lat="50.318256" lon="26.777536">
        <ele>248.860456</ele>
        <time>2019-06-07T06:35:53.000Z</time>
      </trkpt>
      <trkpt lat="50.318237" lon="26.777725">
        <ele>248.724343</ele>
        <time>2019-06-07T06:35:56.000Z</time>
      </trkpt>
      <trkpt lat="50.318207" lon="26.777905">
        <ele>248.591998</ele>
        <time>2019-06-07T06:35:59.000Z</time>
      </trkpt>
      <trkpt lat="50.318172" lon="26.778088">
        <ele>248.456095</ele>
        <time>2019-06-07T06:36:02.000Z</time>
      </trkpt>
      <trkpt lat="50.318123" lon="26.778275">
        <ele>248.312294</ele>
        <time>2019-06-07T06:36:05.000Z</time>
      </trkpt>
      <trkpt lat="50.318073" lon="26.778460">
        <ele>248.169378</ele>
        <time>2019-06-07T06:36:08.000Z</time>
      </trkpt>
      <trkpt lat="50.318027" lon="26.778635">
        <ele>248.034744</ele>
        <time>2019-06-07T06:36:11.000Z</time>
      </trkpt>
      <trkpt lat="50.317997" lon="26.778803">
        <ele>247.910640</ele>
        <time>2019-06-07T06:36:14.000Z</time>
      </trkpt>
      <trkpt lat="50.317960" lon="26.778957">
        <ele>247.793583</ele>
        <time>2019-06-07T06:36:17.000Z</time>
      </trkpt>
      <trkpt lat="50.317932" lon="26.779120">
        <ele>247.755826</ele>
        <time>2019-06-07T06:36:20.000Z</time>
      </trkpt>
      <trkpt lat="50.317894" lon="26.779291">
        <ele>247.730130</ele>
        <time>2019-06-07T06:36:23.000Z</time>
      </trkpt>
      <trkpt lat="50.317867" lon="26.779444">
        <ele>247.707602</ele>
        <time>2019-06-07T06:36:26.000Z</time>
      </trkpt>
      <trkpt lat="50.317825" lon="26.779594">
        <ele>247.684358</ele>
        <time>2019-06-07T06:36:29.000Z</time>
      </trkpt>
      <trkpt lat="50.317795" lon="26.779768">
        <ele>247.658779</ele>
        <time>2019-06-07T06:36:32.000Z</time>
      </trkpt>
      <trkpt lat="50.317760" lon="26.779940">
        <ele>247.633160</ele>
        <time>2019-06-07T06:36:35.000Z</time>
      </trkpt>
      <trkpt lat="50.317707" lon="26.780153">
        <ele>247.600717</ele>
        <time>2019-06-07T06:36:39.000Z</time>
      </trkpt>
      <trkpt lat="50.317642" lon="26.780317">
        <ele>247.573323</ele>
        <time>2019-06-07T06:36:42.000Z</time>
      </trkpt>
      <trkpt lat="50.317585" lon="26.780466">
        <ele>247.548672</ele>
        <time>2019-06-07T06:36:45.000Z</time>
      </trkpt>
      <trkpt lat="50.317520" lon="26.780603">
        <ele>247.524450</ele>
        <time>2019-06-07T06:36:48.000Z</time>
      </trkpt>
      <trkpt lat="50.317450" lon="26.780743">
        <ele>247.499214</ele>
        <time>2019-06-07T06:36:51.000Z</time>
      </trkpt>
      <trkpt lat="50.317387" lon="26.780884">
        <ele>247.474791</ele>
        <time>2019-06-07T06:36:54.000Z</time>
      </trkpt>
      <trkpt lat="50.317314" lon="26.781006">
        <ele>247.451063</ele>
        <time>2019-06-07T06:36:57.000Z</time>
      </trkpt>
      <trkpt lat="50.317253" lon="26.781124">
        <ele>247.429516</ele>
        <time>2019-06-07T06:37:00.000Z</time>
      </trkpt>
      <trkpt lat="50.317190" lon="26.781248">
        <ele>247.407027</ele>
        <time>2019-06-07T06:37:03.000Z</time>
      </trkpt>
      <trkpt lat="50.317123" lon="26.781359">
        <ele>247.385349</ele>
        <time>2019-06-07T06:37:06.000Z</time>
      </trkpt>
      <trkpt lat="50.317060" lon="26.781475">
        <ele>247.454106</ele>
        <time>2019-06-07T06:37:09.000Z</time>
      </trkpt>
      <trkpt lat="50.316998" lon="26.781590">
        <ele>247.583091</ele>
        <time>2019-06-07T06:37:12.000Z</time>
      </trkpt>
      <trkpt lat="50.316933" lon="26.781704">
        <ele>247.714069</ele>
        <time>2019-06-07T06:37:15.000Z</time>
      </trkpt>
      <trkpt lat="50.316870" lon="26.781826">
        <ele>247.848534</ele>
        <time>2019-06-07T06:37:18.000Z</time>
      </trkpt>
      <trkpt lat="50.316810" lon="26.781952">
        <ele>247.983236</ele>
        <time>2019-06-07T06:37:21.000Z</time>
      </trkpt>
      <trkpt lat="50.316753" lon="26.782072">
        <ele>248.111410</ele>
        <time>2019-06-07T06:37:24.000Z</time>
      </trkpt>
      <trkpt lat="50.316692" lon="26.782194">
        <ele>248.244204</ele>
        <time>2019-06-07T06:37:27.000Z</time>
      </trkpt>
      <trkpt lat="50.316630" lon="26.782305">
        <ele>248.370590</ele>
        <time>2019-06-07T06:37:30.000Z</time>
      </trkpt>
      <trkpt lat="50.316574" lon="26.782415">
        <ele>248.491154</ele>
        <time>2019-06-07T06:37:33.000Z</time>
      </trkpt>
      <trkpt lat="50.316517" lon="26.782534">
        <ele>248.618641</ele>
        <time>2019-06-07T06:37:36.000Z</time>
      </trkpt>
      <trkpt lat="50.316460" lon="26.782646">
        <ele>248.741383</ele>
        <time>2019-06-07T06:37:39.000Z</time>
      </trkpt>
      <trkpt lat="50.316380" lon="26.782793">
        <ele>248.906910</ele>
        <time>2019-06-07T06:37:43.000Z</time>
      </trkpt>
      <trkpt lat="50.316315" lon="26.782907">
        <ele>249.037889</ele>
        <time>2019-06-07T06:37:46.000Z</time>
      </trkpt>
      <trkpt lat="50.316260" lon="26.783030">
        <ele>249.166577</ele>
        <time>2019-06-07T06:37:49.000Z</time>
      </trkpt>
      <trkpt lat="50.316200" lon="26.783140">
        <ele>249.290560</ele>
        <time>2019-06-07T06:37:52.000Z</time>
      </trkpt>
      <trkpt lat="50.316140" lon="26.783272">
        <ele>249.429420</ele>
        <time>2019-06-07T06:37:55.000Z</time>
      </trkpt>
      <trkpt lat="50.316070" lon="26.783411">
        <ele>249.581133</ele>
        <time>2019-06-07T06:37:58.000Z</time>
      </trkpt>
      <trkpt lat="50.316010" lon="26.783539">
        <ele>249.717215</ele>
        <time>2019-06-07T06:38:01.000Z</time>
      </trkpt>
      <trkpt lat="50.315940" lon="26.783676">
        <ele>249.949514</ele>
        <time>2019-06-07T06:38:04.000Z</time>
      </trkpt>
      <trkpt lat="50.315872" lon="26.783812">
        <ele>250.255024</ele>
        <time>2019-06-07T06:38:07.000Z</time>
      </trkpt>
      <trkpt lat="50.315792" lon="26.783934">
        <ele>250.564319</ele>
        <time>2019-06-07T06:38:10.000Z</time>
      </trkpt>
      <trkpt lat="50.315723" lon="26.784042">
        <ele>250.834532</ele>
        <time>2019-06-07T06:38:13.000Z</time>
      </trkpt>
      <trkpt lat="50.315647" lon="26.784150">
        <ele>251.118790</ele>
        <time>2019-06-07T06:38:16.000Z</time>
      </trkpt>
      <trkpt lat="50.315567" lon="26.784246">
        <ele>251.397954</ele>
        <time>2019-06-07T06:38:19.000Z</time>
      </trkpt>
      <trkpt lat="50.315470" lon="26.784346">
        <ele>251.719621</ele>
        <time>2019-06-07T06:38:22.000Z</time>
      </trkpt>
      <trkpt lat="50.315384" lon="26.784440">
        <ele>252.010112</ele>
        <time>2019-06-07T06:38:25.000Z</time>
      </trkpt>
      <trkpt lat="50.315277" lon="26.784561">
        <ele>252.375680</ele>
        <time>2019-06-07T06:38:28.000Z</time>
      </trkpt>
      <trkpt lat="50.315197" lon="26.784640">
        <ele>252.637645</ele>
        <time>2019-06-07T06:38:30.000Z</time>
      </trkpt>
      <trkpt lat="50.315113" lon="26.784712">
        <ele>252.902884</ele>
        <time>2019-06-07T06:38:33.000Z</time>
      </trkpt>
      <trkpt lat="50.315002" lon="26.784792">
        <ele>253.241335</ele>
        <time>2019-06-07T06:38:36.000Z</time>
      </trkpt>
      <trkpt lat="50.314896" lon="26.784900">
        <ele>253.591611</ele>
        <time>2019-06-07T06:38:39.000Z</time>
      </trkpt>
      <trkpt lat="50.314823" lon="26.784979">
        <ele>253.837394</ele>
        <time>2019-06-07T06:38:41.000Z</time>
      </trkpt>
      <trkpt lat="50.314716" lon="26.785069">
        <ele>254.173813</ele>
        <time>2019-06-07T06:38:44.000Z</time>
      </trkpt>
      <trkpt lat="50.314625" lon="26.785147">
        <ele>254.461156</ele>
        <time>2019-06-07T06:38:47.000Z</time>
      </trkpt>
      <trkpt lat="50.314533" lon="26.785236">
        <ele>254.760684</ele>
        <time>2019-06-07T06:38:50.000Z</time>
      </trkpt>
      <trkpt lat="50.314457" lon="26.785330">
        <ele>254.738158</ele>
        <time>2019-06-07T06:38:53.000Z</time>
      </trkpt>
      <trkpt lat="50.314373" lon="26.785414">
        <ele>254.701132</ele>
        <time>2019-06-07T06:38:56.000Z</time>
      </trkpt>
      <trkpt lat="50.314290" lon="26.785498">
        <ele>254.664419</ele>
        <time>2019-06-07T06:38:59.000Z</time>
      </trkpt>
      <trkpt lat="50.314210" lon="26.785574">
        <ele>254.629658</ele>
        <time>2019-06-07T06:39:02.000Z</time>
      </trkpt>
      <trkpt lat="50.314140" lon="26.785664">
        <ele>254.596011</ele>
        <time>2019-06-07T06:39:05.000Z</time>
      </trkpt>
      <trkpt lat="50.314053" lon="26.785769">
        <ele>254.555206</ele>
        <time>2019-06-07T06:39:08.000Z</time>
      </trkpt>
      <trkpt lat="50.313953" lon="26.785866">
        <ele>254.511507</ele>
        <time>2019-06-07T06:39:11.000Z</time>
      </trkpt>
      <trkpt lat="50.313870" lon="26.785967">
        <ele>254.472457</ele>
        <time>2019-06-07T06:39:14.000Z</time>
      </trkpt>
      <trkpt lat="50.313774" lon="26.786080">
        <ele>254.427842</ele>
        <time>2019-06-07T06:39:17.000Z</time>
      </trkpt>
      <trkpt lat="50.313675" lon="26.786207">
        <ele>254.380299</ele>
        <time>2019-06-07T06:39:20.000Z</time>
      </trkpt>
      <trkpt lat="50.313570" lon="26.786360">
        <ele>254.327016</ele>
        <time>2019-06-07T06:39:23.000Z</time>
      </trkpt>
      <trkpt lat="50.313490" lon="26.786467">
        <ele>254.287931</ele>
        <time>2019-06-07T06:39:25.000Z</time>
      </trkpt>
      <trkpt lat="50.313420" lon="26.786566">
        <ele>254.252891</ele>
        <time>2019-06-07T06:39:27.000Z</time>
      </trkpt>
      <trkpt lat="50.313324" lon="26.786680">
        <ele>254.208132</ele>
        <time>2019-06-07T06:39:30.000Z</time>
      </trkpt>
      <trkpt lat="50.313213" lon="26.786793">
        <ele>254.158948</ele>
        <time>2019-06-07T06:39:33.000Z</time>
      </trkpt>
      <trkpt lat="50.313110" lon="26.786882">
        <ele>254.115245</ele>
        <time>2019-06-07T06:39:36.000Z</time>
      </trkpt>
      <trkpt lat="50.312992" lon="26.786978">
        <ele>253.879448</ele>
        <time>2019-06-07T06:39:39.000Z</time>
      </trkpt>
      <trkpt lat="50.312874" lon="26.787064">
        <ele>253.597046</ele>
        <time>2019-06-07T06:39:42.000Z</time>
      </trkpt>
      <trkpt lat="50.312775" lon="26.787153">
        <ele>253.349359</ele>
        <time>2019-06-07T06:39:45.000Z</time>
      </trkpt>
      <trkpt lat="50.312660" lon="26.787226">
        <ele>253.080116</ele>
        <time>2019-06-07T06:39:48.000Z</time>
      </trkpt>
      <trkpt lat="50.312542" lon="26.787302">
        <ele>252.803276</ele>
        <time>2019-06-07T06:39:51.000Z</time>
      </trkpt>
      <trkpt lat="50.312430" lon="26.787401">
        <ele>252.524221</ele>
        <time>2019-06-07T06:39:54.000Z</time>
      </trkpt>
      <trkpt lat="50.312313" lon="26.787493">
        <ele>252.240152</ele>
        <time>2019-06-07T06:39:57.000Z</time>
      </trkpt>
      <trkpt lat="50.312202" lon="26.787560">
        <ele>251.982036</ele>
        <time>2019-06-07T06:40:00.000Z</time>
      </trkpt>
      <trkpt lat="50.312103" lon="26.787638">
        <ele>251.741574</ele>
        <time>2019-06-07T06:40:03.000Z</time>
      </trkpt>
      <trkpt lat="50.311993" lon="26.787724">
        <ele>251.474808</ele>
        <time>2019-06-07T06:40:06.000Z</time>
      </trkpt>
      <trkpt lat="50.311880" lon="26.787825">
        <ele>251.192497</ele>
        <time>2019-06-07T06:40:09.000Z</time>
      </trkpt>
      <trkpt lat="50.311794" lon="26.787888">
        <ele>250.986489</ele>
        <time>2019-06-07T06:40:11.000Z</time>
      </trkpt>
      <trkpt lat="50.311714" lon="26.787952">
        <ele>250.791569</ele>
        <time>2019-06-07T06:40:13.000Z</time>
      </trkpt>
      <trkpt lat="50.311600" lon="26.788042">
        <ele>250.514559</ele>
        <time>2019-06-07T06:40:16.000Z</time>
      </trkpt>
      <trkpt lat="50.311490" lon="26.788122">
        <ele>250.251400</ele>
        <time>2019-06-07T06:40:19.000Z</time>
      </trkpt>
      <trkpt lat="50.311390" lon="26.788206">
        <ele>250.284564</ele>
        <time>2019-06-07T06:40:22.000Z</time>
      </trkpt>
      <trkpt lat="50.311290" lon="26.788267">
        <ele>250.382667</ele>
        <time>2019-06-07T06:40:25.000Z</time>
      </trkpt>
      <trkpt lat="50.311188" lon="26.788364">
        <ele>250.491755</ele>
        <time>2019-06-07T06:40:28.000Z</time>
      </trkpt>
      <trkpt lat="50.311092" lon="26.788462">
        <ele>250.596512</ele>
        <time>2019-06-07T06:40:31.000Z</time>
      </trkpt>
      <trkpt lat="50.311016" lon="26.788534">
        <ele>250.677711</ele>
        <time>2019-06-07T06:40:33.000Z</time>
      </trkpt>
      <trkpt lat="50.310900" lon="26.788622">
        <ele>250.795538</ele>
        <time>2019-06-07T06:40:36.000Z</time>
      </trkpt>
      <trkpt lat="50.310783" lon="26.788715">
        <ele>250.915481</ele>
        <time>2019-06-07T06:40:39.000Z</time>
      </trkpt>
      <trkpt lat="50.310680" lon="26.788788">
        <ele>251.018830</ele>
        <time>2019-06-07T06:40:42.000Z</time>
      </trkpt>
      <trkpt lat="50.310580" lon="26.788866">
        <ele>251.120956</ele>
        <time>2019-06-07T06:40:45.000Z</time>
      </trkpt>
      <trkpt lat="50.310474" lon="26.788965">
        <ele>251.233779</ele>
        <time>2019-06-07T06:40:48.000Z</time>
      </trkpt>
      <trkpt lat="50.310370" lon="26.789057">
        <ele>251.342970</ele>
        <time>2019-06-07T06:40:51.000Z</time>
      </trkpt>
      <trkpt lat="50.310257" lon="26.789145">
        <ele>251.458336</ele>
        <time>2019-06-07T06:40:54.000Z</time>
      </trkpt>
      <trkpt lat="50.310160" lon="26.789228">
        <ele>251.559381</ele>
        <time>2019-06-07T06:40:57.000Z</time>
      </trkpt>
      <trkpt lat="50.310050" lon="26.789314">
        <ele>251.671771</ele>
        <time>2019-06-07T06:41:00.000Z</time>
      </trkpt>
      <trkpt lat="50.309950" lon="26.789398">
        <ele>251.775506</ele>
        <time>2019-06-07T06:41:03.000Z</time>
      </trkpt>
      <trkpt lat="50.309850" lon="26.789486">
        <ele>251.826627</ele>
        <time>2019-06-07T06:41:06.000Z</time>
      </trkpt>
      <trkpt lat="50.309742" lon="26.789568">
        <ele>251.765142</ele>
        <time>2019-06-07T06:41:09.000Z</time>
      </trkpt>
      <trkpt lat="50.309628" lon="26.789658">
        <ele>251.699743</ele>
        <time>2019-06-07T06:41:12.000Z</time>
      </trkpt>
      <trkpt lat="50.309540" lon="26.789722">
        <ele>251.650039</ele>
        <time>2019-06-07T06:41:14.000Z</time>
      </trkpt>
      <trkpt lat="50.309433" lon="26.789804">
        <ele>251.589016</ele>
        <time>2019-06-07T06:41:17.000Z</time>
      </trkpt>
      <trkpt lat="50.309340" lon="26.789879">
        <ele>251.535429</ele>
        <time>2019-06-07T06:41:20.000Z</time>
      </trkpt>
      <trkpt lat="50.309242" lon="26.789953">
        <ele>251.479695</ele>
        <time>2019-06-07T06:41:23.000Z</time>
      </trkpt>
      <trkpt lat="50.309147" lon="26.790040">
        <ele>251.423319</ele>
        <time>2019-06-07T06:41:26.000Z</time>
      </trkpt>
      <trkpt lat="50.309040" lon="26.790121">
        <ele>251.362438</ele>
        <time>2019-06-07T06:41:29.000Z</time>
      </trkpt>
      <trkpt lat="50.308940" lon="26.790184">
        <ele>251.307222</ele>
        <time>2019-06-07T06:41:32.000Z</time>
      </trkpt>
      <trkpt lat="50.308846" lon="26.790247">
        <ele>251.254845</ele>
        <time>2019-06-07T06:41:35.000Z</time>
      </trkpt>
      <trkpt lat="50.308750" lon="26.790330">
        <ele>251.198670</ele>
        <time>2019-06-07T06:41:38.000Z</time>
      </trkpt>
      <trkpt lat="50.308643" lon="26.790382">
        <ele>251.141279</ele>
        <time>2019-06-07T06:41:41.000Z</time>
      </trkpt>
      <trkpt lat="50.308544" lon="26.790443">
        <ele>251.086781</ele>
        <time>2019-06-07T06:41:44.000Z</time>
      </trkpt>
      <trkpt lat="50.308440" lon="26.790495">
        <ele>251.030856</ele>
        <time>2019-06-07T06:41:47.000Z</time>
      </trkpt>
      <trkpt lat="50.308315" lon="26.790546">
        <ele>250.964686</ele>
        <time>2019-06-07T06:41:50.000Z</time>
      </trkpt>
      <trkpt lat="50.308200" lon="26.790598">
        <ele>250.939077</ele>
        <time>2019-06-07T06:41:53.000Z</time>
      </trkpt>
      <trkpt lat="50.308075" lon="26.790628">
        <ele>250.983442</ele>
        <time>2019-06-07T06:41:56.000Z</time>
      </trkpt>
      <trkpt lat="50.307972" lon="26.790665">
        <ele>251.020515</ele>
        <time>2019-06-07T06:41:59.000Z</time>
      </trkpt>
      <trkpt lat="50.307860" lon="26.790697">
        <ele>251.060456</ele>
        <time>2019-06-07T06:42:02.000Z</time>
      </trkpt>
      <trkpt lat="50.307766" lon="26.790726">
        <ele>251.094067</ele>
        <time>2019-06-07T06:42:04.000Z</time>
      </trkpt>
      <trkpt lat="50.307674" lon="26.790733">
        <ele>251.126380</ele>
        <time>2019-06-07T06:42:06.000Z</time>
      </trkpt>
      <trkpt lat="50.307583" lon="26.790749">
        <ele>251.158505</ele>
        <time>2019-06-07T06:42:08.000Z</time>
      </trkpt>
      <trkpt lat="50.307490" lon="26.790764">
        <ele>251.191304</ele>
        <time>2019-06-07T06:42:10.000Z</time>
      </trkpt>
      <trkpt lat="50.307400" lon="26.790785">
        <ele>251.223227</ele>
        <time>2019-06-07T06:42:12.000Z</time>
      </trkpt>
      <trkpt lat="50.307310" lon="26.790808">
        <ele>251.255218</ele>
        <time>2019-06-07T06:42:14.000Z</time>
      </trkpt>
      <trkpt lat="50.307217" lon="26.790842">
        <ele>251.288722</ele>
        <time>2019-06-07T06:42:16.000Z</time>
      </trkpt>
      <trkpt lat="50.307130" lon="26.790870">
        <ele>251.319882</ele>
        <time>2019-06-07T06:42:18.000Z</time>
      </trkpt>
      <trkpt lat="50.307040" lon="26.790900">
        <ele>251.352163</ele>
        <time>2019-06-07T06:42:20.000Z</time>
      </trkpt>
      <trkpt lat="50.306946" lon="26.790924">
        <ele>251.385576</ele>
        <time>2019-06-07T06:42:22.000Z</time>
      </trkpt>
      <trkpt lat="50.306824" lon="26.790980">
        <ele>251.430177</ele>
        <time>2019-06-07T06:42:25.000Z</time>
      </trkpt>
      <trkpt lat="50.306710" lon="26.791025">
        <ele>251.471422</ele>
        <time>2019-06-07T06:42:28.000Z</time>
      </trkpt>
      <trkpt lat="50.306600" lon="26.791073">
        <ele>251.511483</ele>
        <time>2019-06-07T06:42:31.000Z</time>
      </trkpt>
      <trkpt lat="50.306477" lon="26.791117">
        <ele>251.555011</ele>
        <time>2019-06-07T06:42:34.000Z</time>
      </trkpt>
      <trkpt lat="50.306366" lon="26.791164">
        <ele>251.433302</ele>
        <time>2019-06-07T06:42:37.000Z</time>
      </trkpt>
      <trkpt lat="50.306280" lon="26.791203">
        <ele>251.338534</ele>
        <time>2019-06-07T06:42:39.000Z</time>
      </trkpt>
      <trkpt lat="50.306160" lon="26.791275">
        <ele>251.202513</ele>
        <time>2019-06-07T06:42:42.000Z</time>
      </trkpt>
      <trkpt lat="50.306038" lon="26.791332">
        <ele>251.067755</ele>
        <time>2019-06-07T06:42:45.000Z</time>
      </trkpt>
      <trkpt lat="50.305946" lon="26.791386">
        <ele>250.963760</ele>
        <time>2019-06-07T06:42:47.000Z</time>
      </trkpt>
      <trkpt lat="50.305860" lon="26.791443">
        <ele>250.864913</ele>
        <time>2019-06-07T06:42:49.000Z</time>
      </trkpt>
      <trkpt lat="50.305775" lon="26.791489">
        <ele>250.769722</ele>
        <time>2019-06-07T06:42:51.000Z</time>
      </trkpt>
      <trkpt lat="50.305683" lon="26.791538">
        <ele>250.666864</ele>
        <time>2019-06-07T06:42:53.000Z</time>
      </trkpt>
      <trkpt lat="50.305595" lon="26.791584">
        <ele>250.568667</ele>
        <time>2019-06-07T06:42:55.000Z</time>
      </trkpt>
      <trkpt lat="50.305485" lon="26.791645">
        <ele>250.445150</ele>
        <time>2019-06-07T06:42:58.000Z</time>
      </trkpt>
      <trkpt lat="50.305390" lon="26.791720">
        <ele>250.332537</ele>
        <time>2019-06-07T06:43:01.000Z</time>
      </trkpt>
      <trkpt lat="50.305280" lon="26.791792">
        <ele>250.206342</ele>
        <time>2019-06-07T06:43:04.000Z</time>
      </trkpt>
      <trkpt lat="50.305160" lon="26.791876">
        <ele>250.067212</ele>
        <time>2019-06-07T06:43:07.000Z</time>
      </trkpt>
      <trkpt lat="50.305050" lon="26.791943">
        <ele>249.942282</ele>
        <time>2019-06-07T06:43:10.000Z</time>
      </trkpt>
      <trkpt lat="50.304947" lon="26.792020">
        <ele>249.821471</ele>
        <time>2019-06-07T06:43:13.000Z</time>
      </trkpt>
      <trkpt lat="50.304817" lon="26.792048">
        <ele>249.682577</ele>
        <time>2019-06-07T06:43:16.000Z</time>
      </trkpt>
      <trkpt lat="50.304720" lon="26.792057">
        <ele>249.452862</ele>
        <time>2019-06-07T06:43:18.000Z</time>
      </trkpt>
      <trkpt lat="50.304630" lon="26.792065">
        <ele>249.189461</ele>
        <time>2019-06-07T06:43:20.000Z</time>
      </trkpt>
      <trkpt lat="50.304504" lon="26.792065">
        <ele>248.821292</ele>
        <time>2019-06-07T06:43:23.000Z</time>
      </trkpt>
      <trkpt lat="50.304380" lon="26.792070">
        <ele>248.458847</ele>
        <time>2019-06-07T06:43:26.000Z</time>
      </trkpt>
      <trkpt lat="50.304287" lon="26.792068">
        <ele>248.187078</ele>
        <time>2019-06-07T06:43:28.000Z</time>
      </trkpt>
      <trkpt lat="50.304195" lon="26.792060">
        <ele>247.917842</ele>
        <time>2019-06-07T06:43:30.000Z</time>
      </trkpt>
      <trkpt lat="50.304060" lon="26.792065">
        <ele>247.523265</ele>
        <time>2019-06-07T06:43:33.000Z</time>
      </trkpt>
      <trkpt lat="50.303925" lon="26.792086">
        <ele>247.126856</ele>
        <time>2019-06-07T06:43:36.000Z</time>
      </trkpt>
      <trkpt lat="50.303830" lon="26.792080">
        <ele>246.849043</ele>
        <time>2019-06-07T06:43:38.000Z</time>
      </trkpt>
      <trkpt lat="50.303700" lon="26.792091">
        <ele>246.468632</ele>
        <time>2019-06-07T06:43:41.000Z</time>
      </trkpt>
      <trkpt lat="50.303604" lon="26.792093">
        <ele>246.188098</ele>
        <time>2019-06-07T06:43:43.000Z</time>
      </trkpt>
      <trkpt lat="50.303516" lon="26.792095">
        <ele>245.930937</ele>
        <time>2019-06-07T06:43:45.000Z</time>
      </trkpt>
      <trkpt lat="50.303387" lon="26.792086">
        <ele>245.553628</ele>
        <time>2019-06-07T06:43:48.000Z</time>
      </trkpt>
      <trkpt lat="50.303272" lon="26.792068">
        <ele>245.215926</ele>
        <time>2019-06-07T06:43:51.000Z</time>
      </trkpt>
      <trkpt lat="50.303140" lon="26.792055">
        <ele>244.829463</ele>
        <time>2019-06-07T06:43:54.000Z</time>
      </trkpt>
      <trkpt lat="50.303013" lon="26.792036">
        <ele>244.456682</ele>
        <time>2019-06-07T06:43:57.000Z</time>
      </trkpt>
      <trkpt lat="50.302910" lon="26.792006">
        <ele>244.664939</ele>
        <time>2019-06-07T06:44:00.000Z</time>
      </trkpt>
      <trkpt lat="50.302803" lon="26.791937">
        <ele>245.034878</ele>
        <time>2019-06-07T06:44:03.000Z</time>
      </trkpt>
      <trkpt lat="50.302720" lon="26.791868">
        <ele>245.335299</ele>
        <time>2019-06-07T06:44:05.000Z</time>
      </trkpt>
      <trkpt lat="50.302624" lon="26.791807">
        <ele>245.666506</ele>
        <time>2019-06-07T06:44:07.000Z</time>
      </trkpt>
      <trkpt lat="50.302532" lon="26.791733">
        <ele>245.997157</ele>
        <time>2019-06-07T06:44:09.000Z</time>
      </trkpt>
      <trkpt lat="50.302452" lon="26.791656">
        <ele>246.297367</ele>
        <time>2019-06-07T06:44:11.000Z</time>
      </trkpt>
      <trkpt lat="50.302376" lon="26.791561">
        <ele>246.608265</ele>
        <time>2019-06-07T06:44:13.000Z</time>
      </trkpt>
      <trkpt lat="50.302288" lon="26.791475">
        <ele>246.939893</ele>
        <time>2019-06-07T06:44:15.000Z</time>
      </trkpt>
      <trkpt lat="50.302200" lon="26.791359">
        <ele>247.307650</ele>
        <time>2019-06-07T06:44:18.000Z</time>
      </trkpt>
      <trkpt lat="50.302110" lon="26.791264">
        <ele>247.654648</ele>
        <time>2019-06-07T06:44:21.000Z</time>
      </trkpt>
      <trkpt lat="50.302032" lon="26.791170">
        <ele>247.969319</ele>
        <time>2019-06-07T06:44:24.000Z</time>
      </trkpt>
      <trkpt lat="50.301945" lon="26.791096">
        <ele>248.285838</ele>
        <time>2019-06-07T06:44:27.000Z</time>
      </trkpt>
      <trkpt lat="50.301834" lon="26.791006">
        <ele>248.685448</ele>
        <time>2019-06-07T06:44:30.000Z</time>
      </trkpt>
      <trkpt lat="50.301727" lon="26.790928">
        <ele>249.062770</ele>
        <time>2019-06-07T06:44:33.000Z</time>
      </trkpt>
      <trkpt lat="50.301640" lon="26.790869">
        <ele>249.365864</ele>
        <time>2019-06-07T06:44:36.000Z</time>
      </trkpt>
      <trkpt lat="50.301520" lon="26.790830">
        <ele>249.757660</ele>
        <time>2019-06-07T06:44:39.000Z</time>
      </trkpt>
      <trkpt lat="50.301395" lon="26.790834">
        <ele>250.155289</ele>
        <time>2019-06-07T06:44:42.000Z</time>
      </trkpt>
      <trkpt lat="50.301285" lon="26.790892">
        <ele>250.458426</ele>
        <time>2019-06-07T06:44:45.000Z</time>
      </trkpt>
      <trkpt lat="50.301190" lon="26.790983">
        <ele>250.749290</ele>
        <time>2019-06-07T06:44:48.000Z</time>
      </trkpt>
      <trkpt lat="50.301100" lon="26.791101">
        <ele>251.055878</ele>
        <time>2019-06-07T06:44:51.000Z</time>
      </trkpt>
      <trkpt lat="50.301010" lon="26.791240">
        <ele>251.386054</ele>
        <time>2019-06-07T06:44:54.000Z</time>
      </trkpt>
      <trkpt lat="50.300915" lon="26.791353">
        <ele>251.697649</ele>
        <time>2019-06-07T06:44:57.000Z</time>
      </trkpt>
      <trkpt lat="50.300816" lon="26.791466">
        <ele>252.017625</ele>
        <time>2019-06-07T06:45:00.000Z</time>
      </trkpt>
      <trkpt lat="50.300720" lon="26.791601">
        <ele>252.354639</ele>
        <time>2019-06-07T06:45:03.000Z</time>
      </trkpt>
      <trkpt lat="50.300640" lon="26.791677">
        <ele>252.599029</ele>
        <time>2019-06-07T06:45:05.000Z</time>
      </trkpt>
      <trkpt lat="50.300540" lon="26.791784">
        <ele>252.915366</ele>
        <time>2019-06-07T06:45:08.000Z</time>
      </trkpt>
      <trkpt lat="50.300434" lon="26.791893">
        <ele>253.246578</ele>
        <time>2019-06-07T06:45:11.000Z</time>
      </trkpt>
      <trkpt lat="50.300330" lon="26.792002">
        <ele>253.573438</ele>
        <time>2019-06-07T06:45:14.000Z</time>
      </trkpt>
      <trkpt lat="50.300250" lon="26.792112">
        <ele>253.851514</ele>
        <time>2019-06-07T06:45:17.000Z</time>
      </trkpt>
      <trkpt lat="50.300167" lon="26.792229">
        <ele>254.143206</ele>
        <time>2019-06-07T06:45:20.000Z</time>
      </trkpt>
      <trkpt lat="50.300080" lon="26.792360">
        <ele>254.458460</ele>
        <time>2019-06-07T06:45:23.000Z</time>
      </trkpt>
      <trkpt lat="50.300007" lon="26.792450">
        <ele>254.701132</ele>
        <time>2019-06-07T06:45:25.000Z</time>
      </trkpt>
      <trkpt lat="50.299930" lon="26.792542">
        <ele>254.786000</ele>
        <time>2019-06-07T06:45:27.000Z</time>
      </trkpt>
      <trkpt lat="50.299824" lon="26.792652">
        <ele>254.613171</ele>
        <time>2019-06-07T06:45:30.000Z</time>
      </trkpt>
      <trkpt lat="50.299750" lon="26.792732">
        <ele>254.490956</ele>
        <time>2019-06-07T06:45:32.000Z</time>
      </trkpt>
      <trkpt lat="50.299675" lon="26.792814">
        <ele>254.366635</ele>
        <time>2019-06-07T06:45:34.000Z</time>
      </trkpt>
      <trkpt lat="50.299595" lon="26.792883">
        <ele>254.242507</ele>
        <time>2019-06-07T06:45:36.000Z</time>
      </trkpt>
      <trkpt lat="50.299490" lon="26.792976">
        <ele>254.078557</ele>
        <time>2019-06-07T06:45:39.000Z</time>
      </trkpt>
      <trkpt lat="50.299393" lon="26.793095">
        <ele>253.911079</ele>
        <time>2019-06-07T06:45:42.000Z</time>
      </trkpt>
      <trkpt lat="50.299294" lon="26.793222">
        <ele>253.737137</ele>
        <time>2019-06-07T06:45:45.000Z</time>
      </trkpt>
      <trkpt lat="50.299194" lon="26.793346">
        <ele>253.563770</ele>
        <time>2019-06-07T06:45:48.000Z</time>
      </trkpt>
      <trkpt lat="50.299088" lon="26.793465">
        <ele>253.386504</ele>
        <time>2019-06-07T06:45:51.000Z</time>
      </trkpt>
      <trkpt lat="50.298990" lon="26.793594">
        <ele>253.212498</ele>
        <time>2019-06-07T06:45:54.000Z</time>
      </trkpt>
      <trkpt lat="50.298916" lon="26.793678">
        <ele>253.088276</ele>
        <time>2019-06-07T06:45:56.000Z</time>
      </trkpt>
      <trkpt lat="50.298843" lon="26.793760">
        <ele>252.966173</ele>
        <time>2019-06-07T06:45:58.000Z</time>
      </trkpt>
      <trkpt lat="50.298744" lon="26.793877">
        <ele>252.797598</ele>
        <time>2019-06-07T06:46:01.000Z</time>
      </trkpt>
      <trkpt lat="50.298637" lon="26.794000">
        <ele>252.617192</ele>
        <time>2019-06-07T06:46:04.000Z</time>
      </trkpt>
      <trkpt lat="50.298534" lon="26.794127">
        <ele>252.439011</ele>
        <time>2019-06-07T06:46:07.000Z</time>
      </trkpt>
      <trkpt lat="50.298450" lon="26.794207">
        <ele>252.474709</ele>
        <time>2019-06-07T06:46:09.000Z</time>
      </trkpt>
      <trkpt lat="50.298370" lon="26.794289">
        <ele>252.579354</ele>
        <time>2019-06-07T06:46:11.000Z</time>
      </trkpt>
      <trkpt lat="50.298260" lon="26.794405">
        <ele>252.724499</ele>
        <time>2019-06-07T06:46:14.000Z</time>
      </trkpt>
      <trkpt lat="50.298187" lon="26.794498">
        <ele>252.827499</ele>
        <time>2019-06-07T06:46:16.000Z</time>
      </trkpt>
      <trkpt lat="50.298122" lon="26.794598">
        <ele>252.927233</ele>
        <time>2019-06-07T06:46:18.000Z</time>
      </trkpt>
      <trkpt lat="50.298020" lon="26.794708">
        <ele>253.062781</ele>
        <time>2019-06-07T06:46:21.000Z</time>
      </trkpt>
      <trkpt lat="50.297947" lon="26.794792">
        <ele>253.161929</ele>
        <time>2019-06-07T06:46:23.000Z</time>
      </trkpt>
      <trkpt lat="50.297840" lon="26.794909">
        <ele>253.304762</ele>
        <time>2019-06-07T06:46:26.000Z</time>
      </trkpt>
      <trkpt lat="50.297756" lon="26.795030">
        <ele>253.429684</ele>
        <time>2019-06-07T06:46:29.000Z</time>
      </trkpt>
      <trkpt lat="50.297665" lon="26.795141">
        <ele>253.555933</ele>
        <time>2019-06-07T06:46:32.000Z</time>
      </trkpt>
      <trkpt lat="50.297592" lon="26.795229">
        <ele>253.656763</ele>
        <time>2019-06-07T06:46:34.000Z</time>
      </trkpt>
      <trkpt lat="50.297480" lon="26.795324">
        <ele>253.796167</ele>
        <time>2019-06-07T06:46:37.000Z</time>
      </trkpt>
      <trkpt lat="50.297370" lon="26.795440">
        <ele>253.941313</ele>
        <time>2019-06-07T06:46:40.000Z</time>
      </trkpt>
      <trkpt lat="50.297270" lon="26.795557">
        <ele>254.077937</ele>
        <time>2019-06-07T06:46:43.000Z</time>
      </trkpt>
      <trkpt lat="50.297157" lon="26.795671">
        <ele>254.225055</ele>
        <time>2019-06-07T06:46:46.000Z</time>
      </trkpt>
      <trkpt lat="50.297077" lon="26.795744">
        <ele>254.326392</ele>
        <time>2019-06-07T06:46:48.000Z</time>
      </trkpt>
      <trkpt lat="50.296974" lon="26.795858">
        <ele>254.422186</ele>
        <time>2019-06-07T06:46:51.000Z</time>
      </trkpt>
      <trkpt lat="50.296910" lon="26.795961">
        <ele>254.478834</ele>
        <time>2019-06-07T06:46:54.000Z</time>
      </trkpt>
      <trkpt lat="50.296840" lon="26.796066">
        <ele>254.538666</ele>
        <time>2019-06-07T06:46:57.000Z</time>
      </trkpt>
      <trkpt lat="50.296770" lon="26.796188">
        <ele>254.603317</ele>
        <time>2019-06-07T06:47:01.000Z</time>
      </trkpt>
      <trkpt lat="50.296680" lon="26.796291">
        <ele>254.672121</ele>
        <time>2019-06-07T06:47:05.000Z</time>
      </trkpt>
      <trkpt lat="50.296593" lon="26.796377">
        <ele>254.735623</ele>
        <time>2019-06-07T06:47:09.000Z</time>
      </trkpt>
      <trkpt lat="50.296513" lon="26.796488">
        <ele>254.801598</ele>
        <time>2019-06-07T06:47:14.000Z</time>
      </trkpt>
      <trkpt lat="50.296425" lon="26.796589">
        <ele>254.868941</ele>
        <time>2019-06-07T06:47:19.000Z</time>
      </trkpt>
      <trkpt lat="50.296340" lon="26.796703">
        <ele>254.938019</ele>
        <time>2019-06-07T06:47:24.000Z</time>
      </trkpt>
      <trkpt lat="50.296257" lon="26.796787">
        <ele>254.999016</ele>
        <time>2019-06-07T06:47:28.000Z</time>
      </trkpt>
      <trkpt lat="50.296165" lon="26.796877">
        <ele>255.065970</ele>
        <time>2019-06-07T06:47:32.000Z</time>
      </trkpt>
      <trkpt lat="50.296090" lon="26.796972">
        <ele>255.125512</ele>
        <time>2019-06-07T06:47:35.000Z</time>
      </trkpt>
      <trkpt lat="50.295998" lon="26.797064">
        <ele>255.192886</ele>
        <time>2019-06-07T06:47:38.000Z</time>
      </trkpt>
      <trkpt lat="50.295902" lon="26.797160">
        <ele>255.263190</ele>
        <time>2019-06-07T06:47:41.000Z</time>
      </trkpt>
      <trkpt lat="50.295803" lon="26.797290">
        <ele>255.342939</ele>
        <time>2019-06-07T06:47:44.000Z</time>
      </trkpt>
      <trkpt lat="50.295700" lon="26.797405">
        <ele>255.421019</ele>
        <time>2019-06-07T06:47:47.000Z</time>
      </trkpt>
      <trkpt lat="50.295610" lon="26.797500">
        <ele>255.516459</ele>
        <time>2019-06-07T06:47:50.000Z</time>
      </trkpt>
      <trkpt lat="50.295525" lon="26.797585">
        <ele>255.748497</ele>
        <time>2019-06-07T06:47:53.000Z</time>
      </trkpt>
      <trkpt lat="50.295433" lon="26.797672">
        <ele>255.995767</ele>
        <time>2019-06-07T06:47:56.000Z</time>
      </trkpt>
      <trkpt lat="50.295345" lon="26.797770">
        <ele>256.244216</ele>
        <time>2019-06-07T06:47:59.000Z</time>
      </trkpt>
      <trkpt lat="50.295273" lon="26.797869">
        <ele>256.464680</ele>
        <time>2019-06-07T06:48:02.000Z</time>
      </trkpt>
      <trkpt lat="50.295200" lon="26.798012">
        <ele>256.733696</ele>
        <time>2019-06-07T06:48:06.000Z</time>
      </trkpt>
      <trkpt lat="50.295128" lon="26.798107">
        <ele>256.950325</ele>
        <time>2019-06-07T06:48:09.000Z</time>
      </trkpt>
      <trkpt lat="50.295050" lon="26.798204">
        <ele>257.179499</ele>
        <time>2019-06-07T06:48:12.000Z</time>
      </trkpt>
      <trkpt lat="50.294960" lon="26.798298">
        <ele>257.428402</ele>
        <time>2019-06-07T06:48:15.000Z</time>
      </trkpt>
      <trkpt lat="50.294876" lon="26.798388">
        <ele>257.662577</ele>
        <time>2019-06-07T06:48:18.000Z</time>
      </trkpt>
      <trkpt lat="50.294800" lon="26.798468">
        <ele>257.873270</ele>
        <time>2019-06-07T06:48:21.000Z</time>
      </trkpt>
      <trkpt lat="50.294724" lon="26.798548">
        <ele>258.083964</ele>
        <time>2019-06-07T06:48:24.000Z</time>
      </trkpt>
      <trkpt lat="50.294643" lon="26.798641">
        <ele>258.315057</ele>
        <time>2019-06-07T06:48:27.000Z</time>
      </trkpt>
      <trkpt lat="50.294544" lon="26.798752">
        <ele>258.595205</ele>
        <time>2019-06-07T06:48:30.000Z</time>
      </trkpt>
      <trkpt lat="50.294453" lon="26.798843">
        <ele>258.843624</ele>
        <time>2019-06-07T06:48:33.000Z</time>
      </trkpt>
      <trkpt lat="50.294376" lon="26.798931">
        <ele>259.062952</ele>
        <time>2019-06-07T06:48:36.000Z</time>
      </trkpt>
      <trkpt lat="50.294304" lon="26.799010">
        <ele>259.265228</ele>
        <time>2019-06-07T06:48:39.000Z</time>
      </trkpt>
      <trkpt lat="50.294190" lon="26.799103">
        <ele>259.560966</ele>
        <time>2019-06-07T06:48:42.000Z</time>
      </trkpt>
      <trkpt lat="50.294083" lon="26.799194">
        <ele>259.530852</ele>
        <time>2019-06-07T06:48:45.000Z</time>
      </trkpt>
      <trkpt lat="50.293995" lon="26.799284">
        <ele>259.440293</ele>
        <time>2019-06-07T06:48:48.000Z</time>
      </trkpt>
      <trkpt lat="50.293915" lon="26.799377">
        <ele>259.354445</ele>
        <time>2019-06-07T06:48:51.000Z</time>
      </trkpt>
      <trkpt lat="50.293827" lon="26.799510">
        <ele>259.249062</ele>
        <time>2019-06-07T06:48:54.000Z</time>
      </trkpt>
      <trkpt lat="50.293743" lon="26.799644">
        <ele>259.145738</ele>
        <time>2019-06-07T06:48:57.000Z</time>
      </trkpt>
      <trkpt lat="50.293648" lon="26.799791">
        <ele>259.030657</ele>
        <time>2019-06-07T06:49:00.000Z</time>
      </trkpt>
      <trkpt lat="50.293552" lon="26.799936">
        <ele>258.915728</ele>
        <time>2019-06-07T06:49:03.000Z</time>
      </trkpt>
      <trkpt lat="50.293480" lon="26.800055">
        <ele>258.825522</ele>
        <time>2019-06-07T06:49:06.000Z</time>
      </trkpt>
      <trkpt lat="50.293404" lon="26.800200">
        <ele>258.722297</ele>
        <time>2019-06-07T06:49:10.000Z</time>
      </trkpt>
      <trkpt lat="50.293365" lon="26.800330">
        <ele>258.643252</ele>
        <time>2019-06-07T06:49:13.000Z</time>
      </trkpt>
      <trkpt lat="50.293330" lon="26.800488">
        <ele>258.551213</ele>
        <time>2019-06-07T06:49:17.000Z</time>
      </trkpt>
      <trkpt lat="50.293327" lon="26.800638">
        <ele>258.468616</ele>
        <time>2019-06-07T06:49:21.000Z</time>
      </trkpt>
      <trkpt lat="50.293370" lon="26.800800">
        <ele>258.372066</ele>
        <time>2019-06-07T06:50:07.000Z</time>
      </trkpt>
      <trkpt lat="50.293434" lon="26.800950">
        <ele>258.272791</ele>
        <time>2019-06-07T06:50:11.000Z</time>
      </trkpt>
      <trkpt lat="50.293500" lon="26.801090">
        <ele>258.177031</ele>
        <time>2019-06-07T06:50:14.000Z</time>
      </trkpt>
      <trkpt lat="50.293564" lon="26.801262">
        <ele>258.067480</ele>
        <time>2019-06-07T06:50:17.000Z</time>
      </trkpt>
      <trkpt lat="50.293617" lon="26.801426">
        <ele>258.088961</ele>
        <time>2019-06-07T06:50:20.000Z</time>
      </trkpt>
      <trkpt lat="50.293686" lon="26.801567">
        <ele>258.111662</ele>
        <time>2019-06-07T06:50:23.000Z</time>
      </trkpt>
      <trkpt lat="50.293750" lon="26.801697">
        <ele>258.132637</ele>
        <time>2019-06-07T06:50:26.000Z</time>
      </trkpt>
      <trkpt lat="50.293804" lon="26.801819">
        <ele>258.151607</ele>
        <time>2019-06-07T06:50:29.000Z</time>
      </trkpt>
      <trkpt lat="50.293877" lon="26.801964">
        <ele>258.175202</ele>
        <time>2019-06-07T06:50:33.000Z</time>
      </trkpt>
      <trkpt lat="50.293945" lon="26.802074">
        <ele>258.194765</ele>
        <time>2019-06-07T06:50:36.000Z</time>
      </trkpt>
      <trkpt lat="50.294006" lon="26.802193">
        <ele>258.214264</ele>
        <time>2019-06-07T06:50:39.000Z</time>
      </trkpt>
      <trkpt lat="50.294100" lon="26.802296">
        <ele>258.237219</ele>
        <time>2019-06-07T06:50:43.000Z</time>
      </trkpt>
      <trkpt lat="50.294200" lon="26.802372">
        <ele>258.259459</ele>
        <time>2019-06-07T06:50:47.000Z</time>
      </trkpt>
      <trkpt lat="50.294315" lon="26.802376">
        <ele>258.282471</ele>
        <time>2019-06-07T06:50:51.000Z</time>
      </trkpt>
      <trkpt lat="50.294415" lon="26.802362">
        <ele>258.302556</ele>
        <time>2019-06-07T06:50:54.000Z</time>
      </trkpt>
      <trkpt lat="50.294518" lon="26.802332">
        <ele>258.323516</ele>
        <time>2019-06-07T06:50:57.000Z</time>
      </trkpt>
      <trkpt lat="50.294640" lon="26.802280">
        <ele>258.348812</ele>
        <time>2019-06-07T06:51:00.000Z</time>
      </trkpt>
      <trkpt lat="50.294765" lon="26.802261">
        <ele>258.373936</ele>
        <time>2019-06-07T06:51:03.000Z</time>
      </trkpt>
      <trkpt lat="50.294872" lon="26.802220">
        <ele>258.395975</ele>
        <time>2019-06-07T06:51:06.000Z</time>
      </trkpt>
      <trkpt lat="50.295010" lon="26.802170">
        <ele>258.424312</ele>
        <time>2019-06-07T06:51:09.000Z</time>
      </trkpt>
      <trkpt lat="50.295140" lon="26.802110">
        <ele>258.210860</ele>
        <time>2019-06-07T06:51:11.000Z</time>
      </trkpt>
      <trkpt lat="50.295265" lon="26.802057">
        <ele>257.994672</ele>
        <time>2019-06-07T06:51:13.000Z</time>
      </trkpt>
      <trkpt lat="50.295387" lon="26.802004">
        <ele>257.783313</ele>
        <time>2019-06-07T06:51:15.000Z</time>
      </trkpt>
      <trkpt lat="50.295525" lon="26.801949">
        <ele>257.545593</ele>
        <time>2019-06-07T06:51:17.000Z</time>
      </trkpt>
      <trkpt lat="50.295666" lon="26.801891">
        <ele>257.302223</ele>
        <time>2019-06-07T06:51:19.000Z</time>
      </trkpt>
      <trkpt lat="50.295800" lon="26.801832">
        <ele>257.069849</ele>
        <time>2019-06-07T06:51:21.000Z</time>
      </trkpt>
      <trkpt lat="50.295930" lon="26.801796">
        <ele>256.849464</ele>
        <time>2019-06-07T06:51:23.000Z</time>
      </trkpt>
      <trkpt lat="50.296040" lon="26.801779">
        <ele>256.664942</ele>
        <time>2019-06-07T06:51:25.000Z</time>
      </trkpt>
      <trkpt lat="50.296143" lon="26.801735">
        <ele>256.486711</ele>
        <time>2019-06-07T06:51:27.000Z</time>
      </trkpt>
      <trkpt lat="50.296234" lon="26.801695">
        <ele>256.328925</ele>
        <time>2019-06-07T06:51:30.000Z</time>
      </trkpt>
      <trkpt lat="50.296330" lon="26.801651">
        <ele>256.161939</ele>
        <time>2019-06-07T06:51:33.000Z</time>
      </trkpt>
      <trkpt lat="50.296444" lon="26.801594">
        <ele>255.962161</ele>
        <time>2019-06-07T06:51:37.000Z</time>
      </trkpt>
      <trkpt lat="50.296540" lon="26.801546">
        <ele>255.793926</ele>
        <time>2019-06-07T06:51:40.000Z</time>
      </trkpt>
      <trkpt lat="50.296654" lon="26.801529">
        <ele>255.602759</ele>
        <time>2019-06-07T06:51:43.000Z</time>
      </trkpt>
      <trkpt lat="50.296764" lon="26.801472">
        <ele>255.403970</ele>
        <time>2019-06-07T06:51:46.000Z</time>
      </trkpt>
      <trkpt lat="50.296860" lon="26.801414">
        <ele>255.165362</ele>
        <time>2019-06-07T06:51:49.000Z</time>
      </trkpt>
      <trkpt lat="50.296955" lon="26.801373">
        <ele>254.936859</ele>
        <time>2019-06-07T06:51:53.000Z</time>
      </trkpt>
      <trkpt lat="50.297040" lon="26.801294">
        <ele>254.707641</ele>
        <time>2019-06-07T06:51:58.000Z</time>
      </trkpt>
      <trkpt lat="50.297123" lon="26.801210">
        <ele>254.478464</ele>
        <time>2019-06-07T06:57:05.000Z</time>
      </trkpt>
      <trkpt lat="50.297195" lon="26.801090">
        <ele>254.234602</ele>
        <time>2019-06-07T06:57:10.000Z</time>
      </trkpt>
      <trkpt lat="50.297245" lon="26.800955">
        <ele>254.003453</ele>
        <time>2019-06-07T06:57:16.000Z</time>
      </trkpt>
      <trkpt lat="50.297306" lon="26.800823">
        <ele>253.762130</ele>
        <time>2019-06-07T06:57:21.000Z</time>
      </trkpt>
      <trkpt lat="50.297367" lon="26.800669">
        <ele>253.493723</ele>
        <time>2019-06-07T06:57:25.000Z</time>
      </trkpt>
      <trkpt lat="50.297420" lon="26.800505">
        <ele>253.221481</ele>
        <time>2019-06-07T06:57:29.000Z</time>
      </trkpt>
      <trkpt lat="50.297466" lon="26.800379">
        <ele>253.006514</ele>
        <time>2019-06-07T06:57:32.000Z</time>
      </trkpt>
      <trkpt lat="50.297527" lon="26.800241">
        <ele>252.757936</ele>
        <time>2019-06-07T06:57:36.000Z</time>
      </trkpt>
      <trkpt lat="50.297577" lon="26.800117">
        <ele>252.540730</ele>
        <time>2019-06-07T06:57:41.000Z</time>
      </trkpt>
      <trkpt lat="50.297660" lon="26.800016">
        <ele>252.296963</ele>
        <time>2019-06-07T06:57:45.000Z</time>
      </trkpt>
      <trkpt lat="50.297740" lon="26.799932">
        <ele>252.073597</ele>
        <time>2019-06-07T06:57:48.000Z</time>
      </trkpt>
      <trkpt lat="50.297832" lon="26.799885">
        <ele>251.849196</ele>
        <time>2019-06-07T06:57:51.000Z</time>
      </trkpt>
      <trkpt lat="50.297930" lon="26.799892">
        <ele>251.621718</ele>
        <time>2019-06-07T06:57:54.000Z</time>
      </trkpt>
      <trkpt lat="50.298042" lon="26.799927">
        <ele>251.356890</ele>
        <time>2019-06-07T06:57:58.000Z</time>
      </trkpt>
      <trkpt lat="50.298157" lon="26.799986">
        <ele>251.516079</ele>
        <time>2019-06-07T06:58:02.000Z</time>
      </trkpt>
      <trkpt lat="50.298244" lon="26.800050">
        <ele>251.849655</ele>
        <time>2019-06-07T06:58:05.000Z</time>
      </trkpt>
      <trkpt lat="50.298347" lon="26.800129">
        <ele>252.247675</ele>
        <time>2019-06-07T06:58:09.000Z</time>
      </trkpt>
      <trkpt lat="50.298435" lon="26.800232">
        <ele>252.628966</ele>
        <time>2019-06-07T06:58:13.000Z</time>
      </trkpt>
      <trkpt lat="50.298523" lon="26.800295">
        <ele>252.964757</ele>
        <time>2019-06-07T06:58:17.000Z</time>
      </trkpt>
      <trkpt lat="50.298607" lon="26.800398">
        <ele>253.335025</ele>
        <time>2019-06-07T06:58:21.000Z</time>
      </trkpt>
      <trkpt lat="50.298680" lon="26.800530">
        <ele>253.722049</ele>
        <time>2019-06-07T06:58:25.000Z</time>
      </trkpt>
      <trkpt lat="50.298750" lon="26.800667">
        <ele>254.110933</ele>
        <time>2019-06-07T06:58:29.000Z</time>
      </trkpt>
      <trkpt lat="50.298820" lon="26.800795">
        <ele>254.484445</ele>
        <time>2019-06-07T06:58:33.000Z</time>
      </trkpt>
      <trkpt lat="50.298878" lon="26.800945">
        <ele>254.873118</ele>
        <time>2019-06-07T06:58:37.000Z</time>
      </trkpt>
      <trkpt lat="50.298912" lon="26.801123">
        <ele>255.284948</ele>
        <time>2019-06-07T06:58:41.000Z</time>
      </trkpt>
      <trkpt lat="50.298910" lon="26.801283">
        <ele>255.639684</ele>
        <time>2019-06-07T06:58:44.000Z</time>
      </trkpt>
      <trkpt lat="50.298900" lon="26.801468">
        <ele>256.051235</ele>
        <time>2019-06-07T06:58:47.000Z</time>
      </trkpt>
      <trkpt lat="50.298900" lon="26.801657">
        <ele>256.470186</ele>
        <time>2019-06-07T06:58:50.000Z</time>
      </trkpt>
      <trkpt lat="50.298885" lon="26.801851">
        <ele>256.903360</ele>
        <time>2019-06-07T06:58:53.000Z</time>
      </trkpt>
      <trkpt lat="50.298870" lon="26.802020">
        <ele>257.281577</ele>
        <time>2019-06-07T06:58:56.000Z</time>
      </trkpt>
      <trkpt lat="50.298843" lon="26.802164">
        <ele>257.496516</ele>
        <time>2019-06-07T06:58:59.000Z</time>
      </trkpt>
      <trkpt lat="50.298820" lon="26.802332">
        <ele>257.504450</ele>
        <time>2019-06-07T06:59:02.000Z</time>
      </trkpt>
      <trkpt lat="50.298817" lon="26.802498">
        <ele>257.512119</ele>
        <time>2019-06-07T06:59:05.000Z</time>
      </trkpt>
      <trkpt lat="50.298817" lon="26.802681">
        <ele>257.520570</ele>
        <time>2019-06-07T06:59:08.000Z</time>
      </trkpt>
      <trkpt lat="50.298820" lon="26.802893">
        <ele>257.530362</ele>
        <time>2019-06-07T06:59:11.000Z</time>
      </trkpt>
      <trkpt lat="50.298810" lon="26.803085">
        <ele>257.539258</ele>
        <time>2019-06-07T06:59:14.000Z</time>
      </trkpt>
      <trkpt lat="50.298786" lon="26.803265">
        <ele>257.547749</ele>
        <time>2019-06-07T06:59:17.000Z</time>
      </trkpt>
      <trkpt lat="50.298748" lon="26.803453">
        <ele>257.556855</ele>
        <time>2019-06-07T06:59:20.000Z</time>
      </trkpt>
      <trkpt lat="50.298717" lon="26.803620">
        <ele>257.564886</ele>
        <time>2019-06-07T06:59:23.000Z</time>
      </trkpt>
      <trkpt lat="50.298670" lon="26.803780">
        <ele>257.573019</ele>
        <time>2019-06-07T06:59:26.000Z</time>
      </trkpt>
      <trkpt lat="50.298660" lon="26.803988">
        <ele>257.582651</ele>
        <time>2019-06-07T06:59:29.000Z</time>
      </trkpt>
      <trkpt lat="50.298645" lon="26.804129">
        <ele>257.589252</ele>
        <time>2019-06-07T06:59:31.000Z</time>
      </trkpt>
      <trkpt lat="50.298620" lon="26.804270">
        <ele>257.596010</ele>
        <time>2019-06-07T06:59:33.000Z</time>
      </trkpt>
      <trkpt lat="50.298550" lon="26.804415">
        <ele>257.604403</ele>
        <time>2019-06-07T06:59:36.000Z</time>
      </trkpt>
      <trkpt lat="50.298500" lon="26.804537">
        <ele>257.611097</ele>
        <time>2019-06-07T06:59:39.000Z</time>
      </trkpt>
      <trkpt lat="50.298447" lon="26.804672">
        <ele>257.618414</ele>
        <time>2019-06-07T06:59:42.000Z</time>
      </trkpt>
      <trkpt lat="50.298386" lon="26.804825">
        <ele>257.499697</ele>
        <time>2019-06-07T06:59:45.000Z</time>
      </trkpt>
      <trkpt lat="50.298320" lon="26.804972">
        <ele>257.118078</ele>
        <time>2019-06-07T06:59:48.000Z</time>
      </trkpt>
      <trkpt lat="50.298250" lon="26.805105">
        <ele>256.752067</ele>
        <time>2019-06-07T06:59:51.000Z</time>
      </trkpt>
      <trkpt lat="50.298180" lon="26.805264">
        <ele>256.341930</ele>
        <time>2019-06-07T06:59:54.000Z</time>
      </trkpt>
      <trkpt lat="50.298107" lon="26.805405">
        <ele>255.956450</ele>
        <time>2019-06-07T06:59:57.000Z</time>
      </trkpt>
      <trkpt lat="50.298050" lon="26.805565">
        <ele>255.567348</ele>
        <time>2019-06-07T07:00:00.000Z</time>
      </trkpt>
      <trkpt lat="50.297980" lon="26.805708">
        <ele>255.184705</ele>
        <time>2019-06-07T07:00:03.000Z</time>
      </trkpt>
      <trkpt lat="50.297913" lon="26.805847">
        <ele>254.814862</ele>
        <time>2019-06-07T07:00:06.000Z</time>
      </trkpt>
      <trkpt lat="50.297848" lon="26.805954">
        <ele>254.501247</ele>
        <time>2019-06-07T07:00:09.000Z</time>
      </trkpt>
      <trkpt lat="50.297752" lon="26.806070">
        <ele>254.098031</ele>
        <time>2019-06-07T07:00:12.000Z</time>
      </trkpt>
      <trkpt lat="50.297650" lon="26.806185">
        <ele>253.680090</ele>
        <time>2019-06-07T07:00:15.000Z</time>
      </trkpt>
      <trkpt lat="50.297550" lon="26.806290">
        <ele>253.279735</ele>
        <time>2019-06-07T07:00:18.000Z</time>
      </trkpt>
      <trkpt lat="50.297450" lon="26.806410">
        <ele>252.860796</ele>
        <time>2019-06-07T07:00:21.000Z</time>
      </trkpt>
      <trkpt lat="50.297350" lon="26.806545">
        <ele>252.421745</ele>
        <time>2019-06-07T07:00:24.000Z</time>
      </trkpt>
      <trkpt lat="50.297250" lon="26.806665">
        <ele>252.002806</ele>
        <time>2019-06-07T07:00:27.000Z</time>
      </trkpt>
      <trkpt lat="50.297173" lon="26.806746">
        <ele>251.694354</ele>
        <time>2019-06-07T07:00:29.000Z</time>
      </trkpt>
      <trkpt lat="50.297066" lon="26.806843">
        <ele>251.739280</ele>
        <time>2019-06-07T07:00:32.000Z</time>
      </trkpt>
      <trkpt lat="50.296970" lon="26.806955">
        <ele>251.844777</ele>
        <time>2019-06-07T07:00:35.000Z</time>
      </trkpt>
      <trkpt lat="50.296875" lon="26.807076">
        <ele>251.952692</ele>
        <time>2019-06-07T07:00:38.000Z</time>
      </trkpt>
      <trkpt lat="50.296772" lon="26.807200">
        <ele>252.067184</ele>
        <time>2019-06-07T07:00:41.000Z</time>
      </trkpt>
      <trkpt lat="50.296677" lon="26.807308">
        <ele>252.170637</ele>
        <time>2019-06-07T07:00:44.000Z</time>
      </trkpt>
      <trkpt lat="50.296566" lon="26.807423">
        <ele>252.287923</ele>
        <time>2019-06-07T07:00:47.000Z</time>
      </trkpt>
      <trkpt lat="50.296463" lon="26.807520">
        <ele>252.393838</ele>
        <time>2019-06-07T07:00:50.000Z</time>
      </trkpt>
      <trkpt lat="50.296375" lon="26.807621">
        <ele>252.489986</ele>
        <time>2019-06-07T07:00:53.000Z</time>
      </trkpt>
      <trkpt lat="50.296290" lon="26.807720">
        <ele>252.583339</ele>
        <time>2019-06-07T07:00:56.000Z</time>
      </trkpt>
      <trkpt lat="50.296204" lon="26.807835">
        <ele>252.683001</ele>
        <time>2019-06-07T07:00:59.000Z</time>
      </trkpt>
      <trkpt lat="50.296130" lon="26.807919">
        <ele>252.763544</ele>
        <time>2019-06-07T07:01:02.000Z</time>
      </trkpt>
      <trkpt lat="50.296060" lon="26.808016">
        <ele>252.845918</ele>
        <time>2019-06-07T07:01:05.000Z</time>
      </trkpt>
      <trkpt lat="50.295982" lon="26.808140">
        <ele>252.943874</ele>
        <time>2019-06-07T07:01:08.000Z</time>
      </trkpt>
      <trkpt lat="50.295895" lon="26.808245">
        <ele>253.040672</ele>
        <time>2019-06-07T07:01:11.000Z</time>
      </trkpt>
      <trkpt lat="50.295800" lon="26.808340">
        <ele>253.140002</ele>
        <time>2019-06-07T07:01:14.000Z</time>
      </trkpt>
      <trkpt lat="50.295710" lon="26.808428">
        <ele>253.236721</ele>
        <time>2019-06-07T07:01:17.000Z</time>
      </trkpt>
      <trkpt lat="50.295640" lon="26.808523">
        <ele>253.371811</ele>
        <time>2019-06-07T07:01:20.000Z</time>
      </trkpt>
      <trkpt lat="50.295563" lon="26.808609">
        <ele>253.509737</ele>
        <time>2019-06-07T07:01:23.000Z</time>
      </trkpt>
      <trkpt lat="50.295475" lon="26.808702">
        <ele>253.664559</ele>
        <time>2019-06-07T07:01:26.000Z</time>
      </trkpt>
      <trkpt lat="50.295390" lon="26.808805">
        <ele>253.821298</ele>
        <time>2019-06-07T07:01:29.000Z</time>
      </trkpt>
      <trkpt lat="50.295303" lon="26.808933">
        <ele>253.995394</ele>
        <time>2019-06-07T07:01:32.000Z</time>
      </trkpt>
      <trkpt lat="50.295208" lon="26.809042">
        <ele>254.167144</ele>
        <time>2019-06-07T07:01:35.000Z</time>
      </trkpt>
      <trkpt lat="50.295110" lon="26.809145">
        <ele>254.339264</ele>
        <time>2019-06-07T07:01:38.000Z</time>
      </trkpt>
      <trkpt lat="50.295013" lon="26.809254">
        <ele>254.513375</ele>
        <time>2019-06-07T07:01:41.000Z</time>
      </trkpt>
      <trkpt lat="50.294930" lon="26.809393">
        <ele>254.690611</ele>
        <time>2019-06-07T07:01:44.000Z</time>
      </trkpt>
      <trkpt lat="50.294846" lon="26.809534">
        <ele>254.870203</ele>
        <time>2019-06-07T07:01:47.000Z</time>
      </trkpt>
      <trkpt lat="50.294765" lon="26.809677">
        <ele>255.048231</ele>
        <time>2019-06-07T07:01:50.000Z</time>
      </trkpt>
      <trkpt lat="50.294693" lon="26.809830">
        <ele>255.225247</ele>
        <time>2019-06-07T07:01:53.000Z</time>
      </trkpt>
      <trkpt lat="50.294610" lon="26.809977">
        <ele>255.407999</ele>
        <time>2019-06-07T07:01:56.000Z</time>
      </trkpt>
      <trkpt lat="50.294540" lon="26.810127">
        <ele>255.581037</ele>
        <time>2019-06-07T07:01:59.000Z</time>
      </trkpt>
      <trkpt lat="50.294468" lon="26.810276">
        <ele>255.755068</ele>
        <time>2019-06-07T07:02:02.000Z</time>
      </trkpt>
      <trkpt lat="50.294390" lon="26.810432">
        <ele>256.023803</ele>
        <time>2019-06-07T07:02:05.000Z</time>
      </trkpt>
      <trkpt lat="50.294330" lon="26.810580">
        <ele>256.342731</ele>
        <time>2019-06-07T07:02:08.000Z</time>
      </trkpt>
      <trkpt lat="50.294266" lon="26.810730">
        <ele>256.670925</ele>
        <time>2019-06-07T07:02:11.000Z</time>
      </trkpt>
      <trkpt lat="50.294197" lon="26.810862">
        <ele>256.981249</ele>
        <time>2019-06-07T07:02:14.000Z</time>
      </trkpt>
      <trkpt lat="50.294136" lon="26.810997">
        <ele>257.282110</ele>
        <time>2019-06-07T07:02:17.000Z</time>
      </trkpt>
      <trkpt lat="50.294067" lon="26.811136">
        <ele>257.602394</ele>
        <time>2019-06-07T07:02:20.000Z</time>
      </trkpt>
      <trkpt lat="50.294006" lon="26.811260">
        <ele>257.887150</ele>
        <time>2019-06-07T07:02:23.000Z</time>
      </trkpt>
      <trkpt lat="50.293940" lon="26.811415">
        <ele>258.226075</ele>
        <time>2019-06-07T07:02:26.000Z</time>
      </trkpt>
      <trkpt lat="50.293900" lon="26.811556">
        <ele>258.506781</ele>
        <time>2019-06-07T07:02:29.000Z</time>
      </trkpt>
      <trkpt lat="50.293850" lon="26.811718">
        <ele>258.834136</ele>
        <time>2019-06-07T07:02:33.000Z</time>
      </trkpt>
      <trkpt lat="50.293820" lon="26.811860">
        <ele>259.106265</ele>
        <time>2019-06-07T07:02:36.000Z</time>
      </trkpt>
      <trkpt lat="50.293790" lon="26.812033">
        <ele>259.432429</ele>
        <time>2019-06-07T07:02:39.000Z</time>
      </trkpt>
      <trkpt lat="50.293760" lon="26.812222">
        <ele>259.786770</ele>
        <time>2019-06-07T07:02:42.000Z</time>
      </trkpt>
      <trkpt lat="50.293747" lon="26.812363">
        <ele>260.045977</ele>
        <time>2019-06-07T07:02:44.000Z</time>
      </trkpt>
      <trkpt lat="50.293724" lon="26.812510">
        <ele>260.321348</ele>
        <time>2019-06-07T07:02:46.000Z</time>
      </trkpt>
      <trkpt lat="50.293686" lon="26.812668">
        <ele>260.628527</ele>
        <time>2019-06-07T07:02:48.000Z</time>
      </trkpt>
      <trkpt lat="50.293650" lon="26.812828">
        <ele>260.937175</ele>
        <time>2019-06-07T07:02:50.000Z</time>
      </trkpt>
      <trkpt lat="50.293625" lon="26.812990">
        <ele>260.988401</ele>
        <time>2019-06-07T07:02:52.000Z</time>
      </trkpt>
      <trkpt lat="50.293600" lon="26.813145">
        <ele>261.004179</ele>
        <time>2019-06-07T07:02:54.000Z</time>
      </trkpt>
      <trkpt lat="50.293575" lon="26.813284">
        <ele>261.018432</ele>
        <time>2019-06-07T07:02:56.000Z</time>
      </trkpt>
      <trkpt lat="50.293552" lon="26.813427">
        <ele>261.032986</ele>
        <time>2019-06-07T07:02:58.000Z</time>
      </trkpt>
      <trkpt lat="50.293550" lon="26.813570">
        <ele>261.047103</ele>
        <time>2019-06-07T07:03:00.000Z</time>
      </trkpt>
      <trkpt lat="50.293530" lon="26.813710">
        <ele>261.061263</ele>
        <time>2019-06-07T07:03:02.000Z</time>
      </trkpt>
      <trkpt lat="50.293510" lon="26.813860">
        <ele>261.076386</ele>
        <time>2019-06-07T07:03:04.000Z</time>
      </trkpt>
      <trkpt lat="50.293490" lon="26.814007">
        <ele>261.091221</ele>
        <time>2019-06-07T07:03:06.000Z</time>
      </trkpt>
      <trkpt lat="50.293470" lon="26.814152">
        <ele>261.105862</ele>
        <time>2019-06-07T07:03:08.000Z</time>
      </trkpt>
      <trkpt lat="50.293453" lon="26.814302">
        <ele>261.120898</ele>
        <time>2019-06-07T07:03:10.000Z</time>
      </trkpt>
      <trkpt lat="50.293438" lon="26.814455">
        <ele>261.136176</ele>
        <time>2019-06-07T07:03:12.000Z</time>
      </trkpt>
      <trkpt lat="50.293423" lon="26.814600">
        <ele>261.150674</ele>
        <time>2019-06-07T07:03:14.000Z</time>
      </trkpt>
      <trkpt lat="50.293400" lon="26.814747">
        <ele>261.165611</ele>
        <time>2019-06-07T07:03:16.000Z</time>
      </trkpt>
      <trkpt lat="50.293373" lon="26.814890">
        <ele>261.180329</ele>
        <time>2019-06-07T07:03:18.000Z</time>
      </trkpt>
      <trkpt lat="50.293358" lon="26.815044">
        <ele>261.195704</ele>
        <time>2019-06-07T07:03:20.000Z</time>
      </trkpt>
      <trkpt lat="50.293350" lon="26.815191">
        <ele>261.210266</ele>
        <time>2019-06-07T07:03:22.000Z</time>
      </trkpt>
      <trkpt lat="50.293330" lon="26.815334">
        <ele>261.224714</ele>
        <time>2019-06-07T07:03:24.000Z</time>
      </trkpt>
      <trkpt lat="50.293312" lon="26.815477">
        <ele>261.239100</ele>
        <time>2019-06-07T07:03:26.000Z</time>
      </trkpt>
      <trkpt lat="50.293290" lon="26.815687">
        <ele>261.216448</ele>
        <time>2019-06-07T07:03:29.000Z</time>
      </trkpt>
      <trkpt lat="50.293262" lon="26.815836">
        <ele>261.150925</ele>
        <time>2019-06-07T07:03:31.000Z</time>
      </trkpt>
      <trkpt lat="50.293250" lon="26.815979">
        <ele>261.090078</ele>
        <time>2019-06-07T07:03:33.000Z</time>
      </trkpt>
      <trkpt lat="50.293240" lon="26.816122">
        <ele>261.029390</ele>
        <time>2019-06-07T07:03:35.000Z</time>
      </trkpt>
      <trkpt lat="50.293230" lon="26.816270">
        <ele>260.966603</ele>
        <time>2019-06-07T07:03:37.000Z</time>
      </trkpt>
      <trkpt lat="50.293205" lon="26.816418">
        <ele>260.902020</ele>
        <time>2019-06-07T07:03:39.000Z</time>
      </trkpt>
      <trkpt lat="50.293186" lon="26.816560">
        <ele>260.840813</ele>
        <time>2019-06-07T07:03:41.000Z</time>
      </trkpt>
      <trkpt lat="50.293163" lon="26.816702">
        <ele>260.779011</ele>
        <time>2019-06-07T07:03:43.000Z</time>
      </trkpt>
      <trkpt lat="50.293137" lon="26.816900">
        <ele>260.693733</ele>
        <time>2019-06-07T07:03:46.000Z</time>
      </trkpt>
      <trkpt lat="50.293110" lon="26.817095">
        <ele>260.609557</ele>
        <time>2019-06-07T07:03:49.000Z</time>
      </trkpt>
      <trkpt lat="50.293090" lon="26.817287">
        <ele>260.527487</ele>
        <time>2019-06-07T07:03:52.000Z</time>
      </trkpt>
      <trkpt lat="50.293070" lon="26.817455">
        <ele>260.455391</ele>
        <time>2019-06-07T07:03:55.000Z</time>
      </trkpt>
      <trkpt lat="50.293053" lon="26.817616">
        <ele>260.386547</ele>
        <time>2019-06-07T07:03:58.000Z</time>
      </trkpt>
      <trkpt lat="50.293022" lon="26.817781">
        <ele>260.313989</ele>
        <time>2019-06-07T07:04:01.000Z</time>
      </trkpt>
      <trkpt lat="50.293000" lon="26.817999">
        <ele>260.220879</ele>
        <time>2019-06-07T07:04:04.000Z</time>
      </trkpt>
      <trkpt lat="50.292980" lon="26.818188">
        <ele>260.140057</ele>
        <time>2019-06-07T07:04:07.000Z</time>
      </trkpt>
      <trkpt lat="50.292973" lon="26.818377">
        <ele>260.074936</ele>
        <time>2019-06-07T07:04:10.000Z</time>
      </trkpt>
      <trkpt lat="50.292988" lon="26.818548">
        <ele>260.278624</ele>
        <time>2019-06-07T07:04:13.000Z</time>
      </trkpt>
      <trkpt lat="50.293020" lon="26.818726">
        <ele>260.496837</ele>
        <time>2019-06-07T07:04:16.000Z</time>
      </trkpt>
      <trkpt lat="50.293050" lon="26.818886">
        <ele>260.693615</ele>
        <time>2019-06-07T07:04:19.000Z</time>
      </trkpt>
      <trkpt lat="50.293087" lon="26.819048">
        <ele>260.896638</ele>
        <time>2019-06-07T07:04:22.000Z</time>
      </trkpt>
      <trkpt lat="50.293118" lon="26.819214">
        <ele>261.100729</ele>
        <time>2019-06-07T07:04:25.000Z</time>
      </trkpt>
      <trkpt lat="50.293095" lon="26.819397">
        <ele>261.320823</ele>
        <time>2019-06-07T07:04:28.000Z</time>
      </trkpt>
      <trkpt lat="50.293015" lon="26.819622">
        <ele>261.624693</ele>
        <time>2019-06-07T07:04:32.000Z</time>
      </trkpt>
      <trkpt lat="50.292957" lon="26.819788">
        <ele>261.847970</ele>
        <time>2019-06-07T07:04:35.000Z</time>
      </trkpt>
      <trkpt lat="50.292880" lon="26.819910">
        <ele>262.050349</ele>
        <time>2019-06-07T07:04:38.000Z</time>
      </trkpt>
      <trkpt lat="50.292812" lon="26.820042">
        <ele>262.250454</ele>
        <time>2019-06-07T07:04:41.000Z</time>
      </trkpt>
      <trkpt lat="50.292744" lon="26.820171">
        <ele>262.447816</ele>
        <time>2019-06-07T07:04:44.000Z</time>
      </trkpt>
      <trkpt lat="50.292667" lon="26.820270">
        <ele>262.631878</ele>
        <time>2019-06-07T07:04:47.000Z</time>
      </trkpt>
      <trkpt lat="50.292590" lon="26.820366">
        <ele>262.813714</ele>
        <time>2019-06-07T07:04:50.000Z</time>
      </trkpt>
      <trkpt lat="50.292503" lon="26.820469">
        <ele>263.015208</ele>
        <time>2019-06-07T07:04:53.000Z</time>
      </trkpt>
      <trkpt lat="50.292397" lon="26.820593">
        <ele>263.259648</ele>
        <time>2019-06-07T07:04:56.000Z</time>
      </trkpt>
      <trkpt lat="50.292290" lon="26.820696">
        <ele>263.535491</ele>
        <time>2019-06-07T07:04:59.000Z</time>
      </trkpt>
      <trkpt lat="50.292187" lon="26.820814">
        <ele>263.869441</ele>
        <time>2019-06-07T07:05:02.000Z</time>
      </trkpt>
      <trkpt lat="50.292076" lon="26.820925">
        <ele>264.214061</ele>
        <time>2019-06-07T07:05:05.000Z</time>
      </trkpt>
      <trkpt lat="50.291985" lon="26.821041">
        <ele>264.521111</ele>
        <time>2019-06-07T07:05:08.000Z</time>
      </trkpt>
      <trkpt lat="50.291880" lon="26.821175">
        <ele>264.875563</ele>
        <time>2019-06-07T07:05:11.000Z</time>
      </trkpt>
      <trkpt lat="50.291782" lon="26.821304">
        <ele>265.210578</ele>
        <time>2019-06-07T07:05:14.000Z</time>
      </trkpt>
      <trkpt lat="50.291720" lon="26.821415">
        <ele>265.457027</ele>
        <time>2019-06-07T07:05:16.000Z</time>
      </trkpt>
      <trkpt lat="50.291645" lon="26.821530">
        <ele>265.731717</ele>
        <time>2019-06-07T07:05:18.000Z</time>
      </trkpt>
      <trkpt lat="50.291584" lon="26.821648">
        <ele>265.985437</ele>
        <time>2019-06-07T07:05:20.000Z</time>
      </trkpt>
      <trkpt lat="50.291527" lon="26.821766">
        <ele>266.232709</ele>
        <time>2019-06-07T07:05:22.000Z</time>
      </trkpt>
      <trkpt lat="50.291480" lon="26.821890">
        <ele>266.473710</ele>
        <time>2019-06-07T07:05:24.000Z</time>
      </trkpt>
      <trkpt lat="50.291410" lon="26.822039">
        <ele>266.782855</ele>
        <time>2019-06-07T07:05:27.000Z</time>
      </trkpt>
      <trkpt lat="50.291340" lon="26.822210">
        <ele>267.122327</ele>
        <time>2019-06-07T07:05:30.000Z</time>
      </trkpt>
      <trkpt lat="50.291260" lon="26.822376">
        <ele>267.469891</ele>
        <time>2019-06-07T07:05:33.000Z</time>
      </trkpt>
      <trkpt lat="50.291203" lon="26.822500">
        <ele>267.725235</ele>
        <time>2019-06-07T07:05:35.000Z</time>
      </trkpt>
      <trkpt lat="50.291130" lon="26.822660">
        <ele>268.053877</ele>
        <time>2019-06-07T07:05:38.000Z</time>
      </trkpt>
      <trkpt lat="50.291077" lon="26.822817">
        <ele>267.806757</ele>
        <time>2019-06-07T07:05:41.000Z</time>
      </trkpt>
      <trkpt lat="50.291023" lon="26.822968">
        <ele>267.487102</ele>
        <time>2019-06-07T07:05:44.000Z</time>
      </trkpt>
      <trkpt lat="50.290966" lon="26.823137">
        <ele>267.134088</ele>
        <time>2019-06-07T07:05:47.000Z</time>
      </trkpt>
      <trkpt lat="50.290910" lon="26.823294">
        <ele>266.801936</ele>
        <time>2019-06-07T07:05:50.000Z</time>
      </trkpt>
      <trkpt lat="50.290825" lon="26.823454">
        <ele>266.417548</ele>
        <time>2019-06-07T07:05:53.000Z</time>
      </trkpt>
      <trkpt lat="50.290745" lon="26.823603">
        <ele>266.058023</ele>
        <time>2019-06-07T07:05:55.000Z</time>
      </trkpt>
      <trkpt lat="50.290672" lon="26.823736">
        <ele>265.734126</ele>
        <time>2019-06-07T07:05:57.000Z</time>
      </trkpt>
      <trkpt lat="50.290607" lon="26.823875">
        <ele>265.415929</ele>
        <time>2019-06-07T07:05:59.000Z</time>
      </trkpt>
      <trkpt lat="50.290554" lon="26.824010">
        <ele>265.123231</ele>
        <time>2019-06-07T07:06:01.000Z</time>
      </trkpt>
      <trkpt lat="50.290516" lon="26.824170">
        <ele>264.807910</ele>
        <time>2019-06-07T07:06:03.000Z</time>
      </trkpt>
      <trkpt lat="50.290474" lon="26.824305">
        <ele>264.530536</ele>
        <time>2019-06-07T07:06:05.000Z</time>
      </trkpt>
      <trkpt lat="50.290420" lon="26.824440">
        <ele>264.236314</ele>
        <time>2019-06-07T07:06:07.000Z</time>
      </trkpt>
      <trkpt lat="50.290363" lon="26.824572">
        <ele>263.942005</ele>
        <time>2019-06-07T07:06:09.000Z</time>
      </trkpt>
      <trkpt lat="50.290310" lon="26.824696">
        <ele>263.666413</ele>
        <time>2019-06-07T07:06:11.000Z</time>
      </trkpt>
      <trkpt lat="50.290250" lon="26.824837">
        <ele>263.353465</ele>
        <time>2019-06-07T07:06:13.000Z</time>
      </trkpt>
      <trkpt lat="50.290195" lon="26.824980">
        <ele>263.045134</ele>
        <time>2019-06-07T07:06:15.000Z</time>
      </trkpt>
      <trkpt lat="50.290142" lon="26.825111">
        <ele>262.717867</ele>
        <time>2019-06-07T07:06:17.000Z</time>
      </trkpt>
      <trkpt lat="50.290092" lon="26.825258">
        <ele>262.315880</ele>
        <time>2019-06-07T07:06:19.000Z</time>
      </trkpt>
      <trkpt lat="50.290035" lon="26.825409">
        <ele>261.892524</ele>
        <time>2019-06-07T07:06:21.000Z</time>
      </trkpt>
      <trkpt lat="50.289980" lon="26.825563">
        <ele>261.466655</ele>
        <time>2019-06-07T07:06:23.000Z</time>
      </trkpt>
      <trkpt lat="50.289932" lon="26.825722">
        <ele>261.042165</ele>
        <time>2019-06-07T07:06:25.000Z</time>
      </trkpt>
      <trkpt lat="50.289894" lon="26.825867">
        <ele>260.663856</ele>
        <time>2019-06-07T07:06:27.000Z</time>
      </trkpt>
      <trkpt lat="50.289850" lon="26.826014">
        <ele>260.272009</ele>
        <time>2019-06-07T07:06:29.000Z</time>
      </trkpt>
      <trkpt lat="50.289800" lon="26.826145">
        <ele>259.903665</ele>
        <time>2019-06-07T07:06:31.000Z</time>
      </trkpt>
      <trkpt lat="50.289757" lon="26.826284">
        <ele>259.530877</ele>
        <time>2019-06-07T07:06:33.000Z</time>
      </trkpt>
      <trkpt lat="50.289715" lon="26.826431">
        <ele>259.142175</ele>
        <time>2019-06-07T07:06:35.000Z</time>
      </trkpt>
      <trkpt lat="50.289677" lon="26.826593">
        <ele>258.725607</ele>
        <time>2019-06-07T07:06:37.000Z</time>
      </trkpt>
      <trkpt lat="50.289650" lon="26.826769">
        <ele>258.288692</ele>
        <time>2019-06-07T07:06:39.000Z</time>
      </trkpt>
      <trkpt lat="50.289630" lon="26.826946">
        <ele>257.854807</ele>
        <time>2019-06-07T07:06:41.000Z</time>
      </trkpt>
      <trkpt lat="50.289616" lon="26.827122">
        <ele>257.426687</ele>
        <time>2019-06-07T07:06:43.000Z</time>
      </trkpt>
      <trkpt lat="50.289608" lon="26.827314">
        <ele>256.962240</ele>
        <time>2019-06-07T07:06:45.000Z</time>
      </trkpt>
      <trkpt lat="50.289610" lon="26.827497">
        <ele>256.520437</ele>
        <time>2019-06-07T07:06:47.000Z</time>
      </trkpt>
      <trkpt lat="50.289608" lon="26.827690">
        <ele>256.062251</ele>
        <time>2019-06-07T07:06:49.000Z</time>
      </trkpt>
      <trkpt lat="50.289608" lon="26.827883">
        <ele>255.682638</ele>
        <time>2019-06-07T07:06:51.000Z</time>
      </trkpt>
      <trkpt lat="50.289604" lon="26.828075">
        <ele>255.304791</ele>
        <time>2019-06-07T07:06:53.000Z</time>
      </trkpt>
      <trkpt lat="50.289604" lon="26.828274">
        <ele>254.913376</ele>
        <time>2019-06-07T07:06:55.000Z</time>
      </trkpt>
      <trkpt lat="50.289593" lon="26.828485">
        <ele>254.496978</ele>
        <time>2019-06-07T07:06:57.000Z</time>
      </trkpt>
      <trkpt lat="50.289577" lon="26.828693">
        <ele>254.084907</ele>
        <time>2019-06-07T07:06:59.000Z</time>
      </trkpt>
      <trkpt lat="50.289555" lon="26.828909">
        <ele>253.654689</ele>
        <time>2019-06-07T07:07:01.000Z</time>
      </trkpt>
      <trkpt lat="50.289524" lon="26.829094">
        <ele>253.278504</ele>
        <time>2019-06-07T07:07:03.000Z</time>
      </trkpt>
      <trkpt lat="50.289482" lon="26.829277">
        <ele>252.896040</ele>
        <time>2019-06-07T07:07:05.000Z</time>
      </trkpt>
      <trkpt lat="50.289448" lon="26.829460">
        <ele>252.521184</ele>
        <time>2019-06-07T07:07:07.000Z</time>
      </trkpt>
      <trkpt lat="50.289417" lon="26.829630">
        <ele>252.173456</ele>
        <time>2019-06-07T07:07:09.000Z</time>
      </trkpt>
      <trkpt lat="50.289400" lon="26.829790">
        <ele>251.854427</ele>
        <time>2019-06-07T07:07:11.000Z</time>
      </trkpt>
      <trkpt lat="50.289383" lon="26.829935">
        <ele>251.564462</ele>
        <time>2019-06-07T07:07:13.000Z</time>
      </trkpt>
      <trkpt lat="50.289364" lon="26.830091">
        <ele>251.252098</ele>
        <time>2019-06-07T07:07:15.000Z</time>
      </trkpt>
      <trkpt lat="50.289330" lon="26.830254">
        <ele>250.914836</ele>
        <time>2019-06-07T07:07:17.000Z</time>
      </trkpt>
      <trkpt lat="50.289310" lon="26.830410">
        <ele>250.601880</ele>
        <time>2019-06-07T07:07:19.000Z</time>
      </trkpt>
      <trkpt lat="50.289290" lon="26.830584">
        <ele>250.175227</ele>
        <time>2019-06-07T07:07:21.000Z</time>
      </trkpt>
      <trkpt lat="50.289265" lon="26.830750">
        <ele>249.752978</ele>
        <time>2019-06-07T07:07:23.000Z</time>
      </trkpt>
      <trkpt lat="50.289246" lon="26.830917">
        <ele>249.333012</ele>
        <time>2019-06-07T07:07:25.000Z</time>
      </trkpt>
      <trkpt lat="50.289250" lon="26.831085">
        <ele>248.916785</ele>
        <time>2019-06-07T07:07:27.000Z</time>
      </trkpt>
      <trkpt lat="50.289260" lon="26.831247">
        <ele>248.513835</ele>
        <time>2019-06-07T07:07:29.000Z</time>
      </trkpt>
      <trkpt lat="50.289240" lon="26.831402">
        <ele>248.122335</ele>
        <time>2019-06-07T07:07:31.000Z</time>
      </trkpt>
      <trkpt lat="50.289207" lon="26.831564">
        <ele>247.701359</ele>
        <time>2019-06-07T07:07:33.000Z</time>
      </trkpt>
      <trkpt lat="50.289173" lon="26.831700">
        <ele>247.339788</ele>
        <time>2019-06-07T07:07:35.000Z</time>
      </trkpt>
      <trkpt lat="50.289093" lon="26.831856">
        <ele>246.844535</ele>
        <time>2019-06-07T07:07:38.000Z</time>
      </trkpt>
      <trkpt lat="50.288998" lon="26.831974">
        <ele>246.374567</ele>
        <time>2019-06-07T07:07:41.000Z</time>
      </trkpt>
      <trkpt lat="50.288900" lon="26.832070">
        <ele>245.926564</ele>
        <time>2019-06-07T07:07:44.000Z</time>
      </trkpt>
      <trkpt lat="50.288810" lon="26.832188">
        <ele>245.471612</ele>
        <time>2019-06-07T07:07:47.000Z</time>
      </trkpt>
      <trkpt lat="50.288708" lon="26.832304">
        <ele>244.983033</ele>
        <time>2019-06-07T07:07:50.000Z</time>
      </trkpt>
      <trkpt lat="50.288610" lon="26.832413">
        <ele>244.517154</ele>
        <time>2019-06-07T07:07:53.000Z</time>
      </trkpt>
      <trkpt lat="50.288500" lon="26.832518">
        <ele>244.017878</ele>
        <time>2019-06-07T07:07:56.000Z</time>
      </trkpt>
      <trkpt lat="50.288387" lon="26.832619">
        <ele>243.583805</ele>
        <time>2019-06-07T07:07:59.000Z</time>
      </trkpt>
      <trkpt lat="50.288307" lon="26.832687">
        <ele>243.558173</ele>
        <time>2019-06-07T07:08:01.000Z</time>
      </trkpt>
      <trkpt lat="50.288227" lon="26.832760">
        <ele>243.532100</ele>
        <time>2019-06-07T07:08:03.000Z</time>
      </trkpt>
      <trkpt lat="50.288147" lon="26.832842">
        <ele>243.505175</ele>
        <time>2019-06-07T07:08:05.000Z</time>
      </trkpt>
      <trkpt lat="50.288033" lon="26.832950">
        <ele>243.467656</ele>
        <time>2019-06-07T07:08:08.000Z</time>
      </trkpt>
      <trkpt lat="50.287920" lon="26.833054">
        <ele>243.430747</ele>
        <time>2019-06-07T07:08:11.000Z</time>
      </trkpt>
      <trkpt lat="50.287804" lon="26.833150">
        <ele>243.393801</ele>
        <time>2019-06-07T07:08:14.000Z</time>
      </trkpt>
      <trkpt lat="50.287727" lon="26.833223">
        <ele>243.368454</ele>
        <time>2019-06-07T07:08:16.000Z</time>
      </trkpt>
      <trkpt lat="50.287647" lon="26.833300">
        <ele>243.342011</ele>
        <time>2019-06-07T07:08:18.000Z</time>
      </trkpt>
      <trkpt lat="50.287567" lon="26.833364">
        <ele>243.316715</ele>
        <time>2019-06-07T07:08:20.000Z</time>
      </trkpt>
      <trkpt lat="50.287490" lon="26.833433">
        <ele>243.291733</ele>
        <time>2019-06-07T07:08:22.000Z</time>
      </trkpt>
      <trkpt lat="50.287410" lon="26.833502">
        <ele>243.266014</ele>
        <time>2019-06-07T07:08:24.000Z</time>
      </trkpt>
      <trkpt lat="50.287330" lon="26.833586">
        <ele>243.238890</ele>
        <time>2019-06-07T07:08:26.000Z</time>
      </trkpt>
      <trkpt lat="50.287250" lon="26.833662">
        <ele>243.212541</ele>
        <time>2019-06-07T07:08:28.000Z</time>
      </trkpt>
      <trkpt lat="50.287170" lon="26.833736">
        <ele>243.186377</ele>
        <time>2019-06-07T07:08:30.000Z</time>
      </trkpt>
      <trkpt lat="50.287094" lon="26.833813">
        <ele>243.160886</ele>
        <time>2019-06-07T07:08:32.000Z</time>
      </trkpt>
      <trkpt lat="50.286980" lon="26.833918">
        <ele>243.123643</ele>
        <time>2019-06-07T07:08:35.000Z</time>
      </trkpt>
      <trkpt lat="50.286880" lon="26.834011">
        <ele>243.090892</ele>
        <time>2019-06-07T07:08:38.000Z</time>
      </trkpt>
      <trkpt lat="50.286793" lon="26.834114">
        <ele>243.195154</ele>
        <time>2019-06-07T07:08:41.000Z</time>
      </trkpt>
      <trkpt lat="50.286750" lon="26.834260">
        <ele>243.338151</ele>
        <time>2019-06-07T07:08:44.000Z</time>
      </trkpt>
      <trkpt lat="50.286770" lon="26.834414">
        <ele>243.477933</ele>
        <time>2019-06-07T07:08:48.000Z</time>
      </trkpt>
      <trkpt lat="50.286820" lon="26.834534">
        <ele>243.605361</ele>
        <time>2019-06-07T07:08:51.000Z</time>
      </trkpt>
      <trkpt lat="50.286880" lon="26.834648">
        <ele>243.736734</ele>
        <time>2019-06-07T07:08:54.000Z</time>
      </trkpt>
      <trkpt lat="50.286940" lon="26.834763">
        <ele>243.868794</ele>
        <time>2019-06-07T07:08:57.000Z</time>
      </trkpt>
      <trkpt lat="50.286995" lon="26.834885">
        <ele>244.001603</ele>
        <time>2019-06-07T07:09:00.000Z</time>
      </trkpt>
      <trkpt lat="50.287030" lon="26.835016">
        <ele>244.127902</ele>
        <time>2019-06-07T07:09:03.000Z</time>
      </trkpt>
      <trkpt lat="50.287098" lon="26.835170">
        <ele>244.294409</ele>
        <time>2019-06-07T07:09:07.000Z</time>
      </trkpt>
      <trkpt lat="50.287190" lon="26.835302">
        <ele>244.468157</ele>
        <time>2019-06-07T07:09:10.000Z</time>
      </trkpt>
      <trkpt lat="50.287250" lon="26.835466">
        <ele>244.636251</ele>
        <time>2019-06-07T07:09:13.000Z</time>
      </trkpt>
      <trkpt lat="50.287315" lon="26.835611">
        <ele>244.793802</ele>
        <time>2019-06-07T07:09:16.000Z</time>
      </trkpt>
      <trkpt lat="50.287360" lon="26.835750">
        <ele>244.932404</ele>
        <time>2019-06-07T07:09:19.000Z</time>
      </trkpt>
      <trkpt lat="50.287420" lon="26.835876">
        <ele>245.072179</ele>
        <time>2019-06-07T07:09:22.000Z</time>
      </trkpt>
      <trkpt lat="50.287468" lon="26.836000">
        <ele>245.201136</ele>
        <time>2019-06-07T07:09:25.000Z</time>
      </trkpt>
      <trkpt lat="50.287506" lon="26.836143">
        <ele>245.338892</ele>
        <time>2019-06-07T07:09:28.000Z</time>
      </trkpt>
      <trkpt lat="50.287544" lon="26.836294">
        <ele>245.483245</ele>
        <time>2019-06-07T07:09:31.000Z</time>
      </trkpt>
      <trkpt lat="50.287563" lon="26.836445">
        <ele>245.625714</ele>
        <time>2019-06-07T07:09:34.000Z</time>
      </trkpt>
      <trkpt lat="50.287563" lon="26.836597">
        <ele>245.783544</ele>
        <time>2019-06-07T07:09:37.000Z</time>
      </trkpt>
      <trkpt lat="50.287567" lon="26.836746">
        <ele>245.938395</ele>
        <time>2019-06-07T07:09:41.000Z</time>
      </trkpt>
      <trkpt lat="50.287570" lon="26.836891">
        <ele>246.089036</ele>
        <time>2019-06-07T07:09:45.000Z</time>
      </trkpt>
      <trkpt lat="50.287575" lon="26.837059">
        <ele>246.263668</ele>
        <time>2019-06-07T07:09:49.000Z</time>
      </trkpt>
      <trkpt lat="50.287580" lon="26.837220">
        <ele>246.431040</ele>
        <time>2019-06-07T07:09:53.000Z</time>
      </trkpt>
      <trkpt lat="50.287582" lon="26.837364">
        <ele>246.580598</ele>
        <time>2019-06-07T07:09:56.000Z</time>
      </trkpt>
      <trkpt lat="50.287590" lon="26.837524">
        <ele>246.747243</ele>
        <time>2019-06-07T07:09:59.000Z</time>
      </trkpt>
      <trkpt lat="50.287594" lon="26.837694">
        <ele>246.923883</ele>
        <time>2019-06-07T07:10:02.000Z</time>
      </trkpt>
      <trkpt lat="50.287600" lon="26.837856">
        <ele>247.092378</ele>
        <time>2019-06-07T07:10:05.000Z</time>
      </trkpt>
      <trkpt lat="50.287610" lon="26.838026">
        <ele>247.269645</ele>
        <time>2019-06-07T07:10:08.000Z</time>
      </trkpt>
      <trkpt lat="50.287613" lon="26.838188">
        <ele>247.437928</ele>
        <time>2019-06-07T07:10:11.000Z</time>
      </trkpt>
      <trkpt lat="50.287620" lon="26.838348">
        <ele>247.604454</ele>
        <time>2019-06-07T07:10:14.000Z</time>
      </trkpt>
      <trkpt lat="50.287630" lon="26.838491">
        <ele>247.753825</ele>
        <time>2019-06-07T07:10:17.000Z</time>
      </trkpt>
      <trkpt lat="50.287636" lon="26.838676">
        <ele>247.946167</ele>
        <time>2019-06-07T07:10:21.000Z</time>
      </trkpt>
      <trkpt lat="50.287647" lon="26.838818">
        <ele>248.094693</ele>
        <time>2019-06-07T07:10:24.000Z</time>
      </trkpt>
      <trkpt lat="50.287650" lon="26.838960">
        <ele>248.242219</ele>
        <time>2019-06-07T07:10:27.000Z</time>
      </trkpt>
      <trkpt lat="50.287660" lon="26.839102">
        <ele>248.390558</ele>
        <time>2019-06-07T07:10:30.000Z</time>
      </trkpt>
      <trkpt lat="50.287666" lon="26.839289">
        <ele>248.580288</ele>
        <time>2019-06-07T07:10:34.000Z</time>
      </trkpt>
      <trkpt lat="50.287674" lon="26.839441">
        <ele>248.728776</ele>
        <time>2019-06-07T07:10:37.000Z</time>
      </trkpt>
      <trkpt lat="50.287674" lon="26.839590">
        <ele>248.873842</ele>
        <time>2019-06-07T07:10:40.000Z</time>
      </trkpt>
      <trkpt lat="50.287670" lon="26.839748">
        <ele>249.027792</ele>
        <time>2019-06-07T07:10:43.000Z</time>
      </trkpt>
      <trkpt lat="50.287660" lon="26.839918">
        <ele>249.194003</ele>
        <time>2019-06-07T07:10:46.000Z</time>
      </trkpt>
      <trkpt lat="50.287643" lon="26.840073">
        <ele>249.347118</ele>
        <time>2019-06-07T07:10:49.000Z</time>
      </trkpt>
      <trkpt lat="50.287620" lon="26.840220">
        <ele>249.494466</ele>
        <time>2019-06-07T07:10:53.000Z</time>
      </trkpt>
      <trkpt lat="50.287586" lon="26.840355">
        <ele>249.635744</ele>
        <time>2019-06-07T07:11:57.000Z</time>
      </trkpt>
      <trkpt lat="50.287570" lon="26.840520">
        <ele>249.798227</ele>
        <time>2019-06-07T07:12:02.000Z</time>
      </trkpt>
      <trkpt lat="50.287556" lon="26.840681">
        <ele>249.956422</ele>
        <time>2019-06-07T07:12:07.000Z</time>
      </trkpt>
      <trkpt lat="50.287537" lon="26.840837">
        <ele>250.111038</ele>
        <time>2019-06-07T07:12:12.000Z</time>
      </trkpt>
      <trkpt lat="50.287514" lon="26.841011">
        <ele>250.284032</ele>
        <time>2019-06-07T07:12:17.000Z</time>
      </trkpt>
      <trkpt lat="50.287495" lon="26.841183">
        <ele>250.453976</ele>
        <time>2019-06-07T07:12:21.000Z</time>
      </trkpt>
      <trkpt lat="50.287483" lon="26.841340">
        <ele>250.607921</ele>
        <time>2019-06-07T07:12:24.000Z</time>
      </trkpt>
      <trkpt lat="50.287468" lon="26.841482">
        <ele>250.748049</ele>
        <time>2019-06-07T07:12:27.000Z</time>
      </trkpt>
      <trkpt lat="50.287453" lon="26.841670">
        <ele>250.932508</ele>
        <time>2019-06-07T07:12:31.000Z</time>
      </trkpt>
      <trkpt lat="50.287440" lon="26.841812">
        <ele>251.072171</ele>
        <time>2019-06-07T07:12:34.000Z</time>
      </trkpt>
      <trkpt lat="50.287422" lon="26.842000">
        <ele>251.254960</ele>
        <time>2019-06-07T07:12:38.000Z</time>
      </trkpt>
      <trkpt lat="50.287400" lon="26.842192">
        <ele>251.379671</ele>
        <time>2019-06-07T07:12:42.000Z</time>
      </trkpt>
      <trkpt lat="50.287384" lon="26.842333">
        <ele>251.471228</ele>
        <time>2019-06-07T07:12:45.000Z</time>
      </trkpt>
      <trkpt lat="50.287365" lon="26.842476">
        <ele>251.564609</ele>
        <time>2019-06-07T07:12:48.000Z</time>
      </trkpt>
      <trkpt lat="50.287350" lon="26.842632">
        <ele>251.665469</ele>
        <time>2019-06-07T07:12:51.000Z</time>
      </trkpt>
      <trkpt lat="50.287365" lon="26.842790">
        <ele>251.767593</ele>
        <time>2019-06-07T07:12:54.000Z</time>
      </trkpt>
      <trkpt lat="50.287390" lon="26.842926">
        <ele>251.858070</ele>
        <time>2019-06-07T07:12:57.000Z</time>
      </trkpt>
      <trkpt lat="50.287445" lon="26.843092">
        <ele>251.977621</ele>
        <time>2019-06-07T07:13:01.000Z</time>
      </trkpt>
      <trkpt lat="50.287506" lon="26.843252">
        <ele>252.096742</ele>
        <time>2019-06-07T07:13:05.000Z</time>
      </trkpt>
      <trkpt lat="50.287556" lon="26.843376">
        <ele>252.190486</ele>
        <time>2019-06-07T07:13:08.000Z</time>
      </trkpt>
      <trkpt lat="50.287610" lon="26.843500">
        <ele>252.286427</ele>
        <time>2019-06-07T07:13:11.000Z</time>
      </trkpt>
      <trkpt lat="50.287663" lon="26.843649">
        <ele>252.395455</ele>
        <time>2019-06-07T07:13:15.000Z</time>
      </trkpt>
      <trkpt lat="50.287716" lon="26.843765">
        <ele>252.486629</ele>
        <time>2019-06-07T07:13:21.000Z</time>
      </trkpt>
      <trkpt lat="50.287780" lon="26.843874">
        <ele>252.581272</ele>
        <time>2019-06-07T07:13:28.000Z</time>
      </trkpt>
      <trkpt lat="50.287834" lon="26.844010">
        <ele>252.683643</ele>
        <time>2019-06-07T07:13:46.000Z</time>
      </trkpt>
      <trkpt lat="50.287884" lon="26.844128">
        <ele>252.774167</ele>
        <time>2019-06-07T07:13:51.000Z</time>
      </trkpt>
      <trkpt lat="50.287950" lon="26.844269">
        <ele>252.885915</ele>
        <time>2019-06-07T07:13:55.000Z</time>
      </trkpt>
      <trkpt lat="50.288010" lon="26.844378">
        <ele>252.977898</ele>
        <time>2019-06-07T07:13:58.000Z</time>
      </trkpt>
      <trkpt lat="50.288067" lon="26.844511">
        <ele>253.080878</ele>
        <time>2019-06-07T07:14:02.000Z</time>
      </trkpt>
      <trkpt lat="50.288113" lon="26.844633">
        <ele>253.173235</ele>
        <time>2019-06-07T07:14:06.000Z</time>
      </trkpt>
      <trkpt lat="50.288162" lon="26.844765">
        <ele>253.272765</ele>
        <time>2019-06-07T07:14:09.000Z</time>
      </trkpt>
      <trkpt lat="50.288197" lon="26.844933">
        <ele>253.387970</ele>
        <time>2019-06-07T07:14:12.000Z</time>
      </trkpt>
      <trkpt lat="50.288210" lon="26.845116">
        <ele>253.508015</ele>
        <time>2019-06-07T07:14:15.000Z</time>
      </trkpt>
      <trkpt lat="50.288170" lon="26.845263">
        <ele>253.612183</ele>
        <time>2019-06-07T07:14:18.000Z</time>
      </trkpt>
      <trkpt lat="50.288116" lon="26.845385">
        <ele>253.708945</ele>
        <time>2019-06-07T07:14:21.000Z</time>
      </trkpt>
      <trkpt lat="50.288080" lon="26.845524">
        <ele>253.806730</ele>
        <time>2019-06-07T07:14:24.000Z</time>
      </trkpt>
      <trkpt lat="50.288036" lon="26.845694">
        <ele>253.926313</ele>
        <time>2019-06-07T07:14:28.000Z</time>
      </trkpt>
      <trkpt lat="50.287987" lon="26.845818">
        <ele>254.021369</ele>
        <time>2019-06-07T07:14:31.000Z</time>
      </trkpt>
      <trkpt lat="50.287937" lon="26.845940">
        <ele>254.115866</ele>
        <time>2019-06-07T07:14:34.000Z</time>
      </trkpt>
      <trkpt lat="50.287888" lon="26.846062">
        <ele>254.209817</ele>
        <time>2019-06-07T07:14:37.000Z</time>
      </trkpt>
      <trkpt lat="50.287834" lon="26.846186">
        <ele>254.307653</ele>
        <time>2019-06-07T07:14:40.000Z</time>
      </trkpt>
      <trkpt lat="50.287785" lon="26.846321">
        <ele>254.408880</ele>
        <time>2019-06-07T07:14:43.000Z</time>
      </trkpt>
      <trkpt lat="50.287740" lon="26.846455">
        <ele>254.507576</ele>
        <time>2019-06-07T07:14:46.000Z</time>
      </trkpt>
      <trkpt lat="50.287693" lon="26.846590">
        <ele>254.607810</ele>
        <time>2019-06-07T07:14:49.000Z</time>
      </trkpt>
      <trkpt lat="50.287636" lon="26.846730">
        <ele>254.716043</ele>
        <time>2019-06-07T07:14:52.000Z</time>
      </trkpt>
      <trkpt lat="50.287586" lon="26.846870">
        <ele>254.820610</ele>
        <time>2019-06-07T07:14:55.000Z</time>
      </trkpt>
      <trkpt lat="50.287530" lon="26.847015">
        <ele>254.889873</ele>
        <time>2019-06-07T07:14:58.000Z</time>
      </trkpt>
      <trkpt lat="50.287480" lon="26.847155">
        <ele>254.899504</ele>
        <time>2019-06-07T07:15:01.000Z</time>
      </trkpt>
      <trkpt lat="50.287430" lon="26.847286">
        <ele>254.908667</ele>
        <time>2019-06-07T07:15:04.000Z</time>
      </trkpt>
      <trkpt lat="50.287384" lon="26.847414">
        <ele>254.917486</ele>
        <time>2019-06-07T07:15:07.000Z</time>
      </trkpt>
      <trkpt lat="50.287340" lon="26.847546">
        <ele>254.926426</ele>
        <time>2019-06-07T07:15:10.000Z</time>
      </trkpt>
      <trkpt lat="50.287292" lon="26.847685">
        <ele>254.935914</ele>
        <time>2019-06-07T07:15:13.000Z</time>
      </trkpt>
      <trkpt lat="50.287240" lon="26.847826">
        <ele>254.945690</ele>
        <time>2019-06-07T07:15:16.000Z</time>
      </trkpt>
      <trkpt lat="50.287193" lon="26.847970">
        <ele>254.955400</ele>
        <time>2019-06-07T07:15:19.000Z</time>
      </trkpt>
      <trkpt lat="50.287144" lon="26.848120">
        <ele>254.965517</ele>
        <time>2019-06-07T07:15:22.000Z</time>
      </trkpt>
      <trkpt lat="50.287098" lon="26.848259">
        <ele>254.974917</ele>
        <time>2019-06-07T07:15:25.000Z</time>
      </trkpt>
      <trkpt lat="50.287045" lon="26.848408">
        <ele>254.985157</ele>
        <time>2019-06-07T07:15:28.000Z</time>
      </trkpt>
      <trkpt lat="50.287000" lon="26.848550">
        <ele>254.994676</ele>
        <time>2019-06-07T07:15:31.000Z</time>
      </trkpt>
      <trkpt lat="50.286953" lon="26.848692">
        <ele>255.004279</ele>
        <time>2019-06-07T07:15:34.000Z</time>
      </trkpt>
      <trkpt lat="50.286900" lon="26.848839">
        <ele>255.014415</ele>
        <time>2019-06-07T07:15:37.000Z</time>
      </trkpt>
      <trkpt lat="50.286850" lon="26.848997">
        <ele>255.025003</ele>
        <time>2019-06-07T07:15:40.000Z</time>
      </trkpt>
      <trkpt lat="50.286800" lon="26.849161">
        <ele>255.035915</ele>
        <time>2019-06-07T07:15:43.000Z</time>
      </trkpt>
      <trkpt lat="50.286755" lon="26.849312">
        <ele>255.045920</ele>
        <time>2019-06-07T07:15:46.000Z</time>
      </trkpt>
      <trkpt lat="50.286705" lon="26.849466">
        <ele>255.048307</ele>
        <time>2019-06-07T07:15:49.000Z</time>
      </trkpt>
      <trkpt lat="50.286648" lon="26.849619">
        <ele>255.004412</ele>
        <time>2019-06-07T07:15:52.000Z</time>
      </trkpt>
      <trkpt lat="50.286594" lon="26.849764">
        <ele>254.962815</ele>
        <time>2019-06-07T07:15:55.000Z</time>
      </trkpt>
      <trkpt lat="50.286540" lon="26.849907">
        <ele>254.921647</ele>
        <time>2019-06-07T07:15:58.000Z</time>
      </trkpt>
      <trkpt lat="50.286488" lon="26.850044">
        <ele>254.882153</ele>
        <time>2019-06-07T07:16:01.000Z</time>
      </trkpt>
      <trkpt lat="50.286465" lon="26.850182">
        <ele>254.846805</ele>
        <time>2019-06-07T07:16:04.000Z</time>
      </trkpt>
      <trkpt lat="50.286530" lon="26.850332">
        <ele>254.801885</ele>
        <time>2019-06-07T07:16:08.000Z</time>
      </trkpt>
      <trkpt lat="50.286613" lon="26.850430">
        <ele>254.761556</ele>
        <time>2019-06-07T07:16:12.000Z</time>
      </trkpt>
      <trkpt lat="50.286686" lon="26.850520">
        <ele>254.725509</ele>
        <time>2019-06-07T07:16:15.000Z</time>
      </trkpt>
      <trkpt lat="50.286766" lon="26.850603">
        <ele>254.688278</ele>
        <time>2019-06-07T07:16:18.000Z</time>
      </trkpt>
      <trkpt lat="50.286873" lon="26.850676">
        <ele>254.643001</ele>
        <time>2019-06-07T07:16:22.000Z</time>
      </trkpt>
      <trkpt lat="50.286960" lon="26.850733">
        <ele>254.606417</ele>
        <time>2019-06-07T07:16:25.000Z</time>
      </trkpt>
      <trkpt lat="50.287056" lon="26.850807">
        <ele>254.564907</ele>
        <time>2019-06-07T07:16:28.000Z</time>
      </trkpt>
      <trkpt lat="50.287144" lon="26.850918">
        <ele>254.521066</ele>
        <time>2019-06-07T07:16:31.000Z</time>
      </trkpt>
      <trkpt lat="50.287230" lon="26.851006">
        <ele>254.481210</ele>
        <time>2019-06-07T07:16:34.000Z</time>
      </trkpt>
      <trkpt lat="50.287323" lon="26.851093">
        <ele>254.439183</ele>
        <time>2019-06-07T07:16:37.000Z</time>
      </trkpt>
      <trkpt lat="50.287420" lon="26.851170">
        <ele>254.396994</ele>
        <time>2019-06-07T07:16:40.000Z</time>
      </trkpt>
      <trkpt lat="50.287518" lon="26.851252">
        <ele>254.356773</ele>
        <time>2019-06-07T07:16:43.000Z</time>
      </trkpt>
      <trkpt lat="50.287600" lon="26.851337">
        <ele>254.353427</ele>
        <time>2019-06-07T07:16:46.000Z</time>
      </trkpt>
      <trkpt lat="50.287680" lon="26.851421">
        <ele>254.350149</ele>
        <time>2019-06-07T07:16:49.000Z</time>
      </trkpt>
      <trkpt lat="50.287766" lon="26.851505">
        <ele>254.346701</ele>
        <time>2019-06-07T07:16:52.000Z</time>
      </trkpt>
      <trkpt lat="50.287850" lon="26.851587">
        <ele>254.343332</ele>
        <time>2019-06-07T07:16:55.000Z</time>
      </trkpt>
      <trkpt lat="50.287940" lon="26.851675">
        <ele>254.339722</ele>
        <time>2019-06-07T07:16:58.000Z</time>
      </trkpt>
      <trkpt lat="50.288036" lon="26.851753">
        <ele>254.336042</ele>
        <time>2019-06-07T07:17:01.000Z</time>
      </trkpt>
      <trkpt lat="50.288136" lon="26.851841">
        <ele>254.332139</ele>
        <time>2019-06-07T07:17:04.000Z</time>
      </trkpt>
      <trkpt lat="50.288242" lon="26.851927">
        <ele>254.328077</ele>
        <time>2019-06-07T07:17:07.000Z</time>
      </trkpt>
      <trkpt lat="50.288338" lon="26.852013">
        <ele>254.324314</ele>
        <time>2019-06-07T07:17:10.000Z</time>
      </trkpt>
      <trkpt lat="50.288440" lon="26.852098">
        <ele>254.320382</ele>
        <time>2019-06-07T07:17:13.000Z</time>
      </trkpt>
      <trkpt lat="50.288550" lon="26.852196">
        <ele>254.316076</ele>
        <time>2019-06-07T07:17:16.000Z</time>
      </trkpt>
      <trkpt lat="50.288650" lon="26.852274">
        <ele>254.312275</ele>
        <time>2019-06-07T07:17:19.000Z</time>
      </trkpt>
      <trkpt lat="50.288720" lon="26.852398">
        <ele>254.308678</ele>
        <time>2019-06-07T07:17:22.000Z</time>
      </trkpt>
      <trkpt lat="50.288696" lon="26.852554">
        <ele>254.305190</ele>
        <time>2019-06-07T07:17:25.000Z</time>
      </trkpt>
      <trkpt lat="50.288647" lon="26.852707">
        <ele>254.301470</ele>
        <time>2019-06-07T07:17:28.000Z</time>
      </trkpt>
      <trkpt lat="50.288597" lon="26.852848">
        <ele>254.297965</ele>
        <time>2019-06-07T07:17:31.000Z</time>
      </trkpt>
      <trkpt lat="50.288540" lon="26.853003">
        <ele>254.299537</ele>
        <time>2019-06-07T07:17:34.000Z</time>
      </trkpt>
      <trkpt lat="50.288483" lon="26.853150">
        <ele>254.307262</ele>
        <time>2019-06-07T07:17:37.000Z</time>
      </trkpt>
      <trkpt lat="50.288425" lon="26.853308">
        <ele>254.315448</ele>
        <time>2019-06-07T07:17:40.000Z</time>
      </trkpt>
      <trkpt lat="50.288380" lon="26.853464">
        <ele>254.323137</ele>
        <time>2019-06-07T07:17:43.000Z</time>
      </trkpt>
      <trkpt lat="50.288320" lon="26.853626">
        <ele>254.331549</ele>
        <time>2019-06-07T07:17:46.000Z</time>
      </trkpt>
      <trkpt lat="50.288250" lon="26.853802">
        <ele>254.340862</ele>
        <time>2019-06-07T07:17:49.000Z</time>
      </trkpt>
      <trkpt lat="50.288177" lon="26.853973">
        <ele>254.350101</ele>
        <time>2019-06-07T07:17:52.000Z</time>
      </trkpt>
      <trkpt lat="50.288116" lon="26.854143">
        <ele>254.358860</ele>
        <time>2019-06-07T07:17:55.000Z</time>
      </trkpt>
      <trkpt lat="50.288050" lon="26.854313">
        <ele>254.367796</ele>
        <time>2019-06-07T07:17:58.000Z</time>
      </trkpt>
      <trkpt lat="50.287983" lon="26.854473">
        <ele>254.376390</ele>
        <time>2019-06-07T07:18:01.000Z</time>
      </trkpt>
      <trkpt lat="50.287930" lon="26.854618">
        <ele>254.383895</ele>
        <time>2019-06-07T07:18:04.000Z</time>
      </trkpt>
      <trkpt lat="50.287880" lon="26.854744">
        <ele>254.390558</ele>
        <time>2019-06-07T07:18:07.000Z</time>
      </trkpt>
      <trkpt lat="50.287823" lon="26.854893">
        <ele>254.398360</ele>
        <time>2019-06-07T07:18:11.000Z</time>
      </trkpt>
      <trkpt lat="50.287830" lon="26.855064">
        <ele>254.406058</ele>
        <time>2019-06-07T07:18:16.000Z</time>
      </trkpt>
      <trkpt lat="50.287880" lon="26.855211">
        <ele>254.413539</ele>
        <time>2019-06-07T07:18:20.000Z</time>
      </trkpt>
      <trkpt lat="50.287952" lon="26.855305">
        <ele>254.420131</ele>
        <time>2019-06-07T07:18:23.000Z</time>
      </trkpt>
      <trkpt lat="50.288050" lon="26.855408">
        <ele>254.443800</ele>
        <time>2019-06-07T07:18:26.000Z</time>
      </trkpt>
      <trkpt lat="50.288130" lon="26.855482">
        <ele>254.466771</ele>
        <time>2019-06-07T07:18:28.000Z</time>
      </trkpt>
      <trkpt lat="50.288235" lon="26.855608">
        <ele>254.499477</ele>
        <time>2019-06-07T07:18:31.000Z</time>
      </trkpt>
      <trkpt lat="50.288340" lon="26.855713">
        <ele>254.530277</ele>
        <time>2019-06-07T07:18:34.000Z</time>
      </trkpt>
      <trkpt lat="50.288450" lon="26.855810">
        <ele>254.561487</ele>
        <time>2019-06-07T07:18:37.000Z</time>
      </trkpt>
      <trkpt lat="50.288548" lon="26.855930">
        <ele>254.592245</ele>
        <time>2019-06-07T07:18:40.000Z</time>
      </trkpt>
      <trkpt lat="50.288624" lon="26.856009">
        <ele>254.614797</ele>
        <time>2019-06-07T07:18:42.000Z</time>
      </trkpt>
      <trkpt lat="50.288704" lon="26.856090">
        <ele>254.638350</ele>
        <time>2019-06-07T07:18:44.000Z</time>
      </trkpt>
      <trkpt lat="50.288803" lon="26.856218">
        <ele>254.670092</ele>
        <time>2019-06-07T07:18:47.000Z</time>
      </trkpt>
      <trkpt lat="50.288902" lon="26.856340">
        <ele>254.701238</ele>
        <time>2019-06-07T07:18:50.000Z</time>
      </trkpt>
      <trkpt lat="50.288970" lon="26.856428">
        <ele>254.723049</ele>
        <time>2019-06-07T07:18:52.000Z</time>
      </trkpt>
      <trkpt lat="50.289078" lon="26.856544">
        <ele>254.755427</ele>
        <time>2019-06-07T07:18:55.000Z</time>
      </trkpt>
      <trkpt lat="50.289185" lon="26.856670">
        <ele>254.788527</ele>
        <time>2019-06-07T07:18:58.000Z</time>
      </trkpt>
      <trkpt lat="50.289260" lon="26.856756">
        <ele>254.811509</ele>
        <time>2019-06-07T07:19:00.000Z</time>
      </trkpt>
      <trkpt lat="50.289333" lon="26.856844">
        <ele>254.834286</ele>
        <time>2019-06-07T07:19:02.000Z</time>
      </trkpt>
      <trkpt lat="50.289410" lon="26.856930">
        <ele>254.857669</ele>
        <time>2019-06-07T07:19:04.000Z</time>
      </trkpt>
      <trkpt lat="50.289513" lon="26.857050">
        <ele>254.823010</ele>
        <time>2019-06-07T07:19:07.000Z</time>
      </trkpt>
      <trkpt lat="50.289610" lon="26.857162">
        <ele>254.764787</ele>
        <time>2019-06-07T07:19:10.000Z</time>
      </trkpt>
      <trkpt lat="50.289710" lon="26.857277">
        <ele>254.704848</ele>
        <time>2019-06-07T07:19:13.000Z</time>
      </trkpt>
      <trkpt lat="50.289814" lon="26.857393">
        <ele>254.643163</ele>
        <time>2019-06-07T07:19:16.000Z</time>
      </trkpt>
      <trkpt lat="50.289925" lon="26.857520">
        <ele>254.576750</ele>
        <time>2019-06-07T07:19:19.000Z</time>
      </trkpt>
      <trkpt lat="50.290024" lon="26.857630">
        <ele>254.518106</ele>
        <time>2019-06-07T07:19:22.000Z</time>
      </trkpt>
      <trkpt lat="50.290120" lon="26.857738">
        <ele>254.461001</ele>
        <time>2019-06-07T07:19:25.000Z</time>
      </trkpt>
      <trkpt lat="50.290230" lon="26.857859">
        <ele>254.396059</ele>
        <time>2019-06-07T07:19:28.000Z</time>
      </trkpt>
      <trkpt lat="50.290337" lon="26.857973">
        <ele>254.333538</ele>
        <time>2019-06-07T07:19:31.000Z</time>
      </trkpt>
      <trkpt lat="50.290432" lon="26.858076">
        <ele>254.277717</ele>
        <time>2019-06-07T07:19:34.000Z</time>
      </trkpt>
      <trkpt lat="50.290527" lon="26.858189">
        <ele>254.220083</ele>
        <time>2019-06-07T07:19:37.000Z</time>
      </trkpt>
      <trkpt lat="50.290615" lon="26.858315">
        <ele>254.162474</ele>
        <time>2019-06-07T07:19:40.000Z</time>
      </trkpt>
      <trkpt lat="50.290680" lon="26.858418">
        <ele>254.117797</ele>
        <time>2019-06-07T07:19:42.000Z</time>
      </trkpt>
      <trkpt lat="50.290745" lon="26.858519">
        <ele>254.073556</ele>
        <time>2019-06-07T07:19:44.000Z</time>
      </trkpt>
      <trkpt lat="50.290806" lon="26.858633">
        <ele>254.027667</ele>
        <time>2019-06-07T07:19:46.000Z</time>
      </trkpt>
      <trkpt lat="50.290870" lon="26.858744">
        <ele>254.009431</ele>
        <time>2019-06-07T07:19:48.000Z</time>
      </trkpt>
      <trkpt lat="50.290962" lon="26.858913">
        <ele>254.055973</ele>
        <time>2019-06-07T07:19:51.000Z</time>
      </trkpt>
      <trkpt lat="50.291046" lon="26.859070">
        <ele>254.098898</ele>
        <time>2019-06-07T07:19:54.000Z</time>
      </trkpt>
      <trkpt lat="50.291126" lon="26.859219">
        <ele>254.139696</ele>
        <time>2019-06-07T07:19:57.000Z</time>
      </trkpt>
      <trkpt lat="50.291200" lon="26.859373">
        <ele>254.180088</ele>
        <time>2019-06-07T07:20:00.000Z</time>
      </trkpt>
      <trkpt lat="50.291283" lon="26.859503">
        <ele>254.218613</ele>
        <time>2019-06-07T07:20:03.000Z</time>
      </trkpt>
      <trkpt lat="50.291370" lon="26.859640">
        <ele>254.259103</ele>
        <time>2019-06-07T07:20:06.000Z</time>
      </trkpt>
      <trkpt lat="50.291430" lon="26.859797">
        <ele>254.297451</ele>
        <time>2019-06-07T07:20:09.000Z</time>
      </trkpt>
      <trkpt lat="50.291492" lon="26.859920">
        <ele>254.330292</ele>
        <time>2019-06-07T07:20:12.000Z</time>
      </trkpt>
      <trkpt lat="50.291530" lon="26.860050">
        <ele>254.360259</ele>
        <time>2019-06-07T07:20:15.000Z</time>
      </trkpt>
      <trkpt lat="50.291470" lon="26.860186">
        <ele>254.394903</ele>
        <time>2019-06-07T07:20:18.000Z</time>
      </trkpt>
      <trkpt lat="50.291400" lon="26.860283">
        <ele>254.425577</ele>
        <time>2019-06-07T07:20:20.000Z</time>
      </trkpt>
      <trkpt lat="50.291298" lon="26.860380">
        <ele>254.464736</ele>
        <time>2019-06-07T07:20:23.000Z</time>
      </trkpt>
      <trkpt lat="50.291200" lon="26.860508">
        <ele>254.506613</ele>
        <time>2019-06-07T07:20:26.000Z</time>
      </trkpt>
      <trkpt lat="50.291103" lon="26.860634">
        <ele>254.547971</ele>
        <time>2019-06-07T07:20:29.000Z</time>
      </trkpt>
      <trkpt lat="50.291004" lon="26.860739">
        <ele>254.587207</ele>
        <time>2019-06-07T07:20:32.000Z</time>
      </trkpt>
      <trkpt lat="50.290905" lon="26.860842">
        <ele>254.627418</ele>
        <time>2019-06-07T07:20:35.000Z</time>
      </trkpt>
      <trkpt lat="50.290806" lon="26.860950">
        <ele>254.668273</ele>
        <time>2019-06-07T07:20:38.000Z</time>
      </trkpt>
      <trkpt lat="50.290710" lon="26.861067">
        <ele>254.709464</ele>
        <time>2019-06-07T07:20:41.000Z</time>
      </trkpt>
      <trkpt lat="50.290607" lon="26.861183">
        <ele>254.752424</ele>
        <time>2019-06-07T07:20:44.000Z</time>
      </trkpt>
      <trkpt lat="50.290497" lon="26.861298">
        <ele>254.797208</ele>
        <time>2019-06-07T07:20:47.000Z</time>
      </trkpt>
      <trkpt lat="50.290405" lon="26.861400">
        <ele>254.835377</ele>
        <time>2019-06-07T07:20:50.000Z</time>
      </trkpt>
      <trkpt lat="50.290330" lon="26.861510">
        <ele>254.870174</ele>
        <time>2019-06-07T07:20:53.000Z</time>
      </trkpt>
      <trkpt lat="50.290295" lon="26.861662">
        <ele>254.905122</ele>
        <time>2019-06-07T07:20:56.000Z</time>
      </trkpt>
      <trkpt lat="50.290375" lon="26.861862">
        <ele>254.956161</ele>
        <time>2019-06-07T07:21:00.000Z</time>
      </trkpt>
      <trkpt lat="50.290474" lon="26.861979">
        <ele>254.998159</ele>
        <time>2019-06-07T07:21:03.000Z</time>
      </trkpt>
      <trkpt lat="50.290554" lon="26.862108">
        <ele>255.037045</ele>
        <time>2019-06-07T07:21:06.000Z</time>
      </trkpt>
      <trkpt lat="50.290640" lon="26.862230">
        <ele>255.076340</ele>
        <time>2019-06-07T07:21:09.000Z</time>
      </trkpt>
      <trkpt lat="50.290726" lon="26.862358">
        <ele>255.116517</ele>
        <time>2019-06-07T07:21:12.000Z</time>
      </trkpt>
      <trkpt lat="50.290802" lon="26.862494">
        <ele>255.155599</ele>
        <time>2019-06-07T07:21:15.000Z</time>
      </trkpt>
      <trkpt lat="50.290890" lon="26.862625">
        <ele>255.196714</ele>
        <time>2019-06-07T07:21:18.000Z</time>
      </trkpt>
      <trkpt lat="50.290993" lon="26.862753">
        <ele>255.152245</ele>
        <time>2019-06-07T07:21:21.000Z</time>
      </trkpt>
      <trkpt lat="50.291060" lon="26.862846">
        <ele>255.121287</ele>
        <time>2019-06-07T07:21:23.000Z</time>
      </trkpt>
      <trkpt lat="50.291157" lon="26.862986">
        <ele>255.075672</ele>
        <time>2019-06-07T07:21:26.000Z</time>
      </trkpt>
      <trkpt lat="50.291256" lon="26.863123">
        <ele>255.029989</ele>
        <time>2019-06-07T07:21:29.000Z</time>
      </trkpt>
      <trkpt lat="50.291325" lon="26.863218">
        <ele>254.998220</ele>
        <time>2019-06-07T07:21:31.000Z</time>
      </trkpt>
      <trkpt lat="50.291424" lon="26.863365">
        <ele>254.951044</ele>
        <time>2019-06-07T07:21:34.000Z</time>
      </trkpt>
      <trkpt lat="50.291520" lon="26.863503">
        <ele>254.905984</ele>
        <time>2019-06-07T07:21:37.000Z</time>
      </trkpt>
      <trkpt lat="50.291610" lon="26.863636">
        <ele>254.863194</ele>
        <time>2019-06-07T07:21:40.000Z</time>
      </trkpt>
      <trkpt lat="50.291680" lon="26.863731">
        <ele>254.831164</ele>
        <time>2019-06-07T07:21:42.000Z</time>
      </trkpt>
      <trkpt lat="50.291775" lon="26.863863">
        <ele>254.787248</ele>
        <time>2019-06-07T07:21:45.000Z</time>
      </trkpt>
      <trkpt lat="50.291866" lon="26.863997">
        <ele>254.744055</ele>
        <time>2019-06-07T07:21:48.000Z</time>
      </trkpt>
      <trkpt lat="50.291954" lon="26.864126">
        <ele>254.702374</ele>
        <time>2019-06-07T07:21:51.000Z</time>
      </trkpt>
      <trkpt lat="50.292050" lon="26.864254">
        <ele>254.658777</ele>
        <time>2019-06-07T07:21:54.000Z</time>
      </trkpt>
      <trkpt lat="50.292175" lon="26.864447">
        <ele>254.598078</ele>
        <time>2019-06-07T07:21:58.000Z</time>
      </trkpt>
      <trkpt lat="50.292260" lon="26.864561">
        <ele>254.612330</ele>
        <time>2019-06-07T07:22:01.000Z</time>
      </trkpt>
      <trkpt lat="50.292336" lon="26.864683">
        <ele>254.699094</ele>
        <time>2019-06-07T07:22:04.000Z</time>
      </trkpt>
      <trkpt lat="50.292423" lon="26.864801">
        <ele>254.790844</ele>
        <time>2019-06-07T07:22:07.000Z</time>
      </trkpt>
      <trkpt lat="50.292500" lon="26.864914">
        <ele>254.874968</ele>
        <time>2019-06-07T07:22:10.000Z</time>
      </trkpt>
      <trkpt lat="50.292572" lon="26.865013">
        <ele>254.951349</ele>
        <time>2019-06-07T07:22:13.000Z</time>
      </trkpt>
      <trkpt lat="50.292640" lon="26.865112">
        <ele>255.025364</ele>
        <time>2019-06-07T07:22:17.000Z</time>
      </trkpt>
      <trkpt lat="50.292680" lon="26.865324">
        <ele>255.137920</ele>
        <time>2019-06-07T07:24:27.000Z</time>
      </trkpt>
      <trkpt lat="50.292630" lon="26.865480">
        <ele>255.226788</ele>
        <time>2019-06-07T07:24:32.000Z</time>
      </trkpt>
      <trkpt lat="50.292570" lon="26.865599">
        <ele>255.303978</ele>
        <time>2019-06-07T07:24:36.000Z</time>
      </trkpt>
      <trkpt lat="50.292515" lon="26.865736">
        <ele>255.386366</ele>
        <time>2019-06-07T07:24:40.000Z</time>
      </trkpt>
      <trkpt lat="50.292446" lon="26.865883">
        <ele>255.479246</ele>
        <time>2019-06-07T07:24:44.000Z</time>
      </trkpt>
      <trkpt lat="50.292393" lon="26.865995">
        <ele>255.550215</ele>
        <time>2019-06-07T07:24:47.000Z</time>
      </trkpt>
      <trkpt lat="50.292328" lon="26.866152">
        <ele>255.645476</ele>
        <time>2019-06-07T07:24:51.000Z</time>
      </trkpt>
      <trkpt lat="50.292263" lon="26.866299">
        <ele>255.736505</ele>
        <time>2019-06-07T07:24:55.000Z</time>
      </trkpt>
      <trkpt lat="50.292210" lon="26.866423">
        <ele>255.812471</ele>
        <time>2019-06-07T07:24:58.000Z</time>
      </trkpt>
      <trkpt lat="50.292150" lon="26.866562">
        <ele>255.897889</ele>
        <time>2019-06-07T07:25:01.000Z</time>
      </trkpt>
      <trkpt lat="50.292084" lon="26.866716">
        <ele>255.992313</ele>
        <time>2019-06-07T07:25:04.000Z</time>
      </trkpt>
      <trkpt lat="50.292020" lon="26.866856">
        <ele>256.039558</ele>
        <time>2019-06-07T07:25:07.000Z</time>
      </trkpt>
      <trkpt lat="50.291946" lon="26.867023">
        <ele>256.084174</ele>
        <time>2019-06-07T07:25:10.000Z</time>
      </trkpt>
      <trkpt lat="50.291874" lon="26.867197">
        <ele>256.129683</ele>
        <time>2019-06-07T07:25:13.000Z</time>
      </trkpt>
      <trkpt lat="50.291794" lon="26.867361">
        <ele>256.174980</ele>
        <time>2019-06-07T07:25:16.000Z</time>
      </trkpt>
      <trkpt lat="50.291737" lon="26.867476">
        <ele>256.206932</ele>
        <time>2019-06-07T07:25:18.000Z</time>
      </trkpt>
      <trkpt lat="50.291660" lon="26.867645">
        <ele>256.252500</ele>
        <time>2019-06-07T07:25:21.000Z</time>
      </trkpt>
      <trkpt lat="50.291615" lon="26.867767">
        <ele>256.283426</ele>
        <time>2019-06-07T07:25:23.000Z</time>
      </trkpt>
      <trkpt lat="50.291580" lon="26.867897">
        <ele>256.314395</ele>
        <time>2019-06-07T07:25:25.000Z</time>
      </trkpt>
      <trkpt lat="50.291540" lon="26.868030">
        <ele>256.346665</ele>
        <time>2019-06-07T07:25:27.000Z</time>
      </trkpt>
      <trkpt lat="50.291496" lon="26.868221">
        <ele>256.391238</ele>
        <time>2019-06-07T07:25:30.000Z</time>
      </trkpt>
      <trkpt lat="50.291470" lon="26.868404">
        <ele>256.432393</ele>
        <time>2019-06-07T07:25:33.000Z</time>
      </trkpt>
      <trkpt lat="50.291440" lon="26.868599">
        <ele>256.476424</ele>
        <time>2019-06-07T07:25:36.000Z</time>
      </trkpt>
      <trkpt lat="50.291416" lon="26.868814">
        <ele>256.524338</ele>
        <time>2019-06-07T07:25:39.000Z</time>
      </trkpt>
      <trkpt lat="50.291405" lon="26.868961">
        <ele>256.556829</ele>
        <time>2019-06-07T07:25:41.000Z</time>
      </trkpt>
      <trkpt lat="50.291386" lon="26.869106">
        <ele>256.589323</ele>
        <time>2019-06-07T07:25:43.000Z</time>
      </trkpt>
      <trkpt lat="50.291363" lon="26.869260">
        <ele>256.624042</ele>
        <time>2019-06-07T07:25:45.000Z</time>
      </trkpt>
      <trkpt lat="50.291332" lon="26.869415">
        <ele>256.620067</ele>
        <time>2019-06-07T07:25:47.000Z</time>
      </trkpt>
      <trkpt lat="50.291317" lon="26.869570">
        <ele>256.612811</ele>
        <time>2019-06-07T07:25:49.000Z</time>
      </trkpt>
      <trkpt lat="50.291294" lon="26.869720">
        <ele>256.605671</ele>
        <time>2019-06-07T07:25:51.000Z</time>
      </trkpt>
      <trkpt lat="50.291270" lon="26.869888">
        <ele>256.597703</ele>
        <time>2019-06-07T07:25:53.000Z</time>
      </trkpt>
      <trkpt lat="50.291252" lon="26.870049">
        <ele>256.590138</ele>
        <time>2019-06-07T07:25:55.000Z</time>
      </trkpt>
      <trkpt lat="50.291225" lon="26.870210">
        <ele>256.582434</ele>
        <time>2019-06-07T07:25:57.000Z</time>
      </trkpt>
      <trkpt lat="50.291200" lon="26.870373">
        <ele>256.574675</ele>
        <time>2019-06-07T07:25:59.000Z</time>
      </trkpt>
      <trkpt lat="50.291172" lon="26.870537">
        <ele>256.566818</ele>
        <time>2019-06-07T07:26:01.000Z</time>
      </trkpt>
      <trkpt lat="50.291150" lon="26.870700">
        <ele>256.559107</ele>
        <time>2019-06-07T07:26:03.000Z</time>
      </trkpt>
      <trkpt lat="50.291126" lon="26.870865">
        <ele>256.551274</ele>
        <time>2019-06-07T07:26:05.000Z</time>
      </trkpt>
      <trkpt lat="50.291107" lon="26.871023">
        <ele>256.543832</ele>
        <time>2019-06-07T07:26:07.000Z</time>
      </trkpt>
      <trkpt lat="50.291080" lon="26.871166">
        <ele>256.536931</ele>
        <time>2019-06-07T07:26:09.000Z</time>
      </trkpt>
      <trkpt lat="50.291054" lon="26.871313">
        <ele>256.529871</ele>
        <time>2019-06-07T07:26:11.000Z</time>
      </trkpt>
      <trkpt lat="50.291030" lon="26.871468">
        <ele>256.522489</ele>
        <time>2019-06-07T07:26:13.000Z</time>
      </trkpt>
      <trkpt lat="50.291004" lon="26.871630">
        <ele>256.514758</ele>
        <time>2019-06-07T07:26:15.000Z</time>
      </trkpt>
      <trkpt lat="50.290990" lon="26.871782">
        <ele>256.507649</ele>
        <time>2019-06-07T07:26:17.000Z</time>
      </trkpt>
      <trkpt lat="50.290970" lon="26.871940">
        <ele>256.500194</ele>
        <time>2019-06-07T07:26:19.000Z</time>
      </trkpt>
      <trkpt lat="50.290943" lon="26.872090">
        <ele>256.502333</ele>
        <time>2019-06-07T07:26:21.000Z</time>
      </trkpt>
      <trkpt lat="50.290920" lon="26.872246">
        <ele>256.513751</ele>
        <time>2019-06-07T07:26:23.000Z</time>
      </trkpt>
      <trkpt lat="50.290890" lon="26.872396">
        <ele>256.524961</ele>
        <time>2019-06-07T07:26:25.000Z</time>
      </trkpt>
      <trkpt lat="50.290863" lon="26.872557">
        <ele>256.536833</ele>
        <time>2019-06-07T07:26:27.000Z</time>
      </trkpt>
      <trkpt lat="50.290836" lon="26.872713">
        <ele>256.548360</ele>
        <time>2019-06-07T07:26:29.000Z</time>
      </trkpt>
      <trkpt lat="50.290820" lon="26.872862">
        <ele>256.559136</ele>
        <time>2019-06-07T07:26:31.000Z</time>
      </trkpt>
      <trkpt lat="50.290800" lon="26.873020">
        <ele>256.570624</ele>
        <time>2019-06-07T07:26:33.000Z</time>
      </trkpt>
      <trkpt lat="50.290783" lon="26.873182">
        <ele>256.582333</ele>
        <time>2019-06-07T07:26:35.000Z</time>
      </trkpt>
      <trkpt lat="50.290752" lon="26.873331">
        <ele>256.593509</ele>
        <time>2019-06-07T07:26:37.000Z</time>
      </trkpt>
      <trkpt lat="50.290730" lon="26.873474">
        <ele>256.603999</ele>
        <time>2019-06-07T07:26:39.000Z</time>
      </trkpt>
      <trkpt lat="50.290707" lon="26.873617">
        <ele>256.614517</ele>
        <time>2019-06-07T07:26:41.000Z</time>
      </trkpt>
      <trkpt lat="50.290676" lon="26.873774">
        <ele>256.626237</ele>
        <time>2019-06-07T07:26:44.000Z</time>
      </trkpt>
      <trkpt lat="50.290653" lon="26.873926">
        <ele>256.637377</ele>
        <time>2019-06-07T07:26:48.000Z</time>
      </trkpt>
      <trkpt lat="50.290627" lon="26.874077">
        <ele>256.648531</ele>
        <time>2019-06-07T07:26:51.000Z</time>
      </trkpt>
      <trkpt lat="50.290540" lon="26.874146">
        <ele>256.659419</ele>
        <time>2019-06-07T07:26:54.000Z</time>
      </trkpt>
      <trkpt lat="50.290432" lon="26.874160">
        <ele>256.671517</ele>
        <time>2019-06-07T07:26:57.000Z</time>
      </trkpt>
      <trkpt lat="50.290340" lon="26.874216">
        <ele>256.682536</ele>
        <time>2019-06-07T07:27:00.000Z</time>
      </trkpt>
      <trkpt lat="50.290250" lon="26.874321">
        <ele>256.695067</ele>
        <time>2019-06-07T07:27:04.000Z</time>
      </trkpt>
      <trkpt lat="50.290146" lon="26.874369">
        <ele>256.548029</ele>
        <time>2019-06-07T07:27:08.000Z</time>
      </trkpt>
      <trkpt lat="50.290050" lon="26.874374">
        <ele>256.383225</ele>
        <time>2019-06-07T07:27:14.000Z</time>
      </trkpt>
      <trkpt lat="50.289960" lon="26.874348">
        <ele>256.226198</ele>
        <time>2019-06-07T07:27:27.000Z</time>
      </trkpt>
      <trkpt lat="50.289864" lon="26.874357">
        <ele>256.061189</ele>
        <time>2019-06-07T07:34:56.000Z</time>
      </trkpt>
      <trkpt lat="50.289787" lon="26.874443">
        <ele>255.898888</ele>
        <time>2019-06-07T07:35:07.000Z</time>
      </trkpt>
      <trkpt lat="50.289783" lon="26.874596">
        <ele>255.731027</ele>
        <time>2019-06-07T07:35:40.000Z</time>
      </trkpt>
      <trkpt lat="50.289770" lon="26.874739">
        <ele>255.572690</ele>
        <time>2019-06-07T07:35:51.000Z</time>
      </trkpt>
      <trkpt lat="50.289703" lon="26.874838">
        <ele>255.414600</ele>
        <time>2019-06-07T08:16:18.000Z</time>
      </trkpt>
      <trkpt lat="50.289734" lon="26.874975">
        <ele>255.255278</ele>
        <time>2019-06-07T08:51:52.000Z</time>
      </trkpt>
      <trkpt lat="50.289715" lon="26.875143">
        <ele>255.068251</ele>
        <time>2019-06-07T08:51:57.000Z</time>
      </trkpt>
      <trkpt lat="50.289692" lon="26.875290">
        <ele>254.902346</ele>
        <time>2019-06-07T08:52:01.000Z</time>
      </trkpt>
      <trkpt lat="50.289670" lon="26.875443">
        <ele>254.730431</ele>
        <time>2019-06-07T08:52:05.000Z</time>
      </trkpt>
      <trkpt lat="50.289620" lon="26.875597">
        <ele>254.541066</ele>
        <time>2019-06-07T08:52:10.000Z</time>
      </trkpt>
      <trkpt lat="50.289608" lon="26.875746">
        <ele>254.376438</ele>
        <time>2019-06-07T08:52:15.000Z</time>
      </trkpt>
      <trkpt lat="50.289585" lon="26.875889">
        <ele>254.214788</ele>
        <time>2019-06-07T08:52:19.000Z</time>
      </trkpt>
      <trkpt lat="50.289560" lon="26.876053">
        <ele>254.029963</ele>
        <time>2019-06-07T08:52:23.000Z</time>
      </trkpt>
      <trkpt lat="50.289528" lon="26.876211">
        <ele>253.848266</ele>
        <time>2019-06-07T08:52:27.000Z</time>
      </trkpt>
      <trkpt lat="50.289500" lon="26.876371">
        <ele>253.666411</ele>
        <time>2019-06-07T08:52:31.000Z</time>
      </trkpt>
      <trkpt lat="50.289470" lon="26.876510">
        <ele>253.601677</ele>
        <time>2019-06-07T08:52:34.000Z</time>
      </trkpt>
      <trkpt lat="50.289460" lon="26.876663">
        <ele>253.586186</ele>
        <time>2019-06-07T08:52:37.000Z</time>
      </trkpt>
      <trkpt lat="50.289430" lon="26.876797">
        <ele>253.571885</ele>
        <time>2019-06-07T08:52:40.000Z</time>
      </trkpt>
      <trkpt lat="50.289430" lon="26.876648">
        <ele>253.556877</ele>
        <time>2019-06-07T08:52:55.000Z</time>
      </trkpt>
      <trkpt lat="50.289320" lon="26.876660">
        <ele>253.539493</ele>
        <time>2019-06-07T08:55:13.000Z</time>
      </trkpt>
      <trkpt lat="50.289220" lon="26.876688">
        <ele>253.523478</ele>
        <time>2019-06-07T08:55:17.000Z</time>
      </trkpt>
      <trkpt lat="50.289120" lon="26.876686">
        <ele>253.507712</ele>
        <time>2019-06-07T08:55:21.000Z</time>
      </trkpt>
      <trkpt lat="50.289032" lon="26.876648">
        <ele>253.493321</ele>
        <time>2019-06-07T08:55:24.000Z</time>
      </trkpt>
      <trkpt lat="50.288930" lon="26.876587">
        <ele>253.476107</ele>
        <time>2019-06-07T08:55:28.000Z</time>
      </trkpt>
      <trkpt lat="50.288826" lon="26.876541">
        <ele>253.459069</ele>
        <time>2019-06-07T08:55:31.000Z</time>
      </trkpt>
      <trkpt lat="50.288723" lon="26.876518">
        <ele>253.442667</ele>
        <time>2019-06-07T08:55:34.000Z</time>
      </trkpt>
      <trkpt lat="50.288605" lon="26.876484">
        <ele>253.423752</ele>
        <time>2019-06-07T08:55:37.000Z</time>
      </trkpt>
      <trkpt lat="50.288483" lon="26.876444">
        <ele>253.404101</ele>
        <time>2019-06-07T08:55:40.000Z</time>
      </trkpt>
      <trkpt lat="50.288380" lon="26.876404">
        <ele>253.387371</ele>
        <time>2019-06-07T08:55:43.000Z</time>
      </trkpt>
      <trkpt lat="50.288290" lon="26.876394">
        <ele>253.373147</ele>
        <time>2019-06-07T08:55:46.000Z</time>
      </trkpt>
      <trkpt lat="50.288193" lon="26.876345">
        <ele>253.357078</ele>
        <time>2019-06-07T08:55:49.000Z</time>
      </trkpt>
      <trkpt lat="50.288074" lon="26.876290">
        <ele>253.337517</ele>
        <time>2019-06-07T08:55:52.000Z</time>
      </trkpt>
      <trkpt lat="50.287983" lon="26.876253">
        <ele>253.300635</ele>
        <time>2019-06-07T08:55:54.000Z</time>
      </trkpt>
      <trkpt lat="50.287860" lon="26.876205">
        <ele>253.195081</ele>
        <time>2019-06-07T08:55:57.000Z</time>
      </trkpt>
      <trkpt lat="50.287773" lon="26.876171">
        <ele>253.120415</ele>
        <time>2019-06-07T08:55:59.000Z</time>
      </trkpt>
      <trkpt lat="50.287636" lon="26.876120">
        <ele>253.003157</ele>
        <time>2019-06-07T08:56:02.000Z</time>
      </trkpt>
      <trkpt lat="50.287544" lon="26.876064">
        <ele>252.920962</ele>
        <time>2019-06-07T08:56:04.000Z</time>
      </trkpt>
      <trkpt lat="50.287420" lon="26.876020">
        <ele>252.815090</ele>
        <time>2019-06-07T08:56:07.000Z</time>
      </trkpt>
      <trkpt lat="50.287292" lon="26.875961">
        <ele>252.703983</ele>
        <time>2019-06-07T08:56:10.000Z</time>
      </trkpt>
      <trkpt lat="50.287200" lon="26.875920">
        <ele>252.624332</ele>
        <time>2019-06-07T08:56:12.000Z</time>
      </trkpt>
      <trkpt lat="50.287106" lon="26.875877">
        <ele>252.542786</ele>
        <time>2019-06-07T08:56:14.000Z</time>
      </trkpt>
      <trkpt lat="50.287014" lon="26.875837">
        <ele>252.463280</ele>
        <time>2019-06-07T08:56:16.000Z</time>
      </trkpt>
      <trkpt lat="50.286922" lon="26.875790">
        <ele>252.382697</ele>
        <time>2019-06-07T08:56:18.000Z</time>
      </trkpt>
      <trkpt lat="50.286804" lon="26.875755">
        <ele>252.282693</ele>
        <time>2019-06-07T08:56:21.000Z</time>
      </trkpt>
      <trkpt lat="50.286686" lon="26.875723">
        <ele>252.182974</ele>
        <time>2019-06-07T08:56:25.000Z</time>
      </trkpt>
      <trkpt lat="50.286556" lon="26.875801">
        <ele>252.067045</ele>
        <time>2019-06-07T08:58:45.000Z</time>
      </trkpt>
      <trkpt lat="50.286510" lon="26.875677">
        <ele>251.990760</ele>
        <time>2019-06-07T08:58:49.000Z</time>
      </trkpt>
      <trkpt lat="50.286427" lon="26.875600">
        <ele>251.910419</ele>
        <time>2019-06-07T08:58:52.000Z</time>
      </trkpt>
      <trkpt lat="50.286324" lon="26.875551">
        <ele>251.824689</ele>
        <time>2019-06-07T08:58:55.000Z</time>
      </trkpt>
      <trkpt lat="50.286217" lon="26.875523">
        <ele>251.771954</ele>
        <time>2019-06-07T08:58:58.000Z</time>
      </trkpt>
      <trkpt lat="50.286114" lon="26.875480">
        <ele>251.720135</ele>
        <time>2019-06-07T08:59:01.000Z</time>
      </trkpt>
      <trkpt lat="50.286020" lon="26.875443">
        <ele>251.673019</ele>
        <time>2019-06-07T08:59:03.000Z</time>
      </trkpt>
      <trkpt lat="50.285900" lon="26.875391">
        <ele>251.612492</ele>
        <time>2019-06-07T08:59:06.000Z</time>
      </trkpt>
      <trkpt lat="50.285778" lon="26.875343">
        <ele>251.551343</ele>
        <time>2019-06-07T08:59:09.000Z</time>
      </trkpt>
      <trkpt lat="50.285656" lon="26.875296">
        <ele>251.490269</ele>
        <time>2019-06-07T08:59:12.000Z</time>
      </trkpt>
      <trkpt lat="50.285570" lon="26.875277">
        <ele>251.448050</ele>
        <time>2019-06-07T08:59:15.000Z</time>
      </trkpt>
      <trkpt lat="50.285454" lon="26.875235">
        <ele>251.390173</ele>
        <time>2019-06-07T08:59:19.000Z</time>
      </trkpt>
      <trkpt lat="50.285350" lon="26.875198">
        <ele>251.338329</ele>
        <time>2019-06-07T08:59:23.000Z</time>
      </trkpt>
      <trkpt lat="50.285248" lon="26.875156">
        <ele>251.287059</ele>
        <time>2019-06-07T08:59:27.000Z</time>
      </trkpt>
      <trkpt lat="50.285145" lon="26.875113">
        <ele>251.235240</ele>
        <time>2019-06-07T08:59:31.000Z</time>
      </trkpt>
      <trkpt lat="50.285034" lon="26.875065">
        <ele>251.179261</ele>
        <time>2019-06-07T08:59:35.000Z</time>
      </trkpt>
      <trkpt lat="50.284930" lon="26.875010">
        <ele>251.125899</ele>
        <time>2019-06-07T08:59:38.000Z</time>
      </trkpt>
      <trkpt lat="50.284840" lon="26.874960">
        <ele>251.079475</ele>
        <time>2019-06-07T08:59:41.000Z</time>
      </trkpt>
      <trkpt lat="50.284737" lon="26.874922">
        <ele>251.028035</ele>
        <time>2019-06-07T08:59:45.000Z</time>
      </trkpt>
      <trkpt lat="50.284630" lon="26.874887">
        <ele>250.974898</ele>
        <time>2019-06-07T08:59:49.000Z</time>
      </trkpt>
      <trkpt lat="50.284546" lon="26.874811">
        <ele>251.000070</ele>
        <time>2019-06-07T08:59:53.000Z</time>
      </trkpt>
      <trkpt lat="50.284508" lon="26.874666">
        <ele>251.076613</ele>
        <time>2019-06-07T08:59:58.000Z</time>
      </trkpt>
      <trkpt lat="50.284530" lon="26.874472">
        <ele>251.172843</ele>
        <time>2019-06-07T09:00:02.000Z</time>
      </trkpt>
      <trkpt lat="50.284557" lon="26.874292">
        <ele>251.263145</ele>
        <time>2019-06-07T09:00:05.000Z</time>
      </trkpt>
      <trkpt lat="50.284588" lon="26.874110">
        <ele>251.355138</ele>
        <time>2019-06-07T09:00:08.000Z</time>
      </trkpt>
      <trkpt lat="50.284607" lon="26.873936">
        <ele>251.441351</ele>
        <time>2019-06-07T09:00:11.000Z</time>
      </trkpt>
      <trkpt lat="50.284626" lon="26.873777">
        <ele>251.520353</ele>
        <time>2019-06-07T09:00:14.000Z</time>
      </trkpt>
      <trkpt lat="50.284645" lon="26.873610">
        <ele>251.603198</ele>
        <time>2019-06-07T09:00:17.000Z</time>
      </trkpt>
      <trkpt lat="50.284653" lon="26.873442">
        <ele>251.685476</ele>
        <time>2019-06-07T09:00:20.000Z</time>
      </trkpt>
      <trkpt lat="50.284650" lon="26.873251">
        <ele>251.778789</ele>
        <time>2019-06-07T09:00:23.000Z</time>
      </trkpt>
      <trkpt lat="50.284660" lon="26.873066">
        <ele>251.869465</ele>
        <time>2019-06-07T09:00:26.000Z</time>
      </trkpt>
      <trkpt lat="50.284668" lon="26.872898">
        <ele>251.951744</ele>
        <time>2019-06-07T09:00:29.000Z</time>
      </trkpt>
      <trkpt lat="50.284668" lon="26.872744">
        <ele>252.026957</ele>
        <time>2019-06-07T09:00:32.000Z</time>
      </trkpt>
      <trkpt lat="50.284645" lon="26.872591">
        <ele>252.103722</ele>
        <time>2019-06-07T09:00:36.000Z</time>
      </trkpt>
      <trkpt lat="50.284527" lon="26.872608">
        <ele>252.194296</ele>
        <time>2019-06-07T09:00:40.000Z</time>
      </trkpt>
      <trkpt lat="50.284443" lon="26.872704">
        <ele>252.273799</ele>
        <time>2019-06-07T09:00:43.000Z</time>
      </trkpt>
      <trkpt lat="50.284355" lon="26.872807">
        <ele>252.308342</ele>
        <time>2019-06-07T09:00:46.000Z</time>
      </trkpt>
      <trkpt lat="50.284275" lon="26.872887">
        <ele>252.248738</ele>
        <time>2019-06-07T09:00:49.000Z</time>
      </trkpt>
      <trkpt lat="50.284187" lon="26.872963">
        <ele>252.185636</ele>
        <time>2019-06-07T09:00:52.000Z</time>
      </trkpt>
      <trkpt lat="50.284120" lon="26.873050">
        <ele>252.130978</ele>
        <time>2019-06-07T09:00:55.000Z</time>
      </trkpt>
      <trkpt lat="50.284050" lon="26.873163">
        <ele>252.067840</ele>
        <time>2019-06-07T09:00:58.000Z</time>
      </trkpt>
      <trkpt lat="50.283943" lon="26.873280">
        <ele>251.985890</ele>
        <time>2019-06-07T09:01:01.000Z</time>
      </trkpt>
      <trkpt lat="50.283825" lon="26.873360">
        <ele>251.905154</ele>
        <time>2019-06-07T09:01:04.000Z</time>
      </trkpt>
      <trkpt lat="50.283740" lon="26.873423">
        <ele>251.846106</ele>
        <time>2019-06-07T09:01:06.000Z</time>
      </trkpt>
      <trkpt lat="50.283650" lon="26.873455">
        <ele>251.788162</ele>
        <time>2019-06-07T09:01:08.000Z</time>
      </trkpt>
      <trkpt lat="50.283520" lon="26.873487">
        <ele>251.705542</ele>
        <time>2019-06-07T09:01:11.000Z</time>
      </trkpt>
      <trkpt lat="50.283430" lon="26.873478">
        <ele>251.648922</ele>
        <time>2019-06-07T09:01:13.000Z</time>
      </trkpt>
      <trkpt lat="50.283337" lon="26.873459">
        <ele>251.590039</ele>
        <time>2019-06-07T09:01:15.000Z</time>
      </trkpt>
      <trkpt lat="50.283245" lon="26.873434">
        <ele>251.531415</ele>
        <time>2019-06-07T09:01:17.000Z</time>
      </trkpt>
      <trkpt lat="50.283127" lon="26.873384">
        <ele>251.454664</ele>
        <time>2019-06-07T09:01:20.000Z</time>
      </trkpt>
      <trkpt lat="50.283035" lon="26.873354">
        <ele>251.395664</ele>
        <time>2019-06-07T09:01:22.000Z</time>
      </trkpt>
      <trkpt lat="50.282944" lon="26.873306">
        <ele>251.335374</ele>
        <time>2019-06-07T09:01:24.000Z</time>
      </trkpt>
      <trkpt lat="50.282852" lon="26.873323">
        <ele>251.277213</ele>
        <time>2019-06-07T09:01:26.000Z</time>
      </trkpt>
      <trkpt lat="50.282772" lon="26.873396">
        <ele>251.219073</ele>
        <time>2019-06-07T09:01:28.000Z</time>
      </trkpt>
      <trkpt lat="50.282680" lon="26.873518">
        <ele>251.349512</ele>
        <time>2019-06-07T09:01:31.000Z</time>
      </trkpt>
      <trkpt lat="50.282597" lon="26.873580">
        <ele>251.496833</ele>
        <time>2019-06-07T09:01:33.000Z</time>
      </trkpt>
      <trkpt lat="50.282475" lon="26.873636">
        <ele>251.700488</ele>
        <time>2019-06-07T09:01:36.000Z</time>
      </trkpt>
      <trkpt lat="50.282387" lon="26.873684">
        <ele>251.849765</ele>
        <time>2019-06-07T09:01:38.000Z</time>
      </trkpt>
      <trkpt lat="50.282276" lon="26.873787">
        <ele>252.056475</ele>
        <time>2019-06-07T09:01:41.000Z</time>
      </trkpt>
      <trkpt lat="50.282196" lon="26.873865">
        <ele>252.207457</ele>
        <time>2019-06-07T09:01:43.000Z</time>
      </trkpt>
      <trkpt lat="50.282074" lon="26.873953">
        <ele>252.422639</ele>
        <time>2019-06-07T09:01:46.000Z</time>
      </trkpt>
      <trkpt lat="50.281950" lon="26.874008">
        <ele>252.629089</ele>
        <time>2019-06-07T09:01:49.000Z</time>
      </trkpt>
      <trkpt lat="50.281840" lon="26.874071">
        <ele>252.816719</ele>
        <time>2019-06-07T09:01:52.000Z</time>
      </trkpt>
      <trkpt lat="50.281742" lon="26.874166">
        <ele>253.001376</ele>
        <time>2019-06-07T09:01:55.000Z</time>
      </trkpt>
      <trkpt lat="50.281662" lon="26.874300">
        <ele>253.189084</ele>
        <time>2019-06-07T09:01:58.000Z</time>
      </trkpt>
      <trkpt lat="50.281580" lon="26.874440">
        <ele>253.383476</ele>
        <time>2019-06-07T09:02:01.000Z</time>
      </trkpt>
      <trkpt lat="50.281500" lon="26.874601">
        <ele>253.592233</ele>
        <time>2019-06-07T09:02:04.000Z</time>
      </trkpt>
      <trkpt lat="50.281440" lon="26.874710">
        <ele>253.739492</ele>
        <time>2019-06-07T09:02:06.000Z</time>
      </trkpt>
      <trkpt lat="50.281376" lon="26.874823">
        <ele>253.894051</ele>
        <time>2019-06-07T09:02:08.000Z</time>
      </trkpt>
      <trkpt lat="50.281315" lon="26.874935">
        <ele>254.044684</ele>
        <time>2019-06-07T09:02:10.000Z</time>
      </trkpt>
      <trkpt lat="50.281260" lon="26.875051">
        <ele>254.068497</ele>
        <time>2019-06-07T09:02:12.000Z</time>
      </trkpt>
      <trkpt lat="50.281193" lon="26.875160">
        <ele>254.048765</ele>
        <time>2019-06-07T09:02:14.000Z</time>
      </trkpt>
      <trkpt lat="50.281130" lon="26.875277">
        <ele>254.028804</ele>
        <time>2019-06-07T09:02:16.000Z</time>
      </trkpt>
      <trkpt lat="50.281067" lon="26.875385">
        <ele>254.009726</ele>
        <time>2019-06-07T09:02:18.000Z</time>
      </trkpt>
      <trkpt lat="50.281000" lon="26.875496">
        <ele>253.989806</ele>
        <time>2019-06-07T09:02:20.000Z</time>
      </trkpt>
      <trkpt lat="50.280940" lon="26.875618">
        <ele>253.969721</ele>
        <time>2019-06-07T09:02:22.000Z</time>
      </trkpt>
      <trkpt lat="50.280853" lon="26.875780">
        <ele>253.942112</ele>
        <time>2019-06-07T09:02:25.000Z</time>
      </trkpt>
      <trkpt lat="50.280777" lon="26.875895">
        <ele>253.920528</ele>
        <time>2019-06-07T09:02:27.000Z</time>
      </trkpt>
      <trkpt lat="50.280727" lon="26.876015">
        <ele>253.901838</ele>
        <time>2019-06-07T09:02:29.000Z</time>
      </trkpt>
      <trkpt lat="50.280666" lon="26.876135">
        <ele>253.881833</ele>
        <time>2019-06-07T09:02:31.000Z</time>
      </trkpt>
      <trkpt lat="50.280610" lon="26.876250">
        <ele>253.862970</ele>
        <time>2019-06-07T09:02:33.000Z</time>
      </trkpt>
      <trkpt lat="50.280544" lon="26.876368">
        <ele>253.842510</ele>
        <time>2019-06-07T09:02:35.000Z</time>
      </trkpt>
      <trkpt lat="50.280476" lon="26.876476">
        <ele>253.822730</ele>
        <time>2019-06-07T09:02:37.000Z</time>
      </trkpt>
      <trkpt lat="50.280410" lon="26.876602">
        <ele>253.801474</ele>
        <time>2019-06-07T09:02:39.000Z</time>
      </trkpt>
      <trkpt lat="50.280342" lon="26.876728">
        <ele>253.779957</ele>
        <time>2019-06-07T09:02:41.000Z</time>
      </trkpt>
      <trkpt lat="50.280270" lon="26.876840">
        <ele>253.759230</ele>
        <time>2019-06-07T09:02:43.000Z</time>
      </trkpt>
      <trkpt lat="50.280205" lon="26.876959">
        <ele>253.738805</ele>
        <time>2019-06-07T09:02:45.000Z</time>
      </trkpt>
      <trkpt lat="50.280136" lon="26.877083">
        <ele>253.717353</ele>
        <time>2019-06-07T09:02:47.000Z</time>
      </trkpt>
      <trkpt lat="50.280067" lon="26.877207">
        <ele>253.745669</ele>
        <time>2019-06-07T09:02:49.000Z</time>
      </trkpt>
      <trkpt lat="50.280003" lon="26.877329">
        <ele>253.777907</ele>
        <time>2019-06-07T09:02:51.000Z</time>
      </trkpt>
      <trkpt lat="50.279938" lon="26.877449">
        <ele>253.810036</ele>
        <time>2019-06-07T09:02:53.000Z</time>
      </trkpt>
      <trkpt lat="50.279877" lon="26.877571">
        <ele>253.841675</ele>
        <time>2019-06-07T09:02:55.000Z</time>
      </trkpt>
      <trkpt lat="50.279830" lon="26.877707">
        <ele>253.873254</ele>
        <time>2019-06-07T09:02:57.000Z</time>
      </trkpt>
      <trkpt lat="50.279762" lon="26.877830">
        <ele>253.906472</ele>
        <time>2019-06-07T09:02:59.000Z</time>
      </trkpt>
      <trkpt lat="50.279700" lon="26.877953">
        <ele>253.938469</ele>
        <time>2019-06-07T09:03:01.000Z</time>
      </trkpt>
      <trkpt lat="50.279630" lon="26.878063">
        <ele>253.970175</ele>
        <time>2019-06-07T09:03:03.000Z</time>
      </trkpt>
      <trkpt lat="50.279564" lon="26.878170">
        <ele>254.000549</ele>
        <time>2019-06-07T09:03:05.000Z</time>
      </trkpt>
      <trkpt lat="50.279490" lon="26.878273">
        <ele>254.032203</ele>
        <time>2019-06-07T09:03:07.000Z</time>
      </trkpt>
      <trkpt lat="50.279396" lon="26.878428">
        <ele>254.075847</ele>
        <time>2019-06-07T09:03:10.000Z</time>
      </trkpt>
      <trkpt lat="50.279340" lon="26.878550">
        <ele>254.106527</ele>
        <time>2019-06-07T09:03:12.000Z</time>
      </trkpt>
      <trkpt lat="50.279280" lon="26.878660">
        <ele>254.136066</ele>
        <time>2019-06-07T09:03:14.000Z</time>
      </trkpt>
      <trkpt lat="50.279224" lon="26.878773">
        <ele>254.165272</ele>
        <time>2019-06-07T09:03:16.000Z</time>
      </trkpt>
      <trkpt lat="50.279163" lon="26.878895">
        <ele>254.196911</ele>
        <time>2019-06-07T09:03:18.000Z</time>
      </trkpt>
      <trkpt lat="50.279106" lon="26.879017">
        <ele>254.227779</ele>
        <time>2019-06-07T09:03:20.000Z</time>
      </trkpt>
      <trkpt lat="50.279037" lon="26.879139">
        <ele>254.261054</ele>
        <time>2019-06-07T09:03:22.000Z</time>
      </trkpt>
      <trkpt lat="50.278970" lon="26.879260">
        <ele>254.297408</ele>
        <time>2019-06-07T09:03:24.000Z</time>
      </trkpt>
      <trkpt lat="50.278910" lon="26.879377">
        <ele>254.359253</ele>
        <time>2019-06-07T09:03:26.000Z</time>
      </trkpt>
      <trkpt lat="50.278850" lon="26.879503">
        <ele>254.424032</ele>
        <time>2019-06-07T09:03:28.000Z</time>
      </trkpt>
      <trkpt lat="50.278790" lon="26.879623">
        <ele>254.486846</ele>
        <time>2019-06-07T09:03:30.000Z</time>
      </trkpt>
      <trkpt lat="50.278720" lon="26.879744">
        <ele>254.554133</ele>
        <time>2019-06-07T09:03:32.000Z</time>
      </trkpt>
      <trkpt lat="50.278650" lon="26.879868">
        <ele>254.622342</ele>
        <time>2019-06-07T09:03:34.000Z</time>
      </trkpt>
      <trkpt lat="50.278557" lon="26.880043">
        <ele>254.716174</ele>
        <time>2019-06-07T09:03:37.000Z</time>
      </trkpt>
      <trkpt lat="50.278496" lon="26.880161">
        <ele>254.778744</ele>
        <time>2019-06-07T09:03:39.000Z</time>
      </trkpt>
      <trkpt lat="50.278430" lon="26.880285">
        <ele>254.845273</ele>
        <time>2019-06-07T09:03:41.000Z</time>
      </trkpt>
      <trkpt lat="50.278366" lon="26.880411">
        <ele>254.911627</ele>
        <time>2019-06-07T09:03:43.000Z</time>
      </trkpt>
      <trkpt lat="50.278305" lon="26.880526">
        <ele>254.973241</ele>
        <time>2019-06-07T09:03:45.000Z</time>
      </trkpt>
      <trkpt lat="50.278248" lon="26.880644">
        <ele>255.034222</ele>
        <time>2019-06-07T09:03:47.000Z</time>
      </trkpt>
      <trkpt lat="50.278183" lon="26.880758">
        <ele>255.097207</ele>
        <time>2019-06-07T09:03:49.000Z</time>
      </trkpt>
      <trkpt lat="50.278122" lon="26.880865">
        <ele>255.156320</ele>
        <time>2019-06-07T09:03:51.000Z</time>
      </trkpt>
      <trkpt lat="50.278065" lon="26.880976">
        <ele>255.215025</ele>
        <time>2019-06-07T09:03:53.000Z</time>
      </trkpt>
      <trkpt lat="50.278004" lon="26.881084">
        <ele>255.274447</ele>
        <time>2019-06-07T09:03:55.000Z</time>
      </trkpt>
      <trkpt lat="50.277943" lon="26.881190">
        <ele>255.333254</ele>
        <time>2019-06-07T09:03:57.000Z</time>
      </trkpt>
      <trkpt lat="50.277880" lon="26.881311">
        <ele>255.397598</ele>
        <time>2019-06-07T09:03:59.000Z</time>
      </trkpt>
      <trkpt lat="50.277817" lon="26.881430">
        <ele>255.459350</ele>
        <time>2019-06-07T09:04:01.000Z</time>
      </trkpt>
      <trkpt lat="50.277737" lon="26.881533">
        <ele>255.514104</ele>
        <time>2019-06-07T09:04:03.000Z</time>
      </trkpt>
      <trkpt lat="50.277657" lon="26.881691">
        <ele>255.582190</ele>
        <time>2019-06-07T09:04:06.000Z</time>
      </trkpt>
      <trkpt lat="50.277590" lon="26.881802">
        <ele>255.633760</ele>
        <time>2019-06-07T09:04:08.000Z</time>
      </trkpt>
      <trkpt lat="50.277530" lon="26.881908">
        <ele>255.681587</ele>
        <time>2019-06-07T09:04:10.000Z</time>
      </trkpt>
      <trkpt lat="50.277477" lon="26.882020">
        <ele>255.728659</ele>
        <time>2019-06-07T09:04:12.000Z</time>
      </trkpt>
      <trkpt lat="50.277424" lon="26.882140">
        <ele>255.777928</ele>
        <time>2019-06-07T09:04:14.000Z</time>
      </trkpt>
      <trkpt lat="50.277332" lon="26.882300">
        <ele>255.850624</ele>
        <time>2019-06-07T09:04:17.000Z</time>
      </trkpt>
      <trkpt lat="50.277264" lon="26.882406">
        <ele>255.901354</ele>
        <time>2019-06-07T09:04:19.000Z</time>
      </trkpt>
      <trkpt lat="50.277206" lon="26.882517">
        <ele>255.949782</ele>
        <time>2019-06-07T09:04:21.000Z</time>
      </trkpt>
      <trkpt lat="50.277145" lon="26.882635">
        <ele>256.001045</ele>
        <time>2019-06-07T09:04:23.000Z</time>
      </trkpt>
      <trkpt lat="50.277080" lon="26.882761">
        <ele>256.055739</ele>
        <time>2019-06-07T09:04:25.000Z</time>
      </trkpt>
      <trkpt lat="50.277016" lon="26.882874">
        <ele>256.106738</ele>
        <time>2019-06-07T09:04:27.000Z</time>
      </trkpt>
      <trkpt lat="50.276955" lon="26.882994">
        <ele>256.158528</ele>
        <time>2019-06-07T09:04:29.000Z</time>
      </trkpt>
      <trkpt lat="50.276894" lon="26.883106">
        <ele>256.208232</ele>
        <time>2019-06-07T09:04:31.000Z</time>
      </trkpt>
      <trkpt lat="50.276825" lon="26.883219">
        <ele>256.261021</ele>
        <time>2019-06-07T09:04:33.000Z</time>
      </trkpt>
      <trkpt lat="50.276768" lon="26.883337">
        <ele>256.310982</ele>
        <time>2019-06-07T09:04:35.000Z</time>
      </trkpt>
      <trkpt lat="50.276703" lon="26.883455">
        <ele>256.363600</ele>
        <time>2019-06-07T09:04:37.000Z</time>
      </trkpt>
      <trkpt lat="50.276638" lon="26.883583">
        <ele>256.384008</ele>
        <time>2019-06-07T09:04:39.000Z</time>
      </trkpt>
      <trkpt lat="50.276585" lon="26.883707">
        <ele>256.335384</ele>
        <time>2019-06-07T09:04:41.000Z</time>
      </trkpt>
      <trkpt lat="50.276527" lon="26.883831">
        <ele>256.285298</ele>
        <time>2019-06-07T09:04:43.000Z</time>
      </trkpt>
      <trkpt lat="50.276463" lon="26.883953">
        <ele>256.233851</ele>
        <time>2019-06-07T09:04:45.000Z</time>
      </trkpt>
      <trkpt lat="50.276400" lon="26.884079">
        <ele>256.181706</ele>
        <time>2019-06-07T09:04:47.000Z</time>
      </trkpt>
      <trkpt lat="50.276333" lon="26.884190">
        <ele>256.131940</ele>
        <time>2019-06-07T09:04:49.000Z</time>
      </trkpt>
      <trkpt lat="50.276264" lon="26.884300">
        <ele>256.081701</ele>
        <time>2019-06-07T09:04:51.000Z</time>
      </trkpt>
      <trkpt lat="50.276196" lon="26.884410">
        <ele>256.031817</ele>
        <time>2019-06-07T09:04:53.000Z</time>
      </trkpt>
      <trkpt lat="50.276130" lon="26.884531">
        <ele>255.979966</ele>
        <time>2019-06-07T09:04:55.000Z</time>
      </trkpt>
      <trkpt lat="50.276062" lon="26.884655">
        <ele>255.926708</ele>
        <time>2019-06-07T09:04:57.000Z</time>
      </trkpt>
      <trkpt lat="50.276005" lon="26.884779">
        <ele>255.876921</ele>
        <time>2019-06-07T09:04:59.000Z</time>
      </trkpt>
      <trkpt lat="50.275950" lon="26.884901">
        <ele>255.828257</ele>
        <time>2019-06-07T09:05:01.000Z</time>
      </trkpt>
      <trkpt lat="50.275894" lon="26.885023">
        <ele>255.779297</ele>
        <time>2019-06-07T09:05:03.000Z</time>
      </trkpt>
      <trkpt lat="50.275837" lon="26.885145">
        <ele>255.730038</ele>
        <time>2019-06-07T09:05:05.000Z</time>
      </trkpt>
      <trkpt lat="50.275776" lon="26.885252">
        <ele>255.683301</ele>
        <time>2019-06-07T09:05:07.000Z</time>
      </trkpt>
      <trkpt lat="50.275707" lon="26.885376">
        <ele>255.629709</ele>
        <time>2019-06-07T09:05:09.000Z</time>
      </trkpt>
      <trkpt lat="50.275593" lon="26.885567">
        <ele>255.544524</ele>
        <time>2019-06-07T09:05:12.000Z</time>
      </trkpt>
      <trkpt lat="50.275520" lon="26.885698">
        <ele>255.487872</ele>
        <time>2019-06-07T09:05:14.000Z</time>
      </trkpt>
      <trkpt lat="50.275450" lon="26.885824">
        <ele>255.443801</ele>
        <time>2019-06-07T09:05:16.000Z</time>
      </trkpt>
      <trkpt lat="50.275383" lon="26.885956">
        <ele>255.400157</ele>
        <time>2019-06-07T09:05:18.000Z</time>
      </trkpt>
      <trkpt lat="50.275320" lon="26.886086">
        <ele>255.357917</ele>
        <time>2019-06-07T09:05:20.000Z</time>
      </trkpt>
      <trkpt lat="50.275250" lon="26.886200">
        <ele>255.316986</ele>
        <time>2019-06-07T09:05:22.000Z</time>
      </trkpt>
      <trkpt lat="50.275185" lon="26.886322">
        <ele>255.275863</ele>
        <time>2019-06-07T09:05:24.000Z</time>
      </trkpt>
      <trkpt lat="50.275120" lon="26.886460">
        <ele>255.231478</ele>
        <time>2019-06-07T09:05:26.000Z</time>
      </trkpt>
      <trkpt lat="50.275055" lon="26.886585">
        <ele>255.189755</ele>
        <time>2019-06-07T09:05:28.000Z</time>
      </trkpt>
      <trkpt lat="50.274990" lon="26.886703">
        <ele>255.149421</ele>
        <time>2019-06-07T09:05:30.000Z</time>
      </trkpt>
      <trkpt lat="50.274930" lon="26.886827">
        <ele>255.109153</ele>
        <time>2019-06-07T09:05:32.000Z</time>
      </trkpt>
      <trkpt lat="50.274864" lon="26.886948">
        <ele>255.067966</ele>
        <time>2019-06-07T09:05:34.000Z</time>
      </trkpt>
      <trkpt lat="50.274803" lon="26.887074">
        <ele>255.027040</ele>
        <time>2019-06-07T09:05:36.000Z</time>
      </trkpt>
      <trkpt lat="50.274740" lon="26.887194">
        <ele>254.986832</ele>
        <time>2019-06-07T09:05:38.000Z</time>
      </trkpt>
      <trkpt lat="50.274673" lon="26.887318">
        <ele>254.944791</ele>
        <time>2019-06-07T09:05:40.000Z</time>
      </trkpt>
      <trkpt lat="50.274610" lon="26.887445">
        <ele>254.903166</ele>
        <time>2019-06-07T09:05:42.000Z</time>
      </trkpt>
      <trkpt lat="50.274544" lon="26.887564">
        <ele>254.862372</ele>
        <time>2019-06-07T09:05:44.000Z</time>
      </trkpt>
      <trkpt lat="50.274475" lon="26.887682">
        <ele>254.820962</ele>
        <time>2019-06-07T09:05:46.000Z</time>
      </trkpt>
      <trkpt lat="50.274406" lon="26.887808">
        <ele>254.778001</ele>
        <time>2019-06-07T09:05:48.000Z</time>
      </trkpt>
      <trkpt lat="50.274340" lon="26.887928">
        <ele>254.778807</ele>
        <time>2019-06-07T09:05:50.000Z</time>
      </trkpt>
      <trkpt lat="50.274277" lon="26.888048">
        <ele>254.831508</ele>
        <time>2019-06-07T09:05:52.000Z</time>
      </trkpt>
      <trkpt lat="50.274210" lon="26.888178">
        <ele>254.888183</ele>
        <time>2019-06-07T09:05:54.000Z</time>
      </trkpt>
      <trkpt lat="50.274143" lon="26.888300">
        <ele>254.942770</ele>
        <time>2019-06-07T09:05:56.000Z</time>
      </trkpt>
      <trkpt lat="50.274075" lon="26.888416">
        <ele>254.996187</ele>
        <time>2019-06-07T09:05:58.000Z</time>
      </trkpt>
      <trkpt lat="50.274017" lon="26.888542">
        <ele>255.048883</ele>
        <time>2019-06-07T09:06:00.000Z</time>
      </trkpt>
      <trkpt lat="50.273950" lon="26.888670">
        <ele>255.105030</ele>
        <time>2019-06-07T09:06:02.000Z</time>
      </trkpt>
      <trkpt lat="50.273880" lon="26.888794">
        <ele>255.161176</ele>
        <time>2019-06-07T09:06:04.000Z</time>
      </trkpt>
      <trkpt lat="50.273780" lon="26.888979">
        <ele>255.243402</ele>
        <time>2019-06-07T09:06:07.000Z</time>
      </trkpt>
      <trkpt lat="50.273716" lon="26.889088">
        <ele>255.293633</ele>
        <time>2019-06-07T09:06:09.000Z</time>
      </trkpt>
      <trkpt lat="50.273643" lon="26.889212">
        <ele>255.350846</ele>
        <time>2019-06-07T09:06:11.000Z</time>
      </trkpt>
      <trkpt lat="50.273575" lon="26.889334">
        <ele>255.405781</ele>
        <time>2019-06-07T09:06:13.000Z</time>
      </trkpt>
      <trkpt lat="50.273518" lon="26.889458">
        <ele>255.457616</ele>
        <time>2019-06-07T09:06:15.000Z</time>
      </trkpt>
      <trkpt lat="50.273457" lon="26.889590">
        <ele>255.512896</ele>
        <time>2019-06-07T09:06:17.000Z</time>
      </trkpt>
      <trkpt lat="50.273388" lon="26.889719">
        <ele>255.569982</ele>
        <time>2019-06-07T09:06:19.000Z</time>
      </trkpt>
      <trkpt lat="50.273323" lon="26.889854">
        <ele>255.627342</ele>
        <time>2019-06-07T09:06:21.000Z</time>
      </trkpt>
      <trkpt lat="50.273262" lon="26.889978">
        <ele>255.680446</ele>
        <time>2019-06-07T09:06:23.000Z</time>
      </trkpt>
      <trkpt lat="50.273197" lon="26.890110">
        <ele>255.697825</ele>
        <time>2019-06-07T09:06:25.000Z</time>
      </trkpt>
      <trkpt lat="50.273136" lon="26.890247">
        <ele>255.671803</ele>
        <time>2019-06-07T09:06:27.000Z</time>
      </trkpt>
      <trkpt lat="50.273070" lon="26.890383">
        <ele>255.645190</ele>
        <time>2019-06-07T09:06:29.000Z</time>
      </trkpt>
      <trkpt lat="50.273003" lon="26.890512">
        <ele>255.619284</ele>
        <time>2019-06-07T09:06:31.000Z</time>
      </trkpt>
      <trkpt lat="50.272934" lon="26.890654">
        <ele>255.591484</ele>
        <time>2019-06-07T09:06:33.000Z</time>
      </trkpt>
      <trkpt lat="50.272873" lon="26.890793">
        <ele>255.565206</ele>
        <time>2019-06-07T09:06:35.000Z</time>
      </trkpt>
      <trkpt lat="50.272808" lon="26.890926">
        <ele>255.539112</ele>
        <time>2019-06-07T09:06:37.000Z</time>
      </trkpt>
      <trkpt lat="50.272747" lon="26.891060">
        <ele>255.513472</ele>
        <time>2019-06-07T09:06:39.000Z</time>
      </trkpt>
      <trkpt lat="50.272680" lon="26.891195">
        <ele>255.486834</ele>
        <time>2019-06-07T09:06:41.000Z</time>
      </trkpt>
      <trkpt lat="50.272617" lon="26.891321">
        <ele>255.461901</ele>
        <time>2019-06-07T09:06:43.000Z</time>
      </trkpt>
      <trkpt lat="50.272560" lon="26.891445">
        <ele>255.438097</ele>
        <time>2019-06-07T09:06:45.000Z</time>
      </trkpt>
      <trkpt lat="50.272503" lon="26.891579">
        <ele>255.413010</ele>
        <time>2019-06-07T09:06:47.000Z</time>
      </trkpt>
      <trkpt lat="50.272434" lon="26.891712">
        <ele>255.386313</ele>
        <time>2019-06-07T09:06:49.000Z</time>
      </trkpt>
      <trkpt lat="50.272377" lon="26.891834">
        <ele>255.362760</ele>
        <time>2019-06-07T09:06:51.000Z</time>
      </trkpt>
      <trkpt lat="50.272316" lon="26.891966">
        <ele>255.337373</ele>
        <time>2019-06-07T09:06:53.000Z</time>
      </trkpt>
      <trkpt lat="50.272243" lon="26.892107">
        <ele>255.309093</ele>
        <time>2019-06-07T09:06:55.000Z</time>
      </trkpt>
      <trkpt lat="50.272186" lon="26.892250">
        <ele>255.282827</ele>
        <time>2019-06-07T09:06:57.000Z</time>
      </trkpt>
      <trkpt lat="50.272137" lon="26.892395">
        <ele>255.230120</ele>
        <time>2019-06-07T09:06:59.000Z</time>
      </trkpt>
      <trkpt lat="50.272076" lon="26.892534">
        <ele>255.153941</ele>
        <time>2019-06-07T09:07:01.000Z</time>
      </trkpt>
      <trkpt lat="50.272010" lon="26.892670">
        <ele>255.076790</ele>
        <time>2019-06-07T09:07:03.000Z</time>
      </trkpt>
      <trkpt lat="50.271946" lon="26.892818">
        <ele>254.996056</ele>
        <time>2019-06-07T09:07:05.000Z</time>
      </trkpt>
      <trkpt lat="50.271866" lon="26.892948">
        <ele>254.914523</ele>
        <time>2019-06-07T09:07:07.000Z</time>
      </trkpt>
      <trkpt lat="50.271793" lon="26.893070">
        <ele>254.839017</ele>
        <time>2019-06-07T09:07:09.000Z</time>
      </trkpt>
      <trkpt lat="50.271720" lon="26.893204">
        <ele>254.759467</ele>
        <time>2019-06-07T09:07:11.000Z</time>
      </trkpt>
      <trkpt lat="50.271637" lon="26.893330">
        <ele>254.677717</ele>
        <time>2019-06-07T09:07:13.000Z</time>
      </trkpt>
      <trkpt lat="50.271560" lon="26.893454">
        <ele>254.599605</ele>
        <time>2019-06-07T09:07:15.000Z</time>
      </trkpt>
      <trkpt lat="50.271470" lon="26.893574">
        <ele>254.516017</ele>
        <time>2019-06-07T09:07:17.000Z</time>
      </trkpt>
      <trkpt lat="50.271393" lon="26.893690">
        <ele>254.440456</ele>
        <time>2019-06-07T09:07:19.000Z</time>
      </trkpt>
      <trkpt lat="50.271313" lon="26.893805">
        <ele>254.363660</ele>
        <time>2019-06-07T09:07:21.000Z</time>
      </trkpt>
      <trkpt lat="50.271225" lon="26.893910">
        <ele>254.285428</ele>
        <time>2019-06-07T09:07:23.000Z</time>
      </trkpt>
      <trkpt lat="50.271133" lon="26.894016">
        <ele>254.204663</ele>
        <time>2019-06-07T09:07:25.000Z</time>
      </trkpt>
      <trkpt lat="50.271040" lon="26.894120">
        <ele>254.123856</ele>
        <time>2019-06-07T09:07:27.000Z</time>
      </trkpt>
      <trkpt lat="50.270940" lon="26.894220">
        <ele>254.039962</ele>
        <time>2019-06-07T09:07:29.000Z</time>
      </trkpt>
      <trkpt lat="50.270850" lon="26.894308">
        <ele>253.972613</ele>
        <time>2019-06-07T09:07:31.000Z</time>
      </trkpt>
      <trkpt lat="50.270760" lon="26.894392">
        <ele>253.914692</ele>
        <time>2019-06-07T09:07:33.000Z</time>
      </trkpt>
      <trkpt lat="50.270668" lon="26.894493">
        <ele>253.852574</ele>
        <time>2019-06-07T09:07:35.000Z</time>
      </trkpt>
      <trkpt lat="50.270573" lon="26.894583">
        <ele>253.791193</ele>
        <time>2019-06-07T09:07:37.000Z</time>
      </trkpt>
      <trkpt lat="50.270480" lon="26.894670">
        <ele>253.731304</ele>
        <time>2019-06-07T09:07:39.000Z</time>
      </trkpt>
      <trkpt lat="50.270405" lon="26.894758">
        <ele>253.679490</ele>
        <time>2019-06-07T09:07:41.000Z</time>
      </trkpt>
      <trkpt lat="50.270320" lon="26.894821">
        <ele>253.627506</ele>
        <time>2019-06-07T09:07:43.000Z</time>
      </trkpt>
      <trkpt lat="50.270233" lon="26.894900">
        <ele>253.571909</ele>
        <time>2019-06-07T09:07:45.000Z</time>
      </trkpt>
      <trkpt lat="50.270138" lon="26.894981">
        <ele>253.512112</ele>
        <time>2019-06-07T09:07:47.000Z</time>
      </trkpt>
      <trkpt lat="50.270035" lon="26.895067">
        <ele>253.447585</ele>
        <time>2019-06-07T09:07:49.000Z</time>
      </trkpt>
      <trkpt lat="50.269936" lon="26.895157">
        <ele>253.384302</ele>
        <time>2019-06-07T09:07:51.000Z</time>
      </trkpt>
      <trkpt lat="50.269844" lon="26.895248">
        <ele>253.324144</ele>
        <time>2019-06-07T09:07:53.000Z</time>
      </trkpt>
      <trkpt lat="50.269750" lon="26.895329">
        <ele>253.264831</ele>
        <time>2019-06-07T09:07:55.000Z</time>
      </trkpt>
      <trkpt lat="50.269646" lon="26.895422">
        <ele>253.198624</ele>
        <time>2019-06-07T09:07:57.000Z</time>
      </trkpt>
      <trkpt lat="50.269547" lon="26.895514">
        <ele>253.134983</ele>
        <time>2019-06-07T09:07:59.000Z</time>
      </trkpt>
      <trkpt lat="50.269432" lon="26.895597">
        <ele>253.064985</ele>
        <time>2019-06-07T09:08:01.000Z</time>
      </trkpt>
      <trkpt lat="50.269320" lon="26.895689">
        <ele>252.918612</ele>
        <time>2019-06-07T09:08:03.000Z</time>
      </trkpt>
      <trkpt lat="50.269222" lon="26.895773">
        <ele>252.425420</ele>
        <time>2019-06-07T09:08:05.000Z</time>
      </trkpt>
      <trkpt lat="50.269123" lon="26.895842">
        <ele>251.947077</ele>
        <time>2019-06-07T09:08:07.000Z</time>
      </trkpt>
      <trkpt lat="50.269024" lon="26.895910">
        <ele>251.469876</ele>
        <time>2019-06-07T09:08:09.000Z</time>
      </trkpt>
      <trkpt lat="50.268920" lon="26.895977">
        <ele>250.973470</ele>
        <time>2019-06-07T09:08:11.000Z</time>
      </trkpt>
      <trkpt lat="50.268818" lon="26.896038">
        <ele>250.491515</ele>
        <time>2019-06-07T09:08:13.000Z</time>
      </trkpt>
      <trkpt lat="50.268710" lon="26.896103">
        <ele>249.980793</ele>
        <time>2019-06-07T09:08:15.000Z</time>
      </trkpt>
      <trkpt lat="50.268604" lon="26.896168">
        <ele>249.478299</ele>
        <time>2019-06-07T09:08:17.000Z</time>
      </trkpt>
      <trkpt lat="50.268482" lon="26.896215">
        <ele>248.923757</ele>
        <time>2019-06-07T09:08:19.000Z</time>
      </trkpt>
      <trkpt lat="50.268360" lon="26.896242">
        <ele>248.379939</ele>
        <time>2019-06-07T09:08:21.000Z</time>
      </trkpt>
      <trkpt lat="50.268234" lon="26.896260">
        <ele>247.821513</ele>
        <time>2019-06-07T09:08:23.000Z</time>
      </trkpt>
      <trkpt lat="50.268110" lon="26.896261">
        <ele>247.274222</ele>
        <time>2019-06-07T09:08:25.000Z</time>
      </trkpt>
      <trkpt lat="50.267982" lon="26.896265">
        <ele>246.709170</ele>
        <time>2019-06-07T09:08:27.000Z</time>
      </trkpt>
      <trkpt lat="50.267857" lon="26.896254">
        <ele>246.156600</ele>
        <time>2019-06-07T09:08:29.000Z</time>
      </trkpt>
      <trkpt lat="50.267730" lon="26.896242">
        <ele>245.595053</ele>
        <time>2019-06-07T09:08:31.000Z</time>
      </trkpt>
      <trkpt lat="50.267597" lon="26.896221">
        <ele>245.042052</ele>
        <time>2019-06-07T09:08:33.000Z</time>
      </trkpt>
      <trkpt lat="50.267464" lon="26.896202">
        <ele>244.801519</ele>
        <time>2019-06-07T09:08:35.000Z</time>
      </trkpt>
      <trkpt lat="50.267330" lon="26.896198">
        <ele>244.560138</ele>
        <time>2019-06-07T09:08:37.000Z</time>
      </trkpt>
      <trkpt lat="50.267212" lon="26.896189">
        <ele>244.347364</ele>
        <time>2019-06-07T09:08:39.000Z</time>
      </trkpt>
      <trkpt lat="50.267090" lon="26.896170">
        <ele>244.126553</ele>
        <time>2019-06-07T09:08:41.000Z</time>
      </trkpt>
      <trkpt lat="50.266970" lon="26.896141">
        <ele>243.907866</ele>
        <time>2019-06-07T09:08:43.000Z</time>
      </trkpt>
      <trkpt lat="50.266853" lon="26.896124">
        <ele>243.696239</ele>
        <time>2019-06-07T09:08:45.000Z</time>
      </trkpt>
      <trkpt lat="50.266735" lon="26.896112">
        <ele>243.483269</ele>
        <time>2019-06-07T09:08:47.000Z</time>
      </trkpt>
      <trkpt lat="50.266624" lon="26.896101">
        <ele>243.282954</ele>
        <time>2019-06-07T09:08:49.000Z</time>
      </trkpt>
      <trkpt lat="50.266514" lon="26.896082">
        <ele>243.083638</ele>
        <time>2019-06-07T09:08:51.000Z</time>
      </trkpt>
      <trkpt lat="50.266407" lon="26.896074">
        <ele>242.890708</ele>
        <time>2019-06-07T09:08:53.000Z</time>
      </trkpt>
      <trkpt lat="50.266296" lon="26.896082">
        <ele>242.690582</ele>
        <time>2019-06-07T09:08:55.000Z</time>
      </trkpt>
      <trkpt lat="50.266186" lon="26.896070">
        <ele>242.491988</ele>
        <time>2019-06-07T09:08:57.000Z</time>
      </trkpt>
      <trkpt lat="50.266075" lon="26.896057">
        <ele>242.291514</ele>
        <time>2019-06-07T09:08:59.000Z</time>
      </trkpt>
      <trkpt lat="50.265970" lon="26.896044">
        <ele>242.101815</ele>
        <time>2019-06-07T09:09:01.000Z</time>
      </trkpt>
      <trkpt lat="50.265860" lon="26.896025">
        <ele>241.902498</ele>
        <time>2019-06-07T09:09:03.000Z</time>
      </trkpt>
      <trkpt lat="50.265743" lon="26.896013">
        <ele>241.427903</ele>
        <time>2019-06-07T09:09:05.000Z</time>
      </trkpt>
      <trkpt lat="50.265630" lon="26.895992">
        <ele>240.828366</ele>
        <time>2019-06-07T09:09:07.000Z</time>
      </trkpt>
      <trkpt lat="50.265510" lon="26.895979">
        <ele>240.194622</ele>
        <time>2019-06-07T09:09:09.000Z</time>
      </trkpt>
      <trkpt lat="50.265396" lon="26.895970">
        <ele>239.593238</ele>
        <time>2019-06-07T09:09:11.000Z</time>
      </trkpt>
      <trkpt lat="50.265270" lon="26.895973">
        <ele>238.929319</ele>
        <time>2019-06-07T09:09:13.000Z</time>
      </trkpt>
      <trkpt lat="50.265160" lon="26.895973">
        <ele>238.349775</ele>
        <time>2019-06-07T09:09:15.000Z</time>
      </trkpt>
      <trkpt lat="50.265053" lon="26.895966">
        <ele>237.785543</ele>
        <time>2019-06-07T09:09:17.000Z</time>
      </trkpt>
      <trkpt lat="50.264946" lon="26.895952">
        <ele>237.219836</ele>
        <time>2019-06-07T09:09:19.000Z</time>
      </trkpt>
      <trkpt lat="50.264828" lon="26.895945">
        <ele>236.597696</ele>
        <time>2019-06-07T09:09:21.000Z</time>
      </trkpt>
      <trkpt lat="50.264700" lon="26.895945">
        <ele>235.923317</ele>
        <time>2019-06-07T09:09:23.000Z</time>
      </trkpt>
      <trkpt lat="50.264584" lon="26.895943">
        <ele>235.312123</ele>
        <time>2019-06-07T09:09:25.000Z</time>
      </trkpt>
      <trkpt lat="50.264470" lon="26.895937">
        <ele>234.711165</ele>
        <time>2019-06-07T09:09:27.000Z</time>
      </trkpt>
      <trkpt lat="50.264360" lon="26.895927">
        <ele>234.130642</ele>
        <time>2019-06-07T09:09:29.000Z</time>
      </trkpt>
      <trkpt lat="50.264244" lon="26.895914">
        <ele>233.517920</ele>
        <time>2019-06-07T09:09:31.000Z</time>
      </trkpt>
      <trkpt lat="50.264133" lon="26.895912">
        <ele>232.933068</ele>
        <time>2019-06-07T09:09:33.000Z</time>
      </trkpt>
      <trkpt lat="50.264020" lon="26.895912">
        <ele>232.352536</ele>
        <time>2019-06-07T09:09:35.000Z</time>
      </trkpt>
      <trkpt lat="50.263912" lon="26.895912">
        <ele>232.380700</ele>
        <time>2019-06-07T09:09:37.000Z</time>
      </trkpt>
      <trkpt lat="50.263810" lon="26.895891">
        <ele>232.407529</ele>
        <time>2019-06-07T09:09:39.000Z</time>
      </trkpt>
      <trkpt lat="50.263700" lon="26.895884">
        <ele>232.436239</ele>
        <time>2019-06-07T09:09:41.000Z</time>
      </trkpt>
      <trkpt lat="50.263588" lon="26.895874">
        <ele>232.465494</ele>
        <time>2019-06-07T09:09:43.000Z</time>
      </trkpt>
      <trkpt lat="50.263477" lon="26.895855">
        <ele>232.494613</ele>
        <time>2019-06-07T09:09:45.000Z</time>
      </trkpt>
      <trkpt lat="50.263363" lon="26.895866">
        <ele>232.524399</ele>
        <time>2019-06-07T09:09:47.000Z</time>
      </trkpt>
      <trkpt lat="50.263260" lon="26.895864">
        <ele>232.551262</ele>
        <time>2019-06-07T09:09:49.000Z</time>
      </trkpt>
      <trkpt lat="50.263165" lon="26.895884">
        <ele>232.576259</ele>
        <time>2019-06-07T09:09:51.000Z</time>
      </trkpt>
      <trkpt lat="50.263035" lon="26.895876">
        <ele>232.610187</ele>
        <time>2019-06-07T09:09:54.000Z</time>
      </trkpt>
      <trkpt lat="50.262936" lon="26.895863">
        <ele>232.636095</ele>
        <time>2019-06-07T09:09:56.000Z</time>
      </trkpt>
      <trkpt lat="50.262817" lon="26.895857">
        <ele>232.667144</ele>
        <time>2019-06-07T09:09:58.000Z</time>
      </trkpt>
      <trkpt lat="50.262707" lon="26.895850">
        <ele>232.695854</ele>
        <time>2019-06-07T09:10:00.000Z</time>
      </trkpt>
      <trkpt lat="50.262604" lon="26.895819">
        <ele>232.723207</ele>
        <time>2019-06-07T09:10:02.000Z</time>
      </trkpt>
      <trkpt lat="50.262500" lon="26.895803">
        <ele>232.750459</ele>
        <time>2019-06-07T09:10:04.000Z</time>
      </trkpt>
      <trkpt lat="50.262394" lon="26.895794">
        <ele>232.778143</ele>
        <time>2019-06-07T09:10:06.000Z</time>
      </trkpt>
      <trkpt lat="50.262283" lon="26.895775">
        <ele>232.807262</ele>
        <time>2019-06-07T09:10:08.000Z</time>
      </trkpt>
      <trkpt lat="50.262173" lon="26.895746">
        <ele>232.898996</ele>
        <time>2019-06-07T09:10:10.000Z</time>
      </trkpt>
      <trkpt lat="50.262062" lon="26.895718">
        <ele>233.047098</ele>
        <time>2019-06-07T09:10:12.000Z</time>
      </trkpt>
      <trkpt lat="50.261950" lon="26.895690">
        <ele>233.196502</ele>
        <time>2019-06-07T09:10:14.000Z</time>
      </trkpt>
      <trkpt lat="50.261845" lon="26.895668">
        <ele>233.336047</ele>
        <time>2019-06-07T09:10:16.000Z</time>
      </trkpt>
      <trkpt lat="50.261745" lon="26.895655">
        <ele>233.468225</ele>
        <time>2019-06-07T09:10:18.000Z</time>
      </trkpt>
      <trkpt lat="50.261640" lon="26.895641">
        <ele>233.607037</ele>
        <time>2019-06-07T09:10:20.000Z</time>
      </trkpt>
      <trkpt lat="50.261530" lon="26.895618">
        <ele>233.753222</ele>
        <time>2019-06-07T09:10:22.000Z</time>
      </trkpt>
      <trkpt lat="50.261433" lon="26.895592">
        <ele>233.882857</ele>
        <time>2019-06-07T09:10:24.000Z</time>
      </trkpt>
      <trkpt lat="50.261330" lon="26.895563">
        <ele>234.020712</ele>
        <time>2019-06-07T09:10:26.000Z</time>
      </trkpt>
      <trkpt lat="50.261227" lon="26.895533">
        <ele>234.158720</ele>
        <time>2019-06-07T09:10:28.000Z</time>
      </trkpt>
      <trkpt lat="50.261124" lon="26.895521">
        <ele>234.294772</ele>
        <time>2019-06-07T09:10:30.000Z</time>
      </trkpt>
      <trkpt lat="50.261020" lon="26.895500">
        <ele>234.432901</ele>
        <time>2019-06-07T09:10:32.000Z</time>
      </trkpt>
      <trkpt lat="50.260918" lon="26.895477">
        <ele>234.568649</ele>
        <time>2019-06-07T09:10:34.000Z</time>
      </trkpt>
      <trkpt lat="50.260822" lon="26.895462">
        <ele>234.695733</ele>
        <time>2019-06-07T09:10:36.000Z</time>
      </trkpt>
      <trkpt lat="50.260723" lon="26.895443">
        <ele>234.827118</ele>
        <time>2019-06-07T09:10:38.000Z</time>
      </trkpt>
      <trkpt lat="50.260624" lon="26.895428">
        <ele>234.958135</ele>
        <time>2019-06-07T09:10:40.000Z</time>
      </trkpt>
      <trkpt lat="50.260520" lon="26.895403">
        <ele>235.096736</ele>
        <time>2019-06-07T09:10:42.000Z</time>
      </trkpt>
      <trkpt lat="50.260414" lon="26.895384">
        <ele>235.204545</ele>
        <time>2019-06-07T09:10:44.000Z</time>
      </trkpt>
      <trkpt lat="50.260310" lon="26.895365">
        <ele>235.246706</ele>
        <time>2019-06-07T09:10:46.000Z</time>
      </trkpt>
      <trkpt lat="50.260216" lon="26.895348">
        <ele>235.284808</ele>
        <time>2019-06-07T09:10:48.000Z</time>
      </trkpt>
      <trkpt lat="50.260117" lon="26.895329">
        <ele>235.324970</ele>
        <time>2019-06-07T09:10:50.000Z</time>
      </trkpt>
      <trkpt lat="50.260014" lon="26.895311">
        <ele>235.366702</ele>
        <time>2019-06-07T09:10:52.000Z</time>
      </trkpt>
      <trkpt lat="50.259903" lon="26.895292">
        <ele>235.411663</ele>
        <time>2019-06-07T09:10:54.000Z</time>
      </trkpt>
      <trkpt lat="50.259800" lon="26.895270">
        <ele>235.453522</ele>
        <time>2019-06-07T09:10:56.000Z</time>
      </trkpt>
      <trkpt lat="50.259700" lon="26.895245">
        <ele>235.494299</ele>
        <time>2019-06-07T09:10:58.000Z</time>
      </trkpt>
      <trkpt lat="50.259600" lon="26.895235">
        <ele>235.534647</ele>
        <time>2019-06-07T09:11:00.000Z</time>
      </trkpt>
      <trkpt lat="50.259506" lon="26.895216">
        <ele>235.572811</ele>
        <time>2019-06-07T09:11:02.000Z</time>
      </trkpt>
      <trkpt lat="50.259410" lon="26.895190">
        <ele>235.612041</ele>
        <time>2019-06-07T09:11:04.000Z</time>
      </trkpt>
      <trkpt lat="50.259310" lon="26.895157">
        <ele>235.653193</ele>
        <time>2019-06-07T09:11:06.000Z</time>
      </trkpt>
      <trkpt lat="50.259212" lon="26.895140">
        <ele>235.692896</ele>
        <time>2019-06-07T09:11:08.000Z</time>
      </trkpt>
      <trkpt lat="50.259110" lon="26.895115">
        <ele>235.734468</ele>
        <time>2019-06-07T09:11:10.000Z</time>
      </trkpt>
      <trkpt lat="50.259003" lon="26.895075">
        <ele>235.778765</ele>
        <time>2019-06-07T09:11:12.000Z</time>
      </trkpt>
      <trkpt lat="50.258904" lon="26.895044">
        <ele>235.819419</ele>
        <time>2019-06-07T09:11:14.000Z</time>
      </trkpt>
      <trkpt lat="50.258800" lon="26.895016">
        <ele>235.861912</ele>
        <time>2019-06-07T09:11:16.000Z</time>
      </trkpt>
      <trkpt lat="50.258698" lon="26.894980">
        <ele>235.904015</ele>
        <time>2019-06-07T09:11:18.000Z</time>
      </trkpt>
      <trkpt lat="50.258590" lon="26.894950">
        <ele>236.143040</ele>
        <time>2019-06-07T09:11:20.000Z</time>
      </trkpt>
      <trkpt lat="50.258476" lon="26.894924">
        <ele>236.456763</ele>
        <time>2019-06-07T09:11:22.000Z</time>
      </trkpt>
      <trkpt lat="50.258360" lon="26.894884">
        <ele>236.780235</ele>
        <time>2019-06-07T09:11:24.000Z</time>
      </trkpt>
      <trkpt lat="50.258255" lon="26.894852">
        <ele>237.071543</ele>
        <time>2019-06-07T09:11:26.000Z</time>
      </trkpt>
      <trkpt lat="50.258144" lon="26.894821">
        <ele>237.378594</ele>
        <time>2019-06-07T09:11:28.000Z</time>
      </trkpt>
      <trkpt lat="50.258034" lon="26.894790">
        <ele>237.682965</ele>
        <time>2019-06-07T09:11:30.000Z</time>
      </trkpt>
      <trkpt lat="50.257920" lon="26.894750">
        <ele>238.001121</ele>
        <time>2019-06-07T09:11:32.000Z</time>
      </trkpt>
      <trkpt lat="50.257805" lon="26.894714">
        <ele>238.320495</ele>
        <time>2019-06-07T09:11:34.000Z</time>
      </trkpt>
      <trkpt lat="50.257698" lon="26.894657">
        <ele>238.628308</ele>
        <time>2019-06-07T09:11:36.000Z</time>
      </trkpt>
      <trkpt lat="50.257600" lon="26.894627">
        <ele>238.900241</ele>
        <time>2019-06-07T09:11:38.000Z</time>
      </trkpt>
      <trkpt lat="50.257490" lon="26.894634">
        <ele>239.200036</ele>
        <time>2019-06-07T09:11:40.000Z</time>
      </trkpt>
      <trkpt lat="50.257378" lon="26.894640">
        <ele>239.505209</ele>
        <time>2019-06-07T09:11:42.000Z</time>
      </trkpt>
      <trkpt lat="50.257260" lon="26.894646">
        <ele>239.826712</ele>
        <time>2019-06-07T09:11:44.000Z</time>
      </trkpt>
      <trkpt lat="50.257137" lon="26.894655">
        <ele>240.162027</ele>
        <time>2019-06-07T09:11:46.000Z</time>
      </trkpt>
      <trkpt lat="50.257015" lon="26.894657">
        <ele>240.494270</ele>
        <time>2019-06-07T09:11:48.000Z</time>
      </trkpt>
      <trkpt lat="50.256905" lon="26.894651">
        <ele>240.794000</ele>
        <time>2019-06-07T09:11:50.000Z</time>
      </trkpt>
      <trkpt lat="50.256798" lon="26.894651">
        <ele>240.784801</ele>
        <time>2019-06-07T09:11:52.000Z</time>
      </trkpt>
      <trkpt lat="50.256690" lon="26.894665">
        <ele>240.755008</ele>
        <time>2019-06-07T09:11:54.000Z</time>
      </trkpt>
      <trkpt lat="50.256584" lon="26.894682">
        <ele>240.725715</ele>
        <time>2019-06-07T09:11:56.000Z</time>
      </trkpt>
      <trkpt lat="50.256477" lon="26.894703">
        <ele>240.696068</ele>
        <time>2019-06-07T09:11:58.000Z</time>
      </trkpt>
      <trkpt lat="50.256363" lon="26.894718">
        <ele>240.664617</ele>
        <time>2019-06-07T09:12:00.000Z</time>
      </trkpt>
      <trkpt lat="50.256250" lon="26.894726">
        <ele>240.633520</ele>
        <time>2019-06-07T09:12:02.000Z</time>
      </trkpt>
      <trkpt lat="50.256130" lon="26.894740">
        <ele>240.600438</ele>
        <time>2019-06-07T09:12:04.000Z</time>
      </trkpt>
      <trkpt lat="50.256012" lon="26.894745">
        <ele>240.567986</ele>
        <time>2019-06-07T09:12:06.000Z</time>
      </trkpt>
      <trkpt lat="50.255898" lon="26.894758">
        <ele>240.536563</ele>
        <time>2019-06-07T09:12:08.000Z</time>
      </trkpt>
      <trkpt lat="50.255780" lon="26.894772">
        <ele>240.504030</ele>
        <time>2019-06-07T09:12:10.000Z</time>
      </trkpt>
      <trkpt lat="50.255660" lon="26.894781">
        <ele>240.471002</ele>
        <time>2019-06-07T09:12:12.000Z</time>
      </trkpt>
      <trkpt lat="50.255543" lon="26.894798">
        <ele>240.438698</ele>
        <time>2019-06-07T09:12:14.000Z</time>
      </trkpt>
      <trkpt lat="50.255432" lon="26.894823">
        <ele>240.407868</ele>
        <time>2019-06-07T09:12:16.000Z</time>
      </trkpt>
      <trkpt lat="50.255318" lon="26.894842">
        <ele>240.376350</ele>
        <time>2019-06-07T09:12:18.000Z</time>
      </trkpt>
      <trkpt lat="50.255210" lon="26.894855">
        <ele>240.346571</ele>
        <time>2019-06-07T09:12:20.000Z</time>
      </trkpt>
      <trkpt lat="50.255104" lon="26.894870">
        <ele>240.318706</ele>
        <time>2019-06-07T09:12:22.000Z</time>
      </trkpt>
      <trkpt lat="50.254993" lon="26.894888">
        <ele>240.362170</ele>
        <time>2019-06-07T09:12:24.000Z</time>
      </trkpt>
      <trkpt lat="50.254887" lon="26.894896">
        <ele>240.403502</ele>
        <time>2019-06-07T09:12:26.000Z</time>
      </trkpt>
      <trkpt lat="50.254780" lon="26.894907">
        <ele>240.445265</ele>
        <time>2019-06-07T09:12:28.000Z</time>
      </trkpt>
      <trkpt lat="50.254670" lon="26.894920">
        <ele>240.488229</ele>
        <time>2019-06-07T09:12:30.000Z</time>
      </trkpt>
      <trkpt lat="50.254562" lon="26.894936">
        <ele>240.530480</ele>
        <time>2019-06-07T09:12:32.000Z</time>
      </trkpt>
      <trkpt lat="50.254450" lon="26.894947">
        <ele>240.574187</ele>
        <time>2019-06-07T09:12:34.000Z</time>
      </trkpt>
      <trkpt lat="50.254340" lon="26.894949">
        <ele>240.617032</ele>
        <time>2019-06-07T09:12:36.000Z</time>
      </trkpt>
      <trkpt lat="50.254234" lon="26.894955">
        <ele>240.658343</ele>
        <time>2019-06-07T09:12:38.000Z</time>
      </trkpt>
      <trkpt lat="50.254135" lon="26.894968">
        <ele>240.697036</ele>
        <time>2019-06-07T09:12:40.000Z</time>
      </trkpt>
      <trkpt lat="50.254036" lon="26.894997">
        <ele>240.736264</ele>
        <time>2019-06-07T09:12:42.000Z</time>
      </trkpt>
      <trkpt lat="50.253937" lon="26.895021">
        <ele>240.775282</ele>
        <time>2019-06-07T09:12:44.000Z</time>
      </trkpt>
      <trkpt lat="50.253834" lon="26.895033">
        <ele>240.815509</ele>
        <time>2019-06-07T09:12:46.000Z</time>
      </trkpt>
      <trkpt lat="50.253727" lon="26.895040">
        <ele>240.857219</ele>
        <time>2019-06-07T09:12:48.000Z</time>
      </trkpt>
      <trkpt lat="50.253620" lon="26.895050">
        <ele>240.898967</ele>
        <time>2019-06-07T09:12:50.000Z</time>
      </trkpt>
      <trkpt lat="50.253517" lon="26.895060">
        <ele>240.939160</ele>
        <time>2019-06-07T09:12:52.000Z</time>
      </trkpt>
      <trkpt lat="50.253418" lon="26.895077">
        <ele>240.977949</ele>
        <time>2019-06-07T09:12:54.000Z</time>
      </trkpt>
      <trkpt lat="50.253323" lon="26.895082">
        <ele>241.014970</ele>
        <time>2019-06-07T09:12:56.000Z</time>
      </trkpt>
      <trkpt lat="50.253227" lon="26.895098">
        <ele>241.046070</ele>
        <time>2019-06-07T09:12:58.000Z</time>
      </trkpt>
      <trkpt lat="50.253130" lon="26.895105">
        <ele>241.076693</ele>
        <time>2019-06-07T09:13:00.000Z</time>
      </trkpt>
      <trkpt lat="50.253036" lon="26.895110">
        <ele>241.106354</ele>
        <time>2019-06-07T09:13:02.000Z</time>
      </trkpt>
      <trkpt lat="50.252937" lon="26.895123">
        <ele>241.137685</ele>
        <time>2019-06-07T09:13:04.000Z</time>
      </trkpt>
      <trkpt lat="50.252840" lon="26.895128">
        <ele>241.168291</ele>
        <time>2019-06-07T09:13:06.000Z</time>
      </trkpt>
      <trkpt lat="50.252740" lon="26.895140">
        <ele>241.199920</ele>
        <time>2019-06-07T09:13:08.000Z</time>
      </trkpt>
      <trkpt lat="50.252640" lon="26.895153">
        <ele>241.231565</ele>
        <time>2019-06-07T09:13:10.000Z</time>
      </trkpt>
      <trkpt lat="50.252544" lon="26.895164">
        <ele>241.261921</ele>
        <time>2019-06-07T09:13:12.000Z</time>
      </trkpt>
      <trkpt lat="50.252450" lon="26.895170">
        <ele>241.291589</ele>
        <time>2019-06-07T09:13:14.000Z</time>
      </trkpt>
      <trkpt lat="50.252354" lon="26.895172">
        <ele>241.321867</ele>
        <time>2019-06-07T09:13:16.000Z</time>
      </trkpt>
      <trkpt lat="50.252260" lon="26.895170">
        <ele>241.351513</ele>
        <time>2019-06-07T09:13:18.000Z</time>
      </trkpt>
      <trkpt lat="50.252167" lon="26.895193">
        <ele>241.381207</ele>
        <time>2019-06-07T09:13:20.000Z</time>
      </trkpt>
      <trkpt lat="50.252060" lon="26.895203">
        <ele>241.415010</ele>
        <time>2019-06-07T09:13:22.000Z</time>
      </trkpt>
      <trkpt lat="50.251970" lon="26.895206">
        <ele>241.443399</ele>
        <time>2019-06-07T09:13:24.000Z</time>
      </trkpt>
      <trkpt lat="50.251877" lon="26.895222">
        <ele>241.472905</ele>
        <time>2019-06-07T09:13:26.000Z</time>
      </trkpt>
      <trkpt lat="50.251790" lon="26.895243">
        <ele>241.500666</ele>
        <time>2019-06-07T09:13:28.000Z</time>
      </trkpt>
      <trkpt lat="50.251656" lon="26.895258">
        <ele>241.543033</ele>
        <time>2019-06-07T09:13:31.000Z</time>
      </trkpt>
      <trkpt lat="50.251520" lon="26.895270">
        <ele>241.585517</ele>
        <time>2019-06-07T09:13:34.000Z</time>
      </trkpt>
      <trkpt lat="50.251423" lon="26.895279">
        <ele>241.575766</ele>
        <time>2019-06-07T09:13:36.000Z</time>
      </trkpt>
      <trkpt lat="50.251330" lon="26.895283">
        <ele>241.566429</ele>
        <time>2019-06-07T09:13:38.000Z</time>
      </trkpt>
      <trkpt lat="50.251240" lon="26.895294">
        <ele>241.557369</ele>
        <time>2019-06-07T09:13:40.000Z</time>
      </trkpt>
      <trkpt lat="50.251150" lon="26.895311">
        <ele>241.548272</ele>
        <time>2019-06-07T09:13:42.000Z</time>
      </trkpt>
      <trkpt lat="50.251057" lon="26.895315">
        <ele>241.538935</ele>
        <time>2019-06-07T09:13:44.000Z</time>
      </trkpt>
      <trkpt lat="50.250920" lon="26.895325">
        <ele>241.525171</ele>
        <time>2019-06-07T09:13:47.000Z</time>
      </trkpt>
      <trkpt lat="50.250824" lon="26.895330">
        <ele>241.515532</ele>
        <time>2019-06-07T09:13:49.000Z</time>
      </trkpt>
      <trkpt lat="50.250725" lon="26.895348">
        <ele>241.505529</ele>
        <time>2019-06-07T09:13:51.000Z</time>
      </trkpt>
      <trkpt lat="50.250620" lon="26.895374">
        <ele>241.494861</ele>
        <time>2019-06-07T09:13:53.000Z</time>
      </trkpt>
      <trkpt lat="50.250520" lon="26.895403">
        <ele>241.484654</ele>
        <time>2019-06-07T09:13:55.000Z</time>
      </trkpt>
      <trkpt lat="50.250416" lon="26.895437">
        <ele>241.473991</ele>
        <time>2019-06-07T09:13:57.000Z</time>
      </trkpt>
      <trkpt lat="50.250317" lon="26.895475">
        <ele>241.463761</ele>
        <time>2019-06-07T09:13:59.000Z</time>
      </trkpt>
      <trkpt lat="50.250217" lon="26.895517">
        <ele>241.453370</ele>
        <time>2019-06-07T09:14:01.000Z</time>
      </trkpt>
      <trkpt lat="50.250120" lon="26.895560">
        <ele>241.443252</ele>
        <time>2019-06-07T09:14:03.000Z</time>
      </trkpt>
      <trkpt lat="50.250027" lon="26.895609">
        <ele>241.433403</ele>
        <time>2019-06-07T09:14:05.000Z</time>
      </trkpt>
      <trkpt lat="50.249935" lon="26.895662">
        <ele>241.423564</ele>
        <time>2019-06-07T09:14:07.000Z</time>
      </trkpt>
      <trkpt lat="50.249813" lon="26.895731">
        <ele>241.410544</ele>
        <time>2019-06-07T09:14:10.000Z</time>
      </trkpt>
      <trkpt lat="50.249720" lon="26.895780">
        <ele>241.567512</ele>
        <time>2019-06-07T09:14:12.000Z</time>
      </trkpt>
      <trkpt lat="50.249626" lon="26.895826">
        <ele>241.929815</ele>
        <time>2019-06-07T09:14:14.000Z</time>
      </trkpt>
      <trkpt lat="50.249520" lon="26.895868">
        <ele>242.332045</ele>
        <time>2019-06-07T09:14:16.000Z</time>
      </trkpt>
      <trkpt lat="50.249424" lon="26.895918">
        <ele>242.704241</ele>
        <time>2019-06-07T09:14:18.000Z</time>
      </trkpt>
      <trkpt lat="50.249325" lon="26.895967">
        <ele>243.086206</ele>
        <time>2019-06-07T09:14:20.000Z</time>
      </trkpt>
      <trkpt lat="50.249230" lon="26.896013">
        <ele>243.452022</ele>
        <time>2019-06-07T09:14:22.000Z</time>
      </trkpt>
      <trkpt lat="50.249130" lon="26.896051">
        <ele>243.830566</ele>
        <time>2019-06-07T09:14:24.000Z</time>
      </trkpt>
      <trkpt lat="50.249035" lon="26.896097">
        <ele>244.196381</ele>
        <time>2019-06-07T09:14:26.000Z</time>
      </trkpt>
      <trkpt lat="50.248936" lon="26.896150">
        <ele>244.581291</ele>
        <time>2019-06-07T09:14:28.000Z</time>
      </trkpt>
      <trkpt lat="50.248844" lon="26.896200">
        <ele>244.939557</ele>
        <time>2019-06-07T09:14:30.000Z</time>
      </trkpt>
      <trkpt lat="50.248753" lon="26.896240">
        <ele>245.287263</ele>
        <time>2019-06-07T09:14:32.000Z</time>
      </trkpt>
      <trkpt lat="50.248660" lon="26.896286">
        <ele>245.646058</ele>
        <time>2019-06-07T09:14:34.000Z</time>
      </trkpt>
      <trkpt lat="50.248547" lon="26.896370">
        <ele>246.106288</ele>
        <time>2019-06-07T09:14:37.000Z</time>
      </trkpt>
      <trkpt lat="50.248440" lon="26.896444">
        <ele>246.536648</ele>
        <time>2019-06-07T09:14:40.000Z</time>
      </trkpt>
      <trkpt lat="50.248333" lon="26.896526">
        <ele>246.974957</ele>
        <time>2019-06-07T09:14:43.000Z</time>
      </trkpt>
      <trkpt lat="50.248230" lon="26.896584">
        <ele>247.377647</ele>
        <time>2019-06-07T09:14:46.000Z</time>
      </trkpt>
      <trkpt lat="50.248127" lon="26.896664">
        <ele>247.800680</ele>
        <time>2019-06-07T09:14:49.000Z</time>
      </trkpt>
      <trkpt lat="50.248030" lon="26.896736">
        <ele>248.266585</ele>
        <time>2019-06-07T09:14:52.000Z</time>
      </trkpt>
      <trkpt lat="50.247940" lon="26.896816">
        <ele>248.802313</ele>
        <time>2019-06-07T09:14:55.000Z</time>
      </trkpt>
      <trkpt lat="50.247852" lon="26.896887">
        <ele>249.314747</ele>
        <time>2019-06-07T09:14:58.000Z</time>
      </trkpt>
      <trkpt lat="50.247757" lon="26.896952">
        <ele>249.851364</ele>
        <time>2019-06-07T09:15:01.000Z</time>
      </trkpt>
      <trkpt lat="50.247673" lon="26.897028">
        <ele>250.353572</ele>
        <time>2019-06-07T09:15:04.000Z</time>
      </trkpt>
      <trkpt lat="50.247590" lon="26.897093">
        <ele>250.833943</ele>
        <time>2019-06-07T09:15:07.000Z</time>
      </trkpt>
      <trkpt lat="50.247513" lon="26.897165">
        <ele>251.298216</ele>
        <time>2019-06-07T09:15:11.000Z</time>
      </trkpt>
      <trkpt lat="50.247430" lon="26.897226">
        <ele>251.772807</ele>
        <time>2019-06-07T09:15:15.000Z</time>
      </trkpt>
      <trkpt lat="50.247334" lon="26.897303">
        <ele>252.331139</ele>
        <time>2019-06-07T09:15:19.000Z</time>
      </trkpt>
      <trkpt lat="50.247234" lon="26.897352">
        <ele>252.873444</ele>
        <time>2019-06-07T09:15:24.000Z</time>
      </trkpt>
      <trkpt lat="50.247150" lon="26.897392">
        <ele>253.327848</ele>
        <time>2019-06-07T09:15:27.000Z</time>
      </trkpt>
      <trkpt lat="50.247055" lon="26.897436">
        <ele>253.840578</ele>
        <time>2019-06-07T09:15:30.000Z</time>
      </trkpt>
      <trkpt lat="50.246956" lon="26.897501">
        <ele>254.396222</ele>
        <time>2019-06-07T09:15:33.000Z</time>
      </trkpt>
      <trkpt lat="50.246850" lon="26.897549">
        <ele>254.967303</ele>
        <time>2019-06-07T09:15:36.000Z</time>
      </trkpt>
      <trkpt lat="50.246740" lon="26.897580">
        <ele>255.545717</ele>
        <time>2019-06-07T09:15:39.000Z</time>
      </trkpt>
      <trkpt lat="50.246630" lon="26.897594">
        <ele>256.116844</ele>
        <time>2019-06-07T09:15:42.000Z</time>
      </trkpt>
      <trkpt lat="50.246530" lon="26.897615">
        <ele>256.638985</ele>
        <time>2019-06-07T09:15:45.000Z</time>
      </trkpt>
      <trkpt lat="50.246414" lon="26.897640">
        <ele>257.244953</ele>
        <time>2019-06-07T09:15:48.000Z</time>
      </trkpt>
      <trkpt lat="50.246304" lon="26.897669">
        <ele>257.185251</ele>
        <time>2019-06-07T09:15:51.000Z</time>
      </trkpt>
      <trkpt lat="50.246197" lon="26.897700">
        <ele>257.020913</ele>
        <time>2019-06-07T09:15:54.000Z</time>
      </trkpt>
      <trkpt lat="50.246067" lon="26.897718">
        <ele>256.823824</ele>
        <time>2019-06-07T09:15:57.000Z</time>
      </trkpt>
      <trkpt lat="50.245937" lon="26.897757">
        <ele>256.623922</ele>
        <time>2019-06-07T09:16:00.000Z</time>
      </trkpt>
      <trkpt lat="50.245840" lon="26.897768">
        <ele>256.477051</ele>
        <time>2019-06-07T09:16:02.000Z</time>
      </trkpt>
      <trkpt lat="50.245743" lon="26.897790">
        <ele>256.329032</ele>
        <time>2019-06-07T09:16:04.000Z</time>
      </trkpt>
      <trkpt lat="50.245650" lon="26.897821">
        <ele>256.185431</ele>
        <time>2019-06-07T09:16:06.000Z</time>
      </trkpt>
      <trkpt lat="50.245560" lon="26.897848">
        <ele>256.047038</ele>
        <time>2019-06-07T09:16:08.000Z</time>
      </trkpt>
      <trkpt lat="50.245464" lon="26.897877">
        <ele>255.899381</ele>
        <time>2019-06-07T09:16:10.000Z</time>
      </trkpt>
      <trkpt lat="50.245360" lon="26.897907">
        <ele>255.739674</ele>
        <time>2019-06-07T09:16:12.000Z</time>
      </trkpt>
      <trkpt lat="50.245266" lon="26.897930">
        <ele>255.595991</ele>
        <time>2019-06-07T09:16:14.000Z</time>
      </trkpt>
      <trkpt lat="50.245163" lon="26.897955">
        <ele>255.438582</ele>
        <time>2019-06-07T09:16:16.000Z</time>
      </trkpt>
      <trkpt lat="50.245068" lon="26.897984">
        <ele>255.292408</ele>
        <time>2019-06-07T09:16:18.000Z</time>
      </trkpt>
      <trkpt lat="50.244970" lon="26.898012">
        <ele>255.141961</ele>
        <time>2019-06-07T09:16:20.000Z</time>
      </trkpt>
      <trkpt lat="50.244865" lon="26.898040">
        <ele>254.981105</ele>
        <time>2019-06-07T09:16:22.000Z</time>
      </trkpt>
      <trkpt lat="50.244762" lon="26.898062">
        <ele>254.824113</ele>
        <time>2019-06-07T09:16:24.000Z</time>
      </trkpt>
      <trkpt lat="50.244667" lon="26.898067">
        <ele>254.680566</ele>
        <time>2019-06-07T09:16:26.000Z</time>
      </trkpt>
      <trkpt lat="50.244568" lon="26.898079">
        <ele>254.524556</ele>
        <time>2019-06-07T09:16:28.000Z</time>
      </trkpt>
      <trkpt lat="50.244453" lon="26.898092">
        <ele>254.337621</ele>
        <time>2019-06-07T09:16:30.000Z</time>
      </trkpt>
      <trkpt lat="50.244335" lon="26.898106">
        <ele>254.145758</ele>
        <time>2019-06-07T09:16:32.000Z</time>
      </trkpt>
      <trkpt lat="50.244220" lon="26.898134">
        <ele>253.957062</ele>
        <time>2019-06-07T09:16:34.000Z</time>
      </trkpt>
      <trkpt lat="50.244120" lon="26.898160">
        <ele>253.792707</ele>
        <time>2019-06-07T09:16:36.000Z</time>
      </trkpt>
      <trkpt lat="50.244022" lon="26.898180">
        <ele>253.632472</ele>
        <time>2019-06-07T09:16:38.000Z</time>
      </trkpt>
      <trkpt lat="50.243916" lon="26.898207">
        <ele>253.458350</ele>
        <time>2019-06-07T09:16:40.000Z</time>
      </trkpt>
      <trkpt lat="50.243800" lon="26.898230">
        <ele>253.268774</ele>
        <time>2019-06-07T09:16:42.000Z</time>
      </trkpt>
      <trkpt lat="50.243694" lon="26.898250">
        <ele>253.095670</ele>
        <time>2019-06-07T09:16:44.000Z</time>
      </trkpt>
      <trkpt lat="50.243590" lon="26.898273">
        <ele>252.925377</ele>
        <time>2019-06-07T09:16:46.000Z</time>
      </trkpt>
      <trkpt lat="50.243480" lon="26.898293">
        <ele>252.745833</ele>
        <time>2019-06-07T09:16:48.000Z</time>
      </trkpt>
      <trkpt lat="50.243378" lon="26.898306">
        <ele>252.579912</ele>
        <time>2019-06-07T09:16:50.000Z</time>
      </trkpt>
      <trkpt lat="50.243280" lon="26.898320">
        <ele>252.420364</ele>
        <time>2019-06-07T09:16:52.000Z</time>
      </trkpt>
      <trkpt lat="50.243176" lon="26.898336">
        <ele>252.250935</ele>
        <time>2019-06-07T09:16:54.000Z</time>
      </trkpt>
      <trkpt lat="50.243070" lon="26.898361">
        <ele>252.077134</ele>
        <time>2019-06-07T09:16:56.000Z</time>
      </trkpt>
      <trkpt lat="50.242966" lon="26.898384">
        <ele>251.906841</ele>
        <time>2019-06-07T09:16:58.000Z</time>
      </trkpt>
      <trkpt lat="50.242870" lon="26.898396">
        <ele>251.750700</ele>
        <time>2019-06-07T09:17:00.000Z</time>
      </trkpt>
      <trkpt lat="50.242767" lon="26.898410">
        <ele>251.733929</ele>
        <time>2019-06-07T09:17:02.000Z</time>
      </trkpt>
      <trkpt lat="50.242664" lon="26.898422">
        <ele>251.788672</ele>
        <time>2019-06-07T09:17:04.000Z</time>
      </trkpt>
      <trkpt lat="50.242560" lon="26.898455">
        <ele>251.844917</ele>
        <time>2019-06-07T09:17:06.000Z</time>
      </trkpt>
      <trkpt lat="50.242455" lon="26.898476">
        <ele>251.901023</ele>
        <time>2019-06-07T09:17:08.000Z</time>
      </trkpt>
      <trkpt lat="50.242348" lon="26.898495">
        <ele>251.958099</ele>
        <time>2019-06-07T09:17:10.000Z</time>
      </trkpt>
      <trkpt lat="50.242233" lon="26.898520">
        <ele>252.019638</ele>
        <time>2019-06-07T09:17:12.000Z</time>
      </trkpt>
      <trkpt lat="50.242134" lon="26.898537">
        <ele>252.072425</ele>
        <time>2019-06-07T09:17:14.000Z</time>
      </trkpt>
      <trkpt lat="50.242040" lon="26.898542">
        <ele>252.122275</ele>
        <time>2019-06-07T09:17:16.000Z</time>
      </trkpt>
      <trkpt lat="50.241943" lon="26.898558">
        <ele>252.173973</ele>
        <time>2019-06-07T09:17:18.000Z</time>
      </trkpt>
      <trkpt lat="50.241833" lon="26.898575">
        <ele>252.232559</ele>
        <time>2019-06-07T09:17:20.000Z</time>
      </trkpt>
      <trkpt lat="50.241730" lon="26.898605">
        <ele>252.288090</ele>
        <time>2019-06-07T09:17:22.000Z</time>
      </trkpt>
      <trkpt lat="50.241585" lon="26.898640">
        <ele>252.365853</ele>
        <time>2019-06-07T09:17:25.000Z</time>
      </trkpt>
      <trkpt lat="50.241467" lon="26.898660">
        <ele>252.428761</ele>
        <time>2019-06-07T09:17:27.000Z</time>
      </trkpt>
      <trkpt lat="50.241364" lon="26.898678">
        <ele>252.483693</ele>
        <time>2019-06-07T09:17:29.000Z</time>
      </trkpt>
      <trkpt lat="50.241260" lon="26.898699">
        <ele>252.539273</ele>
        <time>2019-06-07T09:17:31.000Z</time>
      </trkpt>
      <trkpt lat="50.241165" lon="26.898746">
        <ele>252.592085</ele>
        <time>2019-06-07T09:17:33.000Z</time>
      </trkpt>
      <trkpt lat="50.241062" lon="26.898783">
        <ele>252.648099</ele>
        <time>2019-06-07T09:17:35.000Z</time>
      </trkpt>
      <trkpt lat="50.240963" lon="26.898802">
        <ele>252.658953</ele>
        <time>2019-06-07T09:17:37.000Z</time>
      </trkpt>
      <trkpt lat="50.240852" lon="26.898820">
        <ele>252.669270</ele>
        <time>2019-06-07T09:17:39.000Z</time>
      </trkpt>
      <trkpt lat="50.240757" lon="26.898857">
        <ele>252.678321</ele>
        <time>2019-06-07T09:17:41.000Z</time>
      </trkpt>
      <trkpt lat="50.240616" lon="26.898891">
        <ele>252.691510</ele>
        <time>2019-06-07T09:17:44.000Z</time>
      </trkpt>
      <trkpt lat="50.240517" lon="26.898920">
        <ele>252.700821</ele>
        <time>2019-06-07T09:17:46.000Z</time>
      </trkpt>
      <trkpt lat="50.240414" lon="26.898968">
        <ele>252.710757</ele>
        <time>2019-06-07T09:17:48.000Z</time>
      </trkpt>
      <trkpt lat="50.240322" lon="26.898998">
        <ele>252.719445</ele>
        <time>2019-06-07T09:17:50.000Z</time>
      </trkpt>
      <trkpt lat="50.240190" lon="26.899044">
        <ele>252.731947</ele>
        <time>2019-06-07T09:17:53.000Z</time>
      </trkpt>
      <trkpt lat="50.240078" lon="26.899086">
        <ele>252.742595</ele>
        <time>2019-06-07T09:17:55.000Z</time>
      </trkpt>
      <trkpt lat="50.239970" lon="26.899107">
        <ele>252.752656</ele>
        <time>2019-06-07T09:17:57.000Z</time>
      </trkpt>
      <trkpt lat="50.239860" lon="26.899145">
        <ele>252.763070</ele>
        <time>2019-06-07T09:17:59.000Z</time>
      </trkpt>
      <trkpt lat="50.239750" lon="26.899172">
        <ele>252.773364</ele>
        <time>2019-06-07T09:18:01.000Z</time>
      </trkpt>
      <trkpt lat="50.239643" lon="26.899193">
        <ele>252.783333</ele>
        <time>2019-06-07T09:18:03.000Z</time>
      </trkpt>
      <trkpt lat="50.239536" lon="26.899210">
        <ele>252.793276</ele>
        <time>2019-06-07T09:18:05.000Z</time>
      </trkpt>
      <trkpt lat="50.239426" lon="26.899227">
        <ele>252.803494</ele>
        <time>2019-06-07T09:18:07.000Z</time>
      </trkpt>
      <trkpt lat="50.239315" lon="26.899246">
        <ele>252.813817</ele>
        <time>2019-06-07T09:18:09.000Z</time>
      </trkpt>
      <trkpt lat="50.239197" lon="26.899275">
        <ele>252.626516</ele>
        <time>2019-06-07T09:18:11.000Z</time>
      </trkpt>
      <trkpt lat="50.239082" lon="26.899292">
        <ele>252.388153</ele>
        <time>2019-06-07T09:18:13.000Z</time>
      </trkpt>
      <trkpt lat="50.238983" lon="26.899305">
        <ele>252.183145</ele>
        <time>2019-06-07T09:18:15.000Z</time>
      </trkpt>
      <trkpt lat="50.238876" lon="26.899305">
        <ele>251.962349</ele>
        <time>2019-06-07T09:18:17.000Z</time>
      </trkpt>
      <trkpt lat="50.238777" lon="26.899320">
        <ele>251.757103</ele>
        <time>2019-06-07T09:18:19.000Z</time>
      </trkpt>
      <trkpt lat="50.238678" lon="26.899336">
        <ele>251.551726</ele>
        <time>2019-06-07T09:18:21.000Z</time>
      </trkpt>
      <trkpt lat="50.238575" lon="26.899347">
        <ele>251.338688</ele>
        <time>2019-06-07T09:18:23.000Z</time>
      </trkpt>
      <trkpt lat="50.238470" lon="26.899363">
        <ele>251.120992</ele>
        <time>2019-06-07T09:18:25.000Z</time>
      </trkpt>
      <trkpt lat="50.238360" lon="26.899376">
        <ele>250.893357</ele>
        <time>2019-06-07T09:18:27.000Z</time>
      </trkpt>
      <trkpt lat="50.238260" lon="26.899390">
        <ele>250.686180</ele>
        <time>2019-06-07T09:18:29.000Z</time>
      </trkpt>
      <trkpt lat="50.238160" lon="26.899405">
        <ele>250.478880</ele>
        <time>2019-06-07T09:18:31.000Z</time>
      </trkpt>
      <trkpt lat="50.238052" lon="26.899414">
        <ele>250.255704</ele>
        <time>2019-06-07T09:18:33.000Z</time>
      </trkpt>
      <trkpt lat="50.237940" lon="26.899427">
        <ele>250.023954</ele>
        <time>2019-06-07T09:18:35.000Z</time>
      </trkpt>
      <trkpt lat="50.237846" lon="26.899448">
        <ele>249.828013</ele>
        <time>2019-06-07T09:18:37.000Z</time>
      </trkpt>
      <trkpt lat="50.237740" lon="26.899464">
        <ele>249.608262</ele>
        <time>2019-06-07T09:18:39.000Z</time>
      </trkpt>
      <trkpt lat="50.237630" lon="26.899480">
        <ele>249.380295</ele>
        <time>2019-06-07T09:18:41.000Z</time>
      </trkpt>
      <trkpt lat="50.237522" lon="26.899483">
        <ele>249.157400</ele>
        <time>2019-06-07T09:18:43.000Z</time>
      </trkpt>
      <trkpt lat="50.237423" lon="26.899502">
        <ele>249.256945</ele>
        <time>2019-06-07T09:18:45.000Z</time>
      </trkpt>
      <trkpt lat="50.237316" lon="26.899513">
        <ele>249.476610</ele>
        <time>2019-06-07T09:18:47.000Z</time>
      </trkpt>
      <trkpt lat="50.237213" lon="26.899525">
        <ele>249.688192</ele>
        <time>2019-06-07T09:18:49.000Z</time>
      </trkpt>
      <trkpt lat="50.237103" lon="26.899538">
        <ele>249.914172</ele>
        <time>2019-06-07T09:18:51.000Z</time>
      </trkpt>
      <trkpt lat="50.236984" lon="26.899548">
        <ele>250.158297</ele>
        <time>2019-06-07T09:18:53.000Z</time>
      </trkpt>
      <trkpt lat="50.236874" lon="26.899555">
        <ele>250.383821</ele>
        <time>2019-06-07T09:18:55.000Z</time>
      </trkpt>
      <trkpt lat="50.236770" lon="26.899548">
        <ele>250.597064</ele>
        <time>2019-06-07T09:18:57.000Z</time>
      </trkpt>
      <trkpt lat="50.236664" lon="26.899550">
        <ele>250.814223</ele>
        <time>2019-06-07T09:18:59.000Z</time>
      </trkpt>
      <trkpt lat="50.236572" lon="26.899550">
        <ele>251.002686</ele>
        <time>2019-06-07T09:19:01.000Z</time>
      </trkpt>
      <trkpt lat="50.236473" lon="26.899544">
        <ele>251.205642</ele>
        <time>2019-06-07T09:19:03.000Z</time>
      </trkpt>
      <trkpt lat="50.236374" lon="26.899534">
        <ele>251.408868</ele>
        <time>2019-06-07T09:19:05.000Z</time>
      </trkpt>
      <trkpt lat="50.236267" lon="26.899538">
        <ele>251.628122</ele>
        <time>2019-06-07T09:19:07.000Z</time>
      </trkpt>
      <trkpt lat="50.236160" lon="26.899536">
        <ele>251.847329</ele>
        <time>2019-06-07T09:19:09.000Z</time>
      </trkpt>
      <trkpt lat="50.236057" lon="26.899538">
        <ele>252.058342</ele>
        <time>2019-06-07T09:19:11.000Z</time>
      </trkpt>
      <trkpt lat="50.235966" lon="26.899540">
        <ele>252.244776</ele>
        <time>2019-06-07T09:19:13.000Z</time>
      </trkpt>
      <trkpt lat="50.235832" lon="26.899542">
        <ele>252.519290</ele>
        <time>2019-06-07T09:19:16.000Z</time>
      </trkpt>
      <trkpt lat="50.235733" lon="26.899548">
        <ele>252.722245</ele>
        <time>2019-06-07T09:19:18.000Z</time>
      </trkpt>
      <trkpt lat="50.235638" lon="26.899551">
        <ele>252.793181</ele>
        <time>2019-06-07T09:19:20.000Z</time>
      </trkpt>
      <trkpt lat="50.235546" lon="26.899540">
        <ele>252.798830</ele>
        <time>2019-06-07T09:19:22.000Z</time>
      </trkpt>
      <trkpt lat="50.235428" lon="26.899529">
        <ele>252.806067</ele>
        <time>2019-06-07T09:19:25.000Z</time>
      </trkpt>
      <trkpt lat="50.235310" lon="26.899540">
        <ele>252.813304</ele>
        <time>2019-06-07T09:19:28.000Z</time>
      </trkpt>
      <trkpt lat="50.235188" lon="26.899544">
        <ele>252.820774</ele>
        <time>2019-06-07T09:19:31.000Z</time>
      </trkpt>
      <trkpt lat="50.235090" lon="26.899553">
        <ele>252.826784</ele>
        <time>2019-06-07T09:19:33.000Z</time>
      </trkpt>
      <trkpt lat="50.234990" lon="26.899560">
        <ele>252.832912</ele>
        <time>2019-06-07T09:19:35.000Z</time>
      </trkpt>
      <trkpt lat="50.234890" lon="26.899559">
        <ele>252.839034</ele>
        <time>2019-06-07T09:19:37.000Z</time>
      </trkpt>
      <trkpt lat="50.234802" lon="26.899567">
        <ele>252.844431</ele>
        <time>2019-06-07T09:19:39.000Z</time>
      </trkpt>
      <trkpt lat="50.234703" lon="26.899565">
        <ele>252.850492</ele>
        <time>2019-06-07T09:19:41.000Z</time>
      </trkpt>
      <trkpt lat="50.234604" lon="26.899570">
        <ele>252.856556</ele>
        <time>2019-06-07T09:19:43.000Z</time>
      </trkpt>
      <trkpt lat="50.234510" lon="26.899572">
        <ele>252.862311</ele>
        <time>2019-06-07T09:19:45.000Z</time>
      </trkpt>
      <trkpt lat="50.234413" lon="26.899570">
        <ele>252.868250</ele>
        <time>2019-06-07T09:19:47.000Z</time>
      </trkpt>
      <trkpt lat="50.234283" lon="26.899574">
        <ele>252.876210</ele>
        <time>2019-06-07T09:19:50.000Z</time>
      </trkpt>
      <trkpt lat="50.234146" lon="26.899560">
        <ele>252.884615</ele>
        <time>2019-06-07T09:19:53.000Z</time>
      </trkpt>
      <trkpt lat="50.234024" lon="26.899559">
        <ele>252.892084</ele>
        <time>2019-06-07T09:19:56.000Z</time>
      </trkpt>
      <trkpt lat="50.233890" lon="26.899559">
        <ele>252.852027</ele>
        <time>2019-06-07T09:19:59.000Z</time>
      </trkpt>
      <trkpt lat="50.233790" lon="26.899555">
        <ele>252.490733</ele>
        <time>2019-06-07T09:20:01.000Z</time>
      </trkpt>
      <trkpt lat="50.233692" lon="26.899565">
        <ele>252.136028</ele>
        <time>2019-06-07T09:20:03.000Z</time>
      </trkpt>
      <trkpt lat="50.233600" lon="26.899567">
        <ele>251.803714</ele>
        <time>2019-06-07T09:20:05.000Z</time>
      </trkpt>
      <trkpt lat="50.233500" lon="26.899563">
        <ele>251.442420</ele>
        <time>2019-06-07T09:20:07.000Z</time>
      </trkpt>
      <trkpt lat="50.233390" lon="26.899569">
        <ele>251.044884</ele>
        <time>2019-06-07T09:20:09.000Z</time>
      </trkpt>
      <trkpt lat="50.233290" lon="26.899572">
        <ele>250.683642</ele>
        <time>2019-06-07T09:20:11.000Z</time>
      </trkpt>
      <trkpt lat="50.233192" lon="26.899582">
        <ele>250.328936</ele>
        <time>2019-06-07T09:20:13.000Z</time>
      </trkpt>
      <trkpt lat="50.233097" lon="26.899572">
        <ele>249.985042</ele>
        <time>2019-06-07T09:20:15.000Z</time>
      </trkpt>
      <trkpt lat="50.232998" lon="26.899567">
        <ele>249.627292</ele>
        <time>2019-06-07T09:20:17.000Z</time>
      </trkpt>
      <trkpt lat="50.232895" lon="26.899560">
        <ele>249.254929</ele>
        <time>2019-06-07T09:20:19.000Z</time>
      </trkpt>
      <trkpt lat="50.232754" lon="26.899557">
        <ele>248.745624</ele>
        <time>2019-06-07T09:20:22.000Z</time>
      </trkpt>
      <trkpt lat="50.232650" lon="26.899570">
        <ele>248.368802</ele>
        <time>2019-06-07T09:20:24.000Z</time>
      </trkpt>
      <trkpt lat="50.232548" lon="26.899591">
        <ele>247.997222</ele>
        <time>2019-06-07T09:20:26.000Z</time>
      </trkpt>
      <trkpt lat="50.232445" lon="26.899603">
        <ele>247.624179</ele>
        <time>2019-06-07T09:20:28.000Z</time>
      </trkpt>
      <trkpt lat="50.232346" lon="26.899610">
        <ele>247.266249</ele>
        <time>2019-06-07T09:20:30.000Z</time>
      </trkpt>
      <trkpt lat="50.232250" lon="26.899601">
        <ele>246.918897</ele>
        <time>2019-06-07T09:20:32.000Z</time>
      </trkpt>
      <trkpt lat="50.232147" lon="26.899614">
        <ele>246.545676</ele>
        <time>2019-06-07T09:20:34.000Z</time>
      </trkpt>
      <trkpt lat="50.232050" lon="26.899605">
        <ele>246.264621</ele>
        <time>2019-06-07T09:20:36.000Z</time>
      </trkpt>
      <trkpt lat="50.231945" lon="26.899597">
        <ele>246.012231</ele>
        <time>2019-06-07T09:20:38.000Z</time>
      </trkpt>
      <trkpt lat="50.231846" lon="26.899586">
        <ele>245.773947</ele>
        <time>2019-06-07T09:20:40.000Z</time>
      </trkpt>
      <trkpt lat="50.231735" lon="26.899580">
        <ele>245.507292</ele>
        <time>2019-06-07T09:20:42.000Z</time>
      </trkpt>
      <trkpt lat="50.231625" lon="26.899580">
        <ele>245.243197</ele>
        <time>2019-06-07T09:20:44.000Z</time>
      </trkpt>
      <trkpt lat="50.231525" lon="26.899570">
        <ele>245.002621</ele>
        <time>2019-06-07T09:20:46.000Z</time>
      </trkpt>
      <trkpt lat="50.231426" lon="26.899574">
        <ele>244.764856</ele>
        <time>2019-06-07T09:20:48.000Z</time>
      </trkpt>
      <trkpt lat="50.231310" lon="26.899567">
        <ele>244.486149</ele>
        <time>2019-06-07T09:20:50.000Z</time>
      </trkpt>
      <trkpt lat="50.231205" lon="26.899555">
        <ele>244.233386</ele>
        <time>2019-06-07T09:20:52.000Z</time>
      </trkpt>
      <trkpt lat="50.231106" lon="26.899544">
        <ele>243.995101</ele>
        <time>2019-06-07T09:20:54.000Z</time>
      </trkpt>
      <trkpt lat="50.231007" lon="26.899560">
        <ele>243.756149</ele>
        <time>2019-06-07T09:20:56.000Z</time>
      </trkpt>
      <trkpt lat="50.230900" lon="26.899578">
        <ele>243.497774</ele>
        <time>2019-06-07T09:20:58.000Z</time>
      </trkpt>
      <trkpt lat="50.230793" lon="26.899593">
        <ele>243.239851</ele>
        <time>2019-06-07T09:21:00.000Z</time>
      </trkpt>
      <trkpt lat="50.230682" lon="26.899612">
        <ele>242.971762</ele>
        <time>2019-06-07T09:21:02.000Z</time>
      </trkpt>
      <trkpt lat="50.230560" lon="26.899641">
        <ele>242.675490</ele>
        <time>2019-06-07T09:21:04.000Z</time>
      </trkpt>
      <trkpt lat="50.230450" lon="26.899664">
        <ele>242.409044</ele>
        <time>2019-06-07T09:21:06.000Z</time>
      </trkpt>
      <trkpt lat="50.230340" lon="26.899680">
        <ele>242.143808</ele>
        <time>2019-06-07T09:21:08.000Z</time>
      </trkpt>
      <trkpt lat="50.230225" lon="26.899693">
        <ele>242.352946</ele>
        <time>2019-06-07T09:21:10.000Z</time>
      </trkpt>
      <trkpt lat="50.230106" lon="26.899733">
        <ele>242.712333</ele>
        <time>2019-06-07T09:21:12.000Z</time>
      </trkpt>
      <trkpt lat="50.229996" lon="26.899750">
        <ele>243.038700</ele>
        <time>2019-06-07T09:21:14.000Z</time>
      </trkpt>
      <trkpt lat="50.229890" lon="26.899780">
        <ele>243.356761</ele>
        <time>2019-06-07T09:21:16.000Z</time>
      </trkpt>
      <trkpt lat="50.229786" lon="26.899820">
        <ele>243.672986</ele>
        <time>2019-06-07T09:21:18.000Z</time>
      </trkpt>
      <trkpt lat="50.229680" lon="26.899853">
        <ele>243.992105</ele>
        <time>2019-06-07T09:21:20.000Z</time>
      </trkpt>
      <trkpt lat="50.229572" lon="26.899893">
        <ele>244.319811</ele>
        <time>2019-06-07T09:21:22.000Z</time>
      </trkpt>
      <trkpt lat="50.229470" lon="26.899933">
        <ele>244.630306</ele>
        <time>2019-06-07T09:21:24.000Z</time>
      </trkpt>
      <trkpt lat="50.229370" lon="26.899952">
        <ele>244.927736</ele>
        <time>2019-06-07T09:21:26.000Z</time>
      </trkpt>
      <trkpt lat="50.229270" lon="26.899982">
        <ele>245.228382</ele>
        <time>2019-06-07T09:21:28.000Z</time>
      </trkpt>
      <trkpt lat="50.229160" lon="26.900019">
        <ele>245.560599</ele>
        <time>2019-06-07T09:21:30.000Z</time>
      </trkpt>
      <trkpt lat="50.229053" lon="26.900055">
        <ele>245.883759</ele>
        <time>2019-06-07T09:21:32.000Z</time>
      </trkpt>
      <trkpt lat="50.228960" lon="26.900090">
        <ele>246.166194</ele>
        <time>2019-06-07T09:21:34.000Z</time>
      </trkpt>
      <trkpt lat="50.228855" lon="26.900130">
        <ele>246.485288</ele>
        <time>2019-06-07T09:21:36.000Z</time>
      </trkpt>
      <trkpt lat="50.228750" lon="26.900166">
        <ele>246.802678</ele>
        <time>2019-06-07T09:21:38.000Z</time>
      </trkpt>
      <trkpt lat="50.228650" lon="26.900202">
        <ele>247.105664</ele>
        <time>2019-06-07T09:21:40.000Z</time>
      </trkpt>
      <trkpt lat="50.228546" lon="26.900227">
        <ele>247.419872</ele>
        <time>2019-06-07T09:21:42.000Z</time>
      </trkpt>
      <trkpt lat="50.228447" lon="26.900263">
        <ele>247.770942</ele>
        <time>2019-06-07T09:21:44.000Z</time>
      </trkpt>
      <trkpt lat="50.228348" lon="26.900293">
        <ele>248.119249</ele>
        <time>2019-06-07T09:21:46.000Z</time>
      </trkpt>
      <trkpt lat="50.228240" lon="26.900324">
        <ele>248.498511</ele>
        <time>2019-06-07T09:21:48.000Z</time>
      </trkpt>
      <trkpt lat="50.228140" lon="26.900364">
        <ele>248.855035</ele>
        <time>2019-06-07T09:21:50.000Z</time>
      </trkpt>
      <trkpt lat="50.228035" lon="26.900396">
        <ele>249.224527</ele>
        <time>2019-06-07T09:21:52.000Z</time>
      </trkpt>
      <trkpt lat="50.227932" lon="26.900427">
        <ele>249.586818</ele>
        <time>2019-06-07T09:21:54.000Z</time>
      </trkpt>
      <trkpt lat="50.227833" lon="26.900465">
        <ele>249.938916</ele>
        <time>2019-06-07T09:21:56.000Z</time>
      </trkpt>
      <trkpt lat="50.227740" lon="26.900492">
        <ele>250.265626</ele>
        <time>2019-06-07T09:21:58.000Z</time>
      </trkpt>
      <trkpt lat="50.227650" lon="26.900532">
        <ele>250.588802</ele>
        <time>2019-06-07T09:22:00.000Z</time>
      </trkpt>
      <trkpt lat="50.227550" lon="26.900562">
        <ele>250.940500</ele>
        <time>2019-06-07T09:22:02.000Z</time>
      </trkpt>
      <trkpt lat="50.227450" lon="26.900612">
        <ele>251.303134</ele>
        <time>2019-06-07T09:22:04.000Z</time>
      </trkpt>
      <trkpt lat="50.227356" lon="26.900665">
        <ele>251.648281</ele>
        <time>2019-06-07T09:22:06.000Z</time>
      </trkpt>
      <trkpt lat="50.227264" lon="26.900723">
        <ele>251.990914</ele>
        <time>2019-06-07T09:22:08.000Z</time>
      </trkpt>
      <trkpt lat="50.227173" lon="26.900774">
        <ele>252.324815</ele>
        <time>2019-06-07T09:22:10.000Z</time>
      </trkpt>
      <trkpt lat="50.227080" lon="26.900831">
        <ele>252.669842</ele>
        <time>2019-06-07T09:22:12.000Z</time>
      </trkpt>
      <trkpt lat="50.226986" lon="26.900887">
        <ele>253.017293</ele>
        <time>2019-06-07T09:22:14.000Z</time>
      </trkpt>
      <trkpt lat="50.226890" lon="26.900946">
        <ele>253.373581</ele>
        <time>2019-06-07T09:22:16.000Z</time>
      </trkpt>
      <trkpt lat="50.226807" lon="26.901014">
        <ele>253.629533</ele>
        <time>2019-06-07T09:22:18.000Z</time>
      </trkpt>
      <trkpt lat="50.226720" lon="26.901080">
        <ele>253.710221</ele>
        <time>2019-06-07T09:22:20.000Z</time>
      </trkpt>
      <trkpt lat="50.226620" lon="26.901133">
        <ele>253.798323</ele>
        <time>2019-06-07T09:22:22.000Z</time>
      </trkpt>
      <trkpt lat="50.226520" lon="26.901197">
        <ele>253.888483</ele>
        <time>2019-06-07T09:22:24.000Z</time>
      </trkpt>
      <trkpt lat="50.226376" lon="26.901306">
        <ele>254.021978</ele>
        <time>2019-06-07T09:22:27.000Z</time>
      </trkpt>
      <trkpt lat="50.226276" lon="26.901371">
        <ele>254.112342</ele>
        <time>2019-06-07T09:22:29.000Z</time>
      </trkpt>
      <trkpt lat="50.226177" lon="26.901440">
        <ele>254.202783</ele>
        <time>2019-06-07T09:22:31.000Z</time>
      </trkpt>
      <trkpt lat="50.226078" lon="26.901508">
        <ele>254.293009</ele>
        <time>2019-06-07T09:22:33.000Z</time>
      </trkpt>
      <trkpt lat="50.225980" lon="26.901577">
        <ele>254.382690</ele>
        <time>2019-06-07T09:22:35.000Z</time>
      </trkpt>
      <trkpt lat="50.225887" lon="26.901648">
        <ele>254.469047</ele>
        <time>2019-06-07T09:22:37.000Z</time>
      </trkpt>
      <trkpt lat="50.225800" lon="26.901714">
        <ele>254.549734</ele>
        <time>2019-06-07T09:22:39.000Z</time>
      </trkpt>
      <trkpt lat="50.225704" lon="26.901781">
        <ele>254.637455</ele>
        <time>2019-06-07T09:22:41.000Z</time>
      </trkpt>
      <trkpt lat="50.225610" lon="26.901861">
        <ele>254.726758</ele>
        <time>2019-06-07T09:22:43.000Z</time>
      </trkpt>
      <trkpt lat="50.225510" lon="26.901934">
        <ele>254.818846</ele>
        <time>2019-06-07T09:22:45.000Z</time>
      </trkpt>
      <trkpt lat="50.225410" lon="26.902010">
        <ele>254.911622</ele>
        <time>2019-06-07T09:22:47.000Z</time>
      </trkpt>
      <trkpt lat="50.225300" lon="26.902082">
        <ele>255.011125</ele>
        <time>2019-06-07T09:22:49.000Z</time>
      </trkpt>
      <trkpt lat="50.225193" lon="26.902145">
        <ele>255.106526</ele>
        <time>2019-06-07T09:22:51.000Z</time>
      </trkpt>
      <trkpt lat="50.225082" lon="26.902218">
        <ele>255.084594</ele>
        <time>2019-06-07T09:22:53.000Z</time>
      </trkpt>
      <trkpt lat="50.224980" lon="26.902296">
        <ele>255.061369</ele>
        <time>2019-06-07T09:22:55.000Z</time>
      </trkpt>
      <trkpt lat="50.224880" lon="26.902359">
        <ele>255.039318</ele>
        <time>2019-06-07T09:22:57.000Z</time>
      </trkpt>
      <trkpt lat="50.224790" lon="26.902428">
        <ele>255.018815</ele>
        <time>2019-06-07T09:22:59.000Z</time>
      </trkpt>
      <trkpt lat="50.224697" lon="26.902483">
        <ele>254.998478</ele>
        <time>2019-06-07T09:23:01.000Z</time>
      </trkpt>
      <trkpt lat="50.224600" lon="26.902538">
        <ele>254.977373</ele>
        <time>2019-06-07T09:23:03.000Z</time>
      </trkpt>
      <trkpt lat="50.224506" lon="26.902607">
        <ele>254.956133</ele>
        <time>2019-06-07T09:23:05.000Z</time>
      </trkpt>
      <trkpt lat="50.224403" lon="26.902681">
        <ele>254.932947</ele>
        <time>2019-06-07T09:23:07.000Z</time>
      </trkpt>
      <trkpt lat="50.224308" lon="26.902746">
        <ele>254.911737</ele>
        <time>2019-06-07T09:23:09.000Z</time>
      </trkpt>
      <trkpt lat="50.224224" lon="26.902811">
        <ele>254.892566</ele>
        <time>2019-06-07T09:23:11.000Z</time>
      </trkpt>
      <trkpt lat="50.224120" lon="26.902874">
        <ele>254.869754</ele>
        <time>2019-06-07T09:23:13.000Z</time>
      </trkpt>
      <trkpt lat="50.224022" lon="26.902933">
        <ele>254.848274</ele>
        <time>2019-06-07T09:23:15.000Z</time>
      </trkpt>
      <trkpt lat="50.223930" lon="26.902985">
        <ele>254.828265</ele>
        <time>2019-06-07T09:23:17.000Z</time>
      </trkpt>
      <trkpt lat="50.223843" lon="26.903044">
        <ele>254.808868</ele>
        <time>2019-06-07T09:23:19.000Z</time>
      </trkpt>
      <trkpt lat="50.223755" lon="26.903110">
        <ele>254.788905</ele>
        <time>2019-06-07T09:23:21.000Z</time>
      </trkpt>
      <trkpt lat="50.223663" lon="26.903183">
        <ele>254.767802</ele>
        <time>2019-06-07T09:23:23.000Z</time>
      </trkpt>
      <trkpt lat="50.223557" lon="26.903252">
        <ele>254.744317</ele>
        <time>2019-06-07T09:23:25.000Z</time>
      </trkpt>
      <trkpt lat="50.223470" lon="26.903318">
        <ele>254.496035</ele>
        <time>2019-06-07T09:23:27.000Z</time>
      </trkpt>
      <trkpt lat="50.223377" lon="26.903389">
        <ele>254.177742</ele>
        <time>2019-06-07T09:23:29.000Z</time>
      </trkpt>
      <trkpt lat="50.223280" lon="26.903448">
        <ele>253.857650</ele>
        <time>2019-06-07T09:23:31.000Z</time>
      </trkpt>
      <trkpt lat="50.223183" lon="26.903502">
        <ele>253.540993</ele>
        <time>2019-06-07T09:23:33.000Z</time>
      </trkpt>
      <trkpt lat="50.223080" lon="26.903559">
        <ele>253.204972</ele>
        <time>2019-06-07T09:23:35.000Z</time>
      </trkpt>
      <trkpt lat="50.222977" lon="26.903627">
        <ele>252.861122</ele>
        <time>2019-06-07T09:23:37.000Z</time>
      </trkpt>
      <trkpt lat="50.222878" lon="26.903690">
        <ele>252.532404</ele>
        <time>2019-06-07T09:23:39.000Z</time>
      </trkpt>
      <trkpt lat="50.222786" lon="26.903753">
        <ele>252.223517</ele>
        <time>2019-06-07T09:23:41.000Z</time>
      </trkpt>
      <trkpt lat="50.222687" lon="26.903807">
        <ele>251.901059</ele>
        <time>2019-06-07T09:23:43.000Z</time>
      </trkpt>
      <trkpt lat="50.222600" lon="26.903858">
        <ele>251.615312</ele>
        <time>2019-06-07T09:23:45.000Z</time>
      </trkpt>
      <trkpt lat="50.222504" lon="26.903906">
        <ele>251.305348</ele>
        <time>2019-06-07T09:23:47.000Z</time>
      </trkpt>
      <trkpt lat="50.222400" lon="26.903938">
        <ele>250.979382</ele>
        <time>2019-06-07T09:23:49.000Z</time>
      </trkpt>
      <trkpt lat="50.222294" lon="26.903938">
        <ele>250.653404</ele>
        <time>2019-06-07T09:23:51.000Z</time>
      </trkpt>
      <trkpt lat="50.222190" lon="26.903929">
        <ele>250.333086</ele>
        <time>2019-06-07T09:23:53.000Z</time>
      </trkpt>
      <trkpt lat="50.222088" lon="26.903929">
        <ele>250.019410</ele>
        <time>2019-06-07T09:23:55.000Z</time>
      </trkpt>
      <trkpt lat="50.221985" lon="26.903913">
        <ele>249.701097</ele>
        <time>2019-06-07T09:23:57.000Z</time>
      </trkpt>
      <trkpt lat="50.221890" lon="26.903910">
        <ele>249.408887</ele>
        <time>2019-06-07T09:23:59.000Z</time>
      </trkpt>
      <trkpt lat="50.221786" lon="26.903904">
        <ele>249.121392</ele>
        <time>2019-06-07T09:24:01.000Z</time>
      </trkpt>
      <trkpt lat="50.221687" lon="26.903910">
        <ele>248.898897</ele>
        <time>2019-06-07T09:24:03.000Z</time>
      </trkpt>
      <trkpt lat="50.221596" lon="26.903889">
        <ele>248.692319</ele>
        <time>2019-06-07T09:24:05.000Z</time>
      </trkpt>
      <trkpt lat="50.221500" lon="26.903870">
        <ele>248.475006</ele>
        <time>2019-06-07T09:24:07.000Z</time>
      </trkpt>
      <trkpt lat="50.221405" lon="26.903852">
        <ele>248.260099</ele>
        <time>2019-06-07T09:24:09.000Z</time>
      </trkpt>
      <trkpt lat="50.221306" lon="26.903864">
        <ele>248.037103</ele>
        <time>2019-06-07T09:24:11.000Z</time>
      </trkpt>
      <trkpt lat="50.221207" lon="26.903864">
        <ele>247.814775</ele>
        <time>2019-06-07T09:24:13.000Z</time>
      </trkpt>
      <trkpt lat="50.221110" lon="26.903854">
        <ele>247.596465</ele>
        <time>2019-06-07T09:24:15.000Z</time>
      </trkpt>
      <trkpt lat="50.221020" lon="26.903837">
        <ele>247.392878</ele>
        <time>2019-06-07T09:24:17.000Z</time>
      </trkpt>
      <trkpt lat="50.220930" lon="26.903847">
        <ele>247.190251</ele>
        <time>2019-06-07T09:24:19.000Z</time>
      </trkpt>
      <trkpt lat="50.220833" lon="26.903849">
        <ele>246.972395</ele>
        <time>2019-06-07T09:24:21.000Z</time>
      </trkpt>
      <trkpt lat="50.220740" lon="26.903850">
        <ele>246.763537</ele>
        <time>2019-06-07T09:24:23.000Z</time>
      </trkpt>
      <trkpt lat="50.220650" lon="26.903850">
        <ele>246.561420</ele>
        <time>2019-06-07T09:24:25.000Z</time>
      </trkpt>
      <trkpt lat="50.220560" lon="26.903841">
        <ele>246.358890</ele>
        <time>2019-06-07T09:24:27.000Z</time>
      </trkpt>
      <trkpt lat="50.220470" lon="26.903830">
        <ele>246.156157</ele>
        <time>2019-06-07T09:24:29.000Z</time>
      </trkpt>
      <trkpt lat="50.220380" lon="26.903816">
        <ele>245.953041</ele>
        <time>2019-06-07T09:24:31.000Z</time>
      </trkpt>
      <trkpt lat="50.220287" lon="26.903795">
        <ele>245.742019</ele>
        <time>2019-06-07T09:24:33.000Z</time>
      </trkpt>
      <trkpt lat="50.220165" lon="26.903782">
        <ele>245.467403</ele>
        <time>2019-06-07T09:24:36.000Z</time>
      </trkpt>
      <trkpt lat="50.220050" lon="26.903769">
        <ele>245.208468</ele>
        <time>2019-06-07T09:24:39.000Z</time>
      </trkpt>
      <trkpt lat="50.219933" lon="26.903760">
        <ele>245.067186</ele>
        <time>2019-06-07T09:24:42.000Z</time>
      </trkpt>
      <trkpt lat="50.219807" lon="26.903760">
        <ele>244.937498</ele>
        <time>2019-06-07T09:24:45.000Z</time>
      </trkpt>
      <trkpt lat="50.219715" lon="26.903760">
        <ele>244.842806</ele>
        <time>2019-06-07T09:24:47.000Z</time>
      </trkpt>
      <trkpt lat="50.219624" lon="26.903759">
        <ele>244.749140</ele>
        <time>2019-06-07T09:24:49.000Z</time>
      </trkpt>
      <trkpt lat="50.219530" lon="26.903763">
        <ele>244.652354</ele>
        <time>2019-06-07T09:24:51.000Z</time>
      </trkpt>
      <trkpt lat="50.219433" lon="26.903767">
        <ele>244.552480</ele>
        <time>2019-06-07T09:24:53.000Z</time>
      </trkpt>
      <trkpt lat="50.219340" lon="26.903772">
        <ele>244.456702</ele>
        <time>2019-06-07T09:24:55.000Z</time>
      </trkpt>
      <trkpt lat="50.219240" lon="26.903782">
        <ele>244.353565</ele>
        <time>2019-06-07T09:24:57.000Z</time>
      </trkpt>
      <trkpt lat="50.219130" lon="26.903793">
        <ele>244.240114</ele>
        <time>2019-06-07T09:24:59.000Z</time>
      </trkpt>
      <trkpt lat="50.219030" lon="26.903810">
        <ele>244.136580</ele>
        <time>2019-06-07T09:25:01.000Z</time>
      </trkpt>
      <trkpt lat="50.218918" lon="26.903845">
        <ele>244.019020</ele>
        <time>2019-06-07T09:25:03.000Z</time>
      </trkpt>
      <trkpt lat="50.218810" lon="26.903887">
        <ele>243.904470</ele>
        <time>2019-06-07T09:25:05.000Z</time>
      </trkpt>
      <trkpt lat="50.218710" lon="26.903950">
        <ele>243.793495</ele>
        <time>2019-06-07T09:25:07.000Z</time>
      </trkpt>
      <trkpt lat="50.218620" lon="26.904013">
        <ele>243.691994</ele>
        <time>2019-06-07T09:25:09.000Z</time>
      </trkpt>
      <trkpt lat="50.218536" lon="26.904097">
        <ele>243.589351</ele>
        <time>2019-06-07T09:25:11.000Z</time>
      </trkpt>
      <trkpt lat="50.218452" lon="26.904184">
        <ele>243.485631</ele>
        <time>2019-06-07T09:25:13.000Z</time>
      </trkpt>
      <trkpt lat="50.218360" lon="26.904266">
        <ele>243.376621</ele>
        <time>2019-06-07T09:25:15.000Z</time>
      </trkpt>
      <trkpt lat="50.218260" lon="26.904350">
        <ele>243.275812</ele>
        <time>2019-06-07T09:25:17.000Z</time>
      </trkpt>
      <trkpt lat="50.218170" lon="26.904428">
        <ele>243.198602</ele>
        <time>2019-06-07T09:25:19.000Z</time>
      </trkpt>
      <trkpt lat="50.218082" lon="26.904516">
        <ele>243.120222</ele>
        <time>2019-06-07T09:25:21.000Z</time>
      </trkpt>
      <trkpt lat="50.218000" lon="26.904613">
        <ele>243.043065</ele>
        <time>2019-06-07T09:25:23.000Z</time>
      </trkpt>
      <trkpt lat="50.217910" lon="26.904701">
        <ele>242.963416</ele>
        <time>2019-06-07T09:25:25.000Z</time>
      </trkpt>
      <trkpt lat="50.217827" lon="26.904785">
        <ele>242.889229</ele>
        <time>2019-06-07T09:25:27.000Z</time>
      </trkpt>
      <trkpt lat="50.217740" lon="26.904873">
        <ele>242.811479</ele>
        <time>2019-06-07T09:25:29.000Z</time>
      </trkpt>
      <trkpt lat="50.217660" lon="26.904976">
        <ele>242.733715</ele>
        <time>2019-06-07T09:25:31.000Z</time>
      </trkpt>
      <trkpt lat="50.217583" lon="26.905083">
        <ele>242.656412</ele>
        <time>2019-06-07T09:25:33.000Z</time>
      </trkpt>
      <trkpt lat="50.217506" lon="26.905172">
        <ele>242.584559</ele>
        <time>2019-06-07T09:25:35.000Z</time>
      </trkpt>
      <trkpt lat="50.217426" lon="26.905262">
        <ele>242.510606</ele>
        <time>2019-06-07T09:25:37.000Z</time>
      </trkpt>
      <trkpt lat="50.217340" lon="26.905333">
        <ele>242.437635</ele>
        <time>2019-06-07T09:25:39.000Z</time>
      </trkpt>
      <trkpt lat="50.217247" lon="26.905376">
        <ele>242.364872</ele>
        <time>2019-06-07T09:25:41.000Z</time>
      </trkpt>
      <trkpt lat="50.217144" lon="26.905407">
        <ele>242.286177</ele>
        <time>2019-06-07T09:25:43.000Z</time>
      </trkpt>
      <trkpt lat="50.217026" lon="26.905420">
        <ele>242.197428</ele>
        <time>2019-06-07T09:25:45.000Z</time>
      </trkpt>
      <trkpt lat="50.216923" lon="26.905401">
        <ele>242.119616</ele>
        <time>2019-06-07T09:25:47.000Z</time>
      </trkpt>
      <trkpt lat="50.216820" lon="26.905370">
        <ele>242.040921</ele>
        <time>2019-06-07T09:25:49.000Z</time>
      </trkpt>
      <trkpt lat="50.216717" lon="26.905334">
        <ele>241.969886</ele>
        <time>2019-06-07T09:25:51.000Z</time>
      </trkpt>
      <trkpt lat="50.216610" lon="26.905275">
        <ele>241.973869</ele>
        <time>2019-06-07T09:25:53.000Z</time>
      </trkpt>
      <trkpt lat="50.216507" lon="26.905210">
        <ele>241.977767</ele>
        <time>2019-06-07T09:25:55.000Z</time>
      </trkpt>
      <trkpt lat="50.216410" lon="26.905136">
        <ele>241.981555</ele>
        <time>2019-06-07T09:25:57.000Z</time>
      </trkpt>
      <trkpt lat="50.216312" lon="26.905077">
        <ele>241.985241</ele>
        <time>2019-06-07T09:25:59.000Z</time>
      </trkpt>
      <trkpt lat="50.216217" lon="26.905024">
        <ele>241.988781</ele>
        <time>2019-06-07T09:26:01.000Z</time>
      </trkpt>
      <trkpt lat="50.216120" lon="26.904976">
        <ele>241.992352</ele>
        <time>2019-06-07T09:26:03.000Z</time>
      </trkpt>
      <trkpt lat="50.216026" lon="26.904920">
        <ele>241.995883</ele>
        <time>2019-06-07T09:26:05.000Z</time>
      </trkpt>
      <trkpt lat="50.215942" lon="26.904844">
        <ele>241.999290</ele>
        <time>2019-06-07T09:26:07.000Z</time>
      </trkpt>
      <trkpt lat="50.215824" lon="26.904734">
        <ele>242.004112</ele>
        <time>2019-06-07T09:26:10.000Z</time>
      </trkpt>
      <trkpt lat="50.215740" lon="26.904661">
        <ele>242.007485</ele>
        <time>2019-06-07T09:26:12.000Z</time>
      </trkpt>
      <trkpt lat="50.215656" lon="26.904596">
        <ele>242.010775</ele>
        <time>2019-06-07T09:26:14.000Z</time>
      </trkpt>
      <trkpt lat="50.215572" lon="26.904524">
        <ele>242.014137</ele>
        <time>2019-06-07T09:26:16.000Z</time>
      </trkpt>
      <trkpt lat="50.215490" lon="26.904453">
        <ele>242.017427</ele>
        <time>2019-06-07T09:26:18.000Z</time>
      </trkpt>
      <trkpt lat="50.215410" lon="26.904380">
        <ele>242.020679</ele>
        <time>2019-06-07T09:26:20.000Z</time>
      </trkpt>
      <trkpt lat="50.215320" lon="26.904320">
        <ele>242.024113</ele>
        <time>2019-06-07T09:26:22.000Z</time>
      </trkpt>
      <trkpt lat="50.215233" lon="26.904259">
        <ele>242.027459</ele>
        <time>2019-06-07T09:26:24.000Z</time>
      </trkpt>
      <trkpt lat="50.215145" lon="26.904194">
        <ele>242.030875</ele>
        <time>2019-06-07T09:26:26.000Z</time>
      </trkpt>
      <trkpt lat="50.215065" lon="26.904114">
        <ele>242.103344</ele>
        <time>2019-06-07T09:26:28.000Z</time>
      </trkpt>
      <trkpt lat="50.214954" lon="26.904030">
        <ele>242.299389</ele>
        <time>2019-06-07T09:26:31.000Z</time>
      </trkpt>
      <trkpt lat="50.214850" lon="26.903946">
        <ele>242.485483</ele>
        <time>2019-06-07T09:26:34.000Z</time>
      </trkpt>
      <trkpt lat="50.214745" lon="26.903841">
        <ele>242.683639</ele>
        <time>2019-06-07T09:26:37.000Z</time>
      </trkpt>
      <trkpt lat="50.214640" lon="26.903734">
        <ele>242.882899</ele>
        <time>2019-06-07T09:26:40.000Z</time>
      </trkpt>
      <trkpt lat="50.214530" lon="26.903652">
        <ele>243.076630</ele>
        <time>2019-06-07T09:26:43.000Z</time>
      </trkpt>
      <trkpt lat="50.214420" lon="26.903545">
        <ele>243.282593</ele>
        <time>2019-06-07T09:26:46.000Z</time>
      </trkpt>
      <trkpt lat="50.214317" lon="26.903442">
        <ele>243.476975</ele>
        <time>2019-06-07T09:26:49.000Z</time>
      </trkpt>
      <trkpt lat="50.214214" lon="26.903341">
        <ele>243.670268</ele>
        <time>2019-06-07T09:26:52.000Z</time>
      </trkpt>
      <trkpt lat="50.214100" lon="26.903254">
        <ele>243.871937</ele>
        <time>2019-06-07T09:26:55.000Z</time>
      </trkpt>
      <trkpt lat="50.213985" lon="26.903150">
        <ele>244.083145</ele>
        <time>2019-06-07T09:26:58.000Z</time>
      </trkpt>
      <trkpt lat="50.213870" lon="26.903051">
        <ele>244.291852</ele>
        <time>2019-06-07T09:27:01.000Z</time>
      </trkpt>
      <trkpt lat="50.213757" lon="26.902956">
        <ele>244.495821</ele>
        <time>2019-06-07T09:27:04.000Z</time>
      </trkpt>
      <trkpt lat="50.213640" lon="26.902857">
        <ele>244.707319</ele>
        <time>2019-06-07T09:27:07.000Z</time>
      </trkpt>
      <trkpt lat="50.213528" lon="26.902750">
        <ele>244.906577</ele>
        <time>2019-06-07T09:27:10.000Z</time>
      </trkpt>
      <trkpt lat="50.213413" lon="26.902660">
        <ele>245.031590</ele>
        <time>2019-06-07T09:27:13.000Z</time>
      </trkpt>
      <trkpt lat="50.213303" lon="26.902565">
        <ele>245.153751</ele>
        <time>2019-06-07T09:27:16.000Z</time>
      </trkpt>
      <trkpt lat="50.213190" lon="26.902466">
        <ele>245.279670</ele>
        <time>2019-06-07T09:27:19.000Z</time>
      </trkpt>
      <trkpt lat="50.213074" lon="26.902363">
        <ele>245.409351</ele>
        <time>2019-06-07T09:27:22.000Z</time>
      </trkpt>
      <trkpt lat="50.212960" lon="26.902264">
        <ele>245.536119</ele>
        <time>2019-06-07T09:27:25.000Z</time>
      </trkpt>
      <trkpt lat="50.212850" lon="26.902166">
        <ele>245.659194</ele>
        <time>2019-06-07T09:27:28.000Z</time>
      </trkpt>
      <trkpt lat="50.212730" lon="26.902058">
        <ele>245.793795</ele>
        <time>2019-06-07T09:27:31.000Z</time>
      </trkpt>
      <trkpt lat="50.212650" lon="26.901983">
        <ele>245.884474</ele>
        <time>2019-06-07T09:27:33.000Z</time>
      </trkpt>
      <trkpt lat="50.212536" lon="26.901870">
        <ele>246.015693</ele>
        <time>2019-06-07T09:27:36.000Z</time>
      </trkpt>
      <trkpt lat="50.212460" lon="26.901793">
        <ele>246.103733</ele>
        <time>2019-06-07T09:27:38.000Z</time>
      </trkpt>
      <trkpt lat="50.212380" lon="26.901718">
        <ele>246.194412</ele>
        <time>2019-06-07T09:27:40.000Z</time>
      </trkpt>
      <trkpt lat="50.212260" lon="26.901628">
        <ele>246.323790</ele>
        <time>2019-06-07T09:27:43.000Z</time>
      </trkpt>
      <trkpt lat="50.212185" lon="26.901505">
        <ele>246.429468</ele>
        <time>2019-06-07T09:27:46.000Z</time>
      </trkpt>
      <trkpt lat="50.212105" lon="26.901358">
        <ele>246.549498</ele>
        <time>2019-06-07T09:27:49.000Z</time>
      </trkpt>
      <trkpt lat="50.212025" lon="26.901217">
        <ele>246.661507</ele>
        <time>2019-06-07T09:27:52.000Z</time>
      </trkpt>
      <trkpt lat="50.211956" lon="26.901056">
        <ele>246.758538</ele>
        <time>2019-06-07T09:27:55.000Z</time>
      </trkpt>
      <trkpt lat="50.211876" lon="26.900880">
        <ele>246.866640</ele>
        <time>2019-06-07T09:27:58.000Z</time>
      </trkpt>
      <trkpt lat="50.211823" lon="26.900768">
        <ele>246.936392</ele>
        <time>2019-06-07T09:28:00.000Z</time>
      </trkpt>
      <trkpt lat="50.211760" lon="26.900658">
        <ele>247.010313</ele>
        <time>2019-06-07T09:28:02.000Z</time>
      </trkpt>
      <trkpt lat="50.211710" lon="26.900536">
        <ele>247.082859</ele>
        <time>2019-06-07T09:28:04.000Z</time>
      </trkpt>
      <trkpt lat="50.211662" lon="26.900410">
        <ele>247.156288</ele>
        <time>2019-06-07T09:28:06.000Z</time>
      </trkpt>
      <trkpt lat="50.211613" lon="26.900278">
        <ele>247.232703</ele>
        <time>2019-06-07T09:28:08.000Z</time>
      </trkpt>
      <trkpt lat="50.211540" lon="26.900103">
        <ele>247.337309</ele>
        <time>2019-06-07T09:28:11.000Z</time>
      </trkpt>
      <trkpt lat="50.211494" lon="26.899954">
        <ele>247.420150</ele>
        <time>2019-06-07T09:28:14.000Z</time>
      </trkpt>
      <trkpt lat="50.211440" lon="26.899832">
        <ele>247.494432</ele>
        <time>2019-06-07T09:28:18.000Z</time>
      </trkpt>
      <trkpt lat="50.211390" lon="26.899689">
        <ele>247.576031</ele>
        <time>2019-06-07T09:28:22.000Z</time>
      </trkpt>
      <trkpt lat="50.211340" lon="26.899567">
        <ele>247.648578</ele>
        <time>2019-06-07T09:28:25.000Z</time>
      </trkpt>
      <trkpt lat="50.211285" lon="26.899445">
        <ele>247.723308</ele>
        <time>2019-06-07T09:28:28.000Z</time>
      </trkpt>
      <trkpt lat="50.211212" lon="26.899305">
        <ele>247.813739</ele>
        <time>2019-06-07T09:28:31.000Z</time>
      </trkpt>
      <trkpt lat="50.211136" lon="26.899160">
        <ele>247.907595</ele>
        <time>2019-06-07T09:28:34.000Z</time>
      </trkpt>
      <trkpt lat="50.211075" lon="26.899023">
        <ele>247.991170</ele>
        <time>2019-06-07T09:28:37.000Z</time>
      </trkpt>
      <trkpt lat="50.211018" lon="26.898886">
        <ele>248.099693</ele>
        <time>2019-06-07T09:28:40.000Z</time>
      </trkpt>
      <trkpt lat="50.210968" lon="26.898767">
        <ele>248.245447</ele>
        <time>2019-06-07T09:28:43.000Z</time>
      </trkpt>
      <trkpt lat="50.210873" lon="26.898863">
        <ele>248.426448</ele>
        <time>2019-06-07T09:29:17.000Z</time>
      </trkpt>
      <trkpt lat="50.210850" lon="26.899021">
        <ele>248.592352</ele>
        <time>2019-06-07T09:29:21.000Z</time>
      </trkpt>
      <trkpt lat="50.210850" lon="26.899166">
        <ele>248.740812</ele>
        <time>2019-06-07T09:29:24.000Z</time>
      </trkpt>
      <trkpt lat="50.210854" lon="26.899310">
        <ele>248.888388</ele>
        <time>2019-06-07T09:29:27.000Z</time>
      </trkpt>
      <trkpt lat="50.210846" lon="26.899456">
        <ele>249.038419</ele>
        <time>2019-06-07T09:29:30.000Z</time>
      </trkpt>
      <trkpt lat="50.210850" lon="26.899624">
        <ele>249.210548</ele>
        <time>2019-06-07T09:29:34.000Z</time>
      </trkpt>
      <trkpt lat="50.210846" lon="26.899773">
        <ele>249.363238</ele>
        <time>2019-06-07T09:29:38.000Z</time>
      </trkpt>
      <trkpt lat="50.210846" lon="26.899948">
        <ele>249.542415</ele>
        <time>2019-06-07T09:29:42.000Z</time>
      </trkpt>
      <trkpt lat="50.210846" lon="26.900093">
        <ele>249.690875</ele>
        <time>2019-06-07T09:29:45.000Z</time>
      </trkpt>
      <trkpt lat="50.210854" lon="26.900234">
        <ele>249.835807</ele>
        <time>2019-06-07T09:29:48.000Z</time>
      </trkpt>
      <trkpt lat="50.210846" lon="26.900406">
        <ele>250.012376</ele>
        <time>2019-06-07T09:29:52.000Z</time>
      </trkpt>
      <trkpt lat="50.210840" lon="26.900578">
        <ele>250.188743</ele>
        <time>2019-06-07T09:29:56.000Z</time>
      </trkpt>
      <trkpt lat="50.210835" lon="26.900728">
        <ele>250.342531</ele>
        <time>2019-06-07T09:30:00.000Z</time>
      </trkpt>
      <trkpt lat="50.210830" lon="26.900911">
        <ele>250.530069</ele>
        <time>2019-06-07T09:30:04.000Z</time>
      </trkpt>
      <trkpt lat="50.210815" lon="26.901087">
        <ele>250.711861</ele>
        <time>2019-06-07T09:30:08.000Z</time>
      </trkpt>
      <trkpt lat="50.210808" lon="26.901264">
        <ele>250.893431</ele>
        <time>2019-06-07T09:30:12.000Z</time>
      </trkpt>
      <trkpt lat="50.210800" lon="26.901423">
        <ele>251.317172</ele>
        <time>2019-06-07T09:30:16.000Z</time>
      </trkpt>
      <trkpt lat="50.210823" lon="26.901567">
        <ele>251.769709</ele>
        <time>2019-06-07T09:30:20.000Z</time>
      </trkpt>
      <trkpt lat="50.210823" lon="26.901710">
        <ele>252.205728</ele>
        <time>2019-06-07T09:30:24.000Z</time>
      </trkpt>
      <trkpt lat="50.210815" lon="26.901855">
        <ele>252.649485</ele>
        <time>2019-06-07T09:30:28.000Z</time>
      </trkpt>
      <trkpt lat="50.210827" lon="26.902014">
        <ele>253.137649</ele>
        <time>2019-06-07T09:30:32.000Z</time>
      </trkpt>
      <trkpt lat="50.210820" lon="26.902176">
        <ele>253.632725</ele>
        <time>2019-06-07T09:30:36.000Z</time>
      </trkpt>
      <trkpt lat="50.210800" lon="26.902319">
        <ele>254.079036</ele>
        <time>2019-06-07T09:30:40.000Z</time>
      </trkpt>
      <trkpt lat="50.210785" lon="26.902462">
        <ele>254.520873</ele>
        <time>2019-06-07T09:30:44.000Z</time>
      </trkpt>
      <trkpt lat="50.210762" lon="26.902610">
        <ele>254.985253</ele>
        <time>2019-06-07T09:30:48.000Z</time>
      </trkpt>
      <trkpt lat="50.210743" lon="26.902770">
        <ele>255.481435</ele>
        <time>2019-06-07T09:30:52.000Z</time>
      </trkpt>
      <trkpt lat="50.210735" lon="26.902940">
        <ele>256.001180</ele>
        <time>2019-06-07T09:30:57.000Z</time>
      </trkpt>
      <trkpt lat="50.210716" lon="26.903116">
        <ele>256.545401</ele>
        <time>2019-06-07T09:34:20.000Z</time>
      </trkpt>
      <trkpt lat="50.210680" lon="26.903261">
        <ele>257.019625</ele>
        <time>2019-06-07T09:34:29.000Z</time>
      </trkpt>
      <trkpt lat="50.210648" lon="26.903402">
        <ele>257.475781</ele>
        <time>2019-06-07T09:34:39.000Z</time>
      </trkpt>
      <trkpt lat="50.210632" lon="26.903631">
        <ele>258.178173</ele>
        <time>2019-06-07T09:35:02.000Z</time>
      </trkpt>
      <trkpt lat="50.210610" lon="26.903774">
        <ele>258.626616</ele>
        <time>2019-06-07T09:41:34.000Z</time>
      </trkpt>
      <trkpt lat="50.210590" lon="26.903929">
        <ele>259.108737</ele>
        <time>2019-06-07T09:41:39.000Z</time>
      </trkpt>
      <trkpt lat="50.210570" lon="26.904068">
        <ele>259.496212</ele>
        <time>2019-06-07T09:41:43.000Z</time>
      </trkpt>
      <trkpt lat="50.210556" lon="26.904222">
        <ele>259.511780</ele>
        <time>2019-06-07T09:41:48.000Z</time>
      </trkpt>
      <trkpt lat="50.210545" lon="26.904420">
        <ele>259.531671</ele>
        <time>2019-06-07T09:42:39.000Z</time>
      </trkpt>
      <trkpt lat="50.210495" lon="26.904560">
        <ele>259.547717</ele>
        <time>2019-06-07T09:42:43.000Z</time>
      </trkpt>
      <trkpt lat="50.210472" lon="26.904736">
        <ele>259.565695</ele>
        <time>2019-06-07T09:42:47.000Z</time>
      </trkpt>
      <trkpt lat="50.210460" lon="26.904911">
        <ele>259.583310</ele>
        <time>2019-06-07T09:42:51.000Z</time>
      </trkpt>
      <trkpt lat="50.210457" lon="26.905058">
        <ele>259.598029</ele>
        <time>2019-06-07T09:42:54.000Z</time>
      </trkpt>
      <trkpt lat="50.210464" lon="26.905214">
        <ele>259.613681</ele>
        <time>2019-06-07T09:42:58.000Z</time>
      </trkpt>
      <trkpt lat="50.210440" lon="26.905373">
        <ele>259.630030</ele>
        <time>2019-06-07T09:43:02.000Z</time>
      </trkpt>
      <trkpt lat="50.210430" lon="26.905527">
        <ele>259.645522</ele>
        <time>2019-06-07T09:43:06.000Z</time>
      </trkpt>
      <trkpt lat="50.210420" lon="26.905699">
        <ele>259.662808</ele>
        <time>2019-06-07T09:43:10.000Z</time>
      </trkpt>
      <trkpt lat="50.210403" lon="26.905874">
        <ele>259.680523</ele>
        <time>2019-06-07T09:43:14.000Z</time>
      </trkpt>
      <trkpt lat="50.210392" lon="26.906055">
        <ele>259.698719</ele>
        <time>2019-06-07T09:43:18.000Z</time>
      </trkpt>
      <trkpt lat="50.210377" lon="26.906204">
        <ele>259.713815</ele>
        <time>2019-06-07T09:43:21.000Z</time>
      </trkpt>
      <trkpt lat="50.210354" lon="26.906374">
        <ele>259.731205</ele>
        <time>2019-06-07T09:43:25.000Z</time>
      </trkpt>
      <trkpt lat="50.210340" lon="26.906555">
        <ele>259.749452</ele>
        <time>2019-06-07T09:43:29.000Z</time>
      </trkpt>
      <trkpt lat="50.210300" lon="26.906687">
        <ele>259.764069</ele>
        <time>2019-06-07T09:43:32.000Z</time>
      </trkpt>
      <trkpt lat="50.210250" lon="26.906816">
        <ele>259.771003</ele>
        <time>2019-06-07T09:43:35.000Z</time>
      </trkpt>
      <trkpt lat="50.210224" lon="26.906975">
        <ele>259.746296</ele>
        <time>2019-06-07T09:43:38.000Z</time>
      </trkpt>
      <trkpt lat="50.210197" lon="26.907124">
        <ele>259.722983</ele>
        <time>2019-06-07T09:43:41.000Z</time>
      </trkpt>
      <trkpt lat="50.210163" lon="26.907270">
        <ele>259.699593</ele>
        <time>2019-06-07T09:43:44.000Z</time>
      </trkpt>
      <trkpt lat="50.210117" lon="26.907450">
        <ele>259.670413</ele>
        <time>2019-06-07T09:43:48.000Z</time>
      </trkpt>
      <trkpt lat="50.210075" lon="26.907608">
        <ele>259.644656</ele>
        <time>2019-06-07T09:43:51.000Z</time>
      </trkpt>
      <trkpt lat="50.210050" lon="26.907766">
        <ele>259.620153</ele>
        <time>2019-06-07T09:43:54.000Z</time>
      </trkpt>
      <trkpt lat="50.210026" lon="26.907927">
        <ele>259.595265</ele>
        <time>2019-06-07T09:43:57.000Z</time>
      </trkpt>
      <trkpt lat="50.210003" lon="26.908075">
        <ele>259.572336</ele>
        <time>2019-06-07T09:44:00.000Z</time>
      </trkpt>
      <trkpt lat="50.209984" lon="26.908226">
        <ele>259.549168</ele>
        <time>2019-06-07T09:44:03.000Z</time>
      </trkpt>
      <trkpt lat="50.209972" lon="26.908371">
        <ele>259.527157</ele>
        <time>2019-06-07T09:44:06.000Z</time>
      </trkpt>
      <trkpt lat="50.209953" lon="26.908530">
        <ele>259.502805</ele>
        <time>2019-06-07T09:44:09.000Z</time>
      </trkpt>
      <trkpt lat="50.209934" lon="26.908674">
        <ele>259.480670</ele>
        <time>2019-06-07T09:44:12.000Z</time>
      </trkpt>
      <trkpt lat="50.209910" lon="26.908827">
        <ele>259.456954</ele>
        <time>2019-06-07T09:44:15.000Z</time>
      </trkpt>
      <trkpt lat="50.209896" lon="26.908980">
        <ele>259.433686</ele>
        <time>2019-06-07T09:44:18.000Z</time>
      </trkpt>
      <trkpt lat="50.209880" lon="26.909163">
        <ele>259.405879</ele>
        <time>2019-06-07T09:44:22.000Z</time>
      </trkpt>
      <trkpt lat="50.209866" lon="26.909306">
        <ele>259.384100</ele>
        <time>2019-06-07T09:44:25.000Z</time>
      </trkpt>
      <trkpt lat="50.209854" lon="26.909456">
        <ele>259.361342</ele>
        <time>2019-06-07T09:44:28.000Z</time>
      </trkpt>
      <trkpt lat="50.209840" lon="26.909597">
        <ele>259.329642</ele>
        <time>2019-06-07T09:44:31.000Z</time>
      </trkpt>
      <trkpt lat="50.209805" lon="26.909756">
        <ele>259.284315</ele>
        <time>2019-06-07T09:44:35.000Z</time>
      </trkpt>
      <trkpt lat="50.209785" lon="26.909925">
        <ele>259.237986</ele>
        <time>2019-06-07T09:44:39.000Z</time>
      </trkpt>
      <trkpt lat="50.209770" lon="26.910084">
        <ele>259.194661</ele>
        <time>2019-06-07T09:44:43.000Z</time>
      </trkpt>
      <trkpt lat="50.209750" lon="26.910221">
        <ele>259.156781</ele>
        <time>2019-06-07T09:44:46.000Z</time>
      </trkpt>
      <trkpt lat="50.209760" lon="26.910387">
        <ele>259.111834</ele>
        <time>2019-06-07T09:44:51.000Z</time>
      </trkpt>
      <trkpt lat="50.209763" lon="26.910564">
        <ele>259.064104</ele>
        <time>2019-06-07T09:44:56.000Z</time>
      </trkpt>
      <trkpt lat="50.209736" lon="26.910730">
        <ele>259.017932</ele>
        <time>2019-06-07T09:45:00.000Z</time>
      </trkpt>
      <trkpt lat="50.209736" lon="26.910915">
        <ele>258.968062</ele>
        <time>2019-06-07T09:45:04.000Z</time>
      </trkpt>
      <trkpt lat="50.209724" lon="26.911066">
        <ele>258.927044</ele>
        <time>2019-06-07T09:45:07.000Z</time>
      </trkpt>
      <trkpt lat="50.209694" lon="26.911217">
        <ele>258.884422</ele>
        <time>2019-06-07T09:45:10.000Z</time>
      </trkpt>
      <trkpt lat="50.209667" lon="26.911377">
        <ele>258.839817</ele>
        <time>2019-06-07T09:45:13.000Z</time>
      </trkpt>
      <trkpt lat="50.209656" lon="26.911518">
        <ele>258.801526</ele>
        <time>2019-06-07T09:45:16.000Z</time>
      </trkpt>
      <trkpt lat="50.209633" lon="26.911660">
        <ele>258.762040</ele>
        <time>2019-06-07T09:45:19.000Z</time>
      </trkpt>
      <trkpt lat="50.209618" lon="26.911808">
        <ele>258.721646</ele>
        <time>2019-06-07T09:45:23.000Z</time>
      </trkpt>
      <trkpt lat="50.209590" lon="26.911974">
        <ele>258.675369</ele>
        <time>2019-06-07T09:45:27.000Z</time>
      </trkpt>
      <trkpt lat="50.209553" lon="26.912148">
        <ele>258.625942</ele>
        <time>2019-06-07T09:45:31.000Z</time>
      </trkpt>
      <trkpt lat="50.209522" lon="26.912283">
        <ele>258.570943</ele>
        <time>2019-06-07T09:45:34.000Z</time>
      </trkpt>
      <trkpt lat="50.209496" lon="26.912432">
        <ele>258.443084</ele>
        <time>2019-06-07T09:45:37.000Z</time>
      </trkpt>
      <trkpt lat="50.209473" lon="26.912601">
        <ele>258.300042</ele>
        <time>2019-06-07T09:45:41.000Z</time>
      </trkpt>
      <trkpt lat="50.209440" lon="26.912758">
        <ele>258.163232</ele>
        <time>2019-06-07T09:45:45.000Z</time>
      </trkpt>
      <trkpt lat="50.209393" lon="26.912884">
        <ele>258.042492</ele>
        <time>2019-06-07T09:45:49.000Z</time>
      </trkpt>
      <trkpt lat="50.209362" lon="26.913023">
        <ele>257.920627</ele>
        <time>2019-06-07T09:45:53.000Z</time>
      </trkpt>
      <trkpt lat="50.209312" lon="26.913181">
        <ele>257.774702</ele>
        <time>2019-06-07T09:45:58.000Z</time>
      </trkpt>
      <trkpt lat="50.209297" lon="26.913422">
        <ele>257.574238</ele>
        <time>2019-06-07T09:47:41.000Z</time>
      </trkpt>
      <trkpt lat="50.209267" lon="26.913620">
        <ele>257.405783</ele>
        <time>2019-06-07T09:47:44.000Z</time>
      </trkpt>
      <trkpt lat="50.209220" lon="26.913754">
        <ele>257.279277</ele>
        <time>2019-06-07T09:47:47.000Z</time>
      </trkpt>
      <trkpt lat="50.209167" lon="26.913904">
        <ele>257.137423</ele>
        <time>2019-06-07T09:47:51.000Z</time>
      </trkpt>
      <trkpt lat="50.209126" lon="26.914066">
        <ele>256.993197</ele>
        <time>2019-06-07T09:47:55.000Z</time>
      </trkpt>
      <trkpt lat="50.209106" lon="26.914207">
        <ele>256.873631</ele>
        <time>2019-06-07T09:47:59.000Z</time>
      </trkpt>
      <trkpt lat="50.209076" lon="26.914341">
        <ele>256.756100</ele>
        <time>2019-06-07T09:48:02.000Z</time>
      </trkpt>
      <trkpt lat="50.209040" lon="26.914500">
        <ele>256.616469</ele>
        <time>2019-06-07T09:48:05.000Z</time>
      </trkpt>
      <trkpt lat="50.208980" lon="26.914616">
        <ele>256.492989</ele>
        <time>2019-06-07T09:48:16.000Z</time>
      </trkpt>
      <trkpt lat="50.208920" lon="26.914730">
        <ele>256.370792</ele>
        <time>2019-06-07T09:48:24.000Z</time>
      </trkpt>
      <trkpt lat="50.208874" lon="26.914865">
        <ele>256.328440</ele>
        <time>2019-06-07T09:48:30.000Z</time>
      </trkpt>
      <trkpt lat="50.208855" lon="26.915030">
        <ele>256.672177</ele>
        <time>2019-06-07T09:48:35.000Z</time>
      </trkpt>
      <trkpt lat="50.208836" lon="26.915213">
        <ele>257.052293</ele>
        <time>2019-06-07T09:48:39.000Z</time>
      </trkpt>
      <trkpt lat="50.208840" lon="26.915361">
        <ele>257.356013</ele>
        <time>2019-06-07T09:48:42.000Z</time>
      </trkpt>
      <trkpt lat="50.208860" lon="26.915510">
        <ele>257.668159</ele>
        <time>2019-06-07T09:48:45.000Z</time>
      </trkpt>
      <trkpt lat="50.208870" lon="26.915668">
        <ele>257.993692</ele>
        <time>2019-06-07T09:48:48.000Z</time>
      </trkpt>
      <trkpt lat="50.208870" lon="26.915848">
        <ele>258.362751</ele>
        <time>2019-06-07T09:48:52.000Z</time>
      </trkpt>
      <trkpt lat="50.208862" lon="26.916027">
        <ele>258.730654</ele>
        <time>2019-06-07T09:48:56.000Z</time>
      </trkpt>
      <trkpt lat="50.208870" lon="26.916187">
        <ele>259.059707</ele>
        <time>2019-06-07T09:49:01.000Z</time>
      </trkpt>
      <trkpt lat="50.208840" lon="26.916340">
        <ele>259.387801</ele>
        <time>2019-06-07T09:49:05.000Z</time>
      </trkpt>
      <trkpt lat="50.208794" lon="26.916490">
        <ele>259.728836</ele>
        <time>2019-06-07T09:49:10.000Z</time>
      </trkpt>
      <trkpt lat="50.208763" lon="26.916632">
        <ele>260.036456</ele>
        <time>2019-06-07T09:49:14.000Z</time>
      </trkpt>
      <trkpt lat="50.208725" lon="26.916798">
        <ele>260.397929</ele>
        <time>2019-06-07T09:49:19.000Z</time>
      </trkpt>
      <trkpt lat="50.208702" lon="26.916933">
        <ele>260.684364</ele>
        <time>2019-06-07T09:49:23.000Z</time>
      </trkpt>
      <trkpt lat="50.208706" lon="26.917086">
        <ele>260.998328</ele>
        <time>2019-06-07T09:49:28.000Z</time>
      </trkpt>
      <trkpt lat="50.208702" lon="26.917244">
        <ele>261.322534</ele>
        <time>2019-06-07T09:49:32.000Z</time>
      </trkpt>
      <trkpt lat="50.208675" lon="26.917408">
        <ele>261.669737</ele>
        <time>2019-06-07T09:49:36.000Z</time>
      </trkpt>
      <trkpt lat="50.208670" lon="26.917572">
        <ele>262.006374</ele>
        <time>2019-06-07T09:49:40.000Z</time>
      </trkpt>
      <trkpt lat="50.208680" lon="26.917747">
        <ele>262.002850</ele>
        <time>2019-06-07T09:49:44.000Z</time>
      </trkpt>
      <trkpt lat="50.208717" lon="26.917889">
        <ele>261.976784</ele>
        <time>2019-06-07T09:49:48.000Z</time>
      </trkpt>
      <trkpt lat="50.208744" lon="26.918062">
        <ele>261.946511</ele>
        <time>2019-06-07T09:49:52.000Z</time>
      </trkpt>
      <trkpt lat="50.208748" lon="26.918238">
        <ele>261.916570</ele>
        <time>2019-06-07T09:49:56.000Z</time>
      </trkpt>
      <trkpt lat="50.208750" lon="26.918386">
        <ele>261.891403</ele>
        <time>2019-06-07T09:49:59.000Z</time>
      </trkpt>
      <trkpt lat="50.208750" lon="26.918533">
        <ele>261.866412</ele>
        <time>2019-06-07T09:50:02.000Z</time>
      </trkpt>
      <trkpt lat="50.208744" lon="26.918676">
        <ele>261.842048</ele>
        <time>2019-06-07T09:50:05.000Z</time>
      </trkpt>
      <trkpt lat="50.208714" lon="26.918854">
        <ele>261.810755</ele>
        <time>2019-06-07T09:50:09.000Z</time>
      </trkpt>
      <trkpt lat="50.208680" lon="26.918993">
        <ele>261.785456</ele>
        <time>2019-06-07T09:50:12.000Z</time>
      </trkpt>
      <trkpt lat="50.208637" lon="26.919144">
        <ele>261.757358</ele>
        <time>2019-06-07T09:50:15.000Z</time>
      </trkpt>
      <trkpt lat="50.208595" lon="26.919287">
        <ele>261.730609</ele>
        <time>2019-06-07T09:50:19.000Z</time>
      </trkpt>
      <trkpt lat="50.208560" lon="26.919424">
        <ele>261.705531</ele>
        <time>2019-06-07T09:50:23.000Z</time>
      </trkpt>
      <trkpt lat="50.208527" lon="26.919577">
        <ele>261.678082</ele>
        <time>2019-06-07T09:50:27.000Z</time>
      </trkpt>
      <trkpt lat="50.208538" lon="26.919760">
        <ele>261.646833</ele>
        <time>2019-06-07T09:50:31.000Z</time>
      </trkpt>
      <trkpt lat="50.208515" lon="26.919939">
        <ele>261.615794</ele>
        <time>2019-06-07T09:50:35.000Z</time>
      </trkpt>
      <trkpt lat="50.208470" lon="26.920109">
        <ele>261.584518</ele>
        <time>2019-06-07T09:50:39.000Z</time>
      </trkpt>
      <trkpt lat="50.208435" lon="26.920240">
        <ele>261.560384</ele>
        <time>2019-06-07T09:50:42.000Z</time>
      </trkpt>
      <trkpt lat="50.208412" lon="26.920385">
        <ele>261.491189</ele>
        <time>2019-06-07T09:50:45.000Z</time>
      </trkpt>
      <trkpt lat="50.208390" lon="26.920525">
        <ele>261.406782</ele>
        <time>2019-06-07T09:50:48.000Z</time>
      </trkpt>
      <trkpt lat="50.208385" lon="26.920708">
        <ele>261.299535</ele>
        <time>2019-06-07T09:50:52.000Z</time>
      </trkpt>
      <trkpt lat="50.208378" lon="26.920876">
        <ele>261.200960</ele>
        <time>2019-06-07T09:50:56.000Z</time>
      </trkpt>
      <trkpt lat="50.208370" lon="26.921053">
        <ele>261.097066</ele>
        <time>2019-06-07T09:51:01.000Z</time>
      </trkpt>
      <trkpt lat="50.208344" lon="26.921230">
        <ele>260.990734</ele>
        <time>2019-06-07T09:51:05.000Z</time>
      </trkpt>
      <trkpt lat="50.208282" lon="26.921381">
        <ele>260.885690</ele>
        <time>2019-06-07T09:51:09.000Z</time>
      </trkpt>
      <trkpt lat="50.208237" lon="26.921549">
        <ele>260.779055</ele>
        <time>2019-06-07T09:51:13.000Z</time>
      </trkpt>
      <trkpt lat="50.208214" lon="26.921711">
        <ele>260.681895</ele>
        <time>2019-06-07T09:51:17.000Z</time>
      </trkpt>
      <trkpt lat="50.208202" lon="26.921900">
        <ele>260.570689</ele>
        <time>2019-06-07T09:51:21.000Z</time>
      </trkpt>
      <trkpt lat="50.208210" lon="26.922071">
        <ele>260.470298</ele>
        <time>2019-06-07T09:51:25.000Z</time>
      </trkpt>
      <trkpt lat="50.208183" lon="26.922243">
        <ele>260.366604</ele>
        <time>2019-06-07T09:51:29.000Z</time>
      </trkpt>
      <trkpt lat="50.208160" lon="26.922417">
        <ele>260.262573</ele>
        <time>2019-06-07T09:51:33.000Z</time>
      </trkpt>
      <trkpt lat="50.208145" lon="26.922556">
        <ele>260.180037</ele>
        <time>2019-06-07T09:51:36.000Z</time>
      </trkpt>
      <trkpt lat="50.208126" lon="26.922705">
        <ele>260.091080</ele>
        <time>2019-06-07T09:51:39.000Z</time>
      </trkpt>
      <trkpt lat="50.208100" lon="26.922857">
        <ele>259.998957</ele>
        <time>2019-06-07T09:51:42.000Z</time>
      </trkpt>
      <trkpt lat="50.208076" lon="26.922995">
        <ele>259.915225</ele>
        <time>2019-06-07T09:51:45.000Z</time>
      </trkpt>
      <trkpt lat="50.208060" lon="26.923145">
        <ele>259.680099</ele>
        <time>2019-06-07T09:51:48.000Z</time>
      </trkpt>
      <trkpt lat="50.208046" lon="26.923296">
        <ele>259.430016</ele>
        <time>2019-06-07T09:51:51.000Z</time>
      </trkpt>
      <trkpt lat="50.208020" lon="26.923468">
        <ele>259.140340</ele>
        <time>2019-06-07T09:51:56.000Z</time>
      </trkpt>
      <trkpt lat="50.208010" lon="26.923658">
        <ele>258.827866</ele>
        <time>2019-06-07T09:52:00.000Z</time>
      </trkpt>
      <trkpt lat="50.208010" lon="26.923853">
        <ele>258.508248</ele>
        <time>2019-06-07T09:52:03.000Z</time>
      </trkpt>
      <trkpt lat="50.208040" lon="26.924057">
        <ele>258.165165</ele>
        <time>2019-06-07T09:52:06.000Z</time>
      </trkpt>
      <trkpt lat="50.208076" lon="26.924260">
        <ele>257.819898</ele>
        <time>2019-06-07T09:52:09.000Z</time>
      </trkpt>
      <trkpt lat="50.208103" lon="26.924400">
        <ele>257.580237</ele>
        <time>2019-06-07T09:52:11.000Z</time>
      </trkpt>
      <trkpt lat="50.208138" lon="26.924550">
        <ele>257.318547</ele>
        <time>2019-06-07T09:52:13.000Z</time>
      </trkpt>
      <trkpt lat="50.208176" lon="26.924704">
        <ele>257.048021</ele>
        <time>2019-06-07T09:52:15.000Z</time>
      </trkpt>
      <trkpt lat="50.208218" lon="26.924843">
        <ele>256.796076</ele>
        <time>2019-06-07T09:52:17.000Z</time>
      </trkpt>
      <trkpt lat="50.208263" lon="26.924990">
        <ele>256.528991</ele>
        <time>2019-06-07T09:52:19.000Z</time>
      </trkpt>
      <trkpt lat="50.208300" lon="26.925144">
        <ele>256.259375</ele>
        <time>2019-06-07T09:52:21.000Z</time>
      </trkpt>
      <trkpt lat="50.208332" lon="26.925297">
        <ele>255.995548</ele>
        <time>2019-06-07T09:52:23.000Z</time>
      </trkpt>
      <trkpt lat="50.208355" lon="26.925436">
        <ele>255.760228</ele>
        <time>2019-06-07T09:52:25.000Z</time>
      </trkpt>
      <trkpt lat="50.208360" lon="26.925636">
        <ele>255.432168</ele>
        <time>2019-06-07T09:52:28.000Z</time>
      </trkpt>
      <trkpt lat="50.208363" lon="26.925844">
        <ele>255.252918</ele>
        <time>2019-06-07T09:52:31.000Z</time>
      </trkpt>
      <trkpt lat="50.208344" lon="26.925985">
        <ele>255.198810</ele>
        <time>2019-06-07T09:52:33.000Z</time>
      </trkpt>
      <trkpt lat="50.208336" lon="26.926130">
        <ele>255.144159</ele>
        <time>2019-06-07T09:52:35.000Z</time>
      </trkpt>
      <trkpt lat="50.208317" lon="26.926332">
        <ele>255.067490</ele>
        <time>2019-06-07T09:52:38.000Z</time>
      </trkpt>
      <trkpt lat="50.208305" lon="26.926533">
        <ele>254.991684</ele>
        <time>2019-06-07T09:52:41.000Z</time>
      </trkpt>
      <trkpt lat="50.208313" lon="26.926743">
        <ele>254.912687</ele>
        <time>2019-06-07T09:52:44.000Z</time>
      </trkpt>
      <trkpt lat="50.208320" lon="26.926945">
        <ele>254.836722</ele>
        <time>2019-06-07T09:52:47.000Z</time>
      </trkpt>
      <trkpt lat="50.208330" lon="26.927141">
        <ele>254.762888</ele>
        <time>2019-06-07T09:52:50.000Z</time>
      </trkpt>
      <trkpt lat="50.208324" lon="26.927309">
        <ele>254.699704</ele>
        <time>2019-06-07T09:52:53.000Z</time>
      </trkpt>
      <trkpt lat="50.208355" lon="26.927479">
        <ele>254.633326</ele>
        <time>2019-06-07T09:52:57.000Z</time>
      </trkpt>
      <trkpt lat="50.208390" lon="26.927658">
        <ele>254.563042</ele>
        <time>2019-06-07T09:53:01.000Z</time>
      </trkpt>
      <trkpt lat="50.208424" lon="26.927814">
        <ele>254.501158</ele>
        <time>2019-06-07T09:53:04.000Z</time>
      </trkpt>
      <trkpt lat="50.208470" lon="26.927984">
        <ele>254.431850</ele>
        <time>2019-06-07T09:53:08.000Z</time>
      </trkpt>
      <trkpt lat="50.208538" lon="26.928123">
        <ele>254.366151</ele>
        <time>2019-06-07T09:53:12.000Z</time>
      </trkpt>
      <trkpt lat="50.208588" lon="26.928238">
        <ele>254.313945</ele>
        <time>2019-06-07T09:53:15.000Z</time>
      </trkpt>
      <trkpt lat="50.208670" lon="26.928375">
        <ele>254.259275</ele>
        <time>2019-06-07T09:53:19.000Z</time>
      </trkpt>
      <trkpt lat="50.208750" lon="26.928509">
        <ele>254.695953</ele>
        <time>2019-06-07T09:53:23.000Z</time>
      </trkpt>
      <trkpt lat="50.208820" lon="26.928635">
        <ele>255.093548</ele>
        <time>2019-06-07T09:53:27.000Z</time>
      </trkpt>
      <trkpt lat="50.208890" lon="26.928740">
        <ele>255.454844</ele>
        <time>2019-06-07T09:55:38.000Z</time>
      </trkpt>
      <trkpt lat="50.208958" lon="26.928940">
        <ele>255.994510</ele>
        <time>2019-06-07T09:56:21.000Z</time>
      </trkpt>
      <trkpt lat="50.208996" lon="26.929081">
        <ele>256.359078</ele>
        <time>2019-06-07T09:56:31.000Z</time>
      </trkpt>
      <trkpt lat="50.209040" lon="26.929222">
        <ele>256.732883</ele>
        <time>2019-06-07T09:56:40.000Z</time>
      </trkpt>
      <trkpt lat="50.209090" lon="26.929338">
        <ele>257.066149</ele>
        <time>2019-06-07T09:56:48.000Z</time>
      </trkpt>
      <trkpt lat="50.209150" lon="26.929455">
        <ele>257.423415</ele>
        <time>2019-06-07T09:56:56.000Z</time>
      </trkpt>
      <trkpt lat="50.209198" lon="26.929588">
        <ele>257.787262</ele>
        <time>2019-06-07T09:57:04.000Z</time>
      </trkpt>
      <trkpt lat="50.209240" lon="26.929726">
        <ele>258.151394</ele>
        <time>2019-06-07T09:57:13.000Z</time>
      </trkpt>
      <trkpt lat="50.209270" lon="26.929876">
        <ele>258.525878</ele>
        <time>2019-06-07T09:57:23.000Z</time>
      </trkpt>
      <trkpt lat="50.209316" lon="26.930010">
        <ele>258.888223</ele>
        <time>2019-06-07T09:57:38.000Z</time>
      </trkpt>
      <trkpt lat="50.209340" lon="26.930150">
        <ele>259.233591</ele>
        <time>2019-06-07T09:57:46.000Z</time>
      </trkpt>
      <trkpt lat="50.209362" lon="26.930292">
        <ele>259.581737</ele>
        <time>2019-06-07T09:57:51.000Z</time>
      </trkpt>
      <trkpt lat="50.209390" lon="26.930439">
        <ele>259.947209</ele>
        <time>2019-06-07T09:57:56.000Z</time>
      </trkpt>
      <trkpt lat="50.209404" lon="26.930590">
        <ele>260.310784</ele>
        <time>2019-06-07T09:58:01.000Z</time>
      </trkpt>
      <trkpt lat="50.209430" lon="26.930727">
        <ele>260.651293</ele>
        <time>2019-06-07T09:58:05.000Z</time>
      </trkpt>
      <trkpt lat="50.209465" lon="26.930866">
        <ele>260.975501</ele>
        <time>2019-06-07T09:58:09.000Z</time>
      </trkpt>
      <trkpt lat="50.209500" lon="26.931026">
        <ele>261.180346</ele>
        <time>2019-06-07T09:58:13.000Z</time>
      </trkpt>
      <trkpt lat="50.209540" lon="26.931177">
        <ele>261.378329</ele>
        <time>2019-06-07T09:58:17.000Z</time>
      </trkpt>
      <trkpt lat="50.209568" lon="26.931324">
        <ele>261.564134</ele>
        <time>2019-06-07T09:58:21.000Z</time>
      </trkpt>
      <trkpt lat="50.209602" lon="26.931465">
        <ele>261.746674</ele>
        <time>2019-06-07T09:58:25.000Z</time>
      </trkpt>
      <trkpt lat="50.209625" lon="26.931618">
        <ele>261.937072</ele>
        <time>2019-06-07T09:58:29.000Z</time>
      </trkpt>
      <trkpt lat="50.209644" lon="26.931774">
        <ele>262.129453</ele>
        <time>2019-06-07T09:58:33.000Z</time>
      </trkpt>
      <trkpt lat="50.209675" lon="26.931910">
        <ele>262.304350</ele>
        <time>2019-06-07T09:58:36.000Z</time>
      </trkpt>
      <trkpt lat="50.209713" lon="26.932090">
        <ele>262.533971</ele>
        <time>2019-06-07T09:58:40.000Z</time>
      </trkpt>
      <trkpt lat="50.209755" lon="26.932217">
        <ele>262.707154</ele>
        <time>2019-06-07T09:58:43.000Z</time>
      </trkpt>
      <trkpt lat="50.209810" lon="26.932383">
        <ele>262.933609</ele>
        <time>2019-06-07T09:58:47.000Z</time>
      </trkpt>
      <trkpt lat="50.209850" lon="26.932514">
        <ele>263.109448</ele>
        <time>2019-06-07T09:58:50.000Z</time>
      </trkpt>
      <trkpt lat="50.209896" lon="26.932680">
        <ele>263.328592</ele>
        <time>2019-06-07T09:58:54.000Z</time>
      </trkpt>
      <trkpt lat="50.209946" lon="26.932840">
        <ele>263.544299</ele>
        <time>2019-06-07T09:58:58.000Z</time>
      </trkpt>
      <trkpt lat="50.209972" lon="26.932995">
        <ele>263.738418</ele>
        <time>2019-06-07T09:59:02.000Z</time>
      </trkpt>
      <trkpt lat="50.210000" lon="26.933150">
        <ele>263.933530</ele>
        <time>2019-06-07T09:59:06.000Z</time>
      </trkpt>
      <trkpt lat="50.210020" lon="26.933327">
        <ele>264.151274</ele>
        <time>2019-06-07T09:59:11.000Z</time>
      </trkpt>
      <trkpt lat="50.210045" lon="26.933468">
        <ele>264.328524</ele>
        <time>2019-06-07T09:59:14.000Z</time>
      </trkpt>
      <trkpt lat="50.210080" lon="26.933632">
        <ele>264.366622</ele>
        <time>2019-06-07T09:59:18.000Z</time>
      </trkpt>
      <trkpt lat="50.210130" lon="26.933802">
        <ele>264.389419</ele>
        <time>2019-06-07T09:59:22.000Z</time>
      </trkpt>
      <trkpt lat="50.210160" lon="26.933973">
        <ele>264.411024</ele>
        <time>2019-06-07T09:59:26.000Z</time>
      </trkpt>
      <trkpt lat="50.210194" lon="26.934137">
        <ele>264.432030</ele>
        <time>2019-06-07T09:59:30.000Z</time>
      </trkpt>
      <trkpt lat="50.210213" lon="26.934317">
        <ele>264.454259</ele>
        <time>2019-06-07T09:59:34.000Z</time>
      </trkpt>
      <trkpt lat="50.210247" lon="26.934486">
        <ele>264.475844</ele>
        <time>2019-06-07T09:59:38.000Z</time>
      </trkpt>
      <trkpt lat="50.210262" lon="26.934626">
        <ele>264.493140</ele>
        <time>2019-06-07T09:59:41.000Z</time>
      </trkpt>
      <trkpt lat="50.210270" lon="26.934770">
        <ele>264.510753</ele>
        <time>2019-06-07T09:59:44.000Z</time>
      </trkpt>
      <trkpt lat="50.210280" lon="26.934916">
        <ele>264.528644</ele>
        <time>2019-06-07T09:59:47.000Z</time>
      </trkpt>
      <trkpt lat="50.210316" lon="26.935053">
        <ele>264.546690</ele>
        <time>2019-06-07T09:59:50.000Z</time>
      </trkpt>
      <trkpt lat="50.210335" lon="26.935230">
        <ele>264.568558</ele>
        <time>2019-06-07T09:59:54.000Z</time>
      </trkpt>
      <trkpt lat="50.210370" lon="26.935385">
        <ele>264.588585</ele>
        <time>2019-06-07T09:59:58.000Z</time>
      </trkpt>
      <trkpt lat="50.210384" lon="26.935543">
        <ele>264.608021</ele>
        <time>2019-06-07T10:00:03.000Z</time>
      </trkpt>
      <trkpt lat="50.210407" lon="26.935701">
        <ele>264.627765</ele>
        <time>2019-06-07T10:00:07.000Z</time>
      </trkpt>
      <trkpt lat="50.210426" lon="26.935892">
        <ele>264.651317</ele>
        <time>2019-06-07T10:00:11.000Z</time>
      </trkpt>
      <trkpt lat="50.210440" lon="26.936031">
        <ele>264.668462</ele>
        <time>2019-06-07T10:00:14.000Z</time>
      </trkpt>
      <trkpt lat="50.210472" lon="26.936201">
        <ele>264.694723</ele>
        <time>2019-06-07T10:00:18.000Z</time>
      </trkpt>
      <trkpt lat="50.210487" lon="26.936373">
        <ele>265.432733</ele>
        <time>2019-06-07T10:00:22.000Z</time>
      </trkpt>
      <trkpt lat="50.210487" lon="26.936537">
        <ele>266.129973</ele>
        <time>2019-06-07T10:00:26.000Z</time>
      </trkpt>
      <trkpt lat="50.210480" lon="26.936714">
        <ele>266.883918</ele>
        <time>2019-06-07T10:00:30.000Z</time>
      </trkpt>
      <trkpt lat="50.210484" lon="26.936888">
        <ele>267.624150</ele>
        <time>2019-06-07T10:00:34.000Z</time>
      </trkpt>
      <trkpt lat="50.210484" lon="26.937046">
        <ele>268.295881</ele>
        <time>2019-06-07T10:00:38.000Z</time>
      </trkpt>
      <trkpt lat="50.210450" lon="26.937212">
        <ele>269.036888</ele>
        <time>2019-06-07T10:00:43.000Z</time>
      </trkpt>
      <trkpt lat="50.210434" lon="26.937380">
        <ele>269.759000</ele>
        <time>2019-06-07T10:00:49.000Z</time>
      </trkpt>
      <trkpt lat="50.210392" lon="26.937536">
        <ele>270.478530</ele>
        <time>2019-06-07T10:00:53.000Z</time>
      </trkpt>
      <trkpt lat="50.210377" lon="26.937680">
        <ele>271.098799</ele>
        <time>2019-06-07T10:00:57.000Z</time>
      </trkpt>
      <trkpt lat="50.210360" lon="26.937836">
        <ele>271.771575</ele>
        <time>2019-06-07T10:01:01.000Z</time>
      </trkpt>
      <trkpt lat="50.210335" lon="26.937992">
        <ele>272.455284</ele>
        <time>2019-06-07T10:01:07.000Z</time>
      </trkpt>
      <trkpt lat="50.210316" lon="26.938147">
        <ele>273.126242</ele>
        <time>2019-06-07T10:01:12.000Z</time>
      </trkpt>
      <trkpt lat="50.210316" lon="26.938305">
        <ele>273.797976</ele>
        <time>2019-06-07T10:01:18.000Z</time>
      </trkpt>
      <trkpt lat="50.210274" lon="26.938461">
        <ele>274.517507</ele>
        <time>2019-06-07T10:01:36.000Z</time>
      </trkpt>
      <trkpt lat="50.210250" lon="26.938637">
        <ele>275.282566</ele>
        <time>2019-06-07T10:01:42.000Z</time>
      </trkpt>
      <trkpt lat="50.210220" lon="26.938782">
        <ele>275.930447</ele>
        <time>2019-06-07T10:01:46.000Z</time>
      </trkpt>
      <trkpt lat="50.210182" lon="26.938934">
        <ele>276.624231</ele>
        <time>2019-06-07T10:01:50.000Z</time>
      </trkpt>
      <trkpt lat="50.210148" lon="26.939070">
        <ele>276.517907</ele>
        <time>2019-06-07T10:01:53.000Z</time>
      </trkpt>
      <trkpt lat="50.210125" lon="26.939217">
        <ele>276.389695</ele>
        <time>2019-06-07T10:01:56.000Z</time>
      </trkpt>
      <trkpt lat="50.210117" lon="26.939373">
        <ele>276.257102</ele>
        <time>2019-06-07T10:01:59.000Z</time>
      </trkpt>
      <trkpt lat="50.210117" lon="26.939514">
        <ele>276.137641</ele>
        <time>2019-06-07T10:02:02.000Z</time>
      </trkpt>
      <trkpt lat="50.210100" lon="26.939657">
        <ele>276.014413</ele>
        <time>2019-06-07T10:02:05.000Z</time>
      </trkpt>
      <trkpt lat="50.210075" lon="26.939798">
        <ele>275.890452</ele>
        <time>2019-06-07T10:02:08.000Z</time>
      </trkpt>
      <trkpt lat="50.210075" lon="26.939972">
        <ele>275.743032</ele>
        <time>2019-06-07T10:02:11.000Z</time>
      </trkpt>
      <trkpt lat="50.210052" lon="26.940147">
        <ele>275.591671</ele>
        <time>2019-06-07T10:02:15.000Z</time>
      </trkpt>
      <trkpt lat="50.210030" lon="26.940330">
        <ele>275.433914</ele>
        <time>2019-06-07T10:02:19.000Z</time>
      </trkpt>
      <trkpt lat="50.210007" lon="26.940496">
        <ele>275.290013</ele>
        <time>2019-06-07T10:02:23.000Z</time>
      </trkpt>
      <trkpt lat="50.209984" lon="26.940653">
        <ele>275.153555</ele>
        <time>2019-06-07T10:02:27.000Z</time>
      </trkpt>
      <trkpt lat="50.209940" lon="26.940784">
        <ele>275.028210</ele>
        <time>2019-06-07T10:02:31.000Z</time>
      </trkpt>
      <trkpt lat="50.209923" lon="26.940948">
        <ele>274.887451</ele>
        <time>2019-06-07T10:02:35.000Z</time>
      </trkpt>
      <trkpt lat="50.209885" lon="26.941113">
        <ele>274.738879</ele>
        <time>2019-06-07T10:02:39.000Z</time>
      </trkpt>
      <trkpt lat="50.209854" lon="26.941267">
        <ele>274.602101</ele>
        <time>2019-06-07T10:02:43.000Z</time>
      </trkpt>
      <trkpt lat="50.209827" lon="26.941418">
        <ele>274.469268</ele>
        <time>2019-06-07T10:02:47.000Z</time>
      </trkpt>
      <trkpt lat="50.209835" lon="26.941590">
        <ele>274.323157</ele>
        <time>2019-06-07T10:02:52.000Z</time>
      </trkpt>
      <trkpt lat="50.209793" lon="26.941769">
        <ele>274.184535</ele>
        <time>2019-06-07T10:02:56.000Z</time>
      </trkpt>
      <trkpt lat="50.209766" lon="26.941917">
        <ele>274.085282</ele>
        <time>2019-06-07T10:03:00.000Z</time>
      </trkpt>
      <trkpt lat="50.209750" lon="26.942055">
        <ele>273.994831</ele>
        <time>2019-06-07T10:03:05.000Z</time>
      </trkpt>
      <trkpt lat="50.209690" lon="26.942160">
        <ele>273.904047</ele>
        <time>2019-06-07T10:05:01.000Z</time>
      </trkpt>
      <trkpt lat="50.209650" lon="26.942330">
        <ele>273.787231</ele>
        <time>2019-06-07T10:05:05.000Z</time>
      </trkpt>
      <trkpt lat="50.209625" lon="26.942480">
        <ele>273.687264</ele>
        <time>2019-06-07T10:05:08.000Z</time>
      </trkpt>
      <trkpt lat="50.209595" lon="26.942654">
        <ele>273.571043</ele>
        <time>2019-06-07T10:05:12.000Z</time>
      </trkpt>
      <trkpt lat="50.209580" lon="26.942799">
        <ele>273.476312</ele>
        <time>2019-06-07T10:05:15.000Z</time>
      </trkpt>
      <trkpt lat="50.209550" lon="26.942942">
        <ele>273.379257</ele>
        <time>2019-06-07T10:05:18.000Z</time>
      </trkpt>
      <trkpt lat="50.209534" lon="26.943098">
        <ele>273.277362</ele>
        <time>2019-06-07T10:05:21.000Z</time>
      </trkpt>
      <trkpt lat="50.209520" lon="26.943283">
        <ele>273.157216</ele>
        <time>2019-06-07T10:05:25.000Z</time>
      </trkpt>
      <trkpt lat="50.209500" lon="26.943422">
        <ele>273.065331</ele>
        <time>2019-06-07T10:05:28.000Z</time>
      </trkpt>
      <trkpt lat="50.209496" lon="26.943605">
        <ele>272.947238</ele>
        <time>2019-06-07T10:05:32.000Z</time>
      </trkpt>
      <trkpt lat="50.209476" lon="26.943785">
        <ele>272.829411</ele>
        <time>2019-06-07T10:05:36.000Z</time>
      </trkpt>
      <trkpt lat="50.209457" lon="26.943932">
        <ele>272.732690</ele>
        <time>2019-06-07T10:05:39.000Z</time>
      </trkpt>
      <trkpt lat="50.209454" lon="26.944092">
        <ele>272.629455</ele>
        <time>2019-06-07T10:05:42.000Z</time>
      </trkpt>
      <trkpt lat="50.209442" lon="26.944237">
        <ele>272.535160</ele>
        <time>2019-06-07T10:05:45.000Z</time>
      </trkpt>
      <trkpt lat="50.209442" lon="26.944393">
        <ele>272.451215</ele>
        <time>2019-06-07T10:05:48.000Z</time>
      </trkpt>
      <trkpt lat="50.209442" lon="26.944534">
        <ele>272.505649</ele>
        <time>2019-06-07T10:05:51.000Z</time>
      </trkpt>
      <trkpt lat="50.209423" lon="26.944677">
        <ele>272.562033</ele>
        <time>2019-06-07T10:05:54.000Z</time>
      </trkpt>
      <trkpt lat="50.209390" lon="26.944841">
        <ele>272.628402</ele>
        <time>2019-06-07T10:05:58.000Z</time>
      </trkpt>
      <trkpt lat="50.209354" lon="26.945007">
        <ele>272.696068</ele>
        <time>2019-06-07T10:06:02.000Z</time>
      </trkpt>
      <trkpt lat="50.209340" lon="26.945152">
        <ele>272.752680</ele>
        <time>2019-06-07T10:06:05.000Z</time>
      </trkpt>
      <trkpt lat="50.209320" lon="26.945312">
        <ele>272.815617</ele>
        <time>2019-06-07T10:06:09.000Z</time>
      </trkpt>
      <trkpt lat="50.209290" lon="26.945446">
        <ele>272.870423</ele>
        <time>2019-06-07T10:06:13.000Z</time>
      </trkpt>
      <trkpt lat="50.209286" lon="26.945604">
        <ele>272.931468</ele>
        <time>2019-06-07T10:06:17.000Z</time>
      </trkpt>
      <trkpt lat="50.209270" lon="26.945757">
        <ele>272.991318</ele>
        <time>2019-06-07T10:06:22.000Z</time>
      </trkpt>
      <trkpt lat="50.209244" lon="26.945910">
        <ele>273.052432</ele>
        <time>2019-06-07T10:06:27.000Z</time>
      </trkpt>
      <trkpt lat="50.209213" lon="26.946054">
        <ele>273.111086</ele>
        <time>2019-06-07T10:06:32.000Z</time>
      </trkpt>
      <trkpt lat="50.209175" lon="26.946188">
        <ele>273.167669</ele>
        <time>2019-06-07T10:06:37.000Z</time>
      </trkpt>
      <trkpt lat="50.209152" lon="26.946350">
        <ele>273.231732</ele>
        <time>2019-06-07T10:06:42.000Z</time>
      </trkpt>
      <trkpt lat="50.209133" lon="26.946495">
        <ele>273.288872</ele>
        <time>2019-06-07T10:06:48.000Z</time>
      </trkpt>
      <trkpt lat="50.209090" lon="26.946636">
        <ele>273.349171</ele>
        <time>2019-06-07T10:06:54.000Z</time>
      </trkpt>
      <trkpt lat="50.209050" lon="26.946762">
        <ele>273.403470</ele>
        <time>2019-06-07T10:06:59.000Z</time>
      </trkpt>
      <trkpt lat="50.209015" lon="26.946900">
        <ele>273.460778</ele>
        <time>2019-06-07T10:07:04.000Z</time>
      </trkpt>
      <trkpt lat="50.208992" lon="26.947056">
        <ele>273.522581</ele>
        <time>2019-06-07T10:07:09.000Z</time>
      </trkpt>
      <trkpt lat="50.208958" lon="26.947203">
        <ele>273.375013</ele>
        <time>2019-06-07T10:07:15.000Z</time>
      </trkpt>
      <trkpt lat="50.208930" lon="26.947350">
        <ele>273.201727</ele>
        <time>2019-06-07T10:07:20.000Z</time>
      </trkpt>
      <trkpt lat="50.208900" lon="26.947502">
        <ele>273.022010</ele>
        <time>2019-06-07T10:07:26.000Z</time>
      </trkpt>
      <trkpt lat="50.208855" lon="26.947641">
        <ele>272.846012</ele>
        <time>2019-06-07T10:07:32.000Z</time>
      </trkpt>
      <trkpt lat="50.208828" lon="26.947798">
        <ele>272.662335</ele>
        <time>2019-06-07T10:07:36.000Z</time>
      </trkpt>
      <trkpt lat="50.208797" lon="26.947964">
        <ele>272.466959</ele>
        <time>2019-06-07T10:07:40.000Z</time>
      </trkpt>
      <trkpt lat="50.208767" lon="26.948116">
        <ele>272.287242</ele>
        <time>2019-06-07T10:07:44.000Z</time>
      </trkpt>
      <trkpt lat="50.208733" lon="26.948294">
        <ele>272.077364</ele>
        <time>2019-06-07T10:07:48.000Z</time>
      </trkpt>
      <trkpt lat="50.208710" lon="26.948442">
        <ele>271.905288</ele>
        <time>2019-06-07T10:07:51.000Z</time>
      </trkpt>
      <trkpt lat="50.208675" lon="26.948574">
        <ele>271.743855</ele>
        <time>2019-06-07T10:07:54.000Z</time>
      </trkpt>
      <trkpt lat="50.208640" lon="26.948713">
        <ele>271.575089</ele>
        <time>2019-06-07T10:07:57.000Z</time>
      </trkpt>
      <trkpt lat="50.208600" lon="26.948883">
        <ele>271.370445</ele>
        <time>2019-06-07T10:08:01.000Z</time>
      </trkpt>
      <trkpt lat="50.208572" lon="26.949066">
        <ele>271.157856</ele>
        <time>2019-06-07T10:08:05.000Z</time>
      </trkpt>
      <trkpt lat="50.208538" lon="26.949228">
        <ele>270.965230</ele>
        <time>2019-06-07T10:08:09.000Z</time>
      </trkpt>
      <trkpt lat="50.208510" lon="26.949364">
        <ele>270.803816</ele>
        <time>2019-06-07T10:08:12.000Z</time>
      </trkpt>
      <trkpt lat="50.208480" lon="26.949543">
        <ele>270.594753</ele>
        <time>2019-06-07T10:08:16.000Z</time>
      </trkpt>
      <trkpt lat="50.208447" lon="26.949682">
        <ele>270.427247</ele>
        <time>2019-06-07T10:08:19.000Z</time>
      </trkpt>
      <trkpt lat="50.208435" lon="26.949873">
        <ele>270.356381</ele>
        <time>2019-06-07T10:08:23.000Z</time>
      </trkpt>
      <trkpt lat="50.208420" lon="26.950022">
        <ele>270.358428</ele>
        <time>2019-06-07T10:08:26.000Z</time>
      </trkpt>
      <trkpt lat="50.208397" lon="26.950232">
        <ele>270.361320</ele>
        <time>2019-06-07T10:08:30.000Z</time>
      </trkpt>
      <trkpt lat="50.208374" lon="26.950400">
        <ele>270.363652</ele>
        <time>2019-06-07T10:08:33.000Z</time>
      </trkpt>
      <trkpt lat="50.208350" lon="26.950571">
        <ele>270.366028</ele>
        <time>2019-06-07T10:08:36.000Z</time>
      </trkpt>
      <trkpt lat="50.208330" lon="26.950726">
        <ele>270.368174</ele>
        <time>2019-06-07T10:08:39.000Z</time>
      </trkpt>
      <trkpt lat="50.208313" lon="26.950901">
        <ele>270.370577</ele>
        <time>2019-06-07T10:08:42.000Z</time>
      </trkpt>
      <trkpt lat="50.208290" lon="26.951063">
        <ele>270.372829</ele>
        <time>2019-06-07T10:08:45.000Z</time>
      </trkpt>
      <trkpt lat="50.208275" lon="26.951240">
        <ele>270.375253</ele>
        <time>2019-06-07T10:08:48.000Z</time>
      </trkpt>
      <trkpt lat="50.208250" lon="26.951410">
        <ele>270.377620</ele>
        <time>2019-06-07T10:08:51.000Z</time>
      </trkpt>
      <trkpt lat="50.208230" lon="26.951600">
        <ele>270.380234</ele>
        <time>2019-06-07T10:08:54.000Z</time>
      </trkpt>
      <trkpt lat="50.208206" lon="26.951786">
        <ele>270.382809</ele>
        <time>2019-06-07T10:08:57.000Z</time>
      </trkpt>
      <trkpt lat="50.208195" lon="26.951988">
        <ele>270.385561</ele>
        <time>2019-06-07T10:09:00.000Z</time>
      </trkpt>
      <trkpt lat="50.208187" lon="26.952177">
        <ele>270.388132</ele>
        <time>2019-06-07T10:09:03.000Z</time>
      </trkpt>
      <trkpt lat="50.208168" lon="26.952366">
        <ele>270.390729</ele>
        <time>2019-06-07T10:09:06.000Z</time>
      </trkpt>
      <trkpt lat="50.208168" lon="26.952560">
        <ele>270.379886</ele>
        <time>2019-06-07T10:09:09.000Z</time>
      </trkpt>
      <trkpt lat="50.208157" lon="26.952757">
        <ele>270.318847</ele>
        <time>2019-06-07T10:09:12.000Z</time>
      </trkpt>
      <trkpt lat="50.208153" lon="26.952932">
        <ele>270.264794</ele>
        <time>2019-06-07T10:09:15.000Z</time>
      </trkpt>
      <trkpt lat="50.208153" lon="26.953120">
        <ele>270.206763</ele>
        <time>2019-06-07T10:09:18.000Z</time>
      </trkpt>
      <trkpt lat="50.208157" lon="26.953312">
        <ele>270.147466</ele>
        <time>2019-06-07T10:09:21.000Z</time>
      </trkpt>
      <trkpt lat="50.208157" lon="26.953497">
        <ele>270.090361</ele>
        <time>2019-06-07T10:09:24.000Z</time>
      </trkpt>
      <trkpt lat="50.208160" lon="26.953648">
        <ele>270.043729</ele>
        <time>2019-06-07T10:09:27.000Z</time>
      </trkpt>
      <trkpt lat="50.208170" lon="26.953825">
        <ele>269.988881</ele>
        <time>2019-06-07T10:09:30.000Z</time>
      </trkpt>
      <trkpt lat="50.208183" lon="26.954002">
        <ele>269.933887</ele>
        <time>2019-06-07T10:09:33.000Z</time>
      </trkpt>
      <trkpt lat="50.208180" lon="26.954172">
        <ele>269.881392</ele>
        <time>2019-06-07T10:09:36.000Z</time>
      </trkpt>
      <trkpt lat="50.208170" lon="26.954360">
        <ele>269.823161</ele>
        <time>2019-06-07T10:09:39.000Z</time>
      </trkpt>
      <trkpt lat="50.208183" lon="26.954535">
        <ele>269.768781</ele>
        <time>2019-06-07T10:09:43.000Z</time>
      </trkpt>
      <trkpt lat="50.208187" lon="26.954681">
        <ele>269.723673</ele>
        <time>2019-06-07T10:09:46.000Z</time>
      </trkpt>
      <trkpt lat="50.208187" lon="26.954855">
        <ele>269.669963</ele>
        <time>2019-06-07T10:09:49.000Z</time>
      </trkpt>
      <trkpt lat="50.208200" lon="26.955030">
        <ele>269.615583</ele>
        <time>2019-06-07T10:09:52.000Z</time>
      </trkpt>
      <trkpt lat="50.208200" lon="26.955212">
        <ele>269.559404</ele>
        <time>2019-06-07T10:09:55.000Z</time>
      </trkpt>
      <trkpt lat="50.208206" lon="26.955395">
        <ele>269.477395</ele>
        <time>2019-06-07T10:09:58.000Z</time>
      </trkpt>
      <trkpt lat="50.208220" lon="26.955578">
        <ele>269.356046</ele>
        <time>2019-06-07T10:10:01.000Z</time>
      </trkpt>
      <trkpt lat="50.208244" lon="26.955727">
        <ele>269.254882</ele>
        <time>2019-06-07T10:10:04.000Z</time>
      </trkpt>
      <trkpt lat="50.208244" lon="26.955877">
        <ele>269.156119</ele>
        <time>2019-06-07T10:10:07.000Z</time>
      </trkpt>
      <trkpt lat="50.208256" lon="26.956018">
        <ele>269.062464</ele>
        <time>2019-06-07T10:10:10.000Z</time>
      </trkpt>
      <trkpt lat="50.208263" lon="26.956173">
        <ele>268.960155</ele>
        <time>2019-06-07T10:10:13.000Z</time>
      </trkpt>
      <trkpt lat="50.208275" lon="26.956314">
        <ele>268.866500</ele>
        <time>2019-06-07T10:10:16.000Z</time>
      </trkpt>
      <trkpt lat="50.208294" lon="26.956453">
        <ele>268.772916</ele>
        <time>2019-06-07T10:10:19.000Z</time>
      </trkpt>
      <trkpt lat="50.208300" lon="26.956602">
        <ele>268.674617</ele>
        <time>2019-06-07T10:10:22.000Z</time>
      </trkpt>
      <trkpt lat="50.208320" lon="26.956758">
        <ele>268.569863</ele>
        <time>2019-06-07T10:10:25.000Z</time>
      </trkpt>
      <trkpt lat="50.208344" lon="26.956930">
        <ele>268.453954</ele>
        <time>2019-06-07T10:10:28.000Z</time>
      </trkpt>
      <trkpt lat="50.208360" lon="26.957070">
        <ele>268.360317</ele>
        <time>2019-06-07T10:10:31.000Z</time>
      </trkpt>
      <trkpt lat="50.208363" lon="26.957240">
        <ele>268.248343</ele>
        <time>2019-06-07T10:10:34.000Z</time>
      </trkpt>
      <trkpt lat="50.208360" lon="26.957401">
        <ele>268.142293</ele>
        <time>2019-06-07T10:10:37.000Z</time>
      </trkpt>
      <trkpt lat="50.208363" lon="26.957571">
        <ele>268.030319</ele>
        <time>2019-06-07T10:10:40.000Z</time>
      </trkpt>
      <trkpt lat="50.208374" lon="26.957747">
        <ele>267.913886</ele>
        <time>2019-06-07T10:10:43.000Z</time>
      </trkpt>
      <trkpt lat="50.208390" lon="26.957932">
        <ele>267.790971</ele>
        <time>2019-06-07T10:10:46.000Z</time>
      </trkpt>
      <trkpt lat="50.208393" lon="26.958124">
        <ele>267.678389</ele>
        <time>2019-06-07T10:10:49.000Z</time>
      </trkpt>
      <trkpt lat="50.208397" lon="26.958282">
        <ele>267.713585</ele>
        <time>2019-06-07T10:10:52.000Z</time>
      </trkpt>
      <trkpt lat="50.208400" lon="26.958433">
        <ele>267.747212</ele>
        <time>2019-06-07T10:10:55.000Z</time>
      </trkpt>
      <trkpt lat="50.208410" lon="26.958593">
        <ele>267.782995</ele>
        <time>2019-06-07T10:10:58.000Z</time>
      </trkpt>
      <trkpt lat="50.208410" lon="26.958760">
        <ele>267.820166</ele>
        <time>2019-06-07T10:11:01.000Z</time>
      </trkpt>
      <trkpt lat="50.208410" lon="26.958920">
        <ele>267.855780</ele>
        <time>2019-06-07T10:11:04.000Z</time>
      </trkpt>
      <trkpt lat="50.208405" lon="26.959090">
        <ele>267.893659</ele>
        <time>2019-06-07T10:11:07.000Z</time>
      </trkpt>
      <trkpt lat="50.208405" lon="26.959234">
        <ele>267.925711</ele>
        <time>2019-06-07T10:11:10.000Z</time>
      </trkpt>
      <trkpt lat="50.208405" lon="26.959410">
        <ele>267.964886</ele>
        <time>2019-06-07T10:11:14.000Z</time>
      </trkpt>
      <trkpt lat="50.208410" lon="26.959555">
        <ele>267.997207</ele>
        <time>2019-06-07T10:11:17.000Z</time>
      </trkpt>
      <trkpt lat="50.208405" lon="26.959702">
        <ele>268.029974</ele>
        <time>2019-06-07T10:11:20.000Z</time>
      </trkpt>
      <trkpt lat="50.208405" lon="26.959846">
        <ele>268.062026</ele>
        <time>2019-06-07T10:11:23.000Z</time>
      </trkpt>
      <trkpt lat="50.208405" lon="26.960012">
        <ele>268.098975</ele>
        <time>2019-06-07T10:11:27.000Z</time>
      </trkpt>
      <trkpt lat="50.208400" lon="26.960180">
        <ele>268.136409</ele>
        <time>2019-06-07T10:11:31.000Z</time>
      </trkpt>
      <trkpt lat="50.208405" lon="26.960356">
        <ele>268.175623</ele>
        <time>2019-06-07T10:11:35.000Z</time>
      </trkpt>
      <trkpt lat="50.208405" lon="26.960520">
        <ele>268.212126</ele>
        <time>2019-06-07T10:11:39.000Z</time>
      </trkpt>
      <trkpt lat="50.208416" lon="26.960700">
        <ele>268.252374</ele>
        <time>2019-06-07T10:11:44.000Z</time>
      </trkpt>
      <trkpt lat="50.208420" lon="26.960865">
        <ele>268.289127</ele>
        <time>2019-06-07T10:11:48.000Z</time>
      </trkpt>
      <trkpt lat="50.208416" lon="26.961008">
        <ele>268.362382</ele>
        <time>2019-06-07T10:11:51.000Z</time>
      </trkpt>
      <trkpt lat="50.208416" lon="26.961155">
        <ele>268.461003</ele>
        <time>2019-06-07T10:11:54.000Z</time>
      </trkpt>
      <trkpt lat="50.208420" lon="26.961340">
        <ele>268.585189</ele>
        <time>2019-06-07T10:11:58.000Z</time>
      </trkpt>
      <trkpt lat="50.208420" lon="26.961498">
        <ele>268.691190</ele>
        <time>2019-06-07T10:12:01.000Z</time>
      </trkpt>
      <trkpt lat="50.208424" lon="26.961650">
        <ele>268.793252</ele>
        <time>2019-06-07T10:12:04.000Z</time>
      </trkpt>
      <trkpt lat="50.208427" lon="26.961834">
        <ele>268.916737</ele>
        <time>2019-06-07T10:12:08.000Z</time>
      </trkpt>
      <trkpt lat="50.208435" lon="26.961985">
        <ele>269.018388</ele>
        <time>2019-06-07T10:12:11.000Z</time>
      </trkpt>
      <trkpt lat="50.208443" lon="26.962166">
        <ele>269.140109</ele>
        <time>2019-06-07T10:12:14.000Z</time>
      </trkpt>
      <trkpt lat="50.208443" lon="26.962347">
        <ele>269.261541</ele>
        <time>2019-06-07T10:12:18.000Z</time>
      </trkpt>
      <trkpt lat="50.208454" lon="26.962507">
        <ele>269.369501</ele>
        <time>2019-06-07T10:12:22.000Z</time>
      </trkpt>
      <trkpt lat="50.208447" lon="26.962652">
        <ele>269.467057</ele>
        <time>2019-06-07T10:12:25.000Z</time>
      </trkpt>
      <trkpt lat="50.208443" lon="26.962820">
        <ele>269.579845</ele>
        <time>2019-06-07T10:12:28.000Z</time>
      </trkpt>
      <trkpt lat="50.208447" lon="26.962967">
        <ele>269.678556</ele>
        <time>2019-06-07T10:12:31.000Z</time>
      </trkpt>
      <trkpt lat="50.208458" lon="26.963116">
        <ele>269.779182</ele>
        <time>2019-06-07T10:12:34.000Z</time>
      </trkpt>
      <trkpt lat="50.208447" lon="26.963257">
        <ele>269.874478</ele>
        <time>2019-06-07T10:12:37.000Z</time>
      </trkpt>
      <trkpt lat="50.208454" lon="26.963411">
        <ele>269.978056</ele>
        <time>2019-06-07T10:12:40.000Z</time>
      </trkpt>
      <trkpt lat="50.208458" lon="26.963572">
        <ele>270.086151</ele>
        <time>2019-06-07T10:12:43.000Z</time>
      </trkpt>
      <trkpt lat="50.208470" lon="26.963720">
        <ele>270.186134</ele>
        <time>2019-06-07T10:12:46.000Z</time>
      </trkpt>
      <trkpt lat="50.208473" lon="26.963877">
        <ele>270.258535</ele>
        <time>2019-06-07T10:12:49.000Z</time>
      </trkpt>
      <trkpt lat="50.208477" lon="26.964039">
        <ele>270.333265</ele>
        <time>2019-06-07T10:12:52.000Z</time>
      </trkpt>
      <trkpt lat="50.208480" lon="26.964184">
        <ele>270.400137</ele>
        <time>2019-06-07T10:12:55.000Z</time>
      </trkpt>
      <trkpt lat="50.208492" lon="26.964367">
        <ele>270.484932</ele>
        <time>2019-06-07T10:12:59.000Z</time>
      </trkpt>
      <trkpt lat="50.208496" lon="26.964540">
        <ele>270.564728</ele>
        <time>2019-06-07T10:13:02.000Z</time>
      </trkpt>
      <trkpt lat="50.208510" lon="26.964718">
        <ele>270.647394</ele>
        <time>2019-06-07T10:13:05.000Z</time>
      </trkpt>
      <trkpt lat="50.208520" lon="26.964893">
        <ele>270.728380</ele>
        <time>2019-06-07T10:13:08.000Z</time>
      </trkpt>
      <trkpt lat="50.208520" lon="26.965048">
        <ele>270.799827</ele>
        <time>2019-06-07T10:13:11.000Z</time>
      </trkpt>
      <trkpt lat="50.208523" lon="26.965202">
        <ele>270.870846</ele>
        <time>2019-06-07T10:13:14.000Z</time>
      </trkpt>
      <trkpt lat="50.208523" lon="26.965368">
        <ele>270.947363</ele>
        <time>2019-06-07T10:13:17.000Z</time>
      </trkpt>
      <trkpt lat="50.208530" lon="26.965551">
        <ele>271.031867</ele>
        <time>2019-06-07T10:13:20.000Z</time>
      </trkpt>
      <trkpt lat="50.208527" lon="26.965761">
        <ele>271.128690</ele>
        <time>2019-06-07T10:13:23.000Z</time>
      </trkpt>
      <trkpt lat="50.208520" lon="26.965956">
        <ele>271.218716</ele>
        <time>2019-06-07T10:13:26.000Z</time>
      </trkpt>
      <trkpt lat="50.208508" lon="26.966146">
        <ele>271.306722</ele>
        <time>2019-06-07T10:13:29.000Z</time>
      </trkpt>
      <trkpt lat="50.208496" lon="26.966343">
        <ele>271.397939</ele>
        <time>2019-06-07T10:13:32.000Z</time>
      </trkpt>
      <trkpt lat="50.208485" lon="26.966503">
        <ele>271.472115</ele>
        <time>2019-06-07T10:13:35.000Z</time>
      </trkpt>
      <trkpt lat="50.208477" lon="26.966652">
        <ele>271.327547</ele>
        <time>2019-06-07T10:13:38.000Z</time>
      </trkpt>
      <trkpt lat="50.208480" lon="26.966824">
        <ele>271.123143</ele>
        <time>2019-06-07T10:13:41.000Z</time>
      </trkpt>
      <trkpt lat="50.208473" lon="26.966991">
        <ele>270.924331</ele>
        <time>2019-06-07T10:13:44.000Z</time>
      </trkpt>
      <trkpt lat="50.208460" lon="26.967175">
        <ele>270.704420</ele>
        <time>2019-06-07T10:13:47.000Z</time>
      </trkpt>
      <trkpt lat="50.208458" lon="26.967330">
        <ele>270.520251</ele>
        <time>2019-06-07T10:13:50.000Z</time>
      </trkpt>
      <trkpt lat="50.208454" lon="26.967518">
        <ele>270.296793</ele>
        <time>2019-06-07T10:13:53.000Z</time>
      </trkpt>
      <trkpt lat="50.208443" lon="26.967709">
        <ele>270.068978</ele>
        <time>2019-06-07T10:13:56.000Z</time>
      </trkpt>
      <trkpt lat="50.208435" lon="26.967901">
        <ele>269.840408</ele>
        <time>2019-06-07T10:13:59.000Z</time>
      </trkpt>
      <trkpt lat="50.208420" lon="26.968075">
        <ele>269.631838</ele>
        <time>2019-06-07T10:14:02.000Z</time>
      </trkpt>
      <trkpt lat="50.208397" lon="26.968273">
        <ele>269.392781</ele>
        <time>2019-06-07T10:14:05.000Z</time>
      </trkpt>
      <trkpt lat="50.208374" lon="26.968410">
        <ele>269.224525</ele>
        <time>2019-06-07T10:14:07.000Z</time>
      </trkpt>
      <trkpt lat="50.208355" lon="26.968560">
        <ele>269.042876</ele>
        <time>2019-06-07T10:14:09.000Z</time>
      </trkpt>
      <trkpt lat="50.208347" lon="26.968771">
        <ele>268.791779</ele>
        <time>2019-06-07T10:14:12.000Z</time>
      </trkpt>
      <trkpt lat="50.208324" lon="26.968956">
        <ele>268.567899</ele>
        <time>2019-06-07T10:14:15.000Z</time>
      </trkpt>
      <trkpt lat="50.208298" lon="26.969097">
        <ele>268.393584</ele>
        <time>2019-06-07T10:14:17.000Z</time>
      </trkpt>
      <trkpt lat="50.208270" lon="26.969250">
        <ele>268.204542</ele>
        <time>2019-06-07T10:14:19.000Z</time>
      </trkpt>
      <trkpt lat="50.208252" lon="26.969398">
        <ele>267.882884</ele>
        <time>2019-06-07T10:14:21.000Z</time>
      </trkpt>
      <trkpt lat="50.208210" lon="26.969582">
        <ele>267.368186</ele>
        <time>2019-06-07T10:14:24.000Z</time>
      </trkpt>
      <trkpt lat="50.208187" lon="26.969746">
        <ele>266.925840</ele>
        <time>2019-06-07T10:14:27.000Z</time>
      </trkpt>
      <trkpt lat="50.208160" lon="26.969887">
        <ele>266.538073</ele>
        <time>2019-06-07T10:14:30.000Z</time>
      </trkpt>
      <trkpt lat="50.208130" lon="26.970062">
        <ele>266.060743</ele>
        <time>2019-06-07T10:14:33.000Z</time>
      </trkpt>
      <trkpt lat="50.208090" lon="26.970257">
        <ele>265.521228</ele>
        <time>2019-06-07T10:14:36.000Z</time>
      </trkpt>
      <trkpt lat="50.208046" lon="26.970440">
        <ele>265.006171</ele>
        <time>2019-06-07T10:14:39.000Z</time>
      </trkpt>
      <trkpt lat="50.207993" lon="26.970620">
        <ele>264.484137</ele>
        <time>2019-06-07T10:14:42.000Z</time>
      </trkpt>
      <trkpt lat="50.207960" lon="26.970747">
        <ele>264.123000</ele>
        <time>2019-06-07T10:14:44.000Z</time>
      </trkpt>
      <trkpt lat="50.207912" lon="26.970888">
        <ele>263.702219</ele>
        <time>2019-06-07T10:14:46.000Z</time>
      </trkpt>
      <trkpt lat="50.207870" lon="26.971014">
        <ele>263.327914</ele>
        <time>2019-06-07T10:14:48.000Z</time>
      </trkpt>
      <trkpt lat="50.207840" lon="26.971151">
        <ele>262.946412</ele>
        <time>2019-06-07T10:14:50.000Z</time>
      </trkpt>
      <trkpt lat="50.207810" lon="26.971289">
        <ele>262.562416</ele>
        <time>2019-06-07T10:14:52.000Z</time>
      </trkpt>
      <trkpt lat="50.207770" lon="26.971424">
        <ele>262.170457</ele>
        <time>2019-06-07T10:14:54.000Z</time>
      </trkpt>
      <trkpt lat="50.207720" lon="26.971611">
        <ele>261.636492</ele>
        <time>2019-06-07T10:14:57.000Z</time>
      </trkpt>
      <trkpt lat="50.207676" lon="26.971802">
        <ele>261.101649</ele>
        <time>2019-06-07T10:15:00.000Z</time>
      </trkpt>
      <trkpt lat="50.207626" lon="26.971990">
        <ele>260.732451</ele>
        <time>2019-06-07T10:15:03.000Z</time>
      </trkpt>
      <trkpt lat="50.207584" lon="26.972178">
        <ele>260.715038</ele>
        <time>2019-06-07T10:15:06.000Z</time>
      </trkpt>
      <trkpt lat="50.207554" lon="26.972366">
        <ele>260.698094</ele>
        <time>2019-06-07T10:15:09.000Z</time>
      </trkpt>
      <trkpt lat="50.207523" lon="26.972544">
        <ele>260.681962</ele>
        <time>2019-06-07T10:15:12.000Z</time>
      </trkpt>
      <trkpt lat="50.207500" lon="26.972727">
        <ele>260.665653</ele>
        <time>2019-06-07T10:15:15.000Z</time>
      </trkpt>
      <trkpt lat="50.207466" lon="26.972929">
        <ele>260.647387</ele>
        <time>2019-06-07T10:15:18.000Z</time>
      </trkpt>
      <trkpt lat="50.207436" lon="26.973114">
        <ele>260.630697</ele>
        <time>2019-06-07T10:15:21.000Z</time>
      </trkpt>
      <trkpt lat="50.207405" lon="26.973286">
        <ele>260.615071</ele>
        <time>2019-06-07T10:15:24.000Z</time>
      </trkpt>
      <trkpt lat="50.207390" lon="26.973442">
        <ele>260.601275</ele>
        <time>2019-06-07T10:15:27.000Z</time>
      </trkpt>
      <trkpt lat="50.207363" lon="26.973598">
        <ele>260.587143</ele>
        <time>2019-06-07T10:15:30.000Z</time>
      </trkpt>
      <trkpt lat="50.207344" lon="26.973750">
        <ele>260.573599</ele>
        <time>2019-06-07T10:15:33.000Z</time>
      </trkpt>
      <trkpt lat="50.207314" lon="26.973923">
        <ele>260.557925</ele>
        <time>2019-06-07T10:15:36.000Z</time>
      </trkpt>
      <trkpt lat="50.207283" lon="26.974120">
        <ele>260.540184</ele>
        <time>2019-06-07T10:15:39.000Z</time>
      </trkpt>
      <trkpt lat="50.207256" lon="26.974314">
        <ele>260.522822</ele>
        <time>2019-06-07T10:15:42.000Z</time>
      </trkpt>
      <trkpt lat="50.207222" lon="26.974476">
        <ele>260.507912</ele>
        <time>2019-06-07T10:15:45.000Z</time>
      </trkpt>
      <trkpt lat="50.207188" lon="26.974644">
        <ele>260.492503</ele>
        <time>2019-06-07T10:15:48.000Z</time>
      </trkpt>
      <trkpt lat="50.207157" lon="26.974834">
        <ele>260.628167</ele>
        <time>2019-06-07T10:15:51.000Z</time>
      </trkpt>
      <trkpt lat="50.207138" lon="26.975006">
        <ele>260.749553</ele>
        <time>2019-06-07T10:15:54.000Z</time>
      </trkpt>
      <trkpt lat="50.207120" lon="26.975190">
        <ele>260.879002</ele>
        <time>2019-06-07T10:15:57.000Z</time>
      </trkpt>
      <trkpt lat="50.207108" lon="26.975342">
        <ele>260.985511</ele>
        <time>2019-06-07T10:16:00.000Z</time>
      </trkpt>
      <trkpt lat="50.207090" lon="26.975498">
        <ele>261.095750</ele>
        <time>2019-06-07T10:16:03.000Z</time>
      </trkpt>
      <trkpt lat="50.207058" lon="26.975685">
        <ele>261.230368</ele>
        <time>2019-06-07T10:16:06.000Z</time>
      </trkpt>
      <trkpt lat="50.207047" lon="26.975882">
        <ele>261.367892</ele>
        <time>2019-06-07T10:16:09.000Z</time>
      </trkpt>
      <trkpt lat="50.207024" lon="26.976057">
        <ele>261.492136</ele>
        <time>2019-06-07T10:16:12.000Z</time>
      </trkpt>
      <trkpt lat="50.207000" lon="26.976230">
        <ele>261.615243</ele>
        <time>2019-06-07T10:16:16.000Z</time>
      </trkpt>
      <trkpt lat="50.206970" lon="26.976406">
        <ele>261.741909</ele>
        <time>2019-06-07T10:16:20.000Z</time>
      </trkpt>
      <trkpt lat="50.206950" lon="26.976568">
        <ele>261.856649</ele>
        <time>2019-06-07T10:16:23.000Z</time>
      </trkpt>
      <trkpt lat="50.206930" lon="26.976727">
        <ele>261.969341</ele>
        <time>2019-06-07T10:16:26.000Z</time>
      </trkpt>
      <trkpt lat="50.206913" lon="26.976881">
        <ele>262.078022</ele>
        <time>2019-06-07T10:16:29.000Z</time>
      </trkpt>
      <trkpt lat="50.206890" lon="26.977026">
        <ele>262.181913</ele>
        <time>2019-06-07T10:16:32.000Z</time>
      </trkpt>
      <trkpt lat="50.206867" lon="26.977169">
        <ele>262.284456</ele>
        <time>2019-06-07T10:16:35.000Z</time>
      </trkpt>
      <trkpt lat="50.206856" lon="26.977325">
        <ele>262.393603</ele>
        <time>2019-06-07T10:16:38.000Z</time>
      </trkpt>
      <trkpt lat="50.206837" lon="26.977470">
        <ele>262.487286</ele>
        <time>2019-06-07T10:16:41.000Z</time>
      </trkpt>
      <trkpt lat="50.206818" lon="26.977617">
        <ele>262.572163</ele>
        <time>2019-06-07T10:16:44.000Z</time>
      </trkpt>
      <trkpt lat="50.206802" lon="26.977774">
        <ele>262.662139</ele>
        <time>2019-06-07T10:16:47.000Z</time>
      </trkpt>
      <trkpt lat="50.206776" lon="26.977910">
        <ele>262.742471</ele>
        <time>2019-06-07T10:16:50.000Z</time>
      </trkpt>
      <trkpt lat="50.206740" lon="26.978070">
        <ele>262.838459</ele>
        <time>2019-06-07T10:16:53.000Z</time>
      </trkpt>
      <trkpt lat="50.206703" lon="26.978218">
        <ele>262.928386</ele>
        <time>2019-06-07T10:16:56.000Z</time>
      </trkpt>
      <trkpt lat="50.206660" lon="26.978394">
        <ele>263.035007</ele>
        <time>2019-06-07T10:16:59.000Z</time>
      </trkpt>
      <trkpt lat="50.206640" lon="26.978544">
        <ele>263.121726</ele>
        <time>2019-06-07T10:17:02.000Z</time>
      </trkpt>
      <trkpt lat="50.206604" lon="26.978727">
        <ele>263.230080</ele>
        <time>2019-06-07T10:17:06.000Z</time>
      </trkpt>
      <trkpt lat="50.206573" lon="26.978882">
        <ele>263.321989</ele>
        <time>2019-06-07T10:17:09.000Z</time>
      </trkpt>
      <trkpt lat="50.206543" lon="26.979042">
        <ele>263.416350</ele>
        <time>2019-06-07T10:17:12.000Z</time>
      </trkpt>
      <trkpt lat="50.206524" lon="26.979195">
        <ele>263.504559</ele>
        <time>2019-06-07T10:17:15.000Z</time>
      </trkpt>
      <trkpt lat="50.206500" lon="26.979338">
        <ele>263.588229</ele>
        <time>2019-06-07T10:17:18.000Z</time>
      </trkpt>
      <trkpt lat="50.206482" lon="26.979492">
        <ele>263.676830</ele>
        <time>2019-06-07T10:17:21.000Z</time>
      </trkpt>
      <trkpt lat="50.206450" lon="26.979643">
        <ele>263.766855</ele>
        <time>2019-06-07T10:17:24.000Z</time>
      </trkpt>
      <trkpt lat="50.206430" lon="26.979790">
        <ele>263.851912</ele>
        <time>2019-06-07T10:17:27.000Z</time>
      </trkpt>
      <trkpt lat="50.206398" lon="26.979958">
        <ele>263.951117</ele>
        <time>2019-06-07T10:17:30.000Z</time>
      </trkpt>
      <trkpt lat="50.206380" lon="26.980131">
        <ele>264.076200</ele>
        <time>2019-06-07T10:17:33.000Z</time>
      </trkpt>
      <trkpt lat="50.206345" lon="26.980305">
        <ele>264.386287</ele>
        <time>2019-06-07T10:17:36.000Z</time>
      </trkpt>
      <trkpt lat="50.206320" lon="26.980480">
        <ele>264.691129</ele>
        <time>2019-06-07T10:17:39.000Z</time>
      </trkpt>
      <trkpt lat="50.206295" lon="26.980648">
        <ele>264.984368</ele>
        <time>2019-06-07T10:17:42.000Z</time>
      </trkpt>
      <trkpt lat="50.206276" lon="26.980812">
        <ele>265.267719</ele>
        <time>2019-06-07T10:17:45.000Z</time>
      </trkpt>
      <trkpt lat="50.206276" lon="26.980993">
        <ele>265.575441</ele>
        <time>2019-06-07T10:17:48.000Z</time>
      </trkpt>
      <trkpt lat="50.206276" lon="26.981195">
        <ele>265.918866</ele>
        <time>2019-06-07T10:17:51.000Z</time>
      </trkpt>
      <trkpt lat="50.206280" lon="26.981384">
        <ele>266.240365</ele>
        <time>2019-06-07T10:17:54.000Z</time>
      </trkpt>
      <trkpt lat="50.206284" lon="26.981592">
        <ele>266.594150</ele>
        <time>2019-06-07T10:17:57.000Z</time>
      </trkpt>
      <trkpt lat="50.206295" lon="26.981743">
        <ele>266.852526</ele>
        <time>2019-06-07T10:17:59.000Z</time>
      </trkpt>
      <trkpt lat="50.206300" lon="26.981892">
        <ele>267.106192</ele>
        <time>2019-06-07T10:18:01.000Z</time>
      </trkpt>
      <trkpt lat="50.206287" lon="26.982088">
        <ele>267.441200</ele>
        <time>2019-06-07T10:18:04.000Z</time>
      </trkpt>
      <trkpt lat="50.206280" lon="26.982237">
        <ele>267.695200</ele>
        <time>2019-06-07T10:18:06.000Z</time>
      </trkpt>
      <trkpt lat="50.206290" lon="26.982445">
        <ele>268.049821</ele>
        <time>2019-06-07T10:18:09.000Z</time>
      </trkpt>
      <trkpt lat="50.206300" lon="26.982650">
        <ele>268.399357</ele>
        <time>2019-06-07T10:18:12.000Z</time>
      </trkpt>
      <trkpt lat="50.206276" lon="26.982832">
        <ele>268.715279</ele>
        <time>2019-06-07T10:18:15.000Z</time>
      </trkpt>
      <trkpt lat="50.206276" lon="26.983013">
        <ele>268.581159</ele>
        <time>2019-06-07T10:18:18.000Z</time>
      </trkpt>
      <trkpt lat="50.206284" lon="26.983200">
        <ele>268.222300</ele>
        <time>2019-06-07T10:18:21.000Z</time>
      </trkpt>
      <trkpt lat="50.206284" lon="26.983347">
        <ele>267.940830</ele>
        <time>2019-06-07T10:18:23.000Z</time>
      </trkpt>
      <trkpt lat="50.206287" lon="26.983496">
        <ele>267.655390</ele>
        <time>2019-06-07T10:18:25.000Z</time>
      </trkpt>
      <trkpt lat="50.206287" lon="26.983704">
        <ele>267.257120</ele>
        <time>2019-06-07T10:18:28.000Z</time>
      </trkpt>
      <trkpt lat="50.206300" lon="26.983904">
        <ele>266.872199</ele>
        <time>2019-06-07T10:18:31.000Z</time>
      </trkpt>
      <trkpt lat="50.206295" lon="26.984097">
        <ele>266.502348</ele>
        <time>2019-06-07T10:18:34.000Z</time>
      </trkpt>
      <trkpt lat="50.206284" lon="26.984241">
        <ele>266.224666</ele>
        <time>2019-06-07T10:18:36.000Z</time>
      </trkpt>
      <trkpt lat="50.206284" lon="26.984396">
        <ele>265.927878</ele>
        <time>2019-06-07T10:18:38.000Z</time>
      </trkpt>
      <trkpt lat="50.206280" lon="26.984539">
        <ele>265.653806</ele>
        <time>2019-06-07T10:18:40.000Z</time>
      </trkpt>
      <trkpt lat="50.206272" lon="26.984745">
        <ele>265.258641</ele>
        <time>2019-06-07T10:18:43.000Z</time>
      </trkpt>
      <trkpt lat="50.206257" lon="26.984953">
        <ele>264.857850</ele>
        <time>2019-06-07T10:18:46.000Z</time>
      </trkpt>
      <trkpt lat="50.206260" lon="26.985155">
        <ele>264.470965</ele>
        <time>2019-06-07T10:18:49.000Z</time>
      </trkpt>
      <trkpt lat="50.206264" lon="26.985296">
        <ele>264.200719</ele>
        <time>2019-06-07T10:18:51.000Z</time>
      </trkpt>
      <trkpt lat="50.206260" lon="26.985445">
        <ele>263.915169</ele>
        <time>2019-06-07T10:18:53.000Z</time>
      </trkpt>
      <trkpt lat="50.206257" lon="26.985598">
        <ele>263.622073</ele>
        <time>2019-06-07T10:18:55.000Z</time>
      </trkpt>
      <trkpt lat="50.206250" lon="26.985800">
        <ele>263.275676</ele>
        <time>2019-06-07T10:18:58.000Z</time>
      </trkpt>
      <trkpt lat="50.206230" lon="26.985996">
        <ele>262.973657</ele>
        <time>2019-06-07T10:19:01.000Z</time>
      </trkpt>
      <trkpt lat="50.206223" lon="26.986187">
        <ele>262.682537</ele>
        <time>2019-06-07T10:19:04.000Z</time>
      </trkpt>
      <trkpt lat="50.206230" lon="26.986376">
        <ele>262.394456</ele>
        <time>2019-06-07T10:19:07.000Z</time>
      </trkpt>
      <trkpt lat="50.206238" lon="26.986570">
        <ele>262.098635</ele>
        <time>2019-06-07T10:19:10.000Z</time>
      </trkpt>
      <trkpt lat="50.206245" lon="26.986755">
        <ele>261.816630</ele>
        <time>2019-06-07T10:19:13.000Z</time>
      </trkpt>
      <trkpt lat="50.206253" lon="26.986948">
        <ele>261.522328</ele>
        <time>2019-06-07T10:19:16.000Z</time>
      </trkpt>
      <trkpt lat="50.206257" lon="26.987133">
        <ele>261.240654</ele>
        <time>2019-06-07T10:19:19.000Z</time>
      </trkpt>
      <trkpt lat="50.206270" lon="26.987328">
        <ele>260.942319</ele>
        <time>2019-06-07T10:19:22.000Z</time>
      </trkpt>
      <trkpt lat="50.206287" lon="26.987476">
        <ele>260.713510</ele>
        <time>2019-06-07T10:19:24.000Z</time>
      </trkpt>
      <trkpt lat="50.206300" lon="26.987633">
        <ele>260.472613</ele>
        <time>2019-06-07T10:19:26.000Z</time>
      </trkpt>
      <trkpt lat="50.206310" lon="26.987785">
        <ele>260.240097</ele>
        <time>2019-06-07T10:19:28.000Z</time>
      </trkpt>
      <trkpt lat="50.206330" lon="26.987930">
        <ele>260.014386</ele>
        <time>2019-06-07T10:19:30.000Z</time>
      </trkpt>
      <trkpt lat="50.206352" lon="26.988075">
        <ele>259.787626</ele>
        <time>2019-06-07T10:19:32.000Z</time>
      </trkpt>
      <trkpt lat="50.206367" lon="26.988224">
        <ele>259.558106</ele>
        <time>2019-06-07T10:19:34.000Z</time>
      </trkpt>
      <trkpt lat="50.206398" lon="26.988361">
        <ele>259.336990</ele>
        <time>2019-06-07T10:19:36.000Z</time>
      </trkpt>
      <trkpt lat="50.206432" lon="26.988495">
        <ele>259.133714</ele>
        <time>2019-06-07T10:19:38.000Z</time>
      </trkpt>
      <trkpt lat="50.206486" lon="26.988672">
        <ele>258.954607</ele>
        <time>2019-06-07T10:19:41.000Z</time>
      </trkpt>
      <trkpt lat="50.206516" lon="26.988870">
        <ele>258.768748</ele>
        <time>2019-06-07T10:19:44.000Z</time>
      </trkpt>
      <trkpt lat="50.206554" lon="26.989061">
        <ele>258.586048</ele>
        <time>2019-06-07T10:19:47.000Z</time>
      </trkpt>
      <trkpt lat="50.206580" lon="26.989262">
        <ele>258.398735</ele>
        <time>2019-06-07T10:19:50.000Z</time>
      </trkpt>
      <trkpt lat="50.206600" lon="26.989447">
        <ele>258.227357</ele>
        <time>2019-06-07T10:19:53.000Z</time>
      </trkpt>
      <trkpt lat="50.206623" lon="26.989628">
        <ele>258.058798</ele>
        <time>2019-06-07T10:19:56.000Z</time>
      </trkpt>
      <trkpt lat="50.206650" lon="26.989786">
        <ele>257.909420</ele>
        <time>2019-06-07T10:19:59.000Z</time>
      </trkpt>
      <trkpt lat="50.206680" lon="26.989954">
        <ele>257.750103</ele>
        <time>2019-06-07T10:20:02.000Z</time>
      </trkpt>
      <trkpt lat="50.206722" lon="26.990124">
        <ele>257.583652</ele>
        <time>2019-06-07T10:20:05.000Z</time>
      </trkpt>
      <trkpt lat="50.206780" lon="26.990284">
        <ele>257.415689</ele>
        <time>2019-06-07T10:20:08.000Z</time>
      </trkpt>
      <trkpt lat="50.206833" lon="26.990416">
        <ele>257.273354</ele>
        <time>2019-06-07T10:20:11.000Z</time>
      </trkpt>
      <trkpt lat="50.206894" lon="26.990526">
        <ele>257.140407</ele>
        <time>2019-06-07T10:20:14.000Z</time>
      </trkpt>
      <trkpt lat="50.206963" lon="26.990660">
        <ele>256.983312</ele>
        <time>2019-06-07T10:20:18.000Z</time>
      </trkpt>
      <trkpt lat="50.207040" lon="26.990765">
        <ele>256.837451</ele>
        <time>2019-06-07T10:20:21.000Z</time>
      </trkpt>
      <trkpt lat="50.207134" lon="26.990856">
        <ele>256.679632</ele>
        <time>2019-06-07T10:20:24.000Z</time>
      </trkpt>
      <trkpt lat="50.207220" lon="26.990915">
        <ele>256.616766</ele>
        <time>2019-06-07T10:20:27.000Z</time>
      </trkpt>
      <trkpt lat="50.207306" lon="26.990976">
        <ele>256.693983</ele>
        <time>2019-06-07T10:20:30.000Z</time>
      </trkpt>
      <trkpt lat="50.207390" lon="26.991035">
        <ele>256.769279</ele>
        <time>2019-06-07T10:20:33.000Z</time>
      </trkpt>
      <trkpt lat="50.207462" lon="26.991121">
        <ele>256.843375</ele>
        <time>2019-06-07T10:20:36.000Z</time>
      </trkpt>
      <trkpt lat="50.207520" lon="26.991260">
        <ele>256.930200</ele>
        <time>2019-06-07T10:20:40.000Z</time>
      </trkpt>
      <trkpt lat="50.207565" lon="26.991413">
        <ele>257.018307</ele>
        <time>2019-06-07T10:20:44.000Z</time>
      </trkpt>
      <trkpt lat="50.207580" lon="26.991554">
        <ele>257.093098</ele>
        <time>2019-06-07T10:20:48.000Z</time>
      </trkpt>
      <trkpt lat="50.207623" lon="26.991713">
        <ele>257.183418</ele>
        <time>2019-06-07T10:20:52.000Z</time>
      </trkpt>
      <trkpt lat="50.207664" lon="26.991837">
        <ele>257.256449</ele>
        <time>2019-06-07T10:20:55.000Z</time>
      </trkpt>
      <trkpt lat="50.207718" lon="26.991995">
        <ele>257.350172</ele>
        <time>2019-06-07T10:20:59.000Z</time>
      </trkpt>
      <trkpt lat="50.207752" lon="26.992134">
        <ele>257.428035</ele>
        <time>2019-06-07T10:21:03.000Z</time>
      </trkpt>
      <trkpt lat="50.207798" lon="26.992306">
        <ele>257.525577</ele>
        <time>2019-06-07T10:21:07.000Z</time>
      </trkpt>
      <trkpt lat="50.207840" lon="26.992447">
        <ele>257.606955</ele>
        <time>2019-06-07T10:21:10.000Z</time>
      </trkpt>
      <trkpt lat="50.207874" lon="26.992598">
        <ele>257.690713</ele>
        <time>2019-06-07T10:21:13.000Z</time>
      </trkpt>
      <trkpt lat="50.207916" lon="26.992758">
        <ele>257.781201</ele>
        <time>2019-06-07T10:21:16.000Z</time>
      </trkpt>
      <trkpt lat="50.207962" lon="26.992910">
        <ele>257.869179</ele>
        <time>2019-06-07T10:21:19.000Z</time>
      </trkpt>
      <trkpt lat="50.208000" lon="26.993055">
        <ele>257.951164</ele>
        <time>2019-06-07T10:21:22.000Z</time>
      </trkpt>
      <trkpt lat="50.208035" lon="26.993195">
        <ele>258.029810</ele>
        <time>2019-06-07T10:21:26.000Z</time>
      </trkpt>
      <trkpt lat="50.207990" lon="26.993326">
        <ele>258.203992</ele>
        <time>2019-06-07T10:22:31.000Z</time>
      </trkpt>
      <trkpt lat="50.207910" lon="26.993404">
        <ele>258.441790</ele>
        <time>2019-06-07T10:22:39.000Z</time>
      </trkpt>
      <trkpt lat="50.207810" lon="26.993448">
        <ele>258.703776</ele>
        <time>2019-06-07T10:22:43.000Z</time>
      </trkpt>
      <trkpt lat="50.207680" lon="26.993511">
        <ele>259.047014</ele>
        <time>2019-06-07T10:22:48.000Z</time>
      </trkpt>
      <trkpt lat="50.207573" lon="26.993551">
        <ele>259.324460</ele>
        <time>2019-06-07T10:22:52.000Z</time>
      </trkpt>
      <trkpt lat="50.207460" lon="26.993582">
        <ele>259.613781</ele>
        <time>2019-06-07T10:22:56.000Z</time>
      </trkpt>
      <trkpt lat="50.207355" lon="26.993628">
        <ele>259.888779</ele>
        <time>2019-06-07T10:23:00.000Z</time>
      </trkpt>
      <trkpt lat="50.207253" lon="26.993677">
        <ele>260.157884</ele>
        <time>2019-06-07T10:23:04.000Z</time>
      </trkpt>
      <trkpt lat="50.207165" lon="26.993717">
        <ele>260.389001</ele>
        <time>2019-06-07T10:23:07.000Z</time>
      </trkpt>
      <trkpt lat="50.207070" lon="26.993748">
        <ele>260.633739</ele>
        <time>2019-06-07T10:23:10.000Z</time>
      </trkpt>
      <trkpt lat="50.206985" lon="26.993850">
        <ele>260.904013</ele>
        <time>2019-06-07T10:23:14.000Z</time>
      </trkpt>
      <trkpt lat="50.206882" lon="26.993925">
        <ele>261.190579</ele>
        <time>2019-06-07T10:23:18.000Z</time>
      </trkpt>
      <trkpt lat="50.206800" lon="26.993977">
        <ele>261.413747</ele>
        <time>2019-06-07T10:23:21.000Z</time>
      </trkpt>
      <trkpt lat="50.206690" lon="26.994041">
        <ele>261.709752</ele>
        <time>2019-06-07T10:23:25.000Z</time>
      </trkpt>
      <trkpt lat="50.206593" lon="26.994087">
        <ele>261.965383</ele>
        <time>2019-06-07T10:23:29.000Z</time>
      </trkpt>
      <trkpt lat="50.206482" lon="26.994123">
        <ele>262.251268</ele>
        <time>2019-06-07T10:23:33.000Z</time>
      </trkpt>
      <trkpt lat="50.206398" lon="26.994183">
        <ele>262.484184</ele>
        <time>2019-06-07T10:23:36.000Z</time>
      </trkpt>
      <trkpt lat="50.206310" lon="26.994267">
        <ele>262.546499</ele>
        <time>2019-06-07T10:23:39.000Z</time>
      </trkpt>
      <trkpt lat="50.206215" lon="26.994328">
        <ele>262.457303</ele>
        <time>2019-06-07T10:23:43.000Z</time>
      </trkpt>
      <trkpt lat="50.206123" lon="26.994354">
        <ele>262.376111</ele>
        <time>2019-06-07T10:23:47.000Z</time>
      </trkpt>
      <trkpt lat="50.206020" lon="26.994402">
        <ele>262.282769</ele>
        <time>2019-06-07T10:23:56.000Z</time>
      </trkpt>
      <trkpt lat="50.205930" lon="26.994507">
        <ele>262.185225</ele>
        <time>2019-06-07T10:24:00.000Z</time>
      </trkpt>
      <trkpt lat="50.205864" lon="26.994610">
        <ele>262.104214</ele>
        <time>2019-06-07T10:24:03.000Z</time>
      </trkpt>
      <trkpt lat="50.205776" lon="26.994698">
        <ele>262.013480</ele>
        <time>2019-06-07T10:24:06.000Z</time>
      </trkpt>
      <trkpt lat="50.205700" lon="26.994797">
        <ele>261.927549</ele>
        <time>2019-06-07T10:24:09.000Z</time>
      </trkpt>
      <trkpt lat="50.205616" lon="26.994892">
        <ele>261.837496</ele>
        <time>2019-06-07T10:24:12.000Z</time>
      </trkpt>
      <trkpt lat="50.205513" lon="26.994997">
        <ele>261.730692</ele>
        <time>2019-06-07T10:24:15.000Z</time>
      </trkpt>
      <trkpt lat="50.205420" lon="26.995110">
        <ele>261.628380</ele>
        <time>2019-06-07T10:24:18.000Z</time>
      </trkpt>
      <trkpt lat="50.205320" lon="26.995226">
        <ele>261.520218</ele>
        <time>2019-06-07T10:24:21.000Z</time>
      </trkpt>
      <trkpt lat="50.205257" lon="26.995325">
        <ele>261.442621</ele>
        <time>2019-06-07T10:24:23.000Z</time>
      </trkpt>
      <trkpt lat="50.205180" lon="26.995415">
        <ele>261.359111</ele>
        <time>2019-06-07T10:24:25.000Z</time>
      </trkpt>
      <trkpt lat="50.205080" lon="26.995523">
        <ele>261.253540</ele>
        <time>2019-06-07T10:24:28.000Z</time>
      </trkpt>
      <trkpt lat="50.204990" lon="26.995660">
        <ele>261.144418</ele>
        <time>2019-06-07T10:24:31.000Z</time>
      </trkpt>
      <trkpt lat="50.204910" lon="26.995754">
        <ele>261.057489</ele>
        <time>2019-06-07T10:24:33.000Z</time>
      </trkpt>
      <trkpt lat="50.204838" lon="26.995850">
        <ele>261.058798</ele>
        <time>2019-06-07T10:24:35.000Z</time>
      </trkpt>
      <trkpt lat="50.204730" lon="26.995980">
        <ele>261.105561</ele>
        <time>2019-06-07T10:24:38.000Z</time>
      </trkpt>
      <trkpt lat="50.204624" lon="26.996098">
        <ele>261.150204</ele>
        <time>2019-06-07T10:24:41.000Z</time>
      </trkpt>
      <trkpt lat="50.204525" lon="26.996206">
        <ele>261.191619</ele>
        <time>2019-06-07T10:24:44.000Z</time>
      </trkpt>
      <trkpt lat="50.204430" lon="26.996325">
        <ele>261.233384</ele>
        <time>2019-06-07T10:24:47.000Z</time>
      </trkpt>
      <trkpt lat="50.204346" lon="26.996416">
        <ele>261.268444</ele>
        <time>2019-06-07T10:24:50.000Z</time>
      </trkpt>
      <trkpt lat="50.204230" lon="26.996440">
        <ele>261.308580</ele>
        <time>2019-06-07T10:24:54.000Z</time>
      </trkpt>
      <trkpt lat="50.204140" lon="26.996544">
        <ele>261.346976</ele>
        <time>2019-06-07T10:24:59.000Z</time>
      </trkpt>
      <trkpt lat="50.204056" lon="26.996655">
        <ele>261.384711</ele>
        <time>2019-06-07T10:25:03.000Z</time>
      </trkpt>
      <trkpt lat="50.203987" lon="26.996775">
        <ele>261.420125</ele>
        <time>2019-06-07T10:25:07.000Z</time>
      </trkpt>
      <trkpt lat="50.204067" lon="26.996702">
        <ele>261.451903</ele>
        <time>2019-06-07T10:25:21.000Z</time>
      </trkpt>
      <trkpt lat="50.204147" lon="26.996610">
        <ele>261.485974</ele>
        <time>2019-06-07T10:25:24.000Z</time>
      </trkpt>
      <trkpt lat="50.204220" lon="26.996487">
        <ele>261.522800</ele>
        <time>2019-06-07T10:25:28.000Z</time>
      </trkpt>
      <trkpt lat="50.204310" lon="26.996420">
        <ele>261.556995</ele>
        <time>2019-06-07T10:25:35.000Z</time>
      </trkpt>
      <trkpt lat="50.204403" lon="26.996355">
        <ele>261.591940</ele>
        <time>2019-06-07T10:25:39.000Z</time>
      </trkpt>
      <trkpt lat="50.204490" lon="26.996248">
        <ele>261.629918</ele>
        <time>2019-06-07T10:25:43.000Z</time>
      </trkpt>
      <trkpt lat="50.204575" lon="26.996150">
        <ele>261.669193</ele>
        <time>2019-06-07T10:25:46.000Z</time>
      </trkpt>
      <trkpt lat="50.204662" lon="26.996052">
        <ele>261.713938</ele>
        <time>2019-06-07T10:25:49.000Z</time>
      </trkpt>
      <trkpt lat="50.204758" lon="26.995950">
        <ele>261.762370</ele>
        <time>2019-06-07T10:25:52.000Z</time>
      </trkpt>
      <trkpt lat="50.204845" lon="26.995860">
        <ele>261.805900</ele>
        <time>2019-06-07T10:25:55.000Z</time>
      </trkpt>
      <trkpt lat="50.204945" lon="26.995752">
        <ele>261.856615</ele>
        <time>2019-06-07T10:25:58.000Z</time>
      </trkpt>
      <trkpt lat="50.205044" lon="26.995638">
        <ele>261.907921</ele>
        <time>2019-06-07T10:26:01.000Z</time>
      </trkpt>
      <trkpt lat="50.205140" lon="26.995514">
        <ele>261.959885</ele>
        <time>2019-06-07T10:26:04.000Z</time>
      </trkpt>
      <trkpt lat="50.205223" lon="26.995405">
        <ele>262.005118</ele>
        <time>2019-06-07T10:26:07.000Z</time>
      </trkpt>
      <trkpt lat="50.205303" lon="26.995293">
        <ele>262.049931</ele>
        <time>2019-06-07T10:26:10.000Z</time>
      </trkpt>
      <trkpt lat="50.205370" lon="26.995169">
        <ele>262.093261</ele>
        <time>2019-06-07T10:26:13.000Z</time>
      </trkpt>
      <trkpt lat="50.205450" lon="26.995052">
        <ele>262.138975</ele>
        <time>2019-06-07T10:26:16.000Z</time>
      </trkpt>
      <trkpt lat="50.205524" lon="26.994950">
        <ele>262.180143</ele>
        <time>2019-06-07T10:26:19.000Z</time>
      </trkpt>
      <trkpt lat="50.205605" lon="26.994852">
        <ele>262.222882</ele>
        <time>2019-06-07T10:26:22.000Z</time>
      </trkpt>
      <trkpt lat="50.205692" lon="26.994760">
        <ele>262.266708</ele>
        <time>2019-06-07T10:26:25.000Z</time>
      </trkpt>
      <trkpt lat="50.205784" lon="26.994669">
        <ele>262.312134</ele>
        <time>2019-06-07T10:26:28.000Z</time>
      </trkpt>
      <trkpt lat="50.205887" lon="26.994555">
        <ele>262.364792</ele>
        <time>2019-06-07T10:26:31.000Z</time>
      </trkpt>
      <trkpt lat="50.205990" lon="26.994460">
        <ele>262.488646</ele>
        <time>2019-06-07T10:26:34.000Z</time>
      </trkpt>
      <trkpt lat="50.206074" lon="26.994375">
        <ele>262.782605</ele>
        <time>2019-06-07T10:26:37.000Z</time>
      </trkpt>
      <trkpt lat="50.206180" lon="26.994330">
        <ele>263.105246</ele>
        <time>2019-06-07T10:26:41.000Z</time>
      </trkpt>
      <trkpt lat="50.206264" lon="26.994442">
        <ele>263.429607</ele>
        <time>2019-06-07T10:26:45.000Z</time>
      </trkpt>
      <trkpt lat="50.206280" lon="26.994589">
        <ele>263.709927</ele>
        <time>2019-06-07T10:26:48.000Z</time>
      </trkpt>
      <trkpt lat="50.206270" lon="26.994766">
        <ele>264.043971</ele>
        <time>2019-06-07T10:26:52.000Z</time>
      </trkpt>
      <trkpt lat="50.206260" lon="26.994913">
        <ele>264.321879</ele>
        <time>2019-06-07T10:26:55.000Z</time>
      </trkpt>
      <trkpt lat="50.206253" lon="26.995083">
        <ele>264.642130</ele>
        <time>2019-06-07T10:26:59.000Z</time>
      </trkpt>
      <trkpt lat="50.206245" lon="26.995224">
        <ele>264.908242</ele>
        <time>2019-06-07T10:27:02.000Z</time>
      </trkpt>
      <trkpt lat="50.206250" lon="26.995400">
        <ele>265.239438</ele>
        <time>2019-06-07T10:27:06.000Z</time>
      </trkpt>
      <trkpt lat="50.206238" lon="26.995546">
        <ele>265.516164</ele>
        <time>2019-06-07T10:27:09.000Z</time>
      </trkpt>
      <trkpt lat="50.206223" lon="26.995686">
        <ele>265.783019</ele>
        <time>2019-06-07T10:27:12.000Z</time>
      </trkpt>
      <trkpt lat="50.206215" lon="26.995838">
        <ele>266.069735</ele>
        <time>2019-06-07T10:27:15.000Z</time>
      </trkpt>
      <trkpt lat="50.206207" lon="26.995980">
        <ele>266.337720</ele>
        <time>2019-06-07T10:27:18.000Z</time>
      </trkpt>
      <trkpt lat="50.206200" lon="26.996155">
        <ele>266.667352</ele>
        <time>2019-06-07T10:27:22.000Z</time>
      </trkpt>
      <trkpt lat="50.206200" lon="26.996340">
        <ele>267.015143</ele>
        <time>2019-06-07T10:27:26.000Z</time>
      </trkpt>
      <trkpt lat="50.206190" lon="26.996513">
        <ele>267.341697</ele>
        <time>2019-06-07T10:27:29.000Z</time>
      </trkpt>
      <trkpt lat="50.206170" lon="26.996672">
        <ele>267.646327</ele>
        <time>2019-06-07T10:27:32.000Z</time>
      </trkpt>
      <trkpt lat="50.206154" lon="26.996855">
        <ele>267.463284</ele>
        <time>2019-06-07T10:27:36.000Z</time>
      </trkpt>
      <trkpt lat="50.206142" lon="26.997020">
        <ele>267.237922</ele>
        <time>2019-06-07T10:27:39.000Z</time>
      </trkpt>
      <trkpt lat="50.206127" lon="26.997171">
        <ele>267.030547</ele>
        <time>2019-06-07T10:27:42.000Z</time>
      </trkpt>
      <trkpt lat="50.206110" lon="26.997345">
        <ele>266.791677</ele>
        <time>2019-06-07T10:27:45.000Z</time>
      </trkpt>
      <trkpt lat="50.206100" lon="26.997526">
        <ele>266.545129</ele>
        <time>2019-06-07T10:27:48.000Z</time>
      </trkpt>
      <trkpt lat="50.206085" lon="26.997673">
        <ele>266.343116</ele>
        <time>2019-06-07T10:27:51.000Z</time>
      </trkpt>
      <trkpt lat="50.206080" lon="26.997822">
        <ele>266.140630</ele>
        <time>2019-06-07T10:27:54.000Z</time>
      </trkpt>
      <trkpt lat="50.206085" lon="26.998007">
        <ele>265.889344</ele>
        <time>2019-06-07T10:27:57.000Z</time>
      </trkpt>
      <trkpt lat="50.206080" lon="26.998192">
        <ele>265.638057</ele>
        <time>2019-06-07T10:28:01.000Z</time>
      </trkpt>
      <trkpt lat="50.206078" lon="26.998394">
        <ele>265.363890</ele>
        <time>2019-06-07T10:28:05.000Z</time>
      </trkpt>
      <trkpt lat="50.206055" lon="26.998570">
        <ele>265.120113</ele>
        <time>2019-06-07T10:28:08.000Z</time>
      </trkpt>
      <trkpt lat="50.206040" lon="26.998737">
        <ele>264.891257</ele>
        <time>2019-06-07T10:28:11.000Z</time>
      </trkpt>
      <trkpt lat="50.206017" lon="26.998894">
        <ele>264.672682</ele>
        <time>2019-06-07T10:28:14.000Z</time>
      </trkpt>
      <trkpt lat="50.205990" lon="26.999050">
        <ele>264.453370</ele>
        <time>2019-06-07T10:28:17.000Z</time>
      </trkpt>
      <trkpt lat="50.205980" lon="26.999205">
        <ele>264.241954</ele>
        <time>2019-06-07T10:28:20.000Z</time>
      </trkpt>
      <trkpt lat="50.205950" lon="26.999370">
        <ele>264.009172</ele>
        <time>2019-06-07T10:28:23.000Z</time>
      </trkpt>
      <trkpt lat="50.205940" lon="26.999537">
        <ele>263.862687</ele>
        <time>2019-06-07T10:28:26.000Z</time>
      </trkpt>
      <trkpt lat="50.205920" lon="26.999704">
        <ele>263.839405</ele>
        <time>2019-06-07T10:28:29.000Z</time>
      </trkpt>
      <trkpt lat="50.205910" lon="26.999891">
        <ele>263.813690</ele>
        <time>2019-06-07T10:28:32.000Z</time>
      </trkpt>
      <trkpt lat="50.205900" lon="27.000082">
        <ele>263.787429</ele>
        <time>2019-06-07T10:28:35.000Z</time>
      </trkpt>
      <trkpt lat="50.205890" lon="27.000278">
        <ele>263.760485</ele>
        <time>2019-06-07T10:28:38.000Z</time>
      </trkpt>
      <trkpt lat="50.205883" lon="27.000456">
        <ele>263.736047</ele>
        <time>2019-06-07T10:28:41.000Z</time>
      </trkpt>
      <trkpt lat="50.205864" lon="27.000608">
        <ele>263.714824</ele>
        <time>2019-06-07T10:28:44.000Z</time>
      </trkpt>
      <trkpt lat="50.205850" lon="27.000769">
        <ele>263.692559</ele>
        <time>2019-06-07T10:28:47.000Z</time>
      </trkpt>
      <trkpt lat="50.205845" lon="27.000938">
        <ele>263.669375</ele>
        <time>2019-06-07T10:28:50.000Z</time>
      </trkpt>
      <trkpt lat="50.205837" lon="27.001106">
        <ele>263.646290</ele>
        <time>2019-06-07T10:28:53.000Z</time>
      </trkpt>
      <trkpt lat="50.205830" lon="27.001263">
        <ele>263.624723</ele>
        <time>2019-06-07T10:28:56.000Z</time>
      </trkpt>
      <trkpt lat="50.205830" lon="27.001436">
        <ele>263.601016</ele>
        <time>2019-06-07T10:28:59.000Z</time>
      </trkpt>
      <trkpt lat="50.205830" lon="27.001610">
        <ele>263.577172</ele>
        <time>2019-06-07T10:29:02.000Z</time>
      </trkpt>
      <trkpt lat="50.205822" lon="27.001790">
        <ele>263.552446</ele>
        <time>2019-06-07T10:29:05.000Z</time>
      </trkpt>
      <trkpt lat="50.205800" lon="27.001942">
        <ele>263.531091</ele>
        <time>2019-06-07T10:29:08.000Z</time>
      </trkpt>
      <trkpt lat="50.205780" lon="27.002096">
        <ele>263.509557</ele>
        <time>2019-06-07T10:29:11.000Z</time>
      </trkpt>
      <trkpt lat="50.205765" lon="27.002241">
        <ele>263.489429</ele>
        <time>2019-06-07T10:29:14.000Z</time>
      </trkpt>
      <trkpt lat="50.205730" lon="27.002390">
        <ele>263.574919</ele>
        <time>2019-06-07T10:29:18.000Z</time>
      </trkpt>
      <trkpt lat="50.205715" lon="27.002565">
        <ele>263.687145</ele>
        <time>2019-06-07T10:29:22.000Z</time>
      </trkpt>
      <trkpt lat="50.205710" lon="27.002720">
        <ele>263.785791</ele>
        <time>2019-06-07T10:29:26.000Z</time>
      </trkpt>
      <trkpt lat="50.205740" lon="27.002888">
        <ele>263.896653</ele>
        <time>2019-06-07T10:29:31.000Z</time>
      </trkpt>
      <trkpt lat="50.205720" lon="27.003038">
        <ele>263.994043</ele>
        <time>2019-06-07T10:29:35.000Z</time>
      </trkpt>
      <trkpt lat="50.205704" lon="27.003206">
        <ele>264.102003</ele>
        <time>2019-06-07T10:29:39.000Z</time>
      </trkpt>
      <trkpt lat="50.205700" lon="27.003360">
        <ele>264.199969</ele>
        <time>2019-06-07T10:29:43.000Z</time>
      </trkpt>
      <trkpt lat="50.205692" lon="27.003540">
        <ele>264.314656</ele>
        <time>2019-06-07T10:29:47.000Z</time>
      </trkpt>
      <trkpt lat="50.205680" lon="27.003725">
        <ele>264.432848</ele>
        <time>2019-06-07T10:29:51.000Z</time>
      </trkpt>
      <trkpt lat="50.205666" lon="27.003897">
        <ele>264.543055</ele>
        <time>2019-06-07T10:29:55.000Z</time>
      </trkpt>
      <trkpt lat="50.205666" lon="27.004051">
        <ele>264.640941</ele>
        <time>2019-06-07T10:29:58.000Z</time>
      </trkpt>
      <trkpt lat="50.205658" lon="27.004206">
        <ele>264.739782</ele>
        <time>2019-06-07T10:30:01.000Z</time>
      </trkpt>
      <trkpt lat="50.205650" lon="27.004349">
        <ele>264.831022</ele>
        <time>2019-06-07T10:30:04.000Z</time>
      </trkpt>
      <trkpt lat="50.205635" lon="27.004503">
        <ele>264.930034</ele>
        <time>2019-06-07T10:30:07.000Z</time>
      </trkpt>
      <trkpt lat="50.205612" lon="27.004654">
        <ele>265.028694</ele>
        <time>2019-06-07T10:30:10.000Z</time>
      </trkpt>
      <trkpt lat="50.205600" lon="27.004812">
        <ele>265.129826</ele>
        <time>2019-06-07T10:30:13.000Z</time>
      </trkpt>
      <trkpt lat="50.205593" lon="27.004960">
        <ele>265.224155</ele>
        <time>2019-06-07T10:30:16.000Z</time>
      </trkpt>
      <trkpt lat="50.205590" lon="27.005108">
        <ele>265.271823</ele>
        <time>2019-06-07T10:30:19.000Z</time>
      </trkpt>
      <trkpt lat="50.205590" lon="27.005255">
        <ele>265.269524</ele>
        <time>2019-06-07T10:30:22.000Z</time>
      </trkpt>
      <trkpt lat="50.205578" lon="27.005402">
        <ele>265.267207</ele>
        <time>2019-06-07T10:30:25.000Z</time>
      </trkpt>
      <trkpt lat="50.205555" lon="27.005577">
        <ele>265.264414</ele>
        <time>2019-06-07T10:30:29.000Z</time>
      </trkpt>
      <trkpt lat="50.205544" lon="27.005747">
        <ele>265.261742</ele>
        <time>2019-06-07T10:30:33.000Z</time>
      </trkpt>
      <trkpt lat="50.205536" lon="27.005896">
        <ele>265.259404</ele>
        <time>2019-06-07T10:30:36.000Z</time>
      </trkpt>
      <trkpt lat="50.205510" lon="27.006031">
        <ele>265.257199</ele>
        <time>2019-06-07T10:30:39.000Z</time>
      </trkpt>
      <trkpt lat="50.205490" lon="27.006170">
        <ele>265.254971</ele>
        <time>2019-06-07T10:30:42.000Z</time>
      </trkpt>
      <trkpt lat="50.205486" lon="27.006311">
        <ele>265.252764</ele>
        <time>2019-06-07T10:30:45.000Z</time>
      </trkpt>
      <trkpt lat="50.205482" lon="27.006456">
        <ele>265.250495</ele>
        <time>2019-06-07T10:30:48.000Z</time>
      </trkpt>
      <trkpt lat="50.205482" lon="27.006605">
        <ele>265.248165</ele>
        <time>2019-06-07T10:30:51.000Z</time>
      </trkpt>
      <trkpt lat="50.205467" lon="27.006779">
        <ele>265.245420</ele>
        <time>2019-06-07T10:30:55.000Z</time>
      </trkpt>
      <trkpt lat="50.205460" lon="27.006930">
        <ele>265.243052</ele>
        <time>2019-06-07T10:30:58.000Z</time>
      </trkpt>
      <trkpt lat="50.205450" lon="27.007093">
        <ele>265.240492</ele>
        <time>2019-06-07T10:31:01.000Z</time>
      </trkpt>
      <trkpt lat="50.205433" lon="27.007250">
        <ele>265.238002</ele>
        <time>2019-06-07T10:31:04.000Z</time>
      </trkpt>
      <trkpt lat="50.205410" lon="27.007393">
        <ele>265.235696</ele>
        <time>2019-06-07T10:31:07.000Z</time>
      </trkpt>
      <trkpt lat="50.205387" lon="27.007551">
        <ele>265.233162</ele>
        <time>2019-06-07T10:31:10.000Z</time>
      </trkpt>
      <trkpt lat="50.205383" lon="27.007702">
        <ele>265.230799</ele>
        <time>2019-06-07T10:31:13.000Z</time>
      </trkpt>
      <trkpt lat="50.205387" lon="27.007845">
        <ele>265.239749</ele>
        <time>2019-06-07T10:31:16.000Z</time>
      </trkpt>
      <trkpt lat="50.205418" lon="27.008015">
        <ele>265.308254</ele>
        <time>2019-06-07T10:31:19.000Z</time>
      </trkpt>
      <trkpt lat="50.205418" lon="27.008165">
        <ele>265.366387</ele>
        <time>2019-06-07T10:31:22.000Z</time>
      </trkpt>
      <trkpt lat="50.205433" lon="27.008326">
        <ele>265.429440</ele>
        <time>2019-06-07T10:31:26.000Z</time>
      </trkpt>
      <trkpt lat="50.205418" lon="27.008490">
        <ele>265.493644</ele>
        <time>2019-06-07T10:31:30.000Z</time>
      </trkpt>
      <trkpt lat="50.205364" lon="27.008635">
        <ele>265.558660</ele>
        <time>2019-06-07T10:31:34.000Z</time>
      </trkpt>
      <trkpt lat="50.205290" lon="27.008747">
        <ele>265.621044</ele>
        <time>2019-06-07T10:31:40.000Z</time>
      </trkpt>
      <trkpt lat="50.205200" lon="27.008862">
        <ele>265.691445</ele>
        <time>2019-06-07T10:31:45.000Z</time>
      </trkpt>
      <trkpt lat="50.205112" lon="27.008968">
        <ele>265.758727</ele>
        <time>2019-06-07T10:31:49.000Z</time>
      </trkpt>
      <trkpt lat="50.205025" lon="27.009075">
        <ele>265.825770</ele>
        <time>2019-06-07T10:31:53.000Z</time>
      </trkpt>
      <trkpt lat="50.204950" lon="27.009163">
        <ele>265.882564</ele>
        <time>2019-06-07T10:31:56.000Z</time>
      </trkpt>
      <trkpt lat="50.204865" lon="27.009272">
        <ele>265.949149</ele>
        <time>2019-06-07T10:31:59.000Z</time>
      </trkpt>
      <trkpt lat="50.204784" lon="27.009384">
        <ele>266.014645</ele>
        <time>2019-06-07T10:32:02.000Z</time>
      </trkpt>
      <trkpt lat="50.204700" lon="27.009490">
        <ele>266.080026</ele>
        <time>2019-06-07T10:32:05.000Z</time>
      </trkpt>
      <trkpt lat="50.204613" lon="27.009600">
        <ele>266.147794</ele>
        <time>2019-06-07T10:32:08.000Z</time>
      </trkpt>
      <trkpt lat="50.204530" lon="27.009712">
        <ele>266.214202</ele>
        <time>2019-06-07T10:32:11.000Z</time>
      </trkpt>
      <trkpt lat="50.204430" lon="27.009815">
        <ele>266.286728</ele>
        <time>2019-06-07T10:32:14.000Z</time>
      </trkpt>
      <trkpt lat="50.204350" lon="27.009928">
        <ele>266.374505</ele>
        <time>2019-06-07T10:32:17.000Z</time>
      </trkpt>
      <trkpt lat="50.204266" lon="27.010038">
        <ele>266.484827</ele>
        <time>2019-06-07T10:32:20.000Z</time>
      </trkpt>
      <trkpt lat="50.204185" lon="27.010132">
        <ele>266.586390</ele>
        <time>2019-06-07T10:32:23.000Z</time>
      </trkpt>
      <trkpt lat="50.204105" lon="27.010225">
        <ele>266.686760</ele>
        <time>2019-06-07T10:32:26.000Z</time>
      </trkpt>
      <trkpt lat="50.204018" lon="27.010326">
        <ele>266.795859</ele>
        <time>2019-06-07T10:32:29.000Z</time>
      </trkpt>
      <trkpt lat="50.203934" lon="27.010440">
        <ele>266.907855</ele>
        <time>2019-06-07T10:32:32.000Z</time>
      </trkpt>
      <trkpt lat="50.203850" lon="27.010548">
        <ele>267.017355</ele>
        <time>2019-06-07T10:32:35.000Z</time>
      </trkpt>
      <trkpt lat="50.203762" lon="27.010645">
        <ele>267.125759</ele>
        <time>2019-06-07T10:32:38.000Z</time>
      </trkpt>
      <trkpt lat="50.203680" lon="27.010754">
        <ele>267.234128</ele>
        <time>2019-06-07T10:32:41.000Z</time>
      </trkpt>
      <trkpt lat="50.203583" lon="27.010862">
        <ele>267.354021</ele>
        <time>2019-06-07T10:32:44.000Z</time>
      </trkpt>
      <trkpt lat="50.203503" lon="27.010970">
        <ele>267.460443</ele>
        <time>2019-06-07T10:32:47.000Z</time>
      </trkpt>
      <trkpt lat="50.203415" lon="27.011072">
        <ele>267.570735</ele>
        <time>2019-06-07T10:32:50.000Z</time>
      </trkpt>
      <trkpt lat="50.203330" lon="27.011185">
        <ele>267.683075</ele>
        <time>2019-06-07T10:32:53.000Z</time>
      </trkpt>
      <trkpt lat="50.203243" lon="27.011292">
        <ele>267.794524</ele>
        <time>2019-06-07T10:32:56.000Z</time>
      </trkpt>
      <trkpt lat="50.203156" lon="27.011400">
        <ele>267.906373</ele>
        <time>2019-06-07T10:32:59.000Z</time>
      </trkpt>
      <trkpt lat="50.203068" lon="27.011513">
        <ele>268.021029</ele>
        <time>2019-06-07T10:33:02.000Z</time>
      </trkpt>
      <trkpt lat="50.202990" lon="27.011614">
        <ele>268.123002</ele>
        <time>2019-06-07T10:33:05.000Z</time>
      </trkpt>
      <trkpt lat="50.202910" lon="27.011720">
        <ele>268.246273</ele>
        <time>2019-06-07T10:33:08.000Z</time>
      </trkpt>
      <trkpt lat="50.202830" lon="27.011827">
        <ele>268.371015</ele>
        <time>2019-06-07T10:33:11.000Z</time>
      </trkpt>
      <trkpt lat="50.202760" lon="27.011948">
        <ele>268.494672</ele>
        <time>2019-06-07T10:33:14.000Z</time>
      </trkpt>
      <trkpt lat="50.202675" lon="27.012043">
        <ele>268.618466</ele>
        <time>2019-06-07T10:33:17.000Z</time>
      </trkpt>
      <trkpt lat="50.202590" lon="27.012135">
        <ele>268.740950</ele>
        <time>2019-06-07T10:33:20.000Z</time>
      </trkpt>
      <trkpt lat="50.202520" lon="27.012238">
        <ele>268.854851</ele>
        <time>2019-06-07T10:33:23.000Z</time>
      </trkpt>
      <trkpt lat="50.202435" lon="27.012320">
        <ele>268.973182</ele>
        <time>2019-06-07T10:33:26.000Z</time>
      </trkpt>
      <trkpt lat="50.202362" lon="27.012403">
        <ele>269.080125</ele>
        <time>2019-06-07T10:33:29.000Z</time>
      </trkpt>
      <trkpt lat="50.202286" lon="27.012497">
        <ele>269.194944</ele>
        <time>2019-06-07T10:33:32.000Z</time>
      </trkpt>
      <trkpt lat="50.202206" lon="27.012604">
        <ele>269.319687</ele>
        <time>2019-06-07T10:33:35.000Z</time>
      </trkpt>
      <trkpt lat="50.202140" lon="27.012716">
        <ele>269.435110</ele>
        <time>2019-06-07T10:33:38.000Z</time>
      </trkpt>
      <trkpt lat="50.202060" lon="27.012814">
        <ele>269.555528</ele>
        <time>2019-06-07T10:33:41.000Z</time>
      </trkpt>
      <trkpt lat="50.201980" lon="27.012920">
        <ele>269.679779</ele>
        <time>2019-06-07T10:33:44.000Z</time>
      </trkpt>
      <trkpt lat="50.201897" lon="27.013018">
        <ele>269.803013</ele>
        <time>2019-06-07T10:33:47.000Z</time>
      </trkpt>
      <trkpt lat="50.201813" lon="27.013126">
        <ele>269.931873</ele>
        <time>2019-06-07T10:33:50.000Z</time>
      </trkpt>
      <trkpt lat="50.201733" lon="27.013226">
        <ele>270.053232</ele>
        <time>2019-06-07T10:33:53.000Z</time>
      </trkpt>
      <trkpt lat="50.201653" lon="27.013329">
        <ele>270.176025</ele>
        <time>2019-06-07T10:33:56.000Z</time>
      </trkpt>
      <trkpt lat="50.201570" lon="27.013447">
        <ele>270.358027</ele>
        <time>2019-06-07T10:33:59.000Z</time>
      </trkpt>
      <trkpt lat="50.201477" lon="27.013557">
        <ele>270.632066</ele>
        <time>2019-06-07T10:34:02.000Z</time>
      </trkpt>
      <trkpt lat="50.201385" lon="27.013681">
        <ele>270.917521</ele>
        <time>2019-06-07T10:34:05.000Z</time>
      </trkpt>
      <trkpt lat="50.201298" lon="27.013794">
        <ele>271.183322</ele>
        <time>2019-06-07T10:34:08.000Z</time>
      </trkpt>
      <trkpt lat="50.201206" lon="27.013900">
        <ele>271.451879</ele>
        <time>2019-06-07T10:34:11.000Z</time>
      </trkpt>
      <trkpt lat="50.201115" lon="27.014020">
        <ele>271.731643</ele>
        <time>2019-06-07T10:34:14.000Z</time>
      </trkpt>
      <trkpt lat="50.201030" lon="27.014141">
        <ele>272.001800</ele>
        <time>2019-06-07T10:34:17.000Z</time>
      </trkpt>
      <trkpt lat="50.200940" lon="27.014260">
        <ele>272.278800</ele>
        <time>2019-06-07T10:34:20.000Z</time>
      </trkpt>
      <trkpt lat="50.200848" lon="27.014368">
        <ele>272.549154</ele>
        <time>2019-06-07T10:34:23.000Z</time>
      </trkpt>
      <trkpt lat="50.200750" lon="27.014488">
        <ele>272.841678</ele>
        <time>2019-06-07T10:34:26.000Z</time>
      </trkpt>
      <trkpt lat="50.200657" lon="27.014605">
        <ele>273.122198</ele>
        <time>2019-06-07T10:34:29.000Z</time>
      </trkpt>
      <trkpt lat="50.200565" lon="27.014720">
        <ele>273.399004</ele>
        <time>2019-06-07T10:34:32.000Z</time>
      </trkpt>
      <trkpt lat="50.200480" lon="27.014822">
        <ele>273.650806</ele>
        <time>2019-06-07T10:34:35.000Z</time>
      </trkpt>
      <trkpt lat="50.200390" lon="27.014927">
        <ele>273.914696</ele>
        <time>2019-06-07T10:34:38.000Z</time>
      </trkpt>
      <trkpt lat="50.200302" lon="27.015036">
        <ele>274.178530</ele>
        <time>2019-06-07T10:34:41.000Z</time>
      </trkpt>
      <trkpt lat="50.200220" lon="27.015123">
        <ele>274.411399</ele>
        <time>2019-06-07T10:34:44.000Z</time>
      </trkpt>
      <trkpt lat="50.200123" lon="27.015230">
        <ele>274.564774</ele>
        <time>2019-06-07T10:34:47.000Z</time>
      </trkpt>
      <trkpt lat="50.200040" lon="27.015337">
        <ele>274.663275</ele>
        <time>2019-06-07T10:34:50.000Z</time>
      </trkpt>
      <trkpt lat="50.199955" lon="27.015453">
        <ele>274.766584</ele>
        <time>2019-06-07T10:34:53.000Z</time>
      </trkpt>
      <trkpt lat="50.199867" lon="27.015553">
        <ele>274.866190</ele>
        <time>2019-06-07T10:34:56.000Z</time>
      </trkpt>
      <trkpt lat="50.199770" lon="27.015656">
        <ele>274.973546</ele>
        <time>2019-06-07T10:34:59.000Z</time>
      </trkpt>
      <trkpt lat="50.199688" lon="27.015774">
        <ele>275.075594</ele>
        <time>2019-06-07T10:35:02.000Z</time>
      </trkpt>
      <trkpt lat="50.199610" lon="27.015896">
        <ele>275.176625</ele>
        <time>2019-06-07T10:35:05.000Z</time>
      </trkpt>
      <trkpt lat="50.199528" lon="27.016018">
        <ele>275.280275</ele>
        <time>2019-06-07T10:35:08.000Z</time>
      </trkpt>
      <trkpt lat="50.199436" lon="27.016127">
        <ele>275.385965</ele>
        <time>2019-06-07T10:35:11.000Z</time>
      </trkpt>
      <trkpt lat="50.199350" lon="27.016245">
        <ele>275.490735</ele>
        <time>2019-06-07T10:35:14.000Z</time>
      </trkpt>
      <trkpt lat="50.199260" lon="27.016360">
        <ele>275.597163</ele>
        <time>2019-06-07T10:35:17.000Z</time>
      </trkpt>
      <trkpt lat="50.199177" lon="27.016462">
        <ele>275.693826</ele>
        <time>2019-06-07T10:35:20.000Z</time>
      </trkpt>
      <trkpt lat="50.199093" lon="27.016567">
        <ele>275.792298</ele>
        <time>2019-06-07T10:35:23.000Z</time>
      </trkpt>
      <trkpt lat="50.199017" lon="27.016660">
        <ele>275.880665</ele>
        <time>2019-06-07T10:35:26.000Z</time>
      </trkpt>
      <trkpt lat="50.198920" lon="27.016783">
        <ele>275.995021</ele>
        <time>2019-06-07T10:35:29.000Z</time>
      </trkpt>
      <trkpt lat="50.198850" lon="27.016872">
        <ele>276.077633</ele>
        <time>2019-06-07T10:35:31.000Z</time>
      </trkpt>
      <trkpt lat="50.198772" lon="27.016966">
        <ele>275.964906</ele>
        <time>2019-06-07T10:35:33.000Z</time>
      </trkpt>
      <trkpt lat="50.198700" lon="27.017075">
        <ele>275.551115</ele>
        <time>2019-06-07T10:35:35.000Z</time>
      </trkpt>
      <trkpt lat="50.198616" lon="27.017185">
        <ele>275.098746</ele>
        <time>2019-06-07T10:35:37.000Z</time>
      </trkpt>
      <trkpt lat="50.198524" lon="27.017302">
        <ele>274.609143</ele>
        <time>2019-06-07T10:35:39.000Z</time>
      </trkpt>
      <trkpt lat="50.198425" lon="27.017426">
        <ele>274.085446</ele>
        <time>2019-06-07T10:35:41.000Z</time>
      </trkpt>
      <trkpt lat="50.198322" lon="27.017557">
        <ele>273.537284</ele>
        <time>2019-06-07T10:35:43.000Z</time>
      </trkpt>
      <trkpt lat="50.198220" lon="27.017693">
        <ele>272.983834</ele>
        <time>2019-06-07T10:35:45.000Z</time>
      </trkpt>
      <trkpt lat="50.198116" lon="27.017824">
        <ele>272.432465</ele>
        <time>2019-06-07T10:35:47.000Z</time>
      </trkpt>
      <trkpt lat="50.198013" lon="27.017960">
        <ele>271.875868</ele>
        <time>2019-06-07T10:35:49.000Z</time>
      </trkpt>
      <trkpt lat="50.197914" lon="27.018105">
        <ele>271.315787</ele>
        <time>2019-06-07T10:35:51.000Z</time>
      </trkpt>
      <trkpt lat="50.197807" lon="27.018238">
        <ele>270.751450</ele>
        <time>2019-06-07T10:35:53.000Z</time>
      </trkpt>
      <trkpt lat="50.197700" lon="27.018364">
        <ele>270.198438</ele>
        <time>2019-06-07T10:35:55.000Z</time>
      </trkpt>
      <trkpt lat="50.197594" lon="27.018515">
        <ele>269.606382</ele>
        <time>2019-06-07T10:35:57.000Z</time>
      </trkpt>
      <trkpt lat="50.197490" lon="27.018656">
        <ele>269.038054</ele>
        <time>2019-06-07T10:35:59.000Z</time>
      </trkpt>
      <trkpt lat="50.197380" lon="27.018793">
        <ele>268.546311</ele>
        <time>2019-06-07T10:36:01.000Z</time>
      </trkpt>
      <trkpt lat="50.197270" lon="27.018927">
        <ele>268.174986</ele>
        <time>2019-06-07T10:36:03.000Z</time>
      </trkpt>
      <trkpt lat="50.197150" lon="27.019072">
        <ele>267.771138</ele>
        <time>2019-06-07T10:36:05.000Z</time>
      </trkpt>
      <trkpt lat="50.197037" lon="27.019217">
        <ele>267.381863</ele>
        <time>2019-06-07T10:36:07.000Z</time>
      </trkpt>
      <trkpt lat="50.196922" lon="27.019352">
        <ele>266.998931</ele>
        <time>2019-06-07T10:36:09.000Z</time>
      </trkpt>
      <trkpt lat="50.196810" lon="27.019503">
        <ele>266.605105</ele>
        <time>2019-06-07T10:36:11.000Z</time>
      </trkpt>
      <trkpt lat="50.196700" lon="27.019657">
        <ele>266.211900</ele>
        <time>2019-06-07T10:36:13.000Z</time>
      </trkpt>
      <trkpt lat="50.196598" lon="27.019802">
        <ele>265.844779</ele>
        <time>2019-06-07T10:36:15.000Z</time>
      </trkpt>
      <trkpt lat="50.196495" lon="27.019950">
        <ele>265.472242</ele>
        <time>2019-06-07T10:36:17.000Z</time>
      </trkpt>
      <trkpt lat="50.196396" lon="27.020088">
        <ele>265.119038</ele>
        <time>2019-06-07T10:36:19.000Z</time>
      </trkpt>
      <trkpt lat="50.196300" lon="27.020231">
        <ele>264.765926</ele>
        <time>2019-06-07T10:36:21.000Z</time>
      </trkpt>
      <trkpt lat="50.196213" lon="27.020390">
        <ele>264.409487</ele>
        <time>2019-06-07T10:36:23.000Z</time>
      </trkpt>
      <trkpt lat="50.196130" lon="27.020544">
        <ele>264.066433</ele>
        <time>2019-06-07T10:36:25.000Z</time>
      </trkpt>
      <trkpt lat="50.196056" lon="27.020700">
        <ele>263.812834</ele>
        <time>2019-06-07T10:36:27.000Z</time>
      </trkpt>
      <trkpt lat="50.195990" lon="27.020855">
        <ele>263.628637</ele>
        <time>2019-06-07T10:36:29.000Z</time>
      </trkpt>
      <trkpt lat="50.195930" lon="27.021006">
        <ele>263.452785</ele>
        <time>2019-06-07T10:36:31.000Z</time>
      </trkpt>
      <trkpt lat="50.195866" lon="27.021156">
        <ele>263.274419</ele>
        <time>2019-06-07T10:36:33.000Z</time>
      </trkpt>
      <trkpt lat="50.195805" lon="27.021315">
        <ele>263.091003</ele>
        <time>2019-06-07T10:36:35.000Z</time>
      </trkpt>
      <trkpt lat="50.195755" lon="27.021475">
        <ele>262.914831</ele>
        <time>2019-06-07T10:36:37.000Z</time>
      </trkpt>
      <trkpt lat="50.195705" lon="27.021635">
        <ele>262.738658</ele>
        <time>2019-06-07T10:36:39.000Z</time>
      </trkpt>
      <trkpt lat="50.195663" lon="27.021797">
        <ele>262.565716</ele>
        <time>2019-06-07T10:36:41.000Z</time>
      </trkpt>
      <trkpt lat="50.195618" lon="27.021948">
        <ele>262.400908</ele>
        <time>2019-06-07T10:36:43.000Z</time>
      </trkpt>
      <trkpt lat="50.195580" lon="27.022097">
        <ele>262.242207</ele>
        <time>2019-06-07T10:36:45.000Z</time>
      </trkpt>
      <trkpt lat="50.195530" lon="27.022251">
        <ele>262.071349</ele>
        <time>2019-06-07T10:36:47.000Z</time>
      </trkpt>
      <trkpt lat="50.195473" lon="27.022406">
        <ele>261.894475</ele>
        <time>2019-06-07T10:36:49.000Z</time>
      </trkpt>
      <trkpt lat="50.195423" lon="27.022581">
        <ele>261.704852</ele>
        <time>2019-06-07T10:36:51.000Z</time>
      </trkpt>
      <trkpt lat="50.195380" lon="27.022747">
        <ele>261.527660</ele>
        <time>2019-06-07T10:36:53.000Z</time>
      </trkpt>
      <trkpt lat="50.195328" lon="27.022924">
        <ele>261.334959</ele>
        <time>2019-06-07T10:36:55.000Z</time>
      </trkpt>
      <trkpt lat="50.195270" lon="27.023100">
        <ele>261.139945</ele>
        <time>2019-06-07T10:36:57.000Z</time>
      </trkpt>
      <trkpt lat="50.195213" lon="27.023273">
        <ele>261.201594</ele>
        <time>2019-06-07T10:36:59.000Z</time>
      </trkpt>
      <trkpt lat="50.195168" lon="27.023436">
        <ele>261.257838</ele>
        <time>2019-06-07T10:37:01.000Z</time>
      </trkpt>
      <trkpt lat="50.195118" lon="27.023590">
        <ele>261.312550</ele>
        <time>2019-06-07T10:37:03.000Z</time>
      </trkpt>
      <trkpt lat="50.195072" lon="27.023733">
        <ele>261.363258</ele>
        <time>2019-06-07T10:37:05.000Z</time>
      </trkpt>
      <trkpt lat="50.195023" lon="27.023876">
        <ele>261.414651</ele>
        <time>2019-06-07T10:37:07.000Z</time>
      </trkpt>
      <trkpt lat="50.194977" lon="27.024040">
        <ele>261.471383</ele>
        <time>2019-06-07T10:37:09.000Z</time>
      </trkpt>
      <trkpt lat="50.194927" lon="27.024199">
        <ele>261.527513</ele>
        <time>2019-06-07T10:37:11.000Z</time>
      </trkpt>
      <trkpt lat="50.194878" lon="27.024360">
        <ele>261.583998</ele>
        <time>2019-06-07T10:37:13.000Z</time>
      </trkpt>
      <trkpt lat="50.194828" lon="27.024525">
        <ele>261.641840</ele>
        <time>2019-06-07T10:37:15.000Z</time>
      </trkpt>
      <trkpt lat="50.194780" lon="27.024685">
        <ele>261.697827</ele>
        <time>2019-06-07T10:37:17.000Z</time>
      </trkpt>
      <trkpt lat="50.194730" lon="27.024847">
        <ele>261.754811</ele>
        <time>2019-06-07T10:37:19.000Z</time>
      </trkpt>
      <trkpt lat="50.194670" lon="27.025017">
        <ele>261.816320</ele>
        <time>2019-06-07T10:37:21.000Z</time>
      </trkpt>
      <trkpt lat="50.194620" lon="27.025188">
        <ele>261.875886</ele>
        <time>2019-06-07T10:37:23.000Z</time>
      </trkpt>
      <trkpt lat="50.194560" lon="27.025347">
        <ele>261.934367</ele>
        <time>2019-06-07T10:37:25.000Z</time>
      </trkpt>
      <trkpt lat="50.194504" lon="27.025494">
        <ele>261.988568</ele>
        <time>2019-06-07T10:37:27.000Z</time>
      </trkpt>
      <trkpt lat="50.194458" lon="27.025633">
        <ele>262.056774</ele>
        <time>2019-06-07T10:37:29.000Z</time>
      </trkpt>
      <trkpt lat="50.194410" lon="27.025827">
        <ele>262.272718</ele>
        <time>2019-06-07T10:37:32.000Z</time>
      </trkpt>
      <trkpt lat="50.194370" lon="27.025969">
        <ele>262.433793</ele>
        <time>2019-06-07T10:37:34.000Z</time>
      </trkpt>
      <trkpt lat="50.194332" lon="27.026102">
        <ele>262.585012</ele>
        <time>2019-06-07T10:37:36.000Z</time>
      </trkpt>
      <trkpt lat="50.194294" lon="27.026241">
        <ele>262.741939</ele>
        <time>2019-06-07T10:37:38.000Z</time>
      </trkpt>
      <trkpt lat="50.194256" lon="27.026373">
        <ele>262.892210</ele>
        <time>2019-06-07T10:37:40.000Z</time>
      </trkpt>
      <trkpt lat="50.194214" lon="27.026525">
        <ele>263.064100</ele>
        <time>2019-06-07T10:37:42.000Z</time>
      </trkpt>
      <trkpt lat="50.194176" lon="27.026663">
        <ele>263.220074</ele>
        <time>2019-06-07T10:37:44.000Z</time>
      </trkpt>
      <trkpt lat="50.194134" lon="27.026802">
        <ele>263.379661</ele>
        <time>2019-06-07T10:37:46.000Z</time>
      </trkpt>
      <trkpt lat="50.194084" lon="27.026941">
        <ele>263.545203</ele>
        <time>2019-06-07T10:37:48.000Z</time>
      </trkpt>
      <trkpt lat="50.194040" lon="27.027084">
        <ele>263.709935</ele>
        <time>2019-06-07T10:37:50.000Z</time>
      </trkpt>
      <trkpt lat="50.193993" lon="27.027225">
        <ele>263.874987</ele>
        <time>2019-06-07T10:37:52.000Z</time>
      </trkpt>
      <trkpt lat="50.193950" lon="27.027367">
        <ele>264.038084</ele>
        <time>2019-06-07T10:37:54.000Z</time>
      </trkpt>
      <trkpt lat="50.193913" lon="27.027504">
        <ele>264.192468</ele>
        <time>2019-06-07T10:37:56.000Z</time>
      </trkpt>
      <trkpt lat="50.193874" lon="27.027640">
        <ele>264.347193</ele>
        <time>2019-06-07T10:37:58.000Z</time>
      </trkpt>
      <trkpt lat="50.193832" lon="27.027771">
        <ele>264.499311</ele>
        <time>2019-06-07T10:38:00.000Z</time>
      </trkpt>
      <trkpt lat="50.193794" lon="27.027906">
        <ele>264.652429</ele>
        <time>2019-06-07T10:38:02.000Z</time>
      </trkpt>
      <trkpt lat="50.193760" lon="27.028044">
        <ele>264.805956</ele>
        <time>2019-06-07T10:38:04.000Z</time>
      </trkpt>
      <trkpt lat="50.193720" lon="27.028187">
        <ele>264.943691</ele>
        <time>2019-06-07T10:38:06.000Z</time>
      </trkpt>
      <trkpt lat="50.193676" lon="27.028316">
        <ele>264.919335</ele>
        <time>2019-06-07T10:38:08.000Z</time>
      </trkpt>
      <trkpt lat="50.193620" lon="27.028502">
        <ele>264.885085</ele>
        <time>2019-06-07T10:38:11.000Z</time>
      </trkpt>
      <trkpt lat="50.193577" lon="27.028631">
        <ele>264.860850</ele>
        <time>2019-06-07T10:38:13.000Z</time>
      </trkpt>
      <trkpt lat="50.193530" lon="27.028800">
        <ele>264.830147</ele>
        <time>2019-06-07T10:38:16.000Z</time>
      </trkpt>
      <trkpt lat="50.193480" lon="27.028978">
        <ele>264.797757</ele>
        <time>2019-06-07T10:38:19.000Z</time>
      </trkpt>
      <trkpt lat="50.193428" lon="27.029152">
        <ele>264.765760</ele>
        <time>2019-06-07T10:38:22.000Z</time>
      </trkpt>
      <trkpt lat="50.193390" lon="27.029322">
        <ele>264.735755</ele>
        <time>2019-06-07T10:38:25.000Z</time>
      </trkpt>
      <trkpt lat="50.193340" lon="27.029493">
        <ele>264.704430</ele>
        <time>2019-06-07T10:38:28.000Z</time>
      </trkpt>
      <trkpt lat="50.193290" lon="27.029660">
        <ele>264.673709</ele>
        <time>2019-06-07T10:38:31.000Z</time>
      </trkpt>
      <trkpt lat="50.193240" lon="27.029829">
        <ele>264.642686</ele>
        <time>2019-06-07T10:38:34.000Z</time>
      </trkpt>
      <trkpt lat="50.193188" lon="27.030008">
        <ele>264.609932</ele>
        <time>2019-06-07T10:38:37.000Z</time>
      </trkpt>
      <trkpt lat="50.193150" lon="27.030138">
        <ele>264.586118</ele>
        <time>2019-06-07T10:38:39.000Z</time>
      </trkpt>
      <trkpt lat="50.193096" lon="27.030323">
        <ele>264.552238</ele>
        <time>2019-06-07T10:38:42.000Z</time>
      </trkpt>
      <trkpt lat="50.193030" lon="27.030512">
        <ele>264.516364</ele>
        <time>2019-06-07T10:38:45.000Z</time>
      </trkpt>
      <trkpt lat="50.192993" lon="27.030642">
        <ele>264.492657</ele>
        <time>2019-06-07T10:38:47.000Z</time>
      </trkpt>
      <trkpt lat="50.192932" lon="27.030823">
        <ele>264.478478</ele>
        <time>2019-06-07T10:38:50.000Z</time>
      </trkpt>
      <trkpt lat="50.192894" lon="27.030952">
        <ele>264.477993</ele>
        <time>2019-06-07T10:38:52.000Z</time>
      </trkpt>
      <trkpt lat="50.192856" lon="27.031086">
        <ele>264.477492</ele>
        <time>2019-06-07T10:38:54.000Z</time>
      </trkpt>
      <trkpt lat="50.192790" lon="27.031265">
        <ele>264.476787</ele>
        <time>2019-06-07T10:38:57.000Z</time>
      </trkpt>
      <trkpt lat="50.192738" lon="27.031384">
        <ele>264.476295</ele>
        <time>2019-06-07T10:38:59.000Z</time>
      </trkpt>
      <trkpt lat="50.192670" lon="27.031567">
        <ele>264.475572</ele>
        <time>2019-06-07T10:39:02.000Z</time>
      </trkpt>
      <trkpt lat="50.192616" lon="27.031754">
        <ele>264.474871</ele>
        <time>2019-06-07T10:39:05.000Z</time>
      </trkpt>
      <trkpt lat="50.192554" lon="27.031939">
        <ele>264.474158</ele>
        <time>2019-06-07T10:39:08.000Z</time>
      </trkpt>
      <trkpt lat="50.192500" lon="27.032118">
        <ele>264.473482</ele>
        <time>2019-06-07T10:39:11.000Z</time>
      </trkpt>
      <trkpt lat="50.192448" lon="27.032291">
        <ele>264.472829</ele>
        <time>2019-06-07T10:39:14.000Z</time>
      </trkpt>
      <trkpt lat="50.192390" lon="27.032478">
        <ele>264.472119</ele>
        <time>2019-06-07T10:39:17.000Z</time>
      </trkpt>
      <trkpt lat="50.192340" lon="27.032670">
        <ele>264.471411</ele>
        <time>2019-06-07T10:39:20.000Z</time>
      </trkpt>
      <trkpt lat="50.192284" lon="27.032860">
        <ele>264.470696</ele>
        <time>2019-06-07T10:39:23.000Z</time>
      </trkpt>
      <trkpt lat="50.192230" lon="27.033052">
        <ele>264.469980</ele>
        <time>2019-06-07T10:39:26.000Z</time>
      </trkpt>
      <trkpt lat="50.192184" lon="27.033237">
        <ele>264.469302</ele>
        <time>2019-06-07T10:39:29.000Z</time>
      </trkpt>
      <trkpt lat="50.192140" lon="27.033363">
        <ele>264.537228</ele>
        <time>2019-06-07T10:39:31.000Z</time>
      </trkpt>
      <trkpt lat="50.192093" lon="27.033537">
        <ele>264.627463</ele>
        <time>2019-06-07T10:39:34.000Z</time>
      </trkpt>
      <trkpt lat="50.192047" lon="27.033693">
        <ele>264.709526</ele>
        <time>2019-06-07T10:39:37.000Z</time>
      </trkpt>
      <trkpt lat="50.192000" lon="27.033855">
        <ele>264.794508</ele>
        <time>2019-06-07T10:39:40.000Z</time>
      </trkpt>
      <trkpt lat="50.191956" lon="27.034016">
        <ele>264.878150</ele>
        <time>2019-06-07T10:39:43.000Z</time>
      </trkpt>
      <trkpt lat="50.191906" lon="27.034178">
        <ele>264.964080</ele>
        <time>2019-06-07T10:39:46.000Z</time>
      </trkpt>
      <trkpt lat="50.191856" lon="27.034317">
        <ele>265.040261</ele>
        <time>2019-06-07T10:39:49.000Z</time>
      </trkpt>
      <trkpt lat="50.191803" lon="27.034466">
        <ele>265.121705</ele>
        <time>2019-06-07T10:39:52.000Z</time>
      </trkpt>
      <trkpt lat="50.191753" lon="27.034622">
        <ele>265.205062</ele>
        <time>2019-06-07T10:39:55.000Z</time>
      </trkpt>
      <trkpt lat="50.191710" lon="27.034782">
        <ele>265.287974</ele>
        <time>2019-06-07T10:39:58.000Z</time>
      </trkpt>
      <trkpt lat="50.191660" lon="27.034933">
        <ele>265.369202</ele>
        <time>2019-06-07T10:40:01.000Z</time>
      </trkpt>
      <trkpt lat="50.191605" lon="27.035095">
        <ele>265.456817</ele>
        <time>2019-06-07T10:40:04.000Z</time>
      </trkpt>
      <trkpt lat="50.191566" lon="27.035261">
        <ele>265.541306</ele>
        <time>2019-06-07T10:40:07.000Z</time>
      </trkpt>
      <trkpt lat="50.191525" lon="27.035410">
        <ele>265.618797</ele>
        <time>2019-06-07T10:40:11.000Z</time>
      </trkpt>
      <trkpt lat="50.191444" lon="27.035631">
        <ele>265.740473</ele>
        <time>2019-06-07T10:40:37.000Z</time>
      </trkpt>
      <trkpt lat="50.191402" lon="27.035776">
        <ele>265.817590</ele>
        <time>2019-06-07T10:40:40.000Z</time>
      </trkpt>
      <trkpt lat="50.191353" lon="27.035944">
        <ele>265.925301</ele>
        <time>2019-06-07T10:40:43.000Z</time>
      </trkpt>
      <trkpt lat="50.191322" lon="27.036077">
        <ele>266.007881</ele>
        <time>2019-06-07T10:40:45.000Z</time>
      </trkpt>
      <trkpt lat="50.191284" lon="27.036210">
        <ele>266.092855</ele>
        <time>2019-06-07T10:40:47.000Z</time>
      </trkpt>
      <trkpt lat="50.191230" lon="27.036383">
        <ele>266.205148</ele>
        <time>2019-06-07T10:40:50.000Z</time>
      </trkpt>
      <trkpt lat="50.191193" lon="27.036516">
        <ele>266.289756</ele>
        <time>2019-06-07T10:40:52.000Z</time>
      </trkpt>
      <trkpt lat="50.191154" lon="27.036650">
        <ele>266.375636</ele>
        <time>2019-06-07T10:40:54.000Z</time>
      </trkpt>
      <trkpt lat="50.191120" lon="27.036780">
        <ele>266.457569</ele>
        <time>2019-06-07T10:40:56.000Z</time>
      </trkpt>
      <trkpt lat="50.191067" lon="27.036976">
        <ele>266.581706</ele>
        <time>2019-06-07T10:40:59.000Z</time>
      </trkpt>
      <trkpt lat="50.190998" lon="27.037157">
        <ele>266.704612</ele>
        <time>2019-06-07T10:41:02.000Z</time>
      </trkpt>
      <trkpt lat="50.190956" lon="27.037292">
        <ele>266.792185</ele>
        <time>2019-06-07T10:41:04.000Z</time>
      </trkpt>
      <trkpt lat="50.190914" lon="27.037434">
        <ele>266.883448</ele>
        <time>2019-06-07T10:41:06.000Z</time>
      </trkpt>
      <trkpt lat="50.190872" lon="27.037577">
        <ele>266.975242</ele>
        <time>2019-06-07T10:41:08.000Z</time>
      </trkpt>
      <trkpt lat="50.190830" lon="27.037720">
        <ele>267.067035</ele>
        <time>2019-06-07T10:41:10.000Z</time>
      </trkpt>
      <trkpt lat="50.190784" lon="27.037859">
        <ele>267.158328</ele>
        <time>2019-06-07T10:41:12.000Z</time>
      </trkpt>
      <trkpt lat="50.190742" lon="27.038004">
        <ele>267.251184</ele>
        <time>2019-06-07T10:41:14.000Z</time>
      </trkpt>
      <trkpt lat="50.190700" lon="27.038141">
        <ele>267.339808</ele>
        <time>2019-06-07T10:41:16.000Z</time>
      </trkpt>
      <trkpt lat="50.190660" lon="27.038279">
        <ele>267.428191</ele>
        <time>2019-06-07T10:41:18.000Z</time>
      </trkpt>
      <trkpt lat="50.190617" lon="27.038410">
        <ele>267.626161</ele>
        <time>2019-06-07T10:41:20.000Z</time>
      </trkpt>
      <trkpt lat="50.190582" lon="27.038550">
        <ele>267.869095</ele>
        <time>2019-06-07T10:41:22.000Z</time>
      </trkpt>
      <trkpt lat="50.190550" lon="27.038687">
        <ele>268.104816</ele>
        <time>2019-06-07T10:41:24.000Z</time>
      </trkpt>
      <trkpt lat="50.190525" lon="27.038822">
        <ele>268.331972</ele>
        <time>2019-06-07T10:41:26.000Z</time>
      </trkpt>
      <trkpt lat="50.190480" lon="27.039011">
        <ele>268.657910</ele>
        <time>2019-06-07T10:41:29.000Z</time>
      </trkpt>
      <trkpt lat="50.190422" lon="27.039186">
        <ele>268.976432</ele>
        <time>2019-06-07T10:41:32.000Z</time>
      </trkpt>
      <trkpt lat="50.190376" lon="27.039368">
        <ele>269.292708</ele>
        <time>2019-06-07T10:41:35.000Z</time>
      </trkpt>
      <trkpt lat="50.190315" lon="27.039540">
        <ele>269.610532</ele>
        <time>2019-06-07T10:41:38.000Z</time>
      </trkpt>
      <trkpt lat="50.190250" lon="27.039720">
        <ele>269.944572</ele>
        <time>2019-06-07T10:41:41.000Z</time>
      </trkpt>
      <trkpt lat="50.190174" lon="27.039867">
        <ele>270.249980</ele>
        <time>2019-06-07T10:41:44.000Z</time>
      </trkpt>
      <trkpt lat="50.190094" lon="27.039928">
        <ele>270.474736</ele>
        <time>2019-06-07T10:41:47.000Z</time>
      </trkpt>
      <trkpt lat="50.190018" lon="27.040068">
        <ele>270.771428</ele>
        <time>2019-06-07T10:41:51.000Z</time>
      </trkpt>
      <trkpt lat="50.189915" lon="27.040163">
        <ele>271.073423</ele>
        <time>2019-06-07T10:41:55.000Z</time>
      </trkpt>
      <trkpt lat="50.189827" lon="27.040276">
        <ele>271.361038</ele>
        <time>2019-06-07T10:41:58.000Z</time>
      </trkpt>
      <trkpt lat="50.189747" lon="27.040380">
        <ele>271.623817</ele>
        <time>2019-06-07T10:42:01.000Z</time>
      </trkpt>
      <trkpt lat="50.189650" lon="27.040472">
        <ele>271.910326</ele>
        <time>2019-06-07T10:42:04.000Z</time>
      </trkpt>
      <trkpt lat="50.189537" lon="27.040567">
        <ele>272.001981</ele>
        <time>2019-06-07T10:42:07.000Z</time>
      </trkpt>
      <trkpt lat="50.189400" lon="27.040630">
        <ele>272.017187</ele>
        <time>2019-06-07T10:42:10.000Z</time>
      </trkpt>
      <trkpt lat="50.189310" lon="27.040691">
        <ele>272.027634</ele>
        <time>2019-06-07T10:42:12.000Z</time>
      </trkpt>
      <trkpt lat="50.189217" lon="27.040733">
        <ele>272.037942</ele>
        <time>2019-06-07T10:42:14.000Z</time>
      </trkpt>
      <trkpt lat="50.189125" lon="27.040764">
        <ele>272.047964</ele>
        <time>2019-06-07T10:42:16.000Z</time>
      </trkpt>
      <trkpt lat="50.189022" lon="27.040783">
        <ele>272.059007</ele>
        <time>2019-06-07T10:42:18.000Z</time>
      </trkpt>
      <trkpt lat="50.188923" lon="27.040808">
        <ele>272.069686</ele>
        <time>2019-06-07T10:42:20.000Z</time>
      </trkpt>
      <trkpt lat="50.188824" lon="27.040813">
        <ele>272.080233</ele>
        <time>2019-06-07T10:42:22.000Z</time>
      </trkpt>
      <trkpt lat="50.188730" lon="27.040808">
        <ele>272.090247</ele>
        <time>2019-06-07T10:42:24.000Z</time>
      </trkpt>
      <trkpt lat="50.188633" lon="27.040796">
        <ele>272.100608</ele>
        <time>2019-06-07T10:42:26.000Z</time>
      </trkpt>
      <trkpt lat="50.188540" lon="27.040790">
        <ele>272.110519</ele>
        <time>2019-06-07T10:42:28.000Z</time>
      </trkpt>
      <trkpt lat="50.188450" lon="27.040768">
        <ele>272.120219</ele>
        <time>2019-06-07T10:42:30.000Z</time>
      </trkpt>
      <trkpt lat="50.188360" lon="27.040730">
        <ele>272.130146</ele>
        <time>2019-06-07T10:42:32.000Z</time>
      </trkpt>
      <trkpt lat="50.188190" lon="27.040657">
        <ele>272.148919</ele>
        <time>2019-06-07T10:42:36.000Z</time>
      </trkpt>
      <trkpt lat="50.188103" lon="27.040606">
        <ele>272.158814</ele>
        <time>2019-06-07T10:42:38.000Z</time>
      </trkpt>
      <trkpt lat="50.187996" lon="27.040554">
        <ele>272.170746</ele>
        <time>2019-06-07T10:42:40.000Z</time>
      </trkpt>
      <trkpt lat="50.187885" lon="27.040491">
        <ele>272.182755</ele>
        <time>2019-06-07T10:42:42.000Z</time>
      </trkpt>
      <trkpt lat="50.187775" lon="27.040430">
        <ele>272.062263</ele>
        <time>2019-06-07T10:42:44.000Z</time>
      </trkpt>
      <trkpt lat="50.187656" lon="27.040377">
        <ele>271.934530</ele>
        <time>2019-06-07T10:42:46.000Z</time>
      </trkpt>
      <trkpt lat="50.187534" lon="27.040314">
        <ele>271.801892</ele>
        <time>2019-06-07T10:42:48.000Z</time>
      </trkpt>
      <trkpt lat="50.187416" lon="27.040260">
        <ele>271.674967</ele>
        <time>2019-06-07T10:42:50.000Z</time>
      </trkpt>
      <trkpt lat="50.187294" lon="27.040180">
        <ele>271.538384</ele>
        <time>2019-06-07T10:42:52.000Z</time>
      </trkpt>
      <trkpt lat="50.187164" lon="27.040115">
        <ele>271.397484</ele>
        <time>2019-06-07T10:42:54.000Z</time>
      </trkpt>
      <trkpt lat="50.187040" lon="27.040047">
        <ele>271.261826</ele>
        <time>2019-06-07T10:42:56.000Z</time>
      </trkpt>
      <trkpt lat="50.186916" lon="27.039982">
        <ele>271.126811</ele>
        <time>2019-06-07T10:42:58.000Z</time>
      </trkpt>
      <trkpt lat="50.186806" lon="27.039923">
        <ele>271.006756</ele>
        <time>2019-06-07T10:43:00.000Z</time>
      </trkpt>
      <trkpt lat="50.186703" lon="27.039860">
        <ele>270.892572</ele>
        <time>2019-06-07T10:43:02.000Z</time>
      </trkpt>
      <trkpt lat="50.186596" lon="27.039795">
        <ele>270.774062</ele>
        <time>2019-06-07T10:43:04.000Z</time>
      </trkpt>
      <trkpt lat="50.186480" lon="27.039726">
        <ele>270.645932</ele>
        <time>2019-06-07T10:43:06.000Z</time>
      </trkpt>
      <trkpt lat="50.186370" lon="27.039650">
        <ele>270.521771</ele>
        <time>2019-06-07T10:43:08.000Z</time>
      </trkpt>
      <trkpt lat="50.186268" lon="27.039574">
        <ele>270.405114</ele>
        <time>2019-06-07T10:43:10.000Z</time>
      </trkpt>
      <trkpt lat="50.186170" lon="27.039505">
        <ele>270.297891</ele>
        <time>2019-06-07T10:43:12.000Z</time>
      </trkpt>
      <trkpt lat="50.186073" lon="27.039438">
        <ele>270.201013</ele>
        <time>2019-06-07T10:43:14.000Z</time>
      </trkpt>
      <trkpt lat="50.185986" lon="27.039387">
        <ele>270.116134</ele>
        <time>2019-06-07T10:43:16.000Z</time>
      </trkpt>
      <trkpt lat="50.185867" lon="27.039333">
        <ele>270.002945</ele>
        <time>2019-06-07T10:43:19.000Z</time>
      </trkpt>
      <trkpt lat="50.185760" lon="27.039248">
        <ele>269.893295</ele>
        <time>2019-06-07T10:43:22.000Z</time>
      </trkpt>
      <trkpt lat="50.185658" lon="27.039175">
        <ele>269.790812</ele>
        <time>2019-06-07T10:43:25.000Z</time>
      </trkpt>
      <trkpt lat="50.185540" lon="27.039106">
        <ele>269.675725</ele>
        <time>2019-06-07T10:43:28.000Z</time>
      </trkpt>
      <trkpt lat="50.185432" lon="27.039062">
        <ele>269.573777</ele>
        <time>2019-06-07T10:43:31.000Z</time>
      </trkpt>
      <trkpt lat="50.185318" lon="27.039000">
        <ele>269.463516</ele>
        <time>2019-06-07T10:43:34.000Z</time>
      </trkpt>
      <trkpt lat="50.185196" lon="27.038939">
        <ele>269.346511</ele>
        <time>2019-06-07T10:43:37.000Z</time>
      </trkpt>
      <trkpt lat="50.185078" lon="27.038868">
        <ele>269.231007</ele>
        <time>2019-06-07T10:43:40.000Z</time>
      </trkpt>
      <trkpt lat="50.184963" lon="27.038816">
        <ele>269.121653</ele>
        <time>2019-06-07T10:43:43.000Z</time>
      </trkpt>
      <trkpt lat="50.184875" lon="27.038778">
        <ele>269.038258</ele>
        <time>2019-06-07T10:43:45.000Z</time>
      </trkpt>
      <trkpt lat="50.184784" lon="27.038725">
        <ele>268.949547</ele>
        <time>2019-06-07T10:43:47.000Z</time>
      </trkpt>
      <trkpt lat="50.184690" lon="27.038670">
        <ele>268.857860</ele>
        <time>2019-06-07T10:43:49.000Z</time>
      </trkpt>
      <trkpt lat="50.184600" lon="27.038626">
        <ele>268.771721</ele>
        <time>2019-06-07T10:43:51.000Z</time>
      </trkpt>
      <trkpt lat="50.184480" lon="27.038567">
        <ele>268.683766</ele>
        <time>2019-06-07T10:43:54.000Z</time>
      </trkpt>
      <trkpt lat="50.184364" lon="27.038483">
        <ele>268.683766</ele>
        <time>2019-06-07T10:43:57.000Z</time>
      </trkpt>
      <trkpt lat="50.184246" lon="27.038430">
        <ele>268.683766</ele>
        <time>2019-06-07T10:44:00.000Z</time>
      </trkpt>
      <trkpt lat="50.184124" lon="27.038364">
        <ele>268.683766</ele>
        <time>2019-06-07T10:44:03.000Z</time>
      </trkpt>
      <trkpt lat="50.184010" lon="27.038284">
        <ele>268.683766</ele>
        <time>2019-06-07T10:44:06.000Z</time>
      </trkpt>
      <trkpt lat="50.183910" lon="27.038216">
        <ele>268.683766</ele>
        <time>2019-06-07T10:44:09.000Z</time>
      </trkpt>
      <trkpt lat="50.183820" lon="27.038110">
        <ele>268.683766</ele>
        <time>2019-06-07T10:44:13.000Z</time>
      </trkpt>
      <trkpt lat="50.183773" lon="27.037949">
        <ele>268.683766</ele>
        <time>2019-06-07T10:44:17.000Z</time>
      </trkpt>
      <trkpt lat="50.183697" lon="27.037817">
        <ele>268.683766</ele>
        <time>2019-06-07T10:44:21.000Z</time>
      </trkpt>
    </trkseg>
  </trk>
</gpx>